Benutzer:Redrobsche/Schon gewusst/Gesamt

aus Wikipedia, der freien Enzyklopädie
Zur Navigation springen Zur Suche springen
Artikel Teaser B MT Datum1 WT Datum2 A1 A2 AG R1 R2 RG RR DR1 DR2 DRG DRR
Apulische Tarantel Historisch wurde der Biss der Apulischen Tarantel mit hysterischen Anfällen von Tanzwut bis zur völligen Erschöpfung in Verbindung gebracht. J 1 01.07.2015 Mi 02.07.2015 31148 7956 39104 104 27 66 26 141 107 124 76
Good Ship Venus Good Ship Venus beruht trotz seines obszönen Charakters wahrscheinlich auf einer wahren Begebenheit. N 1 01.07.2015 Mi 02.07.2015 38843 14888 53731 130 50 90 39 196 135 165 69
Wallfahrtskirche Maria Kulm Die Wallfahrtskirche Maria Kulm gehörte bis ins 20. Jahrhundert zu den meistbesuchten Wallfahrtskirchen der heutigen Tschechischen Republik. J 1 02.07.2015 Do 03.07.2015 5832 2748 8580 20 9 15 48 30 44 37 145
Wölfe (Roman) Der Roman Wölfe wurde als erster geglückter Einbruch des Hochmodernismus in den populären historischen Roman bezeichnet. N 1 02.07.2015 Do 03.07.2015 7963 4425 12388 27 15 21 57 50 57 53 115
Wettkrähen Beim Wettkrähen werden auch Langkräher eingesetzt. J 2 03.07.2015 Fr 04.07.2015 4601 1932 6533 16 7 12 45 24 46 35 191
Langkräher Beim Wettkrähen werden auch Langkräher eingesetzt. J 2 03.07.2015 Fr 04.07.2015 6442 1890 8332 22 7 15 32 34 45 39 133
Ummidia Quadratilla Als die theaterbegeisterte Römerin Ummidia Quadratilla im Sterben lag, kamen die Zuschauer zu ihr nach Hause, um Pantomimen vorzuführen. N 1 03.07.2015 Fr 04.07.2015 9885 3650 13535 34 14 24 40 78 90 84 116
Romney, Hythe and Dymchurch Railway Auf der Romney, Hythe and Dymchurch Railway verkehrte während des Zweiten Welt­kriegs der kleinste je gebaute Panzer­zug. J 1 04.07.2015 Sa 05.07.2015 18290 6297 24587 68 22 45 33 156 113 135 72
Milseburghütte Die Milseburghütte erlitt bereits zweimal einen Blitz­schlag an einem 4. Juli. N 1 04.07.2015 Sa 05.07.2015 7450 4898 12348 28 17 23 62 80 79 80 100
Victor Ritter von Tschusi zu Schmidhoffen Der Vogel­kundler Victor Ritter von Tschusi zu Schmidhoffen über­lebte nur mit Glück seine Hochzeits­reise. J 1 05.07.2015 So 06.07.2015 16500 17566 34066 58 57 58 98 140 150 145 108
Ratcliffe-Highway-Morde 75 Jahre nach den Ratcliffe-Highway-Morden wurde das Skelett des angeblichen Täters wieder­gefunden. N 1 05.07.2015 So 06.07.2015 14606 21087 35693 52 69 60 133 138 146 142 105
Burg Freudenstein (Jáchymov) Burg Freuden­stein half, den ertrag­reichen Silber­berg­bau der neu gegrün­deten Berg­stadt Sankt Joachims­thal zu sichern. J 1 06.07.2015 Mo 07.07.2015 14701 6874 21575 48 23 35 48 56 77 66 136
Berge in der Bibel Literarisch sind Berge in der Bibel Orte, wo sich verdichtete, konzen­trierte Geschehen abspielen. N 1 06.07.2015 Mo 07.07.2015 7424 6386 13810 24 21 23 88 57 91 74 160
Wensleydale (Schaf) Bluecap ist der Stammvater aller Wensleydales. J 1 07.07.2015 Di 08.07.2015 18292 5429 23721 61 18 40 30 73 60 67 83
Wilhelm Krüger (Veterinärmediziner) Der Veterinärmediziner Wilhelm Krüger wurde an der Universität Berlin auch „der vierbeinige Rektor“ genannt. N 1 07.07.2015 Di 08.07.2015 13140 6938 20078 44 23 34 53 71 74 72 105
New Vocabulary Das Album New Vocabulary des Jazzmusikers Ornette Coleman ist Gegenstand einer Unterlassungsklage. J 1 08.07.2015 Mi 09.07.2015 7527 2596 10123 25 9 17 34 34 35 34 102
Sun Vista Die Sun Vista war eines der größten Kreuzfahrtschiffe, die jemals sanken. N 1 08.07.2015 Mi 09.07.2015 34585 19130 53715 116 64 90 55 174 172 173 99
Salonwagen König Ludwigs II. von Bayern Mit dem Salonwagen König Ludwigs II. von Bayern wurde unter anderem der Schah von Persien befördert. J 1 09.07.2015 Do 10.07.2015 49800 8859 58659 166 31 99 18 255 142 198 56
Exposition internationale de la houille blanche Die 1925 auf der Exposition internationale de la houille blanche in Grenoble gezeigte Weiße Kohle sahen über eine Million Besucher. N 1 09.07.2015 Do 10.07.2015 12001 5823 17824 40 20 30 50 74 75 75 101
Langschwanzziesel Die Paarungszeit der Langschwanzziesel beginnt direkt nach dem Aufwachen der Weibchen aus dem Winterschlaf. J 1 10.07.2015 Fr 11.07.2015 7233 2342 9575 25 9 17 35 38 56 47 148
Alexander Mitchell Kellas Die Thesen des Chemikers Alexander Mitchell Kellas wurden mehr als ein halbes Jahrhundert später durch Reinhold Messners und Peter Habelers Besteigung des Mount Everest bestätigt. N 1 10.07.2015 Fr 11.07.2015 17817 5162 22979 62 19 41 32 141 129 135 92
Hauenstein Bergrennen Beim Hauenstein Bergrennen wird ein ganzes Dorf zum Fahrerlager. J 1 11.07.2015 Sa 12.07.2015 8464 4068 12532 32 14 23 45 73 73 73 99
Rezeption persischer Literatur im deutschsprachigen Raum Ein Wettbewerb im Zitronenschälen mit scharfen Messern gilt mit als Hinweis auf Einflüsse persischer Literatur in Deutschland im 17. Jahrhundert. N 1 11.07.2015 Sa 12.07.2015 2437 1921 4358 9 7 8 74 26 31 29 117
Palais Fugger-Taxis Das Palais Fugger-Taxis war nicht nur adelige Residenz, sondern auch Poststation. J 1 12.07.2015 So 13.07.2015 7854 10302 18156 28 33 30 120 66 87 77 132
Joseph Scholmer Der Mediziner Joseph Scholmer war unter anderem in Plötzensee und Workuta inhaftiert. N 1 12.07.2015 So 13.07.2015 6335 9055 15390 22 29 26 131 60 62 61 104
Austin, Nichols & Co. Warehouse Das Austin, Nichols & Co. Warehouse brachte ägyptische Architektur nach New York. J 1 13.07.2015 Mo 14.07.2015 7985 2865 10850 26 9 18 37 30 32 31 105
Anatoxin A Im Herbst 1999 starben im Bogoriasee in Kenia etwa 30.000 Flamingos aufgrund von Anatoxin A. N 1 13.07.2015 Mo 14.07.2015 13508 6953 20461 44 23 33 53 103 99 101 96
Henrietta Lacks Aus Gewebeproben von Henrietta Lacks entstand die erste unsterbliche menschliche Zelllinie. J 1 14.07.2015 Di 15.07.2015 30015 11474 41489 99 39 69 39 118 130 124 110
Care-Arbeit Care-Arbeit, who cares? N 1 14.07.2015 Di 15.07.2015 16439 8055 24494 54 27 41 50 87 88 88 100
Central Group Zur thailändischen Central Group gehören künftig auch das KaDeWe, Alsterhaus und Oberpollinger. J 1 15.07.2015 Mi 16.07.2015 13122 3936 17058 45 13 29 30 60 53 57 88
Deutschsprachige Presse in den Niederlanden Erst die Abschaffung des Zeitungs­stempels ermöglichte eine größere Band­breite von deutschsprachiger Presse in den Niederlanden N 1 15.07.2015 Mi 16.07.2015 8938 4021 12959 30 14 22 45 46 37 41 80
Kunta Haddschi Kischijew Obwohl der Sufi-Scheich Kunta Haddschi Kischijew zum Frieden im Kaukasus aufrief, wurde er 1864 auf Befehl des Generalgouverneurs deportiert. J 1 16.07.2015 Do 17.07.2015 10222 3350 13572 35 12 23 34 53 54 53 102
Dreamcatcher (2015) Eine ehemalige Prostituierte öffnet im Dokumentar­film Dreamcatcher jungen Frauen Wege zum Ausstieg. N 1 16.07.2015 Do 17.07.2015 15709 8388 24097 53 29 41 55 98 110 104 111
Suan Mokkh Bei einer Meditation in Suan Mokkh soll man zehn Tage lang barfuß gehen, schweigen und nicht an Sex denken. J 1 17.07.2015 Fr 18.07.2015 15172 3342 18514 53 12 33 24 80 79 80 99
8e armée (Frankreich) Die französische 8. Armee hatte ihr Hauptquartier zeitweise in Landau. N 1 17.07.2015 Fr 18.07.2015 14898 4603 19501 52 17 35 33 119 114 117 96
Onward (Lokomotive) Die Lokomotive „Onward“ war eine Fehl­konstruktion mit eckigen Antriebs­rädern. J 1 18.07.2015 Sa 19.07.2015 29010 12435 41445 108 43 76 40 249 221 235 89
Alfred Lange (Autor) Der evangelisch getaufte Alfred Lange gründete eine katholische Laien­bewegung. N 1 18.07.2015 Sa 19.07.2015 2062 1554 3616 8 5 7 70 22 25 24 112
Einserkofel Der Einserkofel ist Teil einer riesigen Sonnen­uhr. J 1 19.07.2015 So 20.07.2015 16364 17009 33373 57 57 57 99 137 149 143 109
Rare Breeds Survival Trust Der Rare Breeds Survival Trust fordert zum Verzehr seltener Tier­rassen auf. N 1 19.07.2015 So 20.07.2015 14041 20945 34986 49 70 60 143 131 148 140 113
Steckenpferdpolo Bei der Schweizer Variante von Steckenpferdpolo gibt es keine Strafsherrys, dafür müssen Tore bewiehert werden. J 1 20.07.2015 Mo 21.07.2015 20086 7955 28041 67 27 47 40 79 90 84 115
Léo Marjane Ihre Gesangsdarbietungen vor uniformiertem, deutschem Publikum in Frankreich wurden Léo Marjane noch Jahrzehnte nach Kriegsende verübelt. N 1 20.07.2015 Mo 21.07.2015 14629 7009 21638 49 24 36 49 116 102 109 89
Pandanus candelabrum Die Schraubenbaumart Pandanus candelabrum könnte den Weg zu Diamantvorkommen weisen. J 1 21.07.2015 Di 22.07.2015 20342 10315 30657 69 35 52 51 82 118 100 143
Maria Mechelen Die Benediktineroblatin und Kommunalpolitikerin Maria Mechelen wurde 1935 wegen „widerrechtlicher Durchführung von Kindererholungen“ angezeigt. N 1 21.07.2015 Di 22.07.2015 13541 8254 21795 46 28 37 61 74 91 82 122
Lenny Henry Dank Lenny Henry wurden bereits ca. 1,5 Milliarden Euro für Hilfs­projekte gesammelt. J 1 22.07.2015 Mi 23.07.2015 15857 5150 21007 54 18 36 33 73 71 72 96
Das Haus der langen Schatten Die britische Horror­komödie Das Haus der langen Schatten ist mit einer Reihe von grusel­erfahrenen Schau­spielern besetzt. N 1 22.07.2015 Mi 23.07.2015 16507 7253 23760 57 25 41 44 85 67 76 79
Quirinus Indervelden Quirinus Indervelden kaufte eine unter­gegangene Insel. J 1 23.07.2015 Do 24.07.2015 32333 9352 41685 111 33 72 30 170 152 161 89
Bahnhof Ahrensfelde Friedhof Für Ermäßigungen auf der Fahrt zum Bahnhof Ahrensfelde Friedhof mussten Angehörige der nahe­liegend bei­gesetzten Personen zeitweise Brief und Siegel vorzeigen. N 1 23.07.2015 Do 24.07.2015 12216 4915 17131 42 17 30 41 78 65 71 83
Bankotaler Das Münzbild eines Bankotalers brachte den Groß­kanzler Beichlingen wegen Majestäts­beleidigung auf den Königstein. J 1 24.07.2015 Fr 25.07.2015 23350 5503 28853 82 20 51 25 124 129 126 104
Victor Morawetz Der amerikanische Jurist Victor Morawetz schrieb mit 23 Jahren ein Grund­lagen­werk zum Unternehmens­recht. N 1 24.07.2015 Fr 25.07.2015 3796 1736 5532 13 6 10 48 30 43 37 140
Barker & Company (Coachbuilders) Ltd. Der von Barker & Company einge­kleidete Rolls-Royce des James-Bond-Gegen­spielers Goldfinger war gar nicht aus Gold. J 1 25.07.2015 Sa 26.07.2015 11841 5194 17035 44 19 31 43 100 95 98 95
Fritz Peterson Nachdem Fritz Peterson seine Familie mit der eines Mannschafts­kameraden getauscht hatte, wurde er als Baseball­spieler ausgebuht. N 1 25.07.2015 Sa 26.07.2015 10061 7265 17326 37 26 32 71 107 120 113 113
Glück bringender Eisenfisch Der Glücks­bringende Eisenfisch wiegt rund 200 Gramm und sollte mit Zitrone zubereitet werden. J 1 26.07.2015 So 27.07.2015 16440 3272 19712 59 11 35 18 142 28 85 20
Evangelische Kirche Hausen (Hunsrück) In der Evange­lischen Kirche Hausen steckt ein Drache. N 1 26.07.2015 So 27.07.2015 8623 10922 19545 31 36 34 116 83 76 80 92
Weibermacht Weise, starke und schöne Männer verlieren durch Weibermacht Selbst­beherrschung, Tugend, Herr­schaft oder sogar ihr Leben. J 1 27.07.2015 Mo 28.07.2015 38818 17239 56057 128 58 93 45 150 195 172 130
Tepito Die Bewohner von Tepito haben ihre eigene Gewohn­heit, mit Taschen­dieben umzugehen. N 1 27.07.2015 Mo 28.07.2015 39186 19971 59157 130 68 99 52 306 290 298 95
Steuerndieb Steuerndieb war ein Warthaus der Hannoverschen Landwehr. J 1 28.07.2015 Di 29.07.2015 20049 6237 26286 68 21 44 31 81 70 75 87
Gundula Kreuzer Die Bühnentechnologie von Wagner-Opern im 19. Jahrhundert sieht Gundula Kreuzer als frühe Form von Multimedia. N 1 28.07.2015 Di 29.07.2015 3588 1688 5276 12 6 9 47 20 18 19 94
Carlsbau Eine Nach­bildung des Carlsbaus war in den 1980er Jahren als Modell­eisen­bahn­zubehör im Angebot. J 1 29.07.2015 Mi 30.07.2015 33749 6896 40645 114 24 69 21 154 95 125 62
Sikorsky/Boeing SB-1 Die Mischung aus Hub­schrauber und Flug­zeug ermöglicht der Sikorsky/Boeing SB>1 hohe Flug­geschwindigkeiten. N 1 29.07.2015 Mi 30.07.2015 37544 14809 52353 127 51 89 40 191 138 164 72
Garde du Corps (Sachsen) Im Russlandfeldzug von 1812 zeichnete sich die Garde du Corps ein letztes Mal aus. J 1 30.07.2015 Do 31.07.2015 28224 9084 37308 98 33 65 33 149 150 150 101
Jacinta Nandi Die englische „Amok-Mama“ Jacinta Nandi schreibt über Spree­wald­gurken, Sex, Singles und Ost­deutsche. N 1 30.07.2015 Do 31.07.2015 24120 10263 34383 83 37 60 44 155 138 146 89
Alexandru Papană Als bei einem Kunst­flug­wett­bewerb das Flug­zeug eines Konkurrenten zu Bruch ging, lieh Alexandru Papană diesem sein eigenes. J 1 31.07.2015 Fr 01.08.2015 10839 2282 13121 39 9 24 22 59 55 57 94
Diamant-Norm Die Diamant-Norm hilft, Abstände zweier Quanten­kanäle anzugeben. N 1 31.07.2015 Fr 01.08.2015 7789 2630 10419 28 10 19 36 64 66 65 104
Friedrich Weichelt Friedrich Weichelt lehrte das Sprengen von Mist­haufen in der Land­wirt­schaft. J 1 01.08.2015 Sa 02.08.2015 16299 6879 23178 62 25 43 40 142 127 134 89
Alice Legh Alice Legh verzichtete 1908 auf eine Teil­nahme an den olymp­ischen Spielen, um ihre nationale Meister­schaft verteidigen zu können. N 1 01.08.2015 Sa 02.08.2015 4540 3060 7600 17 11 14 64 50 51 50 103
Marine, temps d’orage Das seit dem Zweiten Welt­krieg verschollene Seestück, bei Gewitter tauchte 2014 in der Privat­sammlung von Cornelius Gurlitt wieder auf. J 1 02.08.2015 So 03.08.2015 8232 13018 21250 30 49 39 163 72 128 100 179
Insektengift Einige Insektengifte werden medizinisch genutzt. N 1 02.08.2015 So 03.08.2015 6282 7432 13714 23 28 25 122 61 59 60 97
Bügelfibel von Freilaubersheim Die mit einer Bügelfibel beschenkte Dathina wurde in Frei­laubers­heim beigesetzt. J 1 03.08.2015 Mo 04.08.2015 12694 5834 18528 48 20 34 42 56 66 61 119
John Noel John Noel prägte vor allem mit The Epic of Everest in den 1920er Jahren die filmische Darstellung der Berg­steigerei. N 1 03.08.2015 Mo 04.08.2015 1797 997 2794 7 3 5 50 16 15 15 91
Leonhard Drach Der als Kriegsverbrecher in Luxemburg verurteilte Jurist Leonhard Drach wurde nach dem Zweiten Weltkrieg wieder als Staatsanwalt in Deutschland in den Dienst genommen. J 1 04.08.2015 Di 05.08.2015 19000 11919 30919 65 42 53 64 77 139 108 180
James Hemings Einflüsse französischer und afrikanischer Küche gelangten durch den Sklaven und Koch James Hemings in die Küche Amerikas. N 1 04.08.2015 Di 05.08.2015 6829 6676 13505 23 23 23 100 37 75 56 200
Jeepomotive Eine Jeepomotive konnte Güter­züge mit einem Gewicht von 10 Tonnen und mehr ziehen. J 1 05.08.2015 Mi 06.08.2015 35950 11186 47136 126 39 82 31 170 156 163 92
Wilhelm Litten Der deutsche Konsul Wilhelm Litten berichtete im Februar 1916 über einen „Weg des Grauens“. N 1 05.08.2015 Mi 06.08.2015 21591 10275 31866 75 36 56 48 113 96 105 85
Amalie Raiffeisen Amalie Raiffeisen war die „Geheim­­sekretärin“ ihres Vaters. J 1 06.08.2015 Do 07.08.2015 25368 10759 36127 88 38 63 43 135 176 156 130
Room 8 Die Schul­katze Room 8 wusste immer genau, wann die Sommer­­ferien zu Ende waren. N 1 06.08.2015 Do 07.08.2015 30740 18159 48899 107 64 86 60 199 241 220 121
Herdwick Dank eines Erbes der Kinder­buch­autorin Beatrix Potter ist der National Trust heute Besitzer von 25.000 Herdwicks. J 1 07.08.2015 Fr 08.08.2015 21337 6167 27504 76 23 50 31 114 149 132 130
Kleetaler Der Kleetaler hatte kein Umlauf­gebiet. N 1 07.08.2015 Fr 08.08.2015 18565 6052 24617 66 23 44 35 150 153 152 102
Gilbert-Kaninchenkänguru Das Gilbert-Kaninchenkänguru gehört zu den seltensten Säugetieren Australiens. J 1 08.08.2015 Sa 09.08.2015 7618 5545 13163 29 20 25 69 66 102 84 154
Maureen Tigrett Die gelernte Friseurin Maureen Tigrett war mit mehreren Pilzköpfen liiert. N 1 08.08.2015 Sa 09.08.2015 15679 9299 24978 60 34 47 57 171 155 163 90
Luftschutzstollen Viele Luftschutzstollen wurden nach Ende des Zweiten Weltkriegs zur Champignonzucht genutzt. J 1 09.08.2015 So 10.08.2015 12964 12869 25833 47 45 46 96 113 118 115 105
Slughorn Den süßen Klang des Slughorns hat noch kein Sterblicher vernommen. N 1 09.08.2015 So 10.08.2015 22910 26172 49082 83 92 87 110 222 194 208 87
Elmer McCurdy Der Räuber Elmer McCurdy wurde 1911 erschossen, worauf­hin für seine Leiche eine fast 60 Jahre andauernde Odyssee begann. J 1 10.08.2015 Mo 11.08.2015 65102 17114 82216 228 60 144 26 266 199 233 75
Deutsches Hutmuseum Lindenberg Im vor wenigen Wochen aus­gezeichneten Deutschen Hut­museum Linden­berg wird die Geschichte von „Klein-Paris“ gezeigt. N 1 10.08.2015 Mo 11.08.2015 5648 3620 9268 20 13 16 64 47 54 50 116
Couzinet 70 Die aus Holz gebaute Couzinet 70 überquerte mehr­fach den Atlantik. J 1 11.08.2015 Di 12.08.2015 32177 9331 41508 112 32 72 29 134 108 121 81
Rick and Morty Der Serien­schöpfer von Rick and Morty gab Präsident Obama die Schuld an der vor­zeitigen Veröffentlichung zweier Fernseh­folgen. N 1 11.08.2015 Di 12.08.2015 14413 6143 20556 50 21 36 42 81 68 75 84
Münzschatz von Lüneburg Der Münzschatz von Lüneburg ist der zweit­größte archäologische Gold­schatz Nieder­sachsens. J 1 12.08.2015 Mi 13.08.2015 20614 7033 27647 72 25 48 34 97 98 97 101
Janet Parker Nachdem sie über einen Lüftungs­schacht infiziert wurde, starb Janet Parker als letzte bekannte Person an den Pocken. N 1 12.08.2015 Mi 13.08.2015 27717 13265 40982 96 46 71 48 145 124 135 86
Polaroid SX-70 Die Polaroid SX-70 lässt sich auf die Größe eines Taschen­­buchs zusammen­­falten. J 1 13.08.2015 Do 14.08.2015 19473 10469 29942 68 37 53 55 104 173 138 166
Clarence Hickman Clarence Hickman entwickelte 1934 einen Anruf­beantworter, den die amerikanische Telefon­­gesell­­schaft AT&T unter Verschluss hielt. N 1 13.08.2015 Do 14.08.2015 15926 10315 26241 56 37 46 66 103 138 121 134
St. Anna (Boží Dar) St. Anna in Boží Dar ist die höchst­gelegene Kirche im Erz­gebirge. J 1 14.08.2015 Fr 15.08.2015 11520 2085 13605 41 8 25 19 62 50 56 80
Wählergemeinschaft der Fliegergeschädigten Die WdF war bis 1993 die einzige Wähler­gemeinschaft, der es gelang, in ein deutsches Landes­parlament einzuziehen. N 1 14.08.2015 Fr 15.08.2015 9225 2756 11981 33 10 22 31 75 69 72 91
Norton Modell 18 Mit der Norton Modell 18 stürzte Che Guevara an einem Tag neun Mal. J 1 15.08.2015 Sa 16.08.2015 20562 15115 35677 77 53 65 69 176 270 223 153
Richard Baier Richard Baier, „Hitlers letzte Stimme“, wurde 1955 als Mitarbeiter des RIAS vor einem DDR-Gericht zu 13 Jahren Zucht­haus verurteilt. N 1 15.08.2015 Sa 16.08.2015 17419 11952 29371 65 42 54 65 187 193 190 103
Streitraum Der Streitraum in Berlin ist ein Etikettenschwindel. J 1 16.08.2015 So 17.08.2015 20666 17247 37913 73 58 65 80 174 152 163 87
Ansco Bruinier Auf dem Marion-Tango von 1928 ist der Chemiestudent Ansco Bruinier mit einem Kunstpfeifer-Solo zu hören. N 1 16.08.2015 So 17.08.2015 2587 2790 5377 9 9 9 103 24 20 22 81
Ernst Carl Külbel Weil er die falsche Darstellung in einem Schlachten­gemälde kritisierte, wurde Ernst Carl Külbel 1860 der Prozess gemacht. J 1 17.08.2015 Mo 18.08.2015 27128 9620 36748 91 33 62 36 106 110 108 103
BASF Records Das Musiklabel BASF Records konnte nur 2 Prozent des bundes­deutschen Tonträger­marktes bedienen und wurde 1976 aufgegeben. N 1 17.08.2015 Mo 18.08.2015 15608 7780 23388 52 27 39 51 124 114 119 92
Letzte Flagge Portugals über Timor Die letzte Flagge Portugals über Timor liegt heute auf einem Altar in einer Privatwohnung in Indonesien. J 1 18.08.2015 Di 19.08.2015 20462 8086 28548 70 28 49 40 83 93 88 112
Radikale Republikaner Das erste Amtsenthebungsverfahren gegen einen US-Präsidenten ging im Wesentlichen auf die Radikalen Republikaner zurück. N 1 18.08.2015 Di 19.08.2015 9699 4672 14371 33 16 25 49 53 52 53 97
Fort Hancock Fort Hancock gehörte bis 1974 zu einem umfang­reichen Netz von Verteidigungs­anlagen um New York. J 1 19.08.2015 Mi 20.08.2015 34604 12239 46843 119 43 81 36 161 170 166 105
Spiegelmans Monster Vor 50 Jahren erschuf Sol Spiegelman in seinem Labor Monster. N 1 19.08.2015 Mi 20.08.2015 29108 13546 42654 100 47 74 47 151 127 139 84
Chicken Tractor Der Chicken Tractor macht Hühner mobil. J 1 20.08.2015 Do 21.08.2015 25403 11990 37393 88 43 65 48 135 197 166 146
Epsom Salts Monorail Die 1924 als schnellste Ein­schienen­bahn der Welt erbaute Epsom Salts Monorail wurde schon vier Jahre später still­gelegt. N 1 20.08.2015 Do 21.08.2015 22885 10117 33002 80 36 58 45 148 135 141 91
St. Katharina (Sankt Petersburg) Ab 1938 diente die römisch-katholische Kirche St. Katharina in Sankt Petersburg als Lager für Gemüse und Bücher. J 1 21.08.2015 Fr 22.08.2015 5688 1632 7320 20 6 13 31 31 40 36 132
Giuseppe Porsile Giuseppe Porsile beeinflusste die Entwicklung des vor­klassischen Stils in Wien. N 1 21.08.2015 Fr 22.08.2015 1855 727 2582 7 3 5 43 15 19 17 125
Haftanstalt Bautzen II Die Gedenkstätte Bautzen erinnert unter anderem an die frühere Haftanstalt des MfS. J 2 22.08.2015 Sa 23.08.2015 4612 2510 7122 18 9 14 51 41 47 44 113
Gedenkstätte Bautzen Die Gedenkstätte Bautzen erinnert unter anderem an die frühere Haftanstalt des MfS. J 2 22.08.2015 Sa 23.08.2015 3817 1904 5721 15 7 11 47 34 35 35 104
Julodimorpha bakewelli Männliche Julodimorpha bakewelli wollen sich gelegentlich mit Bier-, aber nicht mit Wein­flaschen paaren. N 1 22.08.2015 Sa 23.08.2015 15380 9271 24651 60 34 47 57 172 155 164 90
Kurt Sitte Der Kernphysiker und Buchenwald-Überlebende Kurt Sitte war der erste Weltraumspion der Weltgeschichte. J 1 23.08.2015 So 24.08.2015 16147 19217 35364 59 65 62 110 141 170 156 120
Haus Neersdonk Haus Neersdonk wird angeblich in jeder Neujahrsnacht von zwei spukenden Edelfräulein mit einem Wollknäuel heimgesucht. N 1 23.08.2015 So 24.08.2015 7617 13208 20825 28 45 36 160 75 94 84 126
Schwarzstirnducker Schwarzstirnducker halten sich bevorzugt in sumpfigen Wäldern auf und entgehen so einer verstärkten Bejagung durch Leoparden. J 1 24.08.2015 Mo 25.08.2015 10518 6220 16738 35 21 28 59 41 70 56 169
The Drive Die Denver Broncos zogen 1987 nach The Drive, einer legendären Angriffsserie, in den Super Bowl XXI ein. N 1 24.08.2015 Mo 25.08.2015 14005 5160 19165 47 17 32 37 112 75 93 67
Geisterschlacht Geisterschlachten beschäftigen die Menschen schon seit dem Mittelalter. J 1 25.08.2015 Di 26.08.2015 36162 19432 55594 122 67 94 55 145 222 184 153
Die Zukunft hat Geburtstag – 100 Jahre Automobil Daimler-Chef und Bundespräsident haben es nicht geschafft, die ARD-Show Die Zukunft hat Geburtstag abbrechen zu lassen. N 1 25.08.2015 Di 26.08.2015 43190 21486 64676 146 74 110 50 235 236 235 101
The Bergstraße Sports & Country Club Die Landesirrenanstalt Heppenheim galt im 19. Jahr­hundert als „Vor­bild für Deutschland“. J 1 26.08.2015 Mi 27.08.2015 21517 9208 30725 74 31 52 42 100 125 112 125
Chuck Knox Chuck Knox setzte als erster Trainer einen Schwarzen als Starting-Quarter­back ein. N 1 26.08.2015 Mi 27.08.2015 10325 5679 16004 35 19 27 54 53 52 52 97
Böhämmerjagd Fiel bei der Böhämmerjagd ein Bergfink aus der Reihe, rückten die anderen nach. J 1 27.08.2015 Do 28.08.2015 26224 10095 36319 89 35 62 39 136 161 149 119
Wechseltaler Die Aufschrift Wechseltaler erschien Münz­forschern merk­würdig und rätsel­haft. N 1 27.08.2015 Do 28.08.2015 20230 8642 28872 69 30 49 44 127 112 120 88
RIAS-Prozess Im RIAS-Prozess wurde auf Weisung von Walter Ulbricht ein Todes­urteil verhängt. J 1 28.08.2015 Fr 29.08.2015 36959 6097 43056 128 23 76 18 194 147 170 76
Kaiserbad (Aachen) Das Aachener Kaiserbad ging auf eine römische Therme zurück. N 1 28.08.2015 Fr 29.08.2015 8039 2477 10516 28 9 19 34 64 62 63 98
Agar.io Das 2015 bei den türkischen Parlaments­wahlen politisch verwendete Spiel Agar.io entspricht nach Hürriyet der Politik des Landes. J 1 29.08.2015 Sa 30.08.2015 6888 4175 11063 26 15 21 58 60 76 68 127
Günther Friedrich (Mineraloge) Günther Friedrich war ein führender Experte auf dem Gebiet der Entstehung mariner Mangan­knollen­felder. N 1 29.08.2015 Sa 30.08.2015 2653 2314 4967 10 8 9 83 29 38 34 132
Elizabeth Keckley Von der Kindersklavin zur Modedesignerin und Bürger­rechtlerin – Elizabeth Keckley wurde zu einer wichtigen Schwarzen im Weißen Haus. J 1 30.08.2015 So 31.08.2015 10992 11756 22748 40 39 39 99 95 103 99 108
Kleiner Pferdespringer Der nur zehn Zentimeter lange Kleine Pferdespringer kann hüpfend eine Geschwindigkeit von fast 50 km/h erreichen. N 1 30.08.2015 So 31.08.2015 13243 17683 30926 48 59 53 124 127 125 126 98
Maison Mantin Das über 100 Jahre verlassene Maison Mantin wurde 2010 als Museum wieder­eröffnet. J 1 31.08.2015 Mo 01.09.2015 18566 9170 27736 62 30 46 49 72 102 87 141
Anny Engelmann Suska illustrierte auch Gaggaggah und Güggerüggüh. N 1 31.08.2015 Mo 01.09.2015 9043 6409 15452 30 21 26 71 71 91 81 128
Elpidit Elpidit trägt in seinem Namen die Hoffnung, noch weiteres Material zu finden. J 1 01.09.2015 Di 02.09.2015 23176 7477 30653 77 25 51 32 92 83 87 91
Dion Cools Dion Cools würde gerne für die National­mannschaft von Malaysia antreten. N 1 01.09.2015 Di 02.09.2015 13076 8152 21228 43 27 35 63 70 87 79 125
Ellen Trane Nørby Bei Ellen Trane Nørby schmeckt Europa mit Honig und Chili. J 1 02.09.2015 Mi 03.09.2015 30346 5545 35891 101 19 60 19 137 75 106 55
Conolly’s Folly Eine irische Witwe ließ Conolly’s Folly bauen, um hungernde Menschen in Lohn und Brot zu bringen. N 1 02.09.2015 Mi 03.09.2015 22393 10776 33169 75 37 56 49 113 98 105 87
Billy Eckstine and His Orchestra Mit Billy Eckstine and His Orchestra spielten die besten Jazz-Musiker der späten Swingära. J 1 03.09.2015 Do 04.09.2015 6016 1600 7616 20 6 13 27 31 26 28 82
Stolpersteine für Wiener Neustadt Das Projekt Stolpersteine für Wiener Neustadt wurde von einer Straßen­zeitung ins Leben gerufen. N 1 03.09.2015 Do 04.09.2015 5920 3026 8946 20 10 15 52 37 39 38 105
Eurhinosaurus Eurhinosaurus hatte einen extremen Überbiss. J 1 04.09.2015 Fr 05.09.2015 25559 5350 30909 88 19 54 22 134 124 129 93
Josef Kohout Josef Kohout war einer der Männer mit dem Rosa Winkel. N 1 04.09.2015 Fr 05.09.2015 20341 6247 26588 70 23 47 32 161 151 156 94
Rotabuggy Mit dem Rotabuggy brachten die Briten 1943 dem Jeep das Fliegen bei. J 1 05.09.2015 Sa 06.09.2015 19360 6555 25915 70 23 47 32 162 116 139 72
Friederun Köhnen Friederun Köhnen machte in Deutschland Currywurst aus der Mikrowelle, Tiefkühlkost und Mozzarella populär. N 1 05.09.2015 Sa 06.09.2015 9074 6559 15633 33 23 28 69 95 105 100 111
Tanya Wexler Tanya Wexler verfilmte die Geschichte des ersten Vibrators als romantische Komödie. J 1 06.09.2015 So 07.09.2015 17229 16064 33293 60 53 57 89 144 140 142 97
Mexikaner (Cocktail) Mike Colani kreierte den Mexikaner, geschmeckt hat er ihm aber nie. N 1 06.09.2015 So 07.09.2015 13847 17847 31694 48 59 54 122 129 125 127 97
Affair of the Dancing Lamas Eine Affäre um tanzende Lamas führte zu diploma­tischen Verstimmungen zwischen Tibet und Groß­britannien. J 1 07.09.2015 Mo 08.09.2015 24145 11499 35644 80 38 59 48 94 128 111 137
Besuch Erich Honeckers in der Bundesrepublik Deutschland 1987 Beim Besuch Erich Honeckers in der Bundesrepublik Deutschland 1987 wurde er vor laufenden Kameras von Bundes­kanzler Kohl aufgefordert, die Mauer und den Schieß­befehl aus der Welt zu schaffen. N 1 07.09.2015 Mo 08.09.2015 22511 15311 37822 75 51 63 69 176 220 198 125
Flandre (Schiff) Die vom Pech verfolgte Flandre wurde auch abfällig „Flunder“ genannt. J 1 08.09.2015 Di 09.09.2015 48254 8482 56736 161 29 95 18 192 97 144 50
Hohe Pforte (Köln) Die Kölner Hohe Pforte ist heute weder hoch noch eine Pforte. N 1 08.09.2015 Di 09.09.2015 26865 13127 39992 90 45 67 50 145 144 144 100
Momoyama-Genremalerei Die Momoyama-Genremalerei brach mit der chine­sischen Maltradition und stellte Alltags­szenen dar. J 1 09.09.2015 Mi 10.09.2015 7641 3255 10896 26 11 19 43 35 44 40 126
Fritz Niemand Jahrzehntelang kämpfte der zwangs­sterilisierte Fritz Niemand vergeblich darum, als NS-Verfolgter anerkannt zu werden. N 1 09.09.2015 Mi 10.09.2015 24334 12891 37225 83 44 64 53 125 119 122 95
Riparo Dalmeri Unter dem Riparo Dalmeri bereiteten Menschen bereits vor mehr als 13.000 Jahren ihre Jagdbeute zu. J 1 10.09.2015 Do 11.09.2015 27096 8318 35414 93 29 61 31 142 133 137 94
Silberameise In Gebieten, wo Oberflächen­temperaturen von über 60 °C herrschen, hält sich die Silberameise auf. N 1 10.09.2015 Do 11.09.2015 20686 10856 31542 71 38 54 53 131 141 136 107
Praktiflex Die Praktiflex gehört zu den ersten serienmäßig produzierten Kleinbild­spiegelreflex­kameras. J 1 11.09.2015 Fr 12.09.2015 16355 3624 19979 57 13 35 24 86 85 85 100
Ebow (Rapperin) Ebow mischt deutschen Rap mit orientalischen Sounds. N 1 11.09.2015 Fr 12.09.2015 4116 1784 5900 14 7 10 46 33 44 38 135
Einbettmasse Ohne Einbettmasse kein Goldzahn. J 1 12.09.2015 Sa 13.09.2015 9905 4210 14115 37 15 26 40 84 75 80 90
Sexpräbendar Priestermangel war der Grund für die Einführung der Sexpräbendare. N 1 12.09.2015 Sa 13.09.2015 21605 12750 34355 80 45 62 56 230 206 218 90
Kriegerstele Kriegerstelen auf der Iberischen Halbinsel sind Relikte aus der Bronzezeit. J 1 13.09.2015 So 14.09.2015 6656 7870 14526 23 26 25 110 56 68 62 121
Martje Saljé Als erste Türmerin von Münster bläst Martje Saljé das Horn im Staccato, wenn es brennt. N 1 13.09.2015 So 14.09.2015 8601 10909 19510 30 36 33 118 81 76 78 93
Stiftskirche Steterburg Die Gruft der Stiftskirche Steterburg wurde beim Umbau zu einem Luftschutzbunker weitgehend zerstört. J 1 14.09.2015 Mo 15.09.2015 13393 6274 19667 44 21 33 48 51 70 61 137
Christoph 34 Ein Bienenschwarm verzögerte einen Einsatz von Christoph 34. N 1 14.09.2015 Mo 15.09.2015 26010 13656 39666 85 46 66 54 202 197 199 98
Trans Am Totem Die Plastik Trans Am Totem hat ihren Namen von einem Pontiac. J 1 15.09.2015 Di 16.09.2015 31057 7110 38167 104 24 64 23 124 81 103 65
Miller Army Airfield Die vor 95 Jahren auf dem Miller Army Airfield gebauten Flugzeughallen gelten als die frühesten derartigen Gebäude in den USA. N 1 15.09.2015 Di 16.09.2015 20715 9595 30310 70 33 51 47 112 106 109 94
Katharina von Zimmermann Katharina von Zimmermann wollte lieber Dienstmagd in Goethes Haus werden als bei ihrem tyrannischen Vater leben. J 1 16.09.2015 Mi 17.09.2015 21845 8889 30734 75 30 53 41 101 121 111 120
Hauchbild Wärme bringt ein Hauchbild aus der zweiten in die dritte Dimension. N 1 16.09.2015 Mi 17.09.2015 23790 12299 36089 82 42 62 52 123 113 118 92
Dermorphin Dermorphin aus Froschhaut – Doping für die Pferde. J 1 17.09.2015 Do 18.09.2015 18106 5387 23493 62 19 40 31 95 87 91 92
Valley MC Einer der berüchtigten Valley-Rocker war später selbst in der Jugend­einrichtung tätig, in der er eigentlich lebenslanges Hausverbot hatte. N 1 17.09.2015 Do 18.09.2015 23232 10248 33480 80 36 58 45 147 135 141 91
Joachim Daniel Andreas Müller Der zweifach gelernte Gärtner Joachim Daniel Andreas Müller sah im Gartenbau eine Möglichkeit zur Bekämpfung des Alkoholismus. J 1 18.09.2015 Fr 19.09.2015 10569 2718 13287 37 10 24 27 56 64 60 115
Krajinský most Dem Kulturdenkmal Krajinský most gab der erste tschecho­slowakische Präsident noch zu Lebzeiten seinen eigenen Namen. N 1 18.09.2015 Fr 19.09.2015 5087 1514 6601 18 6 12 32 41 38 39 92
Das germanische Todtenlager bei Selzen in der Provinz Rheinhessen Das germanische Todtenlager bei Selzen in der Provinz Rheinhessen lagert in Bücherregalen. J 1 19.09.2015 Sa 20.09.2015 12086 5185 17271 45 19 32 41 103 94 99 91
Horribilicribrifax Teutsch Söldnerbesetzungen während des Dreißig­jährigen Krieges führten zur Entstehung des Horribilicribrifax Teutsch. N 1 19.09.2015 Sa 20.09.2015 12942 8626 21568 48 31 40 64 139 141 140 102
Jeanna Bauck Jeanna Bauck brachte Paula Modersohn-Becker das Malen bei. J 1 20.09.2015 So 21.09.2015 5012 3958 8970 18 13 16 74 43 35 39 81
Doudou N’Diaye Rose Der Senegalese Doudou N’Diaye Rose wurde von der UNESCO als lebendiges Kulturerbe anerkannt. N 1 20.09.2015 So 21.09.2015 14412 21918 36330 51 74 63 143 138 156 147 113
Aquädukt des Padre Tembleque Ein armer Mönch und einige Dorfbewohner bauten den Aquädukt des Padre Tembleque. J 1 21.09.2015 Mo 22.09.2015 35793 7672 43465 120 26 73 21 141 86 114 61
Geist und Seele wird verwirret Die Alt-Solopartie in Bachs Geist und Seele wird verwirret gilt als anspruchsvoll und wurde zur Entstehungs­zeit von einem männlichen Sänger ausgeführt. N 1 21.09.2015 Mo 22.09.2015 2875 1650 4525 10 6 8 57 23 24 23 104
Zuzanna Ginczanka Zuzanna Ginczanka nannte den Namen jener Vermieterin in einem Gedicht, von der sie bei den deutschen Besatzern denunziert worden war. J 1 22.09.2015 Di 23.09.2015 52536 8406 60942 177 29 103 16 211 95 153 45
Airmail Cocktail Der Airmail Cocktail versprach Höhenflüge. N 1 22.09.2015 Di 23.09.2015 20778 11716 32494 70 40 55 57 113 127 120 113
Hort auf St Ninian’s Isle Der silberne Hort auf St Ninian’s Isle wurde von einem Schuljungen entdeckt. J 1 23.09.2015 Mi 24.09.2015 29944 14349 44293 102 49 75 48 137 195 166 142
Wendy Sloboda Aus Begeisterung, dass eine neue Gattung nach ihr benannt wurde, ließ sich die Fossiliensammlerin Wendy Sloboda einen Dinosaurier auf ihren Arm tätowieren. N 1 23.09.2015 Mi 24.09.2015 14903 9798 24701 51 33 42 66 76 90 83 118
Schulmuseum – Werkstatt für Schulgeschichte Leipzig Im Schulmuseum Leipzig kann man an einer Unterrichts­stunde um 1900 teilnehmen. J 1 24.09.2015 Do 25.09.2015 10644 3381 14025 36 12 24 32 56 54 55 98
Antonio Gates Antonio Gates wurde acht Mal in den Pro Bowl gewählt. N 1 24.09.2015 Do 25.09.2015 6979 3510 10489 24 12 18 51 44 46 45 103
Halterner Kochtopf Ein bei Nijmegen gefundener Halterner Kochtopf enthielt die Überreste von 30 Singdrosseln. J 1 25.09.2015 Fr 26.09.2015 24210 5696 29906 84 21 53 25 127 135 131 106
Mick Fanning Der Profisurfer Mick Fanning hatte im Juli 2015 eine Auseinander­setzung mit einem Hai. N 1 25.09.2015 Fr 26.09.2015 11058 2704 13762 39 10 24 26 88 67 77 76
Pinto-Correia-Schulen Die verbliebenen Kolonialbauten der Pinto-Correia-Schulen in Osttimor sind heute auffällige Sehenswürdigkeiten. J 1 26.09.2015 Sa 27.09.2015 4361 2580 6941 16 9 13 57 37 47 42 126
Bob Dunn Bob Dunn gilt als Pionier beim Spiel auf der elektrisch verstärkten Steelgitarre. N 1 26.09.2015 Sa 27.09.2015 4120 2948 7068 15 11 13 69 44 48 46 110
Die Unmenschliche Der Architekt Adolf Loos feierte Die Unmenschliche als das Hohe Lied auf die Größe moderner Technik. J 1 27.09.2015 So 28.09.2015 4732 6752 11484 17 22 20 132 41 58 49 144
Zur Rose abziehen Wenn Köche zur Rose abziehen, verlassen sie die Küche nicht. N 1 27.09.2015 So 28.09.2015 14450 23915 38365 52 79 65 153 138 167 153 120
Gunnar Hammershaimb Der färöische Schiffbauingenieur Gunnar Hammershaimb schuf zwölf Raddampfer für den Genfersee. J 1 28.09.2015 Mo 29.09.2015 16097 4155 20252 53 14 34 26 62 46 54 75
Alter Katholikentagsbahnhof Der Alte Katholikentags­bahnhof wurde provisorisch als Bochumer Haupt­bahnhof genutzt. N 1 28.09.2015 Mo 29.09.2015 14242 6019 20261 47 20 34 43 111 87 99 78
Karl Kotzenberg Das „scheußlichste Haus in Frankfurt“ gehörte dem Mäzen Karl Kotzenberg. J 1 29.09.2015 Di 30.09.2015 40535 13843 54378 136 46 91 34 162 154 158 95
Bremer Pfefferkorn Ein zerbrochenes Pfefferkorn verursachte in Bremen einen vierstelligen Versicherungsschaden. N 1 29.09.2015 Di 30.09.2015 38502 18147 56649 129 61 95 47 208 194 201 94
Dulcería de Celaya Die Dulcería de Celaya in Mexiko-Stadt war die erste ihrer Art in ganz Lateinamerika. J 1 30.09.2015 Mi 01.10.2015 2908 6056 8964 10 20 15 205 13 79 46 606
Vegan Black Metal Chef Vegane Rezepte im Black-Metal-Sound und Corpsepaint sind die Markenzeichen des Vegan Black Metal Chefs auf YouTube. N 1 30.09.2015 Mi 01.10.2015 10275 5303 15578 34 17 26 51 52 47 49 91
Robert Emmet Odlum Robert Emmet Odlum starb bei dem Versuch zu beweisen, dass ein Sprung von der Brooklyn Bridge nicht tödlich enden muss. J 1 01.10.2015 Do 02.10.2015 46951 13225 60176 154 45 100 29 236 208 222 88
Der Dicke und der Dünne Der Dicke und der Dünne waren nicht nur in ihrer Körperfülle äußerst unterschiedlich. N 1 01.10.2015 Do 02.10.2015 30803 10668 41471 101 36 69 36 188 136 162 72
EinDollarBrille Die EinDollarBrille wurde von einem Lehrer erfunden. J 1 02.10.2015 Fr 03.10.2015 28900 7402 36302 98 27 62 27 149 169 159 114
Friedrich von Hassel Friedrich von Hassel gelang ein Husarenstück per Boot. N 1 02.10.2015 Fr 03.10.2015 25228 7099 32327 86 26 56 30 196 170 183 87
Erbländischer Taler Das Münzbild der Erbländischen Taler stieß auf den Widerstand der Lausitzer. J 1 03.10.2015 Sa 04.10.2015 5342 3229 8571 19 11 15 58 44 57 50 129
Chew Stoke Die Bilbies aus Chew Stoke gossen über 1000 Glocken für Kirchen im Westen Englands. N 1 03.10.2015 Sa 04.10.2015 4068 2616 6684 15 9 12 62 42 42 42 99
Cornelia Clapp Die Zoologin Cornelia Clapp vertrat stets die Auffassung, dass man besser von der Natur selbst lerne als aus Büchern. J 1 04.10.2015 So 05.10.2015 3742 3418 7160 13 11 12 86 31 29 30 94
Besteigungsversuch der Eiger-Nordwand 1935 Der Besteigungsversuch der Eiger-Nordwand 1935 endete tragisch. N 1 04.10.2015 So 05.10.2015 14224 19304 33528 49 63 56 128 132 134 133 101
Salvatorkirche (Aachen) Schon 30 Jahre nach ihrer Errichtung im Jahre 870 wurde die bis heute bestehende Aachener Salvator­kirche als „baufällig“ bezeichnet. J 1 05.10.2015 Mo 06.10.2015 22740 9260 32000 74 31 53 41 87 103 95 118
Jack Mavrogordato Der Rechtsanwalt Jack Mavrogordato schaffte es vom Rechtsberater der sudanesischen Regierung zu einem der prominentesten Falkner seiner Zeit. N 1 05.10.2015 Mo 06.10.2015 6547 4023 10570 21 13 17 62 51 57 54 113
Usine des Forces Motrices Der Springbrunnen von Genf geht ursprünglich auf das Druckwassernetz der Usine des Forces Motrices zurück. J 1 06.10.2015 Di 07.10.2015 17968 5319 23287 60 18 39 30 71 59 65 83
Marina Naprushkina Marina Naprushkinas Büro für Antipropaganda ist weit mehr als ein künstlerisches Projekt. N 1 06.10.2015 Di 07.10.2015 5099 3480 8579 17 12 14 69 27 37 32 137
Jenny Rogneby Die ehemalige Popsängerin und Ermittlerin Jenny Rogneby landete mit ihrem ersten Krimi einen Bestseller. J 1 07.10.2015 Mi 08.10.2015 33695 5753 39448 112 20 66 17 152 78 115 51
Schloss Montbras Malereien im Schloss Montbras erinnern an Menschen aus Brasilien, die 1613 in Frankreich zum Katholizismus bekehrt werden sollten. N 1 07.10.2015 Mi 08.10.2015 8422 5004 13426 28 17 23 60 42 46 44 108
Savonnerie-Manufaktur Die Savonnerie-Manufaktur zur Herstellung von Knüpfteppichen erhielt ihren Namen von einer ehemaligen Seifenfabrik. J 1 08.10.2015 Do 09.10.2015 6193 1482 7675 21 5 13 24 32 24 28 74
Mensch sein in Österreich Bei der Demonstration Mensch sein in Österreich forderten Ende August 2015 mehr als 20.000 Menschen einen menschenwürdigen Umgang mit Flüchtlingen in Europa. N 1 08.10.2015 Do 09.10.2015 3398 1511 4909 12 5 8 45 21 20 20 92
Gut Höltigbaum Gut Höltigbaum verdankte seinen Namen einer Zollschranke. J 1 09.10.2015 Fr 10.10.2015 11980 2523 14503 41 9 25 22 63 59 61 94
Eisenbahn des kaiserlichen Prinzen Das älteste Foto einer Modelleisenbahn, der Eisenbahn des kaiserlichen Prinzen, stammt von 1859. N 1 09.10.2015 Fr 10.10.2015 27557 8254 35811 95 30 63 32 218 202 210 93
Molly Shaffer Van Houweling Die Juristin Molly Shaffer Van Houweling gründete 2002 Creative Commons und brach 2015 den Stundenweltrekord im Renn­rad­fahren auf der Bahn. J 1 10.10.2015 Sa 11.10.2015 8557 2018 10575 31 7 19 23 72 36 54 50
Quendelschnecke Im Pfeilsack der Quendelschnecke ist nur ein einziger Liebespfeil vorhanden. N 1 10.10.2015 Sa 11.10.2015 9008 5287 14295 33 19 26 56 95 85 90 90
Bayerisches Kochbuch An der Frauenschule der preußischen Adeligen Ida von Kortzfleisch entstand das bis heute bekannte bayerische Kochbuch. J 1 11.10.2015 So 12.10.2015 6178 7872 14050 22 26 24 120 52 69 60 132
Ben Bernie and All the Lads Jack Pettis spielte in Ben Bernie and All the Lads das erste filmisch dokumentierte Saxophon­solo. N 1 11.10.2015 So 12.10.2015 1352 2254 3606 5 8 6 158 13 16 14 124
Obořiště Das Theologische Institut der Gemeinde Obořiště wurde 1950 gewaltsam aufgelöst. J 1 12.10.2015 Mo 13.10.2015 10622 4196 14818 35 14 25 40 41 47 44 114
Adam Selbert Adam Selbert war der starke Mann hinter einer starken Frau. N 1 12.10.2015 Mo 13.10.2015 18600 12593 31193 62 42 52 68 146 181 164 124
Schloss Bagatelle (Abbeville) Dem Schloss Bagatelle widmete der französische Dichter Michel-Jean Sedaine ein Gedicht. J 1 13.10.2015 Di 14.10.2015 11232 4276 15508 38 14 26 38 45 48 46 107
Johann Nepomuk Tröndlin Johann Nepomuk Tröndlin schuf Klaviere und einen Oberbürgermeister. N 1 13.10.2015 Di 14.10.2015 7582 4081 11663 25 14 20 54 41 44 42 108
Goldener Brief Der Goldene Brief fand fast 250 Jahre lang keine Beachtung, bevor er im Oktober 2015 in das UNESCO-Weltdokumentenerbe aufgenommen wurde. J 1 14.10.2015 Mi 15.10.2015 32844 15521 48365 110 53 82 48 149 210 180 141
Regenkönigin Seit zwei Jahrhunderten regieren Regenköniginnen den Stamm der Balobedu in Südafrika. N 1 14.10.2015 Mi 15.10.2015 18808 10986 29794 63 37 50 59 95 100 98 105
Anthony Morse Der Mathematiker Anthony Morse betätigte sich gelegentlich auch als Klempner. J 1 15.10.2015 Do 16.10.2015 17978 5508 23486 61 19 40 31 93 88 91 94
Der falsche Inder Der falsche Inder ist eine gerahmte Fluchtgeschichte in acht Varianten. N 1 15.10.2015 Do 16.10.2015 9754 4417 14171 33 15 24 46 61 57 59 93
Burg Ligist Alle Männer durften einmal im Jahr auf die Burg Ligist zu einem Festmahl kommen. J 1 16.10.2015 Fr 17.10.2015 34113 4511 38624 118 17 67 14 178 105 141 59
Joshua Ryne Goldberg Joshua Ryne Goldberg gab sich unter anderem als muslimischer Prediger, jüdischer Anwalt und feministische Aktivistin aus. N 1 16.10.2015 Fr 17.10.2015 15668 4000 19668 54 15 34 27 123 97 110 79
Parkettierung mit Fünfecken Eine von einer Hausfrau entdeckte Parkettierung mit Fünfecken schmückt mittlerweile den Eingang zur Mathematical Association of America in Washington. J 1 17.10.2015 Sa 18.10.2015 17346 10604 27950 63 37 50 58 146 188 167 129
La bonne Cuisine de Madame E. Saint-Ange La bonne Cuisine de Madame E. Saint-Ange ist ein unverwüstlicher französischer Kochbuchklassiker. N 1 17.10.2015 Sa 18.10.2015 3547 3398 6945 13 12 12 92 37 55 46 146
Variationen für Orchester (Schönberg) Mit seinen Variationen für Orchester stellte Arnold Schönberg sein erstes Orchesterwerk in strenger Zwölftontechnik vor. J 1 18.10.2015 So 19.10.2015 1890 2295 4185 7 8 7 115 16 20 18 126
Susana Soca Susana Soca verschaffte Exilierten eine Publikationsmöglichkeit. N 1 18.10.2015 So 19.10.2015 3926 2956 6882 14 10 12 71 37 21 29 56
Die Neger (Jean Genet) Bei Aufführungen des Theaterstücks Die Neger muss mindestens ein Weißer im Publikum sein. J 1 19.10.2015 Mo 20.10.2015 35606 13130 48736 118 44 81 37 138 146 142 105
Roger Quilliot Der französische Wohnungsbauminister Roger Quilliot war auch Fachmann für das Werk von Albert Camus. N 1 19.10.2015 Mo 20.10.2015 1879 1250 3129 6 4 5 67 15 18 16 121
Smerinthus atlanticus Ob es sich bei Smerinthus atlanticus nicht eigentlich um ein Abendpfauenauge handelt, ist umstritten. J 1 20.10.2015 Di 21.10.2015 6681 3086 9767 22 10 16 47 26 35 31 131
Hilfskrankenhaus Gunzenhausen Das Hilfskrankenhaus Gunzenhausen war für den Day After vorgesehen. N 1 20.10.2015 Di 21.10.2015 30459 14178 44637 101 48 74 47 163 153 158 94
Kalkofenanlagen Walheim/Kornelimünster Die Rohstoffe für die Kalkofenanlagen Walheim/Kornelimünster bei Aachen entstanden in einem tropischen Flachmeer. J 1 21.10.2015 Mi 22.10.2015 12430 3728 16158 42 13 27 30 57 50 54 89
Die Verschwundenen (Nordirland) Manche Verschwundene bleiben auch noch nach Jahrzehnten in Nordirland politisch präsent. N 1 21.10.2015 Mi 22.10.2015 21358 12731 34089 72 43 58 60 108 116 112 107
Fliesensaal Schloss Caputh Der Preußenkönig Friedrich Wilhelm I. liebte die Darstellungen im Fliesensaal von Schloss Caputh. J 1 22.10.2015 Do 23.10.2015 22807 7274 30081 77 24 51 32 118 113 116 95
Mingo Logan gegen EPA Beim Rechtsstreit Mingo Logan gegen EPA konnten sich Umweltschützer und -behörden gegen Industrievertreter durchsetzen. N 1 22.10.2015 Do 23.10.2015 6605 3355 9960 22 11 17 50 42 42 42 101
Schlossgarten (Karlsruhe) Mit dem Schlossgarten beginnt im Zentrum der Groß­stadt Karlsruhe ein Landschafts­schutz­gebiet. J 1 23.10.2015 Fr 24.10.2015 8269 1520 9789 28 6 17 20 42 36 39 85
Lois Deppe Lois Deppe war der erste afroamerikanische Sänger, der im US-Radio auftrat. N 1 23.10.2015 Fr 24.10.2015 7202 2662 9864 24 10 17 41 55 65 60 118
Pelham Park and City Island Railroad Die Einschienenbahn der Pelham Park and City Island Railroad entgleiste schon bei ihrer Jungfernfahrt. J 1 24.10.2015 Sa 25.10.2015 16049 6583 22632 59 24 41 40 136 120 128 89
Eschara (Antikensammlung Berlin V.I. 4563) Schlangen und Warzen schmücken die Eschara in Berlin. N 1 24.10.2015 Sa 25.10.2015 7113 4790 11903 26 17 22 66 75 79 77 105
Shynghyz Einige Monate vor seinem Tod wurde Shynghyz von einem Zooangestellten im Leopardenkostüm dargestellt. J 1 25.10.2015 So 26.10.2015 22135 17400 39535 80 58 69 73 191 152 172 80
Mikroaggression Mikroaggressionen wurden zuerst für den Bereich alltäglicher Kommunikation beschrieben. N 1 25.10.2015 So 26.10.2015 8577 10666 19243 31 36 33 115 83 75 79 91
Frühe anatolische Tierteppiche Frühe anatolische Tierteppiche dienten zur Datierung islamischer Kunstwerke. J 1 26.10.2015 Mo 27.10.2015 6531 4770 11301 22 16 19 73 26 53 39 210
Randgruppenstrategie Die Randgruppenstrategie überschätzte das revolutionäre Potential von Heim­zöglingen. N 1 26.10.2015 Mo 27.10.2015 11549 7498 19047 39 25 32 65 91 108 100 118
Kleinschnittger F 125 Der Kleinschnittger F 125 wurde zum Wenden nötigenfalls angehoben. J 1 27.10.2015 Di 28.10.2015 47690 17963 65653 160 60 110 38 191 202 196 106
Camillo Valota Camillo Valota war der Namensgeber für die Romanfigur Don Camillo. N 1 27.10.2015 Di 28.10.2015 23301 8757 32058 78 29 54 38 126 95 110 75
Burg Birkenfels (Elsass) Der Bergfried der Burg Birkenfels wurde nie fertig. J 1 28.10.2015 Mi 29.10.2015 28929 9637 38566 97 32 65 33 132 129 130 98
John S. Davenport John S. Davenport ordnete 10.063 verschiedene Talermünzen. N 1 28.10.2015 Mi 29.10.2015 11785 5514 17299 40 18 29 47 60 50 55 83
Zourafa Der Name der griechischen Insel Zourafa findet sich schon auf der Seekarte von Piri Reis aus dem Jahr 1521. J 1 29.10.2015 Do 30.10.2015 10659 2978 13637 36 10 23 28 55 47 51 86
Pierre Sudreau Ein Briefwechsel mit Pierre Sudreau gilt als Inspiration für Antoine de Saint-Exupérys Erzählung Der kleine Prinz. N 1 29.10.2015 Do 30.10.2015 4714 2201 6915 16 7 12 47 29 28 29 96
Vollsichtkarosserie Die Vollsichtkarosserie ist der weitgehend gescheiterte Versuch, einen Anglizismus zu vermeiden. J 1 30.10.2015 Fr 01.11.2015 45943 11310 57253 156 39 98 25 236 249 243 105
Parti républicain-socialiste Der Parti républicain-socialiste strebte die Vergesellschaftung der Produktionsmittel mittels Arbeitsaktie (action de travail) an. N 1 30.10.2015 Fr 01.11.2015 2544 1325 3869 9 5 7 53 20 31 25 154
Teufelslappen Wer den Teufelslappen passiert, ist dem Ende nah. J 1 31.10.2015 Sa 19452 19452 71 162
Guillotine von Luzern Die Guillotine von Luzern ist als Schweizer Präzisionsinstrument heute noch einsatzfähig. N 1 31.10.2015 Sa 17557 17557 64 184
Kartenlegerin von Suhl Die DDR-Justiz nahm die Kartenlegerin von Suhl sehr ernst. N 1 31.10.2015 Sa 12627 12627 46 132
Ronald Clark O’Bryan Ronald Clark O’Bryan, der sogenannte „Candyman“, sollte an Halloween 1982, dem achten Jahrestag seines Verbrechens, hingerichtet werden. N 1 31.10.2015 Sa 15223 15223 55 159
Butler’s Wharf In Butler’s Wharf schufteten Schauerleute, lärmten Punkbands und chillen Hipster. J 1 01.11.2015 So 02.11.2015 11460 11993 23453 40 39 39 98 95 102 99 108
Hermann Kagerer Hermann Kagerer entkam dem Konzentrationslager nur, weil er einem Gendarmen geholfen hatte. N 1 01.11.2015 So 02.11.2015 12536 16152 28688 43 53 48 121 116 111 114 96
Wirmer-Flagge Die heute von rechtsextremen und rechtspopulistischen Gruppierungen verwendete Wirmer-Flagge hat ihren Ursprung im Widerstand gegen den Nationalsozialismus. J 1 02.11.2015 Mo 03.11.2015 62335 18962 81297 203 63 133 31 237 209 223 88
Cantique de Jean Racine (Fauré) Gabriel Faurés frühes Chorwerk Cantique de Jean Racine weist voraus auf die „Würde und die vollendete Einfachheit“ seines späteren Requiems. N 1 02.11.2015 Mo 03.11.2015 1017 674 1691 3 2 3 67 8 10 9 122
Jules Beau Der französische Fotograf Jules Beau gilt als einer der ersten Sportberichterstatter der Geschichte. J 1 03.11.2015 Di 04.11.2015 10150 2064 12214 34 7 20 20 40 23 31 57
Zehn Tipps, das Morden zu beenden und mit dem Abwasch zu beginnen Der Isländer Hallgrímur Helgason bietet Zehn Tipps, das Morden zu beenden und mit dem Abwasch zu beginnen. N 1 03.11.2015 Di 04.11.2015 22964 10165 33129 76 34 55 44 122 108 115 88
Gasometer Grasbrook Der Gasometer Grasbrook, der zu seiner Zeit größte Gasbehälter Europas, explodierte zehn Wochen nach seiner Inbetriebnahme. J 1 04.11.2015 Mi 05.11.2015 54867 15338 70205 181 51 116 28 245 205 225 84
Die 80er Show Die 80er Show war 2002 stilbildend für nachfolgende Showkonzepte. N 1 04.11.2015 Mi 05.11.2015 26173 11364 37537 86 38 62 44 130 102 116 79
Angustopila dominikae Angustopila dominikae ist die kleinste bekannte Landlungenschnecke. J 1 05.11.2015 Do 06.11.2015 8784 2654 11438 29 9 19 31 45 42 43 93
Katniss Everdeen Katniss Everdeen ist das Mädchen, das in Flammen steht. N 1 05.11.2015 Do 06.11.2015 33642 16119 49761 113 55 84 49 209 205 207 98
Lützelbrunnen Der Lützelbrunnen war schon bekannt, als er noch gar nicht in Tübingen war. J 1 06.11.2015 Fr 07.11.2015 15715 3551 19266 54 13 33 24 81 81 81 100
Caroline Marbouty Caroline Marbouty setzte ihren Vorsatz, den populären Schriftsteller Honoré de Balzac zu verführen, erfolgreich in die Tat um. N 1 06.11.2015 Fr 07.11.2015 16799 5414 22213 57 19 38 34 131 129 130 99
Archäologische Fenster (Aachen) Die archäologischen Fenster Aachens erlauben Blicke in die bewegte Vergangenheit der Stadt. J 1 07.11.2015 Sa 08.11.2015 9688 3700 13388 35 13 24 37 80 64 72 81
Gourmet (Genre) Das Comic- und Anime-Genre Gourmet widmet sich ganz dem Kochen und Essen. N 1 07.11.2015 Sa 08.11.2015 3117 2365 5482 11 8 10 73 32 37 35 116
Ruth Golan Ruth Golan restaurierte die größte Synagoge Deutschlands. J 1 08.11.2015 So 09.11.2015 7004 6211 13215 24 20 22 82 58 52 55 90
June und Jennifer Gibbons Erst nach dem Tod ihrer Zwillingsschwester Jennifer schien für June ein normales Leben möglich. N 1 08.11.2015 So 09.11.2015 25474 40706 66180 87 129 108 148 234 273 254 117
Karl Türk (Politiker) Karl Türk brachte am 9. November 1899 erneut den Ritualmord­vorwurf gegen die Juden in die Debatte des Österrei­chischen Abgeordneten­hauses. J 1 09.11.2015 Mo 10.11.2015 25345 6688 32033 80 21 51 27 94 71 83 76
Helmut Kallmann Als einziger seiner Familie konnte der spätere kanadische Musikhistoriker Helmut Kallmann nach den November­pogromen mit einem Kinder­transport nach England gerettet werden. N 1 09.11.2015 Mo 10.11.2015 7037 3858 10895 22 12 17 55 53 53 53 100
Grubenhaussiedlung am Petersteich Die Grubenhaussiedlung am Petersteich wurde 1992 von einem Luftbildarchäologen entdeckt. J 1 10.11.2015 Di 11.11.2015 28076 10480 38556 90 33 61 37 107 111 109 104
Laantje van Van der Gaag Die Bahnlinie Amsterdam–Rotterdam musste fünf Tage lang einen Bogen um das Laantje van Van der Gaag machen. N 1 10.11.2015 Di 11.11.2015 21178 9240 30418 68 29 48 43 109 94 101 87
Nocticron Zu den Stärken eines Nocticrons gehören scharfe Schüsse bei Kerzenlicht. J 1 11.11.2015 Mi 12.11.2015 30635 11845 42480 97 38 68 39 132 152 142 116
Heinrich Mohaupt Heinrich Mohaupts bahnbrechende Erfindung kam anfangs nicht so richtig an. N 1 11.11.2015 Mi 12.11.2015 32336 15405 47741 103 50 76 48 155 133 144 86
Appenzeller Bibliobahn Die Appenzeller Bibliobahn landete nach nur 20 Jahren auf dem Abstellgleis. J 1 12.11.2015 Do 13.11.2015 24233 9962 34195 78 32 55 41 119 148 134 124
Pelotonfeuer Pelotonfeuer trug entscheidend zur Niederlage Naploeon Bonapartes bei. N 1 12.11.2015 Do 13.11.2015 37708 20464 58172 121 66 94 54 225 246 236 109
Castalia (Schiff) Das Fährschiff Castalia trug vierzehn verschiedene Namen. J 1 13.11.2015 Fr 14.11.2015 23337 3006 26343 75 10 43 13 114 64 89 56
Wicken Fen Die Pfade in und um Wicken Fen wurden auf Google Street View schon lange vor den meisten Stadtgebieten Großbritanniens gezeigt. N 1 13.11.2015 Fr 14.11.2015 18037 5272 23309 58 18 38 30 133 118 125 89
Miriam Battista Das einzige von Miriam Battista geschaffene Musical wurde bereits nach zwölf Vorstellungen abgesetzt. J 1 14.11.2015 Sa 15.11.2015 8668 4060 12728 29 12 21 43 67 63 65 94
Marcella Pattyn Als Marcella Pattyn starb, endete die jahrhundertealte Tradition der Beginen. N 1 14.11.2015 Sa 15.11.2015 15122 10017 25139 51 31 41 60 146 140 143 96
Blutroter Meerampfer Der Blutrote Meerampfer stillt Blutungen. J 1 15.11.2015 So 16.11.2015 8257 11112 19369 25 31 28 122 60 80 70 133
Karl Borromäus Alexander Sessa Das obrigkeitliche Verbot der antisemitischen Stücke Alexander Sessas steigerte das Interesse an deren Inhalten. N 1 15.11.2015 So 16.11.2015 5308 4359 9667 16 12 14 74 43 25 34 59
Gedenkstätte bei Bokel Für einige der Toten, denen die Gedenkstätte bei Bokel gewidmet ist, waren Schein­begräbnisse mit sand­gefüllten Särgen angeordnet worden. J 1 16.11.2015 Mo 17.11.2015 35113 11704 46817 97 31 64 32 113 104 109 92
Theobald Lang Theobald Langs Homosexuellen-These war nicht nur falsch, sondern im National­sozialismus auch ideologisch unerwünscht. N 1 16.11.2015 Mo 17.11.2015 27362 13599 40961 75 36 56 48 178 156 167 88
George Brinton House Das George Brinton House gilt als ein spätes Beispiel für den Federal Style in Pennsylvania. J 1 17.11.2015 Di 18.11.2015 11893 3763 15656 32 10 21 31 38 33 35 87
NoPhone NoPhone sieht nicht nur so aus. N 1 17.11.2015 Di 18.11.2015 39743 17487 57230 106 46 76 43 171 146 159 86
Aus tiefer Not schrei ich zu dir, BWV 38 In Bachs Choralkantate Aus tiefer Not schrei ich zu dir, BWV 38, spielen vier Posau­nen mit den Sing­stimmen. J 1 18.11.2015 Mi 19.11.2015 4824 2971 7795 13 9 11 69 17 34 26 202
Beast Quake Beast Quake löste ein Erdbeben aus. N 1 18.11.2015 Mi 19.11.2015 32395 21239 53634 85 62 73 73 127 166 147 131
Unruhen vom 6. Februar 1934 Bei den Unruhen vom 6. Februar 1934 wäre es rechts­radika­len Demon­stran­ten beinahe ge­lungen, das Palais Bour­bon zu stürmen, wo die französi­sche Ab­geordneten­kammer gerade tagte. J 1 19.11.2015 Do 20.11.2015 13635 3199 16834 40 10 25 26 61 48 55 80
Jean Jullien (Grafiker) Jean Jullien erzielte mit seiner Grafik Peace4Paris 1,3 Millionen Likes binnen 24 Stunden. N 1 19.11.2015 Do 20.11.2015 13080 5611 18691 38 18 28 48 71 69 70 98
Römisches Marschlager von Wilkenburg Entscheidend für das Erkennen des Römischen Marschlagers von Wilkenburg waren seine abgerundeten Ecken. J 1 20.11.2015 Fr 21.11.2015 23162 5733 28895 76 20 48 26 115 127 121 110
Andrea (Lied) Dass Andrea nicht gleich Andrea ist, war deutschsprachigen Musikfans 1979 anscheinend noch nicht bekannt. N 1 20.11.2015 Fr 21.11.2015 27201 9236 36437 89 32 61 36 204 214 209 105
Don Francisco (Fernsehmoderator) Don Francisco moderierte 53 Jahre lang die langlebigste Fernsehshow der Welt. J 1 21.11.2015 Sa 22.11.2015 14266 8367 22633 50 28 39 56 114 142 128 124
No Music Day Der jährlich am 21. November stattfindende No Music Day soll musikalischer Reizüberflutung entgegenwirken. N 1 21.11.2015 Sa 22.11.2015 4995 3246 8241 17 11 14 62 50 50 50 99
Maximale Interkuspidation Maximale Interkuspidation, damit Sie kraftvoll zubeißen können. J 1 22.11.2015 So 23.11.2015 15254 13600 28854 51 43 47 84 122 112 117 92
Hermann Wiesler Hermann Wiesler war ein Gegner des publish or perish. N 1 22.11.2015 So 23.11.2015 6981 9654 16635 23 30 27 130 62 64 63 103
Pferdetreppe Pferdetreppen ermöglichten eine platzsparende Unterbringung von Pferden in Großstädten. J 1 23.11.2015 Mo 24.11.2015 52463 16017 68480 165 51 108 31 192 170 181 89
Ta-Nehisi Coates Ta-Nehisi Coates forderte im Jahr 2014 Reparationen für die 250 Jahre Sklaverei in den USA. N 1 23.11.2015 Mo 24.11.2015 16605 8810 25415 52 28 40 54 123 120 122 98
BMW Flugmotorenfabrik Eisenach In der BMW Flugmotorenfabrik Eisenach wurden unter anderem Motoren für die Ju 52 gefertigt. J 1 24.11.2015 Di 25.11.2015 28523 8436 36959 91 27 59 30 108 90 99 84
Always Coca-Cola Always Coca-Cola behandelt intime Konfliktzonen in Beirut. N 1 24.11.2015 Di 25.11.2015 30212 12655 42867 96 41 68 42 155 131 143 84
Alma und das Genie In Alma und das Genie verfällt der Pianist den Reizen einer der begehr­testen Femmes fatales des 20. Jahr­hunderts. J 1 25.11.2015 Mi 26.11.2015 22118 6265 28383 71 20 46 28 96 81 88 84
Invertierte Detektivgeschichte Bei Inspektor Columbo kommt neben dessen zer­knautschtem Trench­coat das Prinzip der inver­tierten Detektiv­geschichte zum Tragen. N 1 25.11.2015 Mi 26.11.2015 22251 10915 33166 72 35 53 49 108 95 101 88
Bernardo Bandini Baroncelli Von der Leiche des gehenkten Bernardo Bandini Baroncelli fertigte Leonardo da Vinci eine Skizze an. J 1 26.11.2015 Do 27.11.2015 40420 11526 51946 131 38 84 29 200 177 188 88
Reisender Krieger Seine Odyssee führt den reisenden Krieger durch Schweizer Kosmetik­salons. N 1 26.11.2015 Do 27.11.2015 13887 7544 21431 45 25 35 56 83 94 88 113
Manoir de Kerazan Zum Manoir de Kerazan gehört ein Violoncello aus Porzellan. J 1 27.11.2015 Fr 28.11.2015 11787 2466 14253 39 9 24 22 59 55 57 93
Bahnstrecke Auray–Quiberon Der Korkenzieher von Quiberon wird nur im Sommer genutzt. N 1 27.11.2015 Fr 28.11.2015 24885 8355 33240 83 29 56 35 189 195 192 103
Le Chef de l’Hôtel Chatham Chester mochte keinen Käse. J 1 28.11.2015 Sa 29.11.2015 21459 8120 29579 75 27 51 36 172 138 155 80
Der Geisha Boy Eine Kopie des Geisha Boys wurde bei einer Durchsuchung von Erich Honeckers Datscha gefunden. N 1 28.11.2015 Sa 29.11.2015 25893 15015 40908 91 50 70 55 261 230 245 88
Oberleitungsbus Durban Ein Papagei löste einen Unfall beim Oberleitungsbus Durban aus. J 1 29.11.2015 So 30.11.2015 14930 14847 29777 50 47 48 93 119 122 121 102
Münzwurf von Rotterdam Morast war schuld, dass der Münzwurf von Rotterdam wiederholt werden musste. N 1 29.11.2015 So 30.11.2015 18501 25962 44463 62 81 72 132 165 172 169 104
Emiliano Fittipaldi Warum Emiliano Fittipaldi im Vatikanstaat vor Gericht steht? J 1 30.11.2015 Mo 01.12.2015 37541 10467 48008 118 33 76 28 138 112 125 81
Diamantbergwerk Venetia Das Diamantbergwerk Venetia im Norden Südafrikas fördert jährlich beinahe eine Tonne Diamanten. N 1 30.11.2015 Mo 01.12.2015 19928 9393 29321 62 30 46 48 148 129 138 87
Es Galliner de Madona Ein Hühnerstall soll Weltkulturerbe werden. J 1 01.12.2015 Di 02.12.2015 33491 14134 47625 107 45 76 43 127 152 139 119
Fizzical Die Fizzical erlitt acht schwere Havarien – in nur einer Saison. N 1 01.12.2015 Di 02.12.2015 27892 14694 42586 89 47 68 53 143 152 148 106
Peter-Ulrich-Haus Im Peter-Ulrich-Haus befanden sich schon Wohnungen, ein Restaurant, ein Pferde­stall und ein Theater. J 1 02.12.2015 Mi 03.12.2015 14220 3760 17980 46 11 29 25 62 45 54 73
Clara Klabunde Clara Klabunde war die erste Gerichts­präsidentin Deutsch­lands. N 1 02.12.2015 Mi 03.12.2015 9658 4664 14322 31 14 23 45 47 38 42 81
Salve Regina (Latry) Die sieben Orgel­meditationen Salve Regina von Olivier Latry tragen Satz­bezeich­nungen wie „hämmernd und wild“. J 1 03.12.2015 Do 04.12.2015 3643 1133 4776 11 3 7 31 17 16 16 94
Rivka Zohar Rivka Zohar wurde mit einem Lied über gefallene israeli­sche Soldaten bekannt. N 1 03.12.2015 Do 04.12.2015 7554 3807 11361 23 12 17 51 42 43 43 102
Liste der Stolpersteine in Spanien Gunter Demnig verlegte im April 2015 erstmals Stolpersteine in Spanien. J 1 04.12.2015 Fr 05.12.2015 13730 2429 16159 42 9 25 21 63 55 59 87
Bioaerosol Bioaerosole sind ursächlich für diverse Atemwegserkrankungen. N 1 04.12.2015 Fr 05.12.2015 7590 1993 9583 23 7 15 31 53 47 50 89
The Wende Museum Die weltweit größte Sammlung von DDR-Erinnerungsstücken befindet sich im kalifornischen Wende Museum. J 1 05.12.2015 Sa 06.12.2015 10125 6681 16806 36 23 29 63 82 115 99 140
Tarrington Das australische Tarrington ist eine Gründung sorbischer Auswanderer aus der Oberlausitz. N 1 05.12.2015 Sa 06.12.2015 5083 4733 9816 18 16 17 89 52 74 63 142
Duftbruch In den nächsten Monaten ist verstärkt mit Duftbruch zu rechnen. J 1 06.12.2015 So 07.12.2015 25747 25851 51598 87 80 84 92 209 211 210 101
Büro für Weihnachtslieder In Graz gibt es schon seit 25 Jahren das Büro für Weihnachtslieder. N 1 06.12.2015 So 07.12.2015 4418 5683 10101 15 18 16 118 40 37 39 93
Druckerei J. J. Augustin Die chinesischen Schriftzeichen auf dem Grabstein des Druckerei­besitzers sind der Tätigkeit der Druckerei J. J. Augustin geschuldet. J 1 07.12.2015 Mo 08.12.2015 13757 5371 19128 43 17 30 40 50 57 54 115
Madame Marguerite oder die Kunst der schiefen Töne Die typische New Yorker Geschichte Madame Marguerite oder die Kunst der schiefen Töne ist in Paris angesiedelt. N 1 07.12.2015 Mo 08.12.2015 4122 2196 6318 13 7 10 55 30 30 30 100
Victor Breyer Der französische Radsportfunktionär Victor Breyer wurde vom späteren Tour-de-France-Sieger Octave Lapize als „Mörder“ beschimpft. J 1 08.12.2015 Di 09.12.2015 18612 7341 25953 60 24 42 40 71 79 75 111
Space Pirate Captain Harlock (Film) Der Weltraumpirat Captain Harlock kämpft im Jahr 2977 gegen eine totalitäre Regierung. N 1 08.12.2015 Di 09.12.2015 26555 13150 39705 85 42 64 50 137 136 136 99
Großer Kammstern Der Große Kammstern verschlingt seine Beute als Ganzes. J 1 09.12.2015 Mi 10.12.2015 24028 11909 35937 77 38 58 50 105 153 129 146
Lilian Loke Lilian Loke errang ihren Ruhm mit Gold in den Straßen. N 1 09.12.2015 Mi 10.12.2015 7443 4184 11627 24 13 19 56 36 36 36 100
Hutton-in-the-Forest Hall Bei der Raumgestaltung von Hutton-in-the-Forest Hall spielen Putten eine große Rolle. J 1 10.12.2015 Do 11.12.2015 18688 4379 23067 60 15 37 24 92 67 80 73
Stelzfuß von Capua Die älteste erhaltene Beinprothese der Welt wurde bei einem deutschen Luftangriff unwiederbringlich zerstört. N 1 10.12.2015 Do 11.12.2015 30909 12406 43315 100 41 70 41 185 154 169 83
Burg Wachtendonk Die fast vollständig verschwundene Burg Wachtendonk wurde in den 1960er Jahren durch Aufmauerung wieder sichtbar gemacht. J 1 11.12.2015 Fr 12.12.2015 31737 7061 38798 105 25 65 23 159 156 158 98
Vladimír Groh Der klassische Philologe Vladimír Groh wurde 1941 wegen seiner Tätigkeit im Widerstand verhaftet und hingerichtet. N 1 11.12.2015 Fr 12.12.2015 10705 3928 14633 36 14 25 38 81 91 86 112
Thérèse de Dillmont Thérèse de Dillmont hat selbst dann einen Rat, wenn der Faden besonders kurz ist. J 1 12.12.2015 Sa 13.12.2015 13242 5200 18442 46 17 32 38 106 88 97 83
Clarence Osborne Der Fall Clarence Osborne gilt als einer der komplexesten in der Kriminalgeschichte. N 1 12.12.2015 Sa 13.12.2015 21460 13061 34521 75 44 59 58 215 200 207 93
Mädchen mit Papagei Das Mädchen mit Papagei beflügelte den Zinkguss in Bayern und den Zinkbergbau in Oberschlesien. J 1 13.12.2015 So 14.12.2015 6291 12361 18652 21 34 28 163 50 90 70 178
Pinguin-Pullover Auch Pinguine tragen Pullover. N 1 13.12.2015 So 14.12.2015 9162 15402 24564 31 43 37 139 82 90 86 110
Andromeda-Milchstraßen-Kollision Die Kollision der Milchstraße mit der Andromeda-Galaxie wäre deutlich am Nachthimmel erkennbar. J 1 14.12.2015 Mo 15.12.2015 43382 11811 55193 120 36 78 30 140 120 130 86
Bahnstrecke Eilenburg–Bitterfeld Die Bahnstrecke Eilenburg–Bitterfeld hat es nie gegeben. N 1 14.12.2015 Mo 15.12.2015 27363 11746 39109 76 36 56 47 179 154 166 86
Guter Groschen Acht Gute Groschen war der Wochensold eines preußischen Soldaten unter Friedrich dem Großen. J 1 15.12.2015 Di 16.12.2015 28720 14964 43684 88 48 68 55 104 161 133 154
William John Cameron William John Cameron war der Ghostwriter Henry Fords. N 1 15.12.2015 Di 16.12.2015 5630 4152 9782 17 13 15 78 28 43 35 155
Moko (Geld) Auf Hochzeiten waren Mokos nicht zum Trommeln, sondern zum Bezahlen da. J 1 16.12.2015 Mi 17.12.2015 12824 5604 18428 41 18 30 44 56 72 64 129
Markovič-Affäre Die Markovič-Affäre leitete einen Präsidentenwechsel in Frankreich ein. N 1 16.12.2015 Mi 17.12.2015 13956 5529 19485 45 18 31 40 68 48 58 71
Georg P. Salzmann Georg P. Salzmann baute in seinem Wohnhaus die Bibliothek der verbrannten Bücher mit mehr als 14.000 Bänden auf. J 1 17.12.2015 Do 18.12.2015 14257 4914 19171 46 16 31 36 70 76 73 108
Elli Smula Die Straßenbahnschaffnerin Elli Smula wurde, weil sie lesbisch gewesen sein soll, in ein KZ deportiert und starb dort im Alter von 28 Jahren. N 1 17.12.2015 Do 18.12.2015 431033 1718439 2149472 1389 5729 3559 412 2577 21438 12008 832
Freikorps Epp Das Freikorps Epp gilt als eine der „Geburtszellen“ der NS-Bewegung. J 1 18.12.2015 Fr 19.12.2015 43398 10653 54051 145 38 91 26 219 239 229 109
Józef Mackiewicz Józef Mackiewicz war Augenzeuge bei den Exhumierungen der Opfer des Massakers von Katyn. N 1 18.12.2015 Fr 19.12.2015 12436 4887 17323 41 17 29 42 95 115 105 121
Mon légionnaire Édith Piafs Interpretation machte aus einer von Mon légionnaire verlassenen eine begehrende Frau. J 1 19.12.2015 Sa 20.12.2015 5549 2523 8072 20 9 14 44 45 44 44 97
Tele-Ski Dank Tele-Ski war Wintersport auch im heimischen Wohnzimmer möglich. N 1 19.12.2015 Sa 20.12.2015 10133 7366 17499 36 25 30 70 103 115 109 111
Maurice Costello Der einst erfolgreiche Hollywoodstar Maurice Costello musste zuletzt als Statist arbeiten. J 1 20.12.2015 So 21.12.2015 18150 13047 31197 62 42 52 69 148 111 129 75
Niloufar Ardalan Der Ehemann von Niloufar Ardalan verhinderte deren Einsatz bei einem Spiel der iranischen Futsalnationalmannschaft. N 1 20.12.2015 So 21.12.2015 13095 11956 25051 44 39 42 87 119 82 101 69
Republik Elsaß-Lothringen Die Republik Elsaß-Lothringen erklärte nach dem Ersten Weltkrieg ihre Unabhängigkeit. J 1 21.12.2015 Mo 22.12.2015 26988 10119 37107 88 33 61 38 102 111 107 109
Salz und sein Preis Patricia Highsmith schrieb den Roman Salz und sein Preis unter Pseudonym, um nicht als Autorin für lesbische Literatur abgestempelt zu werden. N 1 21.12.2015 Mo 22.12.2015 8327 5606 13933 27 18 23 68 64 79 72 124
Amerikanischer Webebär Aus so mancher Raupe Nimmersatt wird später ein Amerikanischer Webebär. J 1 22.12.2015 Di 23.12.2015 11564 7676 19240 38 27 32 69 45 88 67 195
Reginald Marsh (Maler) Reginald Marsh war einer der Lehrer von Roy Lichtenstein. N 1 22.12.2015 Di 23.12.2015 4419 3159 7578 15 11 13 75 23 35 29 149
LkCa 15b Bei LkCa 15b können Astronomen erstmals die Entstehung eines Planeten beobachten. J 1 23.12.2015 Mi 24.12.2015 11546 3424 14970 40 13 26 32 54 50 52 93
Es hat sich halt eröffnet Es hat sich halt eröffnet gilt als das einzige Weihnachtslied in schwäbischer Mundart, stammt jedoch aus Tirol. N 1 23.12.2015 Mi 24.12.2015 4985 2048 7033 17 8 12 44 26 20 23 78
Stiftskirche Windecken Die Stiftskirche Windecken war nie eine. J 1 24.12.2015 Do 25.12.2015 6949 3348 10297 26 12 19 46 39 55 47 140
Flappie Flappie, das beliebteste Weihnachtslied der Niederländer, war ursprünglich gar keins. N 1 24.12.2015 Do 25.12.2015 5382 4028 9410 20 14 17 72 37 53 45 145
St. Johannes der Täufer (Hohentrüdingen) Der Kirchturm der Hohentrüdinger Dorfkirche hat drei Meter dicke Mauern. J 1 25.12.2015 Fr 26.12.2015 11416 5120 16536 40 16 28 39 61 100 81 164
Männelwecken Beim traditionellen Männelwecken wird gebastelt, geklopft, geräuchert und getrunken. N 1 25.12.2015 Fr 26.12.2015 5471 3967 9438 19 12 16 63 44 81 63 183
Cathedral of Saint Mary of the Assumption Die Cathedral of Saint Mary of the Assumption wurde 2007 für eine Liste der besten Bauwerke in San Francisco vorgeschlagen. J 1 26.12.2015 Sa 27.12.2015 7421 3083 10504 23 11 17 46 52 54 53 102
Konrad Lübeck Dem Theologen Konrad Lübeck versagte der Bischöfliche Stuhl die Lehre an einer Hochschule. N 1 26.12.2015 Sa 27.12.2015 4406 2982 7388 14 10 12 75 39 47 43 120
Grießnockerlsuppe Die Grießnockerlsuppe ist ein Klassiker der Wiener Küche. J 1 27.12.2015 So 28.12.2015 10517 7207 17724 36 24 30 68 86 64 75 74
Fando y Lis Nach der Premiere seines Debüts Fando y Lis musste Regisseur Alejandro Jodorowsky vor einem wütenden Mob fliehen. N 1 27.12.2015 So 28.12.2015 6947 7265 14212 24 25 24 103 64 52 58 82
Lifau-Monument Das Lifau-Monument erinnert an die Ankunft der Portugiesen auf Timor. J 1 28.12.2015 Mo 29.12.2015 9316 2037 11353 31 7 19 22 37 23 30 62
Linopirdin Linopirdin ist Gehirndoping für Ratten. N 1 28.12.2015 Mo 29.12.2015 6375 3208 9583 22 11 16 50 51 46 49 91
Angela Steidele Angela Steidele erzählt lesbische Liebesgeschichten aus dem 18. und 19. Jahrhundert. J 1 29.12.2015 Di 30.12.2015 13491 6102 19593 45 21 33 46 54 69 62 129
Olleke bolleke Olleke bolleke rubisolleke ist Unsinnspoesie. N 1 29.12.2015 Di 30.12.2015 9128 5979 15107 31 20 25 66 49 65 57 133
Kieferrelationsbestimmung Die Kieferrelationsbestimmung dient der Zuordnung von Ober- und Unterkiefermodellen. J 1 30.12.2015 Mi 31.12.2015 6229 1169 7398 21 4 13 19 29 16 23 57
Josine Müller Josine Müller gehörte zu den ersten Psychoanalytikerinnen, die Freuds These vom Penisneid widersprachen. N 1 30.12.2015 Mi 31.12.2015 11225 35694 46919 38 125 82 326 58 336 197 583
Bonshō Bonshō, eine große Glocke in japanischen buddhistischen Tempeln, wurde zum Symbol für den Weltfrieden. J 1 31.12.2015 Do 01.01.2016 5692 2885 8577 20 10 15 48 30 44 37 145
Bagdad. Erinnerungen an eine Weltstadt In Bagdad. Erinnerungen an eine Weltstadt kreuzt sich die Biografie des Autors mit der einer Stadt. N 1 31.12.2015 Do 01.01.2016 2252 1758 4010 8 6 7 74 15 22 18 149


Schiffsfresko von Akrotiri Das Schiffsfresko von Akrotiri von der Kykladeninsel Santorin zeigt in einem Miniaturfries die bisher größten Schiffsdarstellungen der bronzezeitlichen Ägäis. J 1 01.01.2016 Fr 02.01.2016 7641 4142 11783 25 14 19 54 37 80 59 215
Neujahrskonzert der Wiener Philharmoniker 2016 Beim Neujahrskonzert der Wiener Philharmoniker 2016 wurde erstmals in diesem Rahmen der UNO-Marsch von Robert Stolz gespielt. N 1 01.01.2016 Fr 02.01.2016 9748 3009 12757 32 10 21 30 67 60 63 89
Alexei Feodossjewitsch Wangenheim Aus der Haft in einem Gulag schickte Alexei Wangenheim seiner kleinen Tochter Anschauungsbilder zur 1936 erwarteten Sonnenfinsternis. J 1 02.01.2016 Sa 03.01.2016 9812 5619 15431 32 18 25 56 84 107 96 127
Hrappseyjarprentsmiðjan Hrappseyjarprentsmiðjan hatte mit Kirche nichts am Hut und soll Besuch aus dem Jenseits bekommen haben. N 1 02.01.2016 Sa 03.01.2016 11905 8369 20274 39 27 33 69 146 158 152 109
Weichteilhemmung Je größer die Muskeln, desto stärker die Weichteilhemmung. J 1 03.01.2016 So 04.01.2016 23115 15904 39019 74 48 61 65 187 140 164 75
Brief in die Auberginenrepublik Der Brief in die Auberginenrepublik geht durch viele Hände, erreicht seine Adressatin aber nie. N 1 03.01.2016 So 04.01.2016 16480 17455 33935 53 52 53 99 159 128 144 80
Kaengsaeng 88 Der Kaengsaeng 88 ist die nordkoreanische Raubkopie des Baby-Benz. J 1 04.01.2016 Mo 05.01.2016 70228 18263 88491 211 56 134 27 281 200 240 71
Liste gehörloser Musiker und Komponisten Wer nicht hören kann und trotzdem musiziert, steht in der Liste gehörloser Musiker und Komponisten. N 1 04.01.2016 Mo 05.01.2016 8933 4136 13069 27 13 20 48 57 47 52 83
Schloss Carrouges Der Name des Schlosses Carrouges soll auf Mord und Ehebruch zurückgehen. J 1 05.01.2016 Di 06.01.2016 23729 5517 29246 73 17 45 24 103 76 90 73
Victor Alexander John Hope, 2. Marquess of Linlithgow Lord Linlithgow erklärte in seiner Funktion als Vizekönig von Indien 1939 dem Deutschen Reich den Krieg. N 1 05.01.2016 Di 06.01.2016 12969 6135 19104 40 19 30 48 78 70 74 90
Villa Kogge In der Villa Kogge gaben sich sowohl Max Schmeling als auch Hildegard Knef das Ja-Wort. J 1 06.01.2016 Mi 07.01.2016 19605 8820 28425 62 26 44 42 69 86 77 124
NTSF:SD:SUV:: NTSF:SD:SUV:: parodiert aktuelle amerikanische Krimiserien. N 1 06.01.2016 Mi 07.01.2016 17486 11983 29469 55 35 45 64 107 132 119 124
USS Joseph P. Kennedy, Jr. (DD-850) Es waren einmal drei Kennedys und ein Zerstörer. J 1 07.01.2016 Do 08.01.2016 43125 12683 55808 126 41 83 32 171 180 176 105
Schweizer Truppen in fremden Diensten Etliche Offiziere der Schweizer Truppen in fremden Diensten nutzten ihre Dienstzeit zum Aufbau von internationalen Beziehungen und für ihre geschäftliche Entwicklung als Handelsherren. N 1 07.01.2016 Do 08.01.2016 20338 8884 29222 59 28 44 48 129 130 129 101
Xenokeryx Der Kopf von Xenokeryx erinnerte die Erstbeschreiber an Königin Amidala aus dem Star-Wars-Universum. J 1 08.01.2016 Fr 09.01.2016 26342 6657 32999 84 22 53 26 124 132 128 106
Marie Dubas Die junge Édith Piaf ließ sich von der Chansonette Marie Dubas inspirieren. N 1 08.01.2016 Fr 09.01.2016 4328 1380 5708 14 5 9 33 29 28 28 98
Türkischrotfärbung Bei der Türkischrotfärbung kamen Kuhmist, ranziges Öl und Rinderblut zum Einsatz. J 1 09.01.2016 Sa 10.01.2016 10961 6244 17205 37 20 28 55 96 120 108 126
Finkenmanöver im Harz Seit dem 15. Jahrhundert finden Finkenmanöver im Harz statt. N 1 09.01.2016 Sa 10.01.2016 8559 5771 14330 29 19 24 65 107 110 109 103
Isaac Baker Brown Isaac Baker Browns Karriere als Gynäkologe endete wegen seines aggressiven Marketings. J 1 10.01.2016 So 11.01.2016 16319 16480 32799 53 47 50 90 134 139 136 104
Monica Byrne Statt zum Mars zu fliegen, schreibt Monica Byrne Science-Fiction für Menschen, die eigentlich keine Science-Fiction lesen. N 1 10.01.2016 So 11.01.2016 7774 8929 16703 25 26 25 102 76 62 69 82
World Bicycle Relief Durch die Fahrräder der World Bicycle Relief haben die Schüler in Sambia ihre Schul­noten verbessert. J 1 11.01.2016 Mo 12.01.2016 14229 5284 19513 41 17 29 41 54 59 57 108
Big Freeze Der Big Freeze ist neben dem Big Crunch und dem Big Rip eine Hypothese zum Unter­gang des Universums. N 1 11.01.2016 Mo 12.01.2016 23544 14887 38431 68 47 57 69 144 174 159 121
Latifa Ibn Ziaten Latifa Ibn Ziaten verlor ihren Sohn Imad durch islamistischen Terror und setzt sich seither für den inter­religiösen Dialog ein. J 1 12.01.2016 Di 13.01.2016 26566 4296 30862 84 14 49 16 118 59 88 50
Liebe Mutter, es geht mir gut … Mobbing, Homosexualität und ein Mord stehen im Mittel­punkt des 1956 erschienenen Romans Liebe Mutter, es geht mir gut … N 1 12.01.2016 Di 13.01.2016 10176 4765 14941 32 15 24 47 62 55 58 88
Kippermünzstätten (Kursachsen) In kursächsischen Kippermünzstätten wurde das Material kupferner Taufbecken zur Geldverfälschung eingesetzt. J 1 13.01.2016 Mi 14.01.2016 12492 6686 19178 39 21 30 53 44 69 57 157
Dankelmann (Kirsche) Dankelmann ist selbststeril und an der Bauchseite stark zusammengedrückt. N 1 13.01.2016 Mi 14.01.2016 28092 18572 46664 89 58 73 65 171 219 195 128
C/1908 R1 (Morehouse) C/1908 R1 (Morehouse) ist einer der meistfotografierten Kometen des frühen 20. Jahrhunderts. J 1 14.01.2016 Do 15.01.2016 12748 4420 17168 40 13 27 33 54 59 57 109
Naktuka Indonesien und Osttimor streiten sich um Naktuka. N 1 14.01.2016 Do 15.01.2016 14258 6806 21064 45 20 32 46 97 93 95 97
Bonte-Kaserne Die Flensburger Bonte-Kaserne war erster Dienstsitz des Kraftfahrt-Bundesamtes. J 1 15.01.2016 Fr 16.01.2016 15190 2723 17913 46 9 27 20 67 54 61 80
The Tower The Tower hatte den zweithöchsten Ticketverkauf am Eröffnungstag in der Geschichte des koreanischen Films. N 1 15.01.2016 Fr 16.01.2016 10356 3201 13557 31 11 21 34 64 65 64 101
Durrell Wildlife Park Wer kurz vor dem Aussterben steht, darf im Durrell Wildlife Park leben. J 1 16.01.2016 Sa 17.01.2016 12923 6629 19552 43 22 32 50 113 128 121 114
Jan Jebavý Der Augenarzt Jan Jebavý war im Widerstand gegen das NS-Regime und wurde posthum zum Professor ernannt. N 1 16.01.2016 Sa 17.01.2016 4920 3006 7926 16 10 13 60 61 58 60 94
Essex House (New York City) Das Essex House ist eine New Yorker Art-Deco-Ikone aus den 1930er Jahren. J 1 17.01.2016 So 18.01.2016 9935 8817 18752 32 27 30 83 82 78 80 96
Moranbong Band Die Moranbong Band gilt als nordkoreanische Antwort auf den K-Pop. N 1 17.01.2016 So 18.01.2016 8625 11210 19835 28 34 31 121 85 83 84 97
Fayence-Manufaktur Münden Zu den hochwertigen Produkten der Fayence-Manufaktur Münden gehörten Netzvasen. J 1 18.01.2016 Mo 19.01.2016 13109 4370 17479 40 13 27 34 53 47 50 89
Gerd Hegemann Der Chirurg Gerd Hegemann beantragte im Zuge des Erlanger Professorenkrieges einen Waffenschein. N 1 18.01.2016 Mo 19.01.2016 23876 12794 36670 72 39 56 54 154 145 150 94
Negro Soldier Bill Mit einem in den letzten Kriegswochen erlassenen Bundesgesetz, das die Rekrutierung von Schwarzen legalisierte, versuchten die Südstaaten verzweifelt die drohende Niederlage im Amerikanischen Bürgerkrieg doch noch abzuwenden. J 1 19.01.2016 Di 20.01.2016 19264 4982 24246 59 15 37 26 83 66 74 79
Legio volonum In den römischen Legionen kämpften auch Sklaven als Volones, um ihre Freiheit zu erlangen. N 1 19.01.2016 Di 20.01.2016 26786 12992 39778 82 39 61 48 159 143 151 90
Liste der Brauereien in Freising Aus Münchner Behördensicht war die Anzahl der Brauereien für Freising zu hoch. J 1 20.01.2016 Mi 21.01.2016 21507 7731 29238 65 25 45 38 73 82 78 112
Jan Meier Nach seiner Lehre als Kürschner entdeckte Jan Meier seine Leidenschaft fürs Theater. N 1 20.01.2016 Mi 21.01.2016 4137 2251 6388 13 7 10 57 24 27 26 112
Oberleitungsboot Oberleitungsboote werden in Frankreich seit über 100 Jahren als Schlepper in einem Tunnel eingesetzt. J 1 21.01.2016 Do 22.01.2016 30014 10892 40906 96 33 64 35 130 148 139 113
Hans Glatzel Der Ernährungsphysiologe Hans Glatzel deckte nach dem Krieg einen Euthanasietäter. N 1 21.01.2016 Do 22.01.2016 16388 6620 23008 52 20 36 39 114 92 103 81
Erl King Die Erl King brachte etwa 17 Tage früher als die Teilnehmer des großen Tee-Rennens von 1866 frischen Tee nach London. J 1 22.01.2016 Fr 23.01.2016 20378 5017 25395 62 17 39 27 92 99 95 108
Ein plötzlicher Todesfall (Fernsehserie) Die Fernsehserie Ein plötzlicher Todesfall basiert auf einem Roman von J. K. Rowling. N 1 22.01.2016 Fr 23.01.2016 15343 3650 18993 47 12 29 26 96 73 85 76
Badebornteich Das Wasser des Badebornteichs diente Herzog Ernst August zeitweise zum Betrieb seiner Springbrunnen. J 1 23.01.2016 Sa 24.01.2016 6474 3049 9523 22 10 16 46 56 59 58 104
Huma Bhabha Huma Bhabhas Skulpturen sind von Science-Fiction und afrikanischen Masken beeinflusst. N 1 23.01.2016 Sa 24.01.2016 3997 2781 6778 13 9 11 68 50 53 51 107
Liste der Stolpersteine in Oberösterreich Sechs der 31 Stolpersteine in Oberösterreich erinnern an Kinder der Roma und Sinti. J 1 24.01.2016 So 25.01.2016 5254 6717 11971 17 21 19 122 43 61 52 142
Onno Poppinga Onno Poppinga bekam zu seinem Ruhestand Gegenwind aus Ostfriesland. N 1 24.01.2016 So 25.01.2016 11061 16124 27185 36 50 43 139 108 121 115 112
Schleppschaufel Gebrauchte Schleppschaufeln sind begehrt. J 1 25.01.2016 Mo 26.01.2016 57751 18963 76714 178 57 118 32 238 200 219 84
Liste der größten Bibliotheken in Bayern Dass es auch große Bibliotheken außerhalb Münchens gibt, zeigt die Liste der größten Bibliotheken in Bayern. N 1 25.01.2016 Mo 26.01.2016 8385 4428 12813 26 13 20 51 55 49 52 89
U-Bahn Zürich Zürich hat keine U-Bahn. J 1 26.01.2016 Di 27.01.2016 42658 13826 56484 127 43 85 33 179 186 183 103
Leo Kerz Leo Kerz schuf das Bühnenbild für die Uraufführung von Hochhuths Stück Der Stellvertreter. N 1 26.01.2016 Di 27.01.2016 2219 1013 3232 7 3 5 47 13 11 12 88
Neue Synagoge (Offenbach am Main) Die Neue Synagoge in Offenbach am Main war der erste Neubau eines jüdischen Gotteshauses nach der Shoa in Hessen. J 1 27.01.2016 Mi 28.01.2016 7081 3540 10621 22 11 16 51 24 37 31 151
Jardim de Piranhas Pater Calcavente baute im Garten der Piranhas eine Kapelle. N 1 27.01.2016 Mi 28.01.2016 10646 6028 16674 33 19 26 58 63 72 67 113
Cantono-Frigerio-System Das italienische Cantono-Frigerio-System nutzten Oberleitungsbusse und -lastkraftwagen. J 1 28.01.2016 Do 29.01.2016 19887 4603 24490 63 14 39 23 85 64 75 76
Anthony Francis Lucas Der Bohrunternehmer Anthony Francis Lucas stieß mit Unterstützung durch John D. Rockefeller 1901 auf ein großes Erdölvorkommen. N 1 28.01.2016 Do 29.01.2016 9296 4767 14063 29 15 22 51 64 69 66 108
Luokou-Eisenbahnbrücke Die Planung der Luokou-Eisenbahnbrücke über den Gelben Fluss wurde maßgeblich von der Angst der Bevölkerung vor dem Zorn des Flussgottes bestimmt. J 1 29.01.2016 Fr 30.01.2016 12219 5812 18031 38 20 29 51 57 117 87 206
Rose-Marie Wörner Rose-Marie Wörner leistete Pionierarbeit in der deutschen Gartendenkmalpflege. N 1 29.01.2016 Fr 30.01.2016 3935 1461 5396 12 5 9 40 26 30 28 117
Nereo Costantini Von Nereo Costantinis Repliken der Giulietta Capuleti aus Shakespeares Drama Romeo und Julia stehen zwei auch in Veronas Partnerstadt München. J 1 30.01.2016 Sa 31.01.2016 1857 853 2710 6 3 5 43 16 16 16 98
Peter F. Kurland Peter F. Kurland war an jedem Film der Coen-Brüder beteiligt. N 1 30.01.2016 Sa 31.01.2016 5184 3824 9008 18 12 15 69 66 72 69 110
Tarantel (Zeitschrift) Die Tarantel war heiße Lektüre im Kalten Krieg. J 1 31.01.2016 So 01.02.2016 19356 19383 38739 62 57 59 93 156 168 162 108
Synagoge Lindenstraße Nach den Zerstörungen in der Reichspogromnacht 1938 diente die Synagoge Lindenstraße in Berlin als Getreidelager. N 1 31.01.2016 So 01.02.2016 5105 5026 10131 16 15 16 91 49 36 43 73
Fernwood Cemetery Auf dem kalifornischen Ökofriedhof Fernwood Cemetery werden den Toten beim Begräbnis RFID-Trans­ponder beigegeben. J 1 01.02.2016 Mo 02.02.2016 27743 9076 36819 82 29 55 35 109 101 105 93
Krupp-Roller Der Krupp-Roller war der erste Motorroller in Deutschland. N 1 01.02.2016 Mo 02.02.2016 27790 15186 42976 82 48 65 59 175 178 176 102
André Turcat André Turcat war Kunst­historiker, Theologe und Rekord-Überschall­flieger. J 1 02.02.2016 Di 03.02.2016 31872 3995 35867 101 12 56 12 142 53 98 37
La Guardia Committee Das La Guardia Committee stellte 1944 fest, dass Marihuana­konsum weder zu Wahn­sinn führt noch Ver­brechen verursacht oder körperlich abhängig macht. N 1 02.02.2016 Di 03.02.2016 11456 6435 17891 36 20 28 54 70 71 71 101
Capybaras Die zu den Meerschweinchen gehörenden Capybaras werden bis 1,30 Meter lang und fast 80 Kilogramm schwer. J 1 03.02.2016 Mi 04.02.2016 22067 11946 34013 67 37 52 55 76 124 100 164
Eliza Lucas Pinckney Eliza Lucas Pinckney gelang die erstmalige Kultivierung und Verbreitung der Indigopflanze in den Vereinigten Staaten. N 1 03.02.2016 Mi 04.02.2016 6152 3274 9426 19 10 15 54 36 39 37 106
Brasseries de Bourbon Das von der Brasseries de Bourbon produzierte Bier erinnert an den ausgestorbenen Dodo. J 1 04.02.2016 Do 05.02.2016 21666 5268 26934 68 17 42 25 92 77 84 83
Roy Hill Railway Der Betrieb der Roy Hill Railway wird aus über 1.000 km Entfernung überwacht. N 1 04.02.2016 Do 05.02.2016 24243 9907 34150 76 32 54 43 165 148 156 90
Schloss Lankowitz Das Schloss Lankowitz war erst Straf- und Besserungsanstalt, dann Frauengefängnis und dient heute unter anderem als Heimatmuseum. J 1 05.02.2016 Fr 06.02.2016 12702 3421 16123 42 12 27 29 61 70 66 115
Alone Yet Not Alone (Lied) Das Lied Alone Yet Not Alone wurde von der Oscarverleihung 2014 ausgeschlossen. N 1 05.02.2016 Fr 06.02.2016 24804 6923 31727 81 24 53 30 167 145 156 87
Liste europäischer Inseln nach Fläche Es gibt in Europa 37 Inseln mit mehr als 1000 km² Fläche, weiß die Liste europäischer Inseln nach Fläche. J 1 06.02.2016 Sa 07.02.2016 18350 9217 27567 64 31 47 48 167 183 175 110
Antonio el Pipa Antonio el Pipa lernte von seiner Großmutter das Tanzen und trat gemeinsam mit ihr in preisgekrönten Flamenco-Shows auf. N 1 06.02.2016 Sa 07.02.2016 2581 2574 5155 9 9 9 96 33 51 42 152
Chunyun Chunyun gilt als die größte jährlich wiederkehrende Reisewelle der Welt. J 1 07.02.2016 So 08.02.2016 18537 15595 34132 62 47 55 76 156 139 148 89
Ron Rivera Ron Rivera führte die Carolina Panthers in den Super Bowl 50. N 1 07.02.2016 So 08.02.2016 5370 8501 13871 18 26 22 144 54 63 59 116
Bockwindmühle Kottmarsdorf Die Bockwindmühle Kottmarsdorf fiel 2010 angeblich einem Tornado zum Opfer. J 1 08.02.2016 Mo 09.02.2016 26879 11235 38114 82 35 59 43 109 125 117 115
Bürgermeister Abendroth Bürgermeister Abendroth gab vielen Orientierung und hatte stets Tauben dabei. N 1 08.02.2016 Mo 09.02.2016 15456 7947 23403 47 25 36 53 100 93 97 93
Schloss Valmer Der Standort des abgebrannten Schlosses Valmer wird heute durch in Form geschnittene Eiben markiert. J 1 09.02.2016 Di 10.02.2016 26162 9743 35905 83 31 57 38 116 135 126 116
Emine Naciye Tevfik Emine Naciye Tevfik war eine der ersten türkischen Malerinnen und porträtierte die Tochter des Sultans und ihre abessinische Sklavin, aber auch Goethe, Liszt, Darwin und Herbert Spencer. N 1 09.02.2016 Di 10.02.2016 14124 7146 21270 45 23 34 51 87 83 85 95
China Star (Schiff) Die China Star ist das erste Kreuzfahrtschiff mit einem Doppelrumpf. J 1 10.02.2016 Mi 11.02.2016 32730 15046 47776 104 45 75 44 117 150 134 129
Carl-von-Linde-Gymnasium Kempten Nicht nur Carl, auch Claude und ein anderer Karl besuchten das heutige Carl-von-Linde-Gymnasium Kempten. N 1 10.02.2016 Mi 11.02.2016 9774 4202 13976 31 13 22 41 60 48 54 80
NVA-Erholungsheim Frauenwald Das als „Sprungschanzenhaus“ bekannt gewordene ehemalige NVA-Erholungsheim Frauenwald soll im Frühjahr 2016 abgerissen werden. J 1 11.02.2016 Do 12.02.2016 47161 10759 57920 142 34 88 24 193 150 171 78
Nathaniel Pearce Der ruhelose Seemann Nathaniel Pearce fand in Abessinien seine Lebensaufgabe. N 1 11.02.2016 Do 12.02.2016 22871 8772 31643 69 27 48 40 150 125 137 84
Platymiscium Einige Platymiscium-Arten bieten Ameisen Unterschlupf in ihren hohlen Ästen. J 1 12.02.2016 Fr 13.02.2016 6092 1709 7801 19 6 12 31 28 35 31 124
Claudius Drusus Claudius Drusus, der Sohn des römischen Kaisers Claudius, erstickte an einer Birne. N 1 12.02.2016 Fr 13.02.2016 18296 6110 24406 57 21 39 37 118 127 122 107
Elmer’s Bottle Tree Ranch Elmer’s Bottle Tree Ranch in der Mojave-Wüste ist ein „Volkskunst-Wald“. J 1 13.02.2016 Sa 14.02.2016 8094 3334 11428 28 11 19 40 73 65 69 90
Arschlochwinkel Mit dem Arschlochwinkel machten sich die Einwohner des Salzkammerguts über zugereiste Vermesser lustig. N 1 13.02.2016 Sa 14.02.2016 24620 16252 40872 84 54 69 63 315 316 316 100
Aeham Ahmad Aeham Ahmad war in Syrien der „Pianist in den Trümmern“. J 1 14.02.2016 So 15.02.2016 9843 5919 15762 32 19 25 57 82 54 68 67
Phantom-Vibrations-Syndrom Vom Phantom-Vibrations-Syndrom soll ein Großteil der Besitzer von Mobil­telefonen betroffen sein. N 1 14.02.2016 So 15.02.2016 18836 22348 41184 62 70 66 113 187 170 179 91
Die Fieberkurve Eine „so kompliziert-verfehlte Geschichte“ wie Die Fieberkurve, so hoffte Friedrich Glauser, würde ihm nicht mehr passieren. J 1 15.02.2016 Mo 16.02.2016 17882 5471 23353 56 17 36 30 75 60 67 80
Julius Puschek Für die Übersendung der Asche von Julius Puschek verlangte die Gestapo 1.000 Reichsmark. N 1 15.02.2016 Mo 16.02.2016 23564 10394 33958 74 32 53 44 157 119 138 76
Angels Flight Angels Flight, zum Zeitpunkt ihres Baus eine der kürzesten Standseilbahnen der Welt, inspirierte Maler, Autoren und Filmschaffende. J 1 16.02.2016 Di 17.02.2016 27952 11746 39698 86 38 62 44 122 164 143 135
Toni Valeruz Vor 20 Jahren bewältigte Extremskifahrer Toni Valeruz die Matterhorn-Ostwand zum dritten Mal – und trug dabei einen Smoking. N 1 16.02.2016 Di 17.02.2016 14927 9916 24843 46 32 39 69 90 115 103 129
Theodor Siebert Theodor Siebert, ein Pionier des Bodybuildings, betrieb unter anderem eine Brauerei, empfahl jedoch, auf übermäßigen Alkoholkonsum zu verzichten. J 1 17.02.2016 Mi 18.02.2016 26947 7967 34914 86 26 56 30 97 87 92 90
Eukairit Eukairit kam dem schwedischen Chemiker Berzelius gerade recht. N 1 17.02.2016 Mi 18.02.2016 17243 8402 25645 55 28 41 50 107 104 105 98
Maico 125 RS Trotz Desinteresse des Chefs war die Maico 125 RS erfolgreich im Rennsport. J 1 18.02.2016 Do 19.02.2016 28407 10197 38604 93 34 64 36 127 151 139 119
Lützelburg (Kempten) Der Burgstall der Kemptener Lützelburg liegt direkt neben der Burghalde. N 1 18.02.2016 Do 19.02.2016 9862 5451 15313 32 18 25 56 70 83 77 117
Brockenuhr Beim Bau der Brockenuhr konnte auf Zeiger verzichtet werden. J 1 19.02.2016 Fr 20.02.2016 45538 8723 54261 151 30 91 20 223 178 200 80
Kochelsee-Wunder Nur ein Wunder bewahrte das Kloster Benediktbeuern während des Spanischen Erbfolgekriegs vor der Brandschatzung. N 1 19.02.2016 Fr 20.02.2016 22879 5214 28093 76 18 47 24 157 108 132 69
MV Agusta 175 CSS Die MV Agusta 175 CSS erhielt den Spitznamen „fliegende Untertasse“. J 1 20.02.2016 Sa 21.02.2016 16544 12307 28851 57 41 49 72 149 245 197 164
Elisabeth Hoffmann Statt nur fromme Pfarrersfrau zu sein, betrieb Elisabeth Hoffmann auch ein Gasthaus in Wiesbaden. N 1 20.02.2016 Sa 21.02.2016 7635 4531 12166 26 15 21 58 98 89 94 91
Aschenbrödel Hall Kleindeutschlands Aschenbrödel Hall war für Theater, aber auch schon für Athletik, Gesang und Soziales gut. J 1 21.02.2016 So 22.02.2016 10805 5658 16463 36 17 26 46 91 49 70 54
Buckfast Tonic Wine Buckfast Tonic Wine trifft mit Aromen von „Hustensaft, Anis, Messwein und Hubba Bubba“ auch den Geschmack schottischer Neds. N 1 21.02.2016 So 22.02.2016 8825 11975 20800 30 35 32 120 89 86 88 97
Sparverein Beim informellen Sparverein Ferkelring wurde ein Plastik­sparschwein in neun Monaten mit 12 kg Münzen gemästet. J 1 22.02.2016 Mo 23.02.2016 15290 6382 21672 45 21 33 46 60 73 67 122
Margaret Profet Margaret Profet erträumte den Zusammenhang von Menstruation, Allergien und Schwangerschafts­übelkeit. N 1 22.02.2016 Mo 23.02.2016 14746 8700 23446 44 28 36 65 93 105 99 113
Dunaliella salina Die Grünalge Dunaliella salina färbt Salzwasser rot. J 1 23.02.2016 Di 24.02.2016 16010 3507 19517 52 11 32 21 73 48 61 66
Josef Meisel Dem österreichischen Kommunisten Josef Meisel gelang die Flucht aus dem KZ Auschwitz. N 1 23.02.2016 Di 24.02.2016 25817 12738 38555 84 40 62 48 163 146 154 89
Matthias Buchinger Matthias Buchinger war ein großes Talent, obwohl seine Körpergröße nur 74 cm betrug. J 1 24.02.2016 Mi 25.02.2016 45132 14907 60039 142 47 95 33 159 157 158 99
Geruchsstunde In zehn Minuten wird eine Geruchsstunde ermittelt. N 1 24.02.2016 Mi 25.02.2016 20039 10742 30781 63 34 49 54 122 129 125 106
Jahnkampfbahn Wald Der Bau der Jahnkampfbahn Wald benötigte 200.000 Arbeitstage. J 1 25.02.2016 Do 26.02.2016 36296 9576 45872 115 31 73 27 157 137 147 87
Griechischer Film Im Jahr 1968 sahen 137 Millionen Kinobesucher griechische Filme. N 1 25.02.2016 Do 26.02.2016 7913 3653 11566 25 12 18 47 55 54 54 98
Hofmarställe am Hohen Ufer Reste der kriegszerstörten Hofmarställe am Hohen Ufer lagen jahrzehntelang unter einem Parkplatz in Hannover verborgen. J 1 26.02.2016 Fr 27.02.2016 18541 4454 22995 60 16 38 26 88 93 90 105
Eisenschiffswerften in Dresden Mit Raddampfern begann das Zeitalter der Eisenschiffswerften in Dresden. N 1 26.02.2016 Fr 27.02.2016 8070 2803 10873 26 10 18 38 53 59 56 111
Hiller-Denkmal Das Leipziger Hiller-Denkmal geht auf Gesangsstunden für vier Schwestern zurück. J 1 27.02.2016 Sa 28.02.2016 5430 2487 7917 19 8 14 43 50 49 50 99
Laura Gonzenbach Laura Gonzenbach und ihre sizilianischen Märchen wurden von einem preußischen Theologen und Bibliothekar gefördert und herausgebracht. N 1 27.02.2016 Sa 28.02.2016 1906 1351 3257 7 4 6 67 25 27 26 106
Patrick Vollrath Für Alles wird gut ist Patrick Vollrath in der Kategorie Bester Kurzfilm für einen Oscar nominiert worden. J 1 28.02.2016 So 29.02.2016 6423 6357 12780 21 20 21 93 54 58 56 108
Rattenlinie Nord Zahlreiche NS-Größen folgten gegen Ende des Zweiten Weltkrieges der Rattenlinie Nord in Richtung Flensburg. N 1 28.02.2016 So 29.02.2016 24393 35163 59556 81 110 96 136 245 268 256 109
Caño Cristales Zwischen Juli und November ist der Caño Cristales ein Flüssiger Regenbogen. J 1 29.02.2016 Mo 01.03.2016 23574 8411 31985 74 27 50 36 98 94 96 96
Anita Bach Anita Bach war Zimmerer­gesellin, Best­studentin und erste Archi­tektur-Professorin in der DDR. N 1 29.02.2016 Mo 01.03.2016 13545 7853 21398 42 25 34 59 90 93 91 102
Ayşe Teymûr Ayşe Teymûr verbrannte nach dem Tod ihrer Tochter eine Reihe ihrer Gedichte. J 1 01.03.2016 Di 02.03.2016 15630 5150 20780 50 17 33 34 70 73 71 104
Gaby Schuster (Spielermanagerin) Gaby Schuster war der härteste Verhandlungspartner, mit dem Reiner Calmund, Manager von Bayer Leverkusen, je zu tun hatte. N 1 01.03.2016 Di 02.03.2016 41131 17910 59041 131 58 94 44 254 210 232 83
Volkswagen-Currywurst 2015 verkaufte der VW-Konzern mehr Volkswagen-Currywürste als Fahrzeugeinheiten seiner Kernmarke. J 1 02.03.2016 Mi 03.03.2016 39618 16805 56423 128 49 89 38 144 163 153 113
Lady Gaga (Rind) Vor jedem Auftritt wird Lady Gaga von ihrem Friseur mit Rasierer, Puder und Haarspray auf die Schau vorbereitet. N 1 02.03.2016 Mi 03.03.2016 16930 11197 28127 55 33 44 60 106 123 114 116
Schiefer Turm von Newjansk Der Schiefe Turm von Newjansk war seiner Zeit voraus. J 1 03.03.2016 Do 04.03.2016 33106 11361 44467 96 38 67 39 131 167 149 128
Yanaki und Milton Manaki Die Brüder Manaki waren Film­pioniere des Balkans. N 1 03.03.2016 Do 04.03.2016 4774 2297 7071 14 8 11 55 30 35 32 115
Hurenkarrentaler Die nackten Frauen auf dem Hurenkarrentaler waren keine Prostituierten. J 1 04.03.2016 Fr 05.03.2016 36369 11967 48336 120 42 81 35 177 247 212 139
Liachtbratlmontag Der Liachtbratlmontag ist ein immaterielles Kulturerbe in Österreich. N 1 04.03.2016 Fr 05.03.2016 10996 3577 14573 36 12 24 34 75 75 75 100
Al-Maghtas Das Umfeld von al-Maghtas war zeitweise vermint, jetzt kann wieder getauft werden. J 1 05.03.2016 Sa 06.03.2016 11964 4075 16039 42 14 28 33 109 81 95 74
Filialkirche Kleinsöding Um die Kirche von Kleinsöding zu errichten, lieferten die von der Pest geplagten Bauern einen freiwilligen Kühzins ab. N 1 05.03.2016 Sa 06.03.2016 4567 2770 7337 16 9 13 58 59 54 57 92
Otto Salzer Otto Salzer bewies 1898 mit einem Automobil mehr Ausdauer als zehn Pferdefuhrwerke. J 1 06.03.2016 So 07.03.2016 12392 11518 23910 41 37 39 90 104 109 106 104
Mansplaining Ohne ein bestimmtes Partyerlebnis von Rebecca Solnit gäbe es zwar Mansplaining, dieses Wort aber vermutlich nicht. N 1 06.03.2016 So 07.03.2016 17764 21785 39549 59 70 65 118 179 170 174 95
Betty Heine Betty Heine hielt die Werke ihres berühmten Sohnes für „brot­lose Kunst“. J 1 07.03.2016 Mo 08.03.2016 19763 7242 27005 64 23 43 36 85 80 82 95
Ann Allebach Ann Allebach war 1911 die erste und bis 1973 die einzige Frau, die die mennonitische Ordination erhielt. N 1 07.03.2016 Mo 08.03.2016 7519 4966 12485 24 16 20 65 52 58 55 112
Katharine Russell, Viscountess Amberley Königin Victoria wünschte Katharine Russell, Viscountess Amberley, „eine ordentliche Auspeitschung“. J 1 08.03.2016 Di 09.03.2016 47166 17366 64532 148 58 103 39 208 250 229 120
Frauenhäuser Wien 1978 nahm das erste der Frauenhäuser Wiens seine Arbeit auf. N 1 08.03.2016 Di 09.03.2016 6002 3654 9656 19 12 15 64 37 44 40 120
Mechanisierung Mechanisierung betraf Töpfer, Schweißer, Spinnerinnen wie auch Militärs. J 1 09.03.2016 Mi 10.03.2016 24619 8767 33386 82 29 55 36 91 97 94 106
Ulrica Arfvidsson Ulrica Arfvidsson war eine steuerpflichtige Kaffeesatzleserin. N 1 09.03.2016 Mi 10.03.2016 13195 8399 21594 44 28 36 64 84 106 95 125
Xenoturbella churro Die wurmartige Xenoturbella churro wurde nach einer frittierten Süßspeise benannt. J 1 10.03.2016 Do 11.03.2016 27098 5431 32529 90 18 54 20 123 81 102 66
Die Versuchung Jesu In der Evangelienmotette Die Versuchung Jesu singt der Teufel nicht, sondern spricht, manchmal im Kanon. N 1 10.03.2016 Do 11.03.2016 4365 1800 6165 15 6 10 41 32 27 30 87
Ye Jacobites By Name Robert Burns’ Text zu Ye Jacobites By Name war moderater als die Vorversion des schottischen Klassikers. J 1 11.03.2016 Fr 12.03.2016 6087 1713 7800 20 6 13 29 30 35 33 117
Flarf Je schlechter, desto Flarf. N 1 11.03.2016 Fr 12.03.2016 23137 9107 32244 77 31 54 41 159 190 175 119
Schlosslabor (Tübingen) Das Tübinger Schlosslabor ist die Wiege der Biochemie. J 1 12.03.2016 Sa 13.03.2016 8405 3168 11573 29 11 20 37 76 64 70 84
Paul Bonhomme Paul Bonhomme ist Rekord­weltmeister in der schnellsten Motorsport-Rennserie der Welt. N 1 12.03.2016 Sa 13.03.2016 8975 5453 14428 31 18 25 60 116 109 112 94
Amalia Carneri Die Sopranistin Amalia Carneri wurde einst in Wien gefeiert, dann aber als Jüdin in Treblinka ermordet. J 1 13.03.2016 So 14.03.2016 10370 11152 21522 35 36 35 102 89 105 97 119
Endling Nach dem Endling kommt nichts mehr. N 1 13.03.2016 So 14.03.2016 19442 31469 50911 66 101 84 154 199 246 222 124
Max Streckenbach Max Streckenbach schaffte es von Eckernförde aus bis auf das Titelblatt eines US-Magazins. J 1 14.03.2016 Mo 15.03.2016 18957 10331 29288 61 34 47 56 81 120 100 147
Porsche C88 Die leistungsstärkere Version des Porsche C88 sollte 67 PS (49 kW) bekommen. N 1 14.03.2016 Mo 15.03.2016 33566 17418 50984 108 57 83 53 230 212 221 92
Eideskapelle des Lübecker Rats Über Jahrhunderte schworen die Lübecker auf eine Kapelle, dann ging sie verloren. J 1 15.03.2016 Di 16.03.2016 20519 7337 27856 67 24 46 36 95 105 100 111
Emma Smith Die Schriftstellerin Emma Smith war das barfüßige Mädchen auf Doisneaus bekannter Fotografie La dactylo du Vert Galant. N 1 15.03.2016 Di 16.03.2016 18666 8519 27185 61 28 45 46 119 102 111 86
Bergrutsch Hinterstein Nach dem Bergrutsch Hinterstein musste innerhalb eines Tages ein neues Bachbett geschaffen werden. J 1 16.03.2016 Mi 17.03.2016 29903 8086 37989 99 27 63 27 111 90 100 81
The Day the Clown Cried The Day the Clown Cried kam nie in die Kinos. N 1 16.03.2016 Mi 17.03.2016 29532 10787 40319 98 36 67 37 188 136 162 72
Hexenturm (Rheinbach) Das Alter des Rheinbacher Hexenturms ließ sich anhand eines Toilettensitzes bestimmen. J 1 17.03.2016 Do 18.03.2016 30922 11072 41994 103 37 70 36 141 164 152 117
Barbara de Koy Ihren bislang größten Erfolg erzielte die Schauspielerin Barbara de Koy als mordende Apothekerin in einem Münchner Tatort. N 1 17.03.2016 Do 18.03.2016 15284 7363 22647 51 25 38 48 111 112 112 101
Beeches Light Railway In Oxfordshire verkehrt auf der Beeches Light Railway eine Dampflok der Darjeeling Himalayan Railway. J 1 18.03.2016 Fr 19.03.2016 14256 2418 16674 48 9 28 18 70 51 61 73
Arthur C. Mace Der frühe Tod des Ägyptologen Arthur C. Mace wurde gelegentlich dem „Fluch des Pharao“ zugeschrieben. N 1 18.03.2016 Fr 19.03.2016 12119 3644 15763 40 13 27 32 83 79 81 94
Ancient Spanish Monastery Das Alte Spanische Kloster wurde in 11.000 Kisten nach New York gebracht. J 1 19.03.2016 Sa 20.03.2016 10887 6339 17226 39 22 30 56 102 130 116 128
When Yuba Plays the Rhumba on the Tuba When Yuba Plays the Rhumba on the Tuba bezeichnete ein zeitgenössischer Musikkritiker als „eins der blödesten Lieder aller Zeiten“. N 1 19.03.2016 Sa 20.03.2016 8038 6372 14410 29 22 25 77 107 130 119 121
Kaktuszaunkönig Arizona hat offiziell einen Vogel – den Kaktuszaunkönig. J 1 20.03.2016 So 21.03.2016 5931 7867 13798 20 26 23 126 52 76 64 146
Blutpalmsonntag Am Blutpalmsonntag drangsalierten 1934 zahlreiche Gunzenhausener ihre jüdischen Mitbürger. N 1 20.03.2016 So 21.03.2016 14075 19763 33838 49 65 57 133 147 157 152 107
Annabelle (Puppe) Annabelle war böse und sitzt jetzt im Museum. J 1 21.03.2016 Mo 22.03.2016 47768 17662 65430 156 59 107 38 208 207 208 100
Sutartinė Sutartinės sind ein Weltkulturerbe im Sekunden­abstand. N 1 21.03.2016 Mo 22.03.2016 19350 8821 28171 63 29 46 46 135 109 122 81
The Birth of a Nation (2016) Der Titel des Films The Birth of a Nation ist eine Anspielung auf den gleichnamigen Stummfilm aus dem Jahr 1915. J 1 22.03.2016 Di 23.03.2016 18235 4829 23064 61 16 38 27 85 70 78 82
Die Geburt einer Nation Der Titel des Films The Birth of a Nation (2016) ist eine Anspielung auf den gleichnamigen Stummfilm aus dem Jahr 1915. J 2 22.03.2016 Di 2007 2007 7 9
Adrineh Simonian Adrineh Simonian verabschiedete sich als Juditha triumphans von der Opernbühne und produziert heute experimentelle Pornographie. N 1 22.03.2016 Di 23.03.2016 28447 11440 39887 95 38 66 40 184 139 161 76
St. Germanus (Haaren) Das älteste Ausstattungsstück der Kirche St. Germanus in Aachen-Haaren ist ein Taufstein aus dem Jahr 1598. J 1 23.03.2016 Mi 24.03.2016 4532 1485 6017 15 5 10 33 17 17 17 98
Þangbrandr Es war gefährlich, Spottlieder auf Þangbrandr zu dichten. N 1 23.03.2016 Mi 24.03.2016 26348 13745 40093 88 46 67 53 170 175 173 103
Carrozzeria Sibona-Basano In nicht einmal fünf Jahren fertigte Sibona-Basano Karosserien für mindestens 17 verschiedene Automodelle, darunter den Abarth Simca 1300 GT. J 1 24.03.2016 Do 25.03.2016 17091 4229 21320 58 14 36 25 78 64 71 82
Aferim! Im Film Aferim! begibt sich ein Polizist in der rumänischen Walachei auf die Suche nach einem entflohenen Sklaven. N 1 24.03.2016 Do 25.03.2016 11289 2937 14226 38 10 24 26 83 46 64 55
Der Leichnam Christi im Grabe Das 1521 gemalte Der Leichnam Christi im Grabe wurde wegen des Basler Bildersturms nie in einer Kirche aufgestellt. J 1 25.03.2016 Fr 26.03.2016 12508 3869 16377 42 14 28 34 63 84 73 135
Heinz Fischer (Naturforscher) Heinz Fischer forschte jahrzehntelang zum „Augsburger Mäusekrieg“. N 1 25.03.2016 Fr 26.03.2016 9889 4782 14671 34 18 26 52 69 106 88 154
Wutachtalsperre 1953 engagierte sich mit „Rettet die Wutachschlucht“ eine badische Bürgerinitiative erfolgreich gegen die Wutachtalsperre. J 1 26.03.2016 Sa 27.03.2016 10012 3800 13812 37 13 25 37 96 80 88 83
Albrecht Schöler Bei den Maikäfern lästerte Albrecht Schöler über Pietisten und Philister. N 1 26.03.2016 Sa 27.03.2016 2676 1343 4019 10 5 7 48 37 28 32 76
Nuckelpinne Mit dem Wort Nuckelpinne muss nicht immer ein Auto gemeint sein. J 1 27.03.2016 So 28.03.2016 22716 8974 31690 80 31 56 38 203 90 147 44
Sightseers In Sightseers sind auch die Morde sehenswürdig. N 1 27.03.2016 So 28.03.2016 6233 4174 10407 22 14 18 65 67 35 51 52
Groß-Salzmelde Die Namen der Groß-Salzmelde und Klein-Salzmelde wurden von Botanikern jahrzehntelang verwechselt. N 1 27.03.2016 So 28.03.2016 3906 2162 6068 14 7 11 54 42 18 30 43
Domprediger Während der Domprediger in Speyer Gottes Wort verkündete, war Hunden das Bellen verboten. J 1 28.03.2016 Mo 29.03.2016 4175 3747 7922 14 12 13 83 19 42 31 220
Münchner Unterstützungsmodell gegen häusliche Gewalt Das Münchner Unterstützungsmodell gegen häusliche Gewalt gilt als führend in Deutschland. N 1 28.03.2016 Mo 29.03.2016 2481 3084 5565 9 10 9 115 18 36 27 200
Michl Schwarz 1946 wurde der Arzt und Fußballfunktionär Michl Schwarz ganz selbstverständlich wieder Präsident bei Austria Wien. N 1 28.03.2016 Mo 29.03.2016 8135 10225 18360 28 32 30 116 59 120 90 202
Kitty Kuse Die Berlinerin Kitty Kuse rief 1974 eine erste Gruppe für ältere lesbische Frauen ins Leben. J 1 29.03.2016 Di 30.03.2016 19830 6996 26826 63 23 43 37 89 100 94 113
Pieczonki (Giżycko) Pieczonki ist nicht nur eine polnische Kartoffelspeise. N 1 29.03.2016 Di 30.03.2016 9267 7069 16336 29 23 26 79 57 84 71 148
Dachschiefergrube Wadrill Die 500 Jahre alte, einzige saarländische Dachschiefergrube Wadrill wurde vor 35 Jahren letztmals begangen. N 1 29.03.2016 Di 30.03.2016 16223 9245 25468 51 30 41 59 100 110 105 110
Afrika Museum In Berg en Dal in den Niederlanden gibt es ein afrikanisches Dorf. J 1 30.03.2016 Mi 31.03.2016 14673 7429 22102 48 25 37 52 54 83 69 153
Chowdhury Mueen Uddin Der prominente britische Muslim Chowdhury Mueen Uddin gilt in seinem Heimatland Bangladesch als Kriegsverbrecher. N 1 30.03.2016 Mi 31.03.2016 13616 7858 21474 45 26 36 59 87 100 93 115
Threlkeld Quarry and Mining Museum Ins Threlkeld Quarry & Mining Museum fahren die Besucher am besten mit der Schmalspurbahn. N 1 30.03.2016 Mi 31.03.2016 6456 4295 10751 21 14 18 68 41 54 48 133
Marceline Day In nur zehn Jahren drehte Marceline Day 64 Filme. J 1 31.03.2016 Do 01.04.2016 28794 3070 31864 97 10 54 11 131 46 89 35
Manchester by the Sea In Manchester by the Sea wird Lee Chandler zunehmend in die düstere Familienvergangenheit verstrickt. N 1 31.03.2016 Do 01.04.2016 9792 3530 13322 33 12 22 36 72 54 63 76
Liste der Lieder von Avril Lavigne Die Kanadierin Avril Lavigne veröffentlichte bislang 77 Lieder. N 1 31.03.2016 Do 01.04.2016 10074 3693 13767 34 12 23 37 74 57 65 77
Tempel von Deir el-Medina Im Tempel von Deir el-Medina findet sich eine Darstellung des altägyptischen Totengerichts. J 1 01.04.2016 Fr 02.04.2016 9203 2808 12011 31 10 21 32 46 59 52 129
Die Kuh im Propeller Die Kuh im Propeller wurde in der DDR fast sprichwörtlich. N 1 01.04.2016 Fr 02.04.2016 29393 8715 38108 99 31 65 31 205 187 196 91
Herbert Haddock Herbert Haddock war der erste Kapitän der Titanic. N 1 01.04.2016 Fr 02.04.2016 20870 6690 27560 70 24 47 34 145 143 144 99
Somatic marker hypothesis Nach der Somatic marker hypothesis ist davon auszugehen, dass Phineas Gage Probleme bei der Wahl eines Restaurants gehabt hätte. J 1 02.04.2016 Sa 03.04.2016 18468 3817 22285 65 14 40 21 172 81 126 47
Villa Felicitas Kaiser Franz Joseph I. genoss den „Vortheil der Nähe“ der Villa Felicitas und ihrer Bewohnerin. N 1 02.04.2016 Sa 03.04.2016 9111 5980 15091 32 21 27 66 121 126 123 104
Paul Mahrer Der tschechoslowakische Fußballnationalspieler Paul Mahrer spielte mit 43 Jahren nochmal in einer Metzgermannschaft, als es um sein Leben ging. N 1 02.04.2016 Sa 03.04.2016 15041 7219 22260 53 26 40 48 199 152 175 76
Friedrich Hilble Seit 1956 erinnert in München ein Straßenname an Friedrich Hilble, einen Schreibtisch­täter der NS-Zeit. J 1 03.04.2016 So 04.04.2016 19366 13335 32701 69 44 56 64 174 129 152 74
Such, wer da will, ein ander Ziel Die tänzerisch freudige Melodie von Such, wer da will, ein ander Ziel ist nicht ganz leicht zu singen. N 1 03.04.2016 So 04.04.2016 3421 4410 7831 12 15 13 120 37 35 36 97
Franz Lechthaler Der Polizist Franz Lechthaler wurde 1963 wegen Beihilfe zum Totschlag von 15 Kindern zu zwei Jahren Gefängnis verurteilt. N 1 03.04.2016 So 04.04.2016 12270 18484 30754 44 61 52 140 132 149 140 113
Jagdschloss Holzberg Das neoromanische Jagdschloss Holzberg wurde als verkleinerte Kopie eines dänischen Schlosses in die wilde Hochrhön gesetzt. J 1 04.04.2016 Mo 05.04.2016 15167 5539 20706 50 18 34 37 67 65 66 97
Michael Richey (Segler) Michael Richey segelte bis ins hohe Alter, konnte aber auch schreiben. N 1 04.04.2016 Mo 05.04.2016 8550 5541 14091 28 18 23 65 60 68 64 113
Wolfgang Thadewald Wolfgang Thadewald trug in über 50 Jahren die wohl größte deutschsprachige Jules-Verne-Sammlung zusammen. N 1 04.04.2016 Mo 05.04.2016 5966 3705 9671 20 12 16 62 42 46 44 109
U-Boot-Pläne-Untersuchungsausschuss Der U-Boot-Pläne-Untersuchungsausschuss des Deutschen Bundestages konnte die Weitergabe von Blaupausen an Südafrika nicht völlig aufklären. J 1 05.04.2016 Di 06.04.2016 15605 4832 20437 52 16 34 31 73 71 72 97
María Pagés Die Flamenco-Tänzerin und Choreografin María Pagés macht sich auch Gedanken zur Gegenwart. N 1 05.04.2016 Di 06.04.2016 3743 2566 6309 12 9 11 69 24 31 28 130
C-Bo C-Bo rappte auch vor Gericht, was der Richter zum Anlass nahm, ihn zu rappender Sozialarbeit zu verurteilen. N 1 05.04.2016 Di 06.04.2016 15090 7886 22976 50 27 38 53 97 96 97 99
Herr von Boilstädt Der Herr von Boilstädt wurde in einem 17 Tonnen schweren Block nach Weimar gebracht. J 1 06.04.2016 Mi 07.04.2016 41201 10189 51390 139 34 86 25 155 114 135 73
Diesel (Hund) Das Schicksal des Polizeihundes Diesel bewegte die französische Nation. N 1 06.04.2016 Mi 07.04.2016 27745 13177 40922 93 44 69 47 180 167 174 93
Richard Wherlock Der Choreograph Richard Wherlock verlangt in seiner Compagnie „Respekt vor der Hautfarbe, der Sprache, der Sexualität, dem Arbeitsplatz, dem Publikum und last but not least vor der Profession“. N 1 06.04.2016 Mi 07.04.2016 3463 2079 5542 12 7 9 60 23 26 24 117
Sachsenkeule Die ehemals grüne Sachsenkeule ist heute braun. J 1 07.04.2016 Do 08.04.2016 31652 12849 44501 106 44 75 41 144 195 170 135
Chi-Raq Spike Lee diente die von Aristophanes verfasste griechische Komödie Lysistrata als Vorlage für seinen Film Chi-Raq. N 1 07.04.2016 Do 08.04.2016 5452 2345 7797 18 8 13 44 40 37 38 92
Weißruthenisches Jugendwerk Das Weißruthenische Jugendwerk war eine an der Hitlerjugend orientierte Organisation im besetzten Weißrussland. N 1 07.04.2016 Do 08.04.2016 7634 4030 11664 26 14 20 54 56 63 59 113
Synagoge (Eschwege) Das Gebäude der Eschweger Synagoge dient heute als Neuapostolische Kirche. J 1 08.04.2016 Fr 09.04.2016 5601 1256 6857 19 5 12 24 28 27 28 97
Tadeusz Pietrzykowski Teddy Pietrzykowski musste im KZ Auschwitz zu 37 Boxkämpfen antreten – und überlebte. N 1 08.04.2016 Fr 09.04.2016 25641 7254 32895 88 27 57 31 180 161 171 89
Der Schamane und die Schlange Im Film Der Schamane und die Schlange reist der Anthropologe Theodor Koch-Grünberg zum Amazonas. N 1 08.04.2016 Fr 09.04.2016 4208 1125 5333 14 4 9 29 30 25 27 85
Ethereum Ethereum ist digitaler Notar, Kryptowährung und Vertragssprache in einem. J 1 09.04.2016 Sa 10.04.2016 7654 2964 10618 28 10 19 37 74 61 68 83
Waldemar von Poletika Waldemar von Poletika erarbeitete im Zweiten Weltkrieg agrarpolitische Unterlagen für die Hungerpolitik in den deutsch besetzten Gebieten der UdSSR. N 1 09.04.2016 Sa 10.04.2016 7524 3665 11189 28 13 20 46 104 75 89 73
Albert Richard Smith Albert Richard Smith machte mit einer Unterhaltungsshow den Mont Blanc in Großbritannien populär. N 1 09.04.2016 Sa 10.04.2016 2246 1610 3856 8 6 7 68 31 33 32 107
Palais Larisch-Mönnich Im Wiener Palais Larisch-Mönnich soll sich früher das irakische Spionage-Hauptquartier für ganz Europa befunden haben. J 1 10.04.2016 So 11.04.2016 6366 6555 12921 22 22 22 99 56 65 60 116
Pauline Wayne Pauline Wayne belieferte das Weiße Haus mit Milch und Butter. N 1 10.04.2016 So 11.04.2016 8862 13254 22116 31 45 38 144 93 108 101 116
Schloss Röhrsdorf In Schloss Röhrsdorf spielt die Musik. J 1 11.04.2016 Mo 12.04.2016 8648 2608 11256 29 9 19 30 39 31 35 80
Ich küsse Ihre Hand, Madame (Lied) Das Lied Ich küsse Ihre Hand, Madame wird unter anderem mit dem Filmtitel Ich bin ein Elefant, Madame auf die Schippe genommen. N 1 11.04.2016 Mo 12.04.2016 7419 3407 10826 25 11 18 46 53 42 48 80
Chi Omega Chi Omega versteht sich nach wie vor als Women’s Fraternity und ist die größte weibliche Studenten­verbindung weltweit. N 1 11.04.2016 Mo 12.04.2016 12883 6748 19631 43 23 33 52 92 84 88 91
Ludwig Gutmann Unter den Wiener Fotografen der 1910er Jahre war Ludwig Gutmann der unumstrittene „Auftragskaiser“. J 1 12.04.2016 Di 13.04.2016 10385 2176 12561 35 7 21 21 49 32 41 66
Gustav Aubin Gustav Aubin war einer der von den Nationalsozialisten am meisten gehassten Universitätsrektoren der Weimarer Republik. N 1 12.04.2016 Di 13.04.2016 17203 7305 24508 58 25 41 43 112 90 101 80
Manasse Herbst Die Liaison zwischen dem Schauspieler Manasse Herbst und dem Tennisstar Gottfried von Cramm endete mit Exil für den einen, mit Haft für den anderen. N 1 12.04.2016 Di 13.04.2016 17539 9683 27222 59 33 46 56 114 120 117 105
Urworte. Orphisch In dem Zyklus Urworte. Orphisch umkreiste Goethe fünf Grundmächte des Daseins und stellte die Liebe in den Mittelpunkt. J 1 13.04.2016 Mi 14.04.2016 5345 2109 7454 18 7 13 40 20 24 22 118
Vantablack Dank Vantablack sehen Museumsbesucher schwärzer als schwarz. N 1 13.04.2016 Mi 14.04.2016 18578 12116 30694 63 42 52 66 122 157 140 128
Christine de Grancy André Heller bezeichnete Christine de Grancy als „Augnerin“. N 1 13.04.2016 Mi 14.04.2016 11028 6404 17432 38 22 30 59 73 83 78 114
Volkmarshäuser Tunnel Der Volkmarshäuser Tunnel war der einzige Eisenbahntunnel im Königreich Hannover. J 1 14.04.2016 Do 15.04.2016 36032 4407 40439 124 15 69 12 168 68 118 41
Donmar Warehouse Die Bezeichnung Donmar Warehouse leitete der Gründer aus den Anfangsbuchstaben seines eigenen und des Namens seiner Frau ab. N 1 14.04.2016 Do 15.04.2016 6527 3381 9908 22 12 17 52 49 54 51 110
Gemünden-Zeitlofser Wald Der Gemünden-Zeitlofser Wald wird als Übergang vom Spessart zur Südrhön betrachtet. N 1 14.04.2016 Do 15.04.2016 5764 2555 8319 20 9 14 45 43 41 42 94
Ryan (Kalifornien) Die Bergmannssiedlung Ryan wurde von 1927 bis 1930 als Hotel genutzt. J 1 15.04.2016 Fr 16.04.2016 14652 2220 16872 51 8 30 16 75 48 62 64
Hopefield Railway Kühe fraßen der Hopefield Railway zeitweise die Transportgüter weg. N 1 15.04.2016 Fr 16.04.2016 12522 3963 16485 43 15 29 33 90 88 89 98
Billy Toffel Trotz Goebbels’ Aufpasser sang Billy Toffel auf Englisch. N 1 15.04.2016 Fr 16.04.2016 20232 5854 26086 70 21 46 31 145 130 137 90
Olympiadach Im Wettbewerbsmodell für die Bauten der Olympischen Spiele 1972 wurde das Olympiadach durch einen Damenstrumpf dargestellt. J 1 16.04.2016 Sa 17.04.2016 8615 3738 12353 32 13 22 42 83 79 81 96
Winter Garden Atrium Im Winter Garden Atrium stehen sechzehn Mexikanische Washingtonpalmen. N 1 16.04.2016 Sa 17.04.2016 2738 2040 4778 10 7 9 72 38 43 40 114
Jüdischer Parasit Das antisemitische Stereotyp vom jüdischen Parasiten lieferte die semantische Begründung für den Holocaust. N 1 16.04.2016 Sa 17.04.2016 7116 5344 12460 26 19 23 73 98 113 105 115
Leuchtturm Slangkop Der Schlangenkopf soll nahe dem Kap der Guten Hoffnung Seefahrer warnen. J 1 17.04.2016 So 18.04.2016 11853 17839 29692 42 60 51 143 107 178 142 166
Nina E. Allender Nina E. Allender zeichnete mehr als 150 Cartoons. N 1 17.04.2016 So 18.04.2016 4927 7432 12359 18 25 21 143 53 61 57 115
Umohoit Umohoit verdankt seinen Namen den Elementen, aus denen es zusammengesetzt ist. N 1 17.04.2016 So 18.04.2016 7321 8573 15894 26 29 28 111 79 71 75 90
Burdenko-Kommission Die Burdenko-Kommission wurde 1943 von der sowjetischen Führung eingerichtet, um die angebliche deutsche Täter­schaft beim Massaker von Katyn zu beweisen. J 1 18.04.2016 Mo 19.04.2016 18231 4690 22921 62 16 39 26 82 57 69 69
Ernst Schoen Für Walter Benjamin komponierte Ernst Schoen 1932 die Musik zum Hörspiel Radau um Kasperl. N 1 18.04.2016 Mo 19.04.2016 1339 706 2045 5 2 3 53 10 9 9 92
Caisteal Uisdein Caisteal Uisdein wurde der Legende nach ohne Fenster und Türen erbaut, um einen Clanchef einzukerkern. N 1 18.04.2016 Mo 19.04.2016 25227 9592 34819 86 33 59 38 182 121 152 67
Katherine Johnson Mit ihren außergewöhnlichen mathematischen Fähigkeiten trug Katherine Johnson zur ersten Mondlandung bei. J 1 19.04.2016 Di 20.04.2016 28873 8979 37852 98 31 65 32 139 136 137 98
Kloster Helgoland Das Kloster Helgoland liegt nicht, wo man es vermuten könnte. N 1 19.04.2016 Di 20.04.2016 24686 12953 37639 84 45 65 54 164 164 164 100
Gestade der Vergessenheit Für das Gemälde Gestade der Vergessenheit erhielt Eugen Bracht 1889 kein Geld, durfte sich jedoch geehrt fühlen, es dem hessischen Großherzog Ernst Ludwig schenken zu dürfen. N 1 19.04.2016 Di 20.04.2016 8676 5304 13980 30 18 24 62 57 67 62 117
Harald B. Thor Harald B. Thors Bühnenbild für Wassa Schelesnowa am Burgtheater ist laut ORF „ein beeindruckendes Plankenkonstrukt, das schaukelt und schwebt, sich neigt und hebt“. J 1 20.04.2016 Mi 21.04.2016 2549 1009 3558 9 4 6 39 10 12 11 117
Tiruvalluvar Der Dichter Tiruvalluvar wird heute als eine Art tamilischer Nationalheiliger verehrt. N 1 20.04.2016 Mi 21.04.2016 2976 1649 4625 10 6 8 55 20 22 21 108
Saline Salzliebenhalle Herzog Heinrich machte die Saline Salzliebenhalle zur selbstständigen Gemeinde. N 1 20.04.2016 Mi 21.04.2016 6727 2960 9687 23 10 17 44 45 39 42 86
Zuriel Oduwole Zuriel Oduwole hat schon mehr Staatsoberhäupter interviewt, als sie Jahre alt ist. J 1 21.04.2016 Do 22.04.2016 20604 3916 24520 71 14 43 19 97 61 79 63
Sachsenstein (Breitungen) Der Sachsenstein erinnert an nur einen Sachs. N 1 21.04.2016 Do 22.04.2016 16641 7070 23711 58 25 41 43 125 114 120 91
Vojtěch Rosický Obwohl nach Vojtěch Rosický ein Mineral benannt wurde, verlor er 1941 seinen Lehrstuhl. N 1 21.04.2016 Do 22.04.2016 7152 3111 10263 25 11 18 44 54 50 52 93
Hustaler Eine Nachprägung des Hustalers stammt von Christoph Jakob Leherr, der als Falschmünzer zum Tode verurteilt und in Öl gesotten wurde. J 1 22.04.2016 Fr 23.04.2016 27975 5946 33921 99 22 60 22 146 131 138 90
Stadtpolizei München Die Stadtpolizei München entwickelte die „Münchner Linie“ zur Unterbindung von Unruhen und Massenprotesten. N 1 22.04.2016 Fr 23.04.2016 11437 4262 15699 40 16 28 39 83 96 89 115
Yemima Avidar-Tchernovitz Die Werke von Yemima Avidar-Tchernovitz gelten als Klassiker der Kinderliteratur in Israel. N 1 22.04.2016 Fr 23.04.2016 2175 874 3049 8 3 5 42 16 20 18 124
Die Hochzeit des Camacho Sancho Panza und Don Quijote waren Gäste bei der Hochzeit des Camacho. J 1 23.04.2016 Sa 24.04.2016 5612 2357 7969 21 8 15 41 55 50 52 92
Sandstone Estates Auf den Sandstone Estates ist eine der größten Sammlungen an Schmalspurdampflokomotiven untergebracht. N 1 23.04.2016 Sa 24.04.2016 4632 3309 7941 17 12 15 69 64 70 67 109
The Prisoner’s Song The Prisoner’s Song war der erste Millionenhit der amerikanischen Countrymusik. N 1 23.04.2016 Sa 24.04.2016 4909 3532 8441 18 13 15 70 68 75 71 110
Liste der Stolpersteine in Polen Der erste Stolper­stein Polens ist der Nonne Edith Stein gewidmet. J 1 24.04.2016 So 25.04.2016 9853 7667 17520 35 26 31 73 89 76 83 85
Yashi Tabassomi Für Yashi Tabassomi trug Robert Wilson ein Lautgedicht vor. N 1 24.04.2016 So 25.04.2016 2300 3463 5763 8 12 10 142 25 28 27 114
Wallfahrtskapelle Schüsserlbrunn Die Wallfahrtskapelle Schüsserlbrunn verdankt ihre Existenz einem unvorsichtigen Rindvieh. N 1 24.04.2016 So 25.04.2016 6061 9343 15404 22 32 27 145 66 77 71 117
Antikensammlung des Martin von Wagner Museums In der Antikensammlung des Martin von Wagner Museums befindet sich ein kleines Stück des Akropolis-Frieses. J 1 25.04.2016 Mo 26.04.2016 6085 2264 8349 21 8 14 37 27 27 27 99
Shote Galica Als Freiheitskämpferin wurde Shote Galica im Kosovo zur Volksheldin. N 1 25.04.2016 Mo 26.04.2016 13167 6815 19982 44 23 34 52 95 85 90 90
DKW RM 350 Die „Singende Säge“ brachte der Auto Union fast den Sieg in der Motorrad-Weltmeisterschaft. N 1 25.04.2016 Mo 26.04.2016 27264 11137 38401 92 38 65 41 196 140 168 71
Rudolph William Schroeder Nachdem Rudolph William Schroeder als erster Flieger eine Höhe von über 10.000 Metern erreicht hatte, machte er einen folgen­schweren Fehler. J 1 26.04.2016 Di 27.04.2016 60687 12796 73483 205 44 124 21 289 191 240 66
LX (Rapper) Der Hamburger Rapper LX verpasste die Echo­verleihung 2016 wegen eines Gefängnis­aufenthalts. N 1 26.04.2016 Di 27.04.2016 8927 5280 14207 30 18 24 60 59 66 62 112
Angélique Ionatos Angélique Ionatos singt Sapphos Lyrik und vertont zeit­genössische griechi­sche Dichtung. N 1 26.04.2016 Di 27.04.2016 2408 1028 3436 8 4 6 43 16 13 14 81
Meermönch Der Meermönch könnte in Wirklichkeit ein Seeteufel gewesen sein. J 1 27.04.2016 Mi 28.04.2016 33899 12543 46442 116 44 80 38 130 146 138 112
Yusif Eyvazov Yusif Eyvazov begehrt auf der Bühne die grausame Prinzessin Turandot und im Privatleben die Operndiva Anna Netrebko. N 1 27.04.2016 Mi 28.04.2016 11130 5677 16807 38 20 29 52 74 75 74 102
Ernie Machin Ernie Machins Gang vor Gericht legte den Grundstein für ein neues Bestrafungssystem im englischen Fußball. N 1 27.04.2016 Mi 28.04.2016 9263 5814 15077 32 20 26 64 61 77 69 125
Torgauer Schlosskapelle Die Torgauer Schlosskapelle ist der erste evangelische Kirchenneubau der Welt. J 1 28.04.2016 Do 29.04.2016 14905 5619 20524 52 20 36 39 71 90 80 127
Asyl in Not Asyl in Not kämpft seit 1985 in Österreich für die Rechte von Flüchtlingen. N 1 28.04.2016 Do 29.04.2016 2046 1547 3593 7 6 6 78 16 25 20 164
Wovon wir träumten Die Erzählweise des Romans Wovon wir träumten wurde mit dem Minimalismus japanischer Zeichenkunst verglichen. N 1 28.04.2016 Do 29.04.2016 4614 2915 7529 16 10 13 65 35 48 41 137
Bacon Explosion Die Bacon Explosion wurde durch das Internet bekannt. J 1 29.04.2016 Fr 30.04.2016 44804 8074 52878 161 31 96 19 238 185 211 78
Hex-River-Tunnel Die Hex-River-Tunnel wurden erst 40 Jahre nach Baubeginn fertiggestellt. N 1 29.04.2016 Fr 30.04.2016 20321 6118 26439 73 24 48 32 151 143 147 95
Obstbaumkrebs Obstbäume können Krebs bekommen. N 1 29.04.2016 Fr 30.04.2016 12552 2839 15391 45 11 28 24 93 66 80 71
Ziegenproblem (Geometrie) Das Ziegenproblem ist seit Langem ein bekanntes Problem der Unterhaltungsmathematik. J 1 30.04.2016 Sa 01.05.2016 23882 10860 34742 92 40 66 44 242 240 241 99
Wurfwecker Ein Wurfwecker macht müde Morgenmuffel munter. N 1 30.04.2016 Sa 01.05.2016 10478 6897 17375 40 26 33 63 151 151 151 100
Foto 51 (Theaterstück) Rosalind Franklin wird in Photograph 51 von Nicole Kidman gespielt. N 1 30.04.2016 Sa 01.05.2016 3646 2272 5918 14 8 11 60 53 50 51 94
Wilhelm Werner Otto von Schwerin Als es Nacht wurde und die Preußen gekommen waren, war Wilhelm Graf von Schwerin einer ihrer ersten Gefallenen. J 1 01.05.2016 So 02.05.2016 17199 15901 33100 64 56 60 87 161 164 162 102
Antikensammlung Kiel Die Antikensammlung Kiel ist einzigartig in Schleswig-Holstein. N 1 01.05.2016 So 02.05.2016 3288 4478 7766 12 16 14 129 37 38 38 104
Nele Alder-Baerens Nele Alder-Baerens stellte bei ihrem Marathon-Debüt in aller Stille einen neuen Weltrekord auf. N 1 01.05.2016 So 02.05.2016 6878 11757 18635 25 41 33 162 77 100 89 130
Wilhelm Werner (Kunstsammler) Der Hausmeister Wilhelm Werner bewahrte heimlich Werke der jüdischen Künstlerin Anita Rée vor der Beschlag­nahmung durch die National­sozialisten. J 1 02.05.2016 Mo 03.05.2016 14746 5180 19926 52 18 35 35 69 63 66 92
Hartmut Grund Hartmut Grund gilt als Urgestein der deutschen Fernsehgeschichte. N 1 02.05.2016 Mo 03.05.2016 9751 7512 17263 34 26 30 76 73 96 85 132
Francine Del Pierre Francine Del Pierre arbeitete wegen ihrer geringen Körpergröße ungern an der Töpferscheibe. N 1 02.05.2016 Mo 03.05.2016 12827 7819 20646 45 27 36 60 96 100 98 105
Newell Sill Jenkins Der Begründer der ästhe­tischen Zahn­­heil­­kunde Newell Sill Jenkins bewirkte, dass Wagners Parsifal in Bay­reuth und nicht in den USA ur­auf­­geführt wurde. J 1 03.05.2016 Di 04.05.2016 10253 2457 12710 35 9 22 25 50 38 44 77
Lynsey Addario Die Foto­journalistin Lynsey Addario wurde 2004 im Irak und 2011 in Libyen entführt. N 1 03.05.2016 Di 04.05.2016 11655 6368 18023 40 23 32 57 78 83 81 106
Tante Agatha Vor Tante Agatha erzittert selbst Seine Lordschaft. N 1 03.05.2016 Di 04.05.2016 24201 11447 35648 84 41 62 49 163 149 156 92
Opel Kadett Strolch Opels „Strolch“ ist wieder da. J 1 04.05.2016 Mi 05.05.2016 44716 9635 54351 161 37 99 23 180 124 152 69
Gérard Lhéritier Gérard Lhéritier erwarb für 7 Mio. Euro Marquis de Sades Manuskript von Die 120 Tage von Sodom. N 1 04.05.2016 Mi 05.05.2016 7417 2218 9635 27 9 18 32 52 32 42 63
Jeanine Sontag Die Widerstandskämpferin Jeanine Sontag kleidete sich gerne elegant und schätzte die Gedichte Rimbauds. N 1 04.05.2016 Mi 05.05.2016 16096 4938 21034 58 19 38 33 112 72 92 64
Gustav-Adolf-Gedächtniskirche In das Kirchenschiff der Nürnberger Gustav-Adolf-Gedächtniskirche wurde 1988 das Gemeindehaus gebaut. J 1 05.05.2016 Do 06.05.2016 4644 2509 7153 18 10 14 53 24 42 33 174
Bamboo Harvester Bamboo Harvester starb, mehr als zehn Jahre bevor Mr. Ed offiziell beerdigt wurde. N 1 05.05.2016 Do 06.05.2016 11440 11035 22475 44 42 43 95 96 192 144 200
Semjon Kotko Semjon Kotko geriet ins Kreuzfeuer der sowjetischen Kulturideologen. N 1 05.05.2016 Do 06.05.2016 3052 2469 5521 12 9 11 80 26 43 34 168
Janina Altman Janina Altmans Erinnerungen an ihre Verfolgung als Zwölfjährige fangen dort an, wo Anne Franks Tagebuch aufhört. J 1 06.05.2016 Fr 07.05.2016 12348 2726 15074 47 11 29 23 69 64 67 93
Badger (Schiff) Die Badger dampft auf dem U.S.-Highway 10. N 1 06.05.2016 Fr 07.05.2016 15645 6419 22064 60 26 43 43 123 154 139 126
Index Kewensis Der von Charles Darwin gestiftete Index Kewensis war mehr als 100 Jahre lang für Botaniker unverzichtbar. N 1 06.05.2016 Fr 07.05.2016 3815 1490 5305 15 6 10 41 30 36 33 120
Burg Klein-Zimmern Das Jugendhilfezentrum Wasserburg Klein-Zimmern war im Laufe seiner Geschichte Rittergut, Schloss, Knabenanstalt, Gefangenenlazarett und SS-Internierungslager. J 1 07.05.2016 Sa 08.05.2016 4729 2609 7338 19 10 14 53 49 59 54 120
Naturschutzgebiet Breiter Berg bei Haselstein Das Naturschutzgebiet Breiter Berg bei Haselstein – außen Trollblumen, innen Waldmeister. N 1 07.05.2016 Sa 08.05.2016 2305 1729 4034 9 7 8 72 34 39 37 114
Mendy Cahan Mendy Cahan sammelt jiddische Bücher. N 1 07.05.2016 Sa 08.05.2016 2363 1608 3971 9 6 8 65 35 36 36 103
Selbstbildnis (Werefkin) Mit ihrem Selbstbildnis von 1910 befreite sich Marianne von Werefkin vom Malstil des Realismus, indem sie wilde Farben verwendete. J 1 08.05.2016 So 09.05.2016 1979 4773 6752 8 16 12 217 19 48 34 253
Heimathafen Neukölln Im Heimathafen Neukölln sind die Rixdorfer Perlen zu Hause. N 1 08.05.2016 So 09.05.2016 4129 5897 10026 16 20 18 129 48 49 49 104
Reichssender Flensburg Der Reichssender Flensburg verkündete das Ende des Zweiten Weltkrieges in Europa. N 1 08.05.2016 So 09.05.2016 10971 12891 23862 42 44 43 106 127 108 117 85
Richard-Wagner-Denkmal (Leipzig) Die Entstehung des Leipziger Richard-Wagner-Denkmals währte über 100 Jahre. J 1 09.05.2016 Mo 10.05.2016 6246 2904 9150 22 10 16 47 29 36 32 125
Bonndorfer Vergleich Weil das Paulinerkloster Bonndorf noch keine Heizung hatte, kam es zum Bonndorfer Vergleich. N 1 09.05.2016 Mo 10.05.2016 9991 5841 15832 34 20 27 59 73 75 74 103
Stephens-Townsend-Murphy Party Die Stephens-Townsend-Murphy Party überquerte die Berge der Sierra Nevada, und zwar ohne Kannibalismus. N 1 09.05.2016 Mo 10.05.2016 20620 13008 33628 71 45 58 64 151 168 160 111
Léo Drouyn Das Werk des Bordelaiser Malers Léo Drouyn dokumentiert das französische architektonische Erbe vor der Restauration. J 1 10.05.2016 Di 11.05.2016 3775 1119 4894 13 4 9 30 19 17 18 93
Kaiserin von Blandings Die Kaiserin von Blandings ist mehrfaches Entführungsopfer. N 1 10.05.2016 Di 11.05.2016 24400 12806 37206 85 45 65 53 165 164 165 99
Kladovo-Transport Obwohl sie 1939 ihre Flucht nach Palästina antraten, wurden die Teilnehmer des Kladovo-Transports 1941 und 1942 von den Nazis ermordet. N 1 10.05.2016 Di 11.05.2016 24532 12420 36952 85 44 65 51 166 159 163 96
Phil Bloom Ein Fernsehauftritt von Phil Bloom führte 1967 zu parlamentarischen Anfragen im Unterhaus. J 1 11.05.2016 Mi 12.05.2016 14720 4725 19445 52 17 34 32 58 55 57 95
Stummelschwanz-Zwergtyrann Der kleinste Sperlingsvogel ist ein Tyrann. N 1 11.05.2016 Mi 12.05.2016 15408 7817 23225 54 28 41 51 105 104 105 99
The North Star (Film) Der Film The North Star brachte Autorin Lillian Helmann zuerst eine Oscar-Nominierung und später ein Berufsverbot ein. N 1 11.05.2016 Mi 12.05.2016 22175 12364 34539 78 44 61 56 151 165 158 109
Veerabhadran Ramanathan Die Arbeiten des Klimaforschers Veerabhadran Ramanathan führten zum Herstellungsverbot für FCKWs. J 1 12.05.2016 Do 13.05.2016 5862 2413 8275 21 9 15 42 28 39 33 137
Deutscher Hörfilmpreis Mit dem Deutschen Hörfilmpreis werden seit 2002 besonders gelungene Beiträge mit Audiodeskription ausgezeichnet. N 1 12.05.2016 Do 13.05.2016 949 454 1403 3 2 2 49 7 7 7 103
Marssonina-Blattfallkrankheit Es ist nicht geklärt, wie die Marssonina-Blattfallkrankheit nach Europa gelangte. N 1 12.05.2016 Do 13.05.2016 11172 5310 16482 40 19 29 48 86 87 87 102
Defensionskaserne Erfurt Die 1832 fertiggestellte Defensionskaserne Erfurt muss seit 2014 erstmals gegen Zerstörung verteidigt werden. J 1 13.05.2016 Fr 14.05.2016 25059 7199 32258 90 28 59 31 133 165 149 124
Leone Efrati Der italienische Federgewichtsboxer Leone Efrati wurde posthum in die Ruhmeshalle für Sportler jüdischen Glaubens aufgenommen. N 1 13.05.2016 Fr 14.05.2016 4417 1578 5995 16 6 11 38 33 37 35 112
Mettlacher Tunnel Weil der Mettlacher Tunnel durch geologisch empfindliches Gestein verläuft, befindet sich zwischen den Gleisen ein Entwässerungskanal. N 1 13.05.2016 Fr 14.05.2016 11286 4596 15882 41 18 29 44 84 107 96 128
Kurobe Sen’yō Tetsudō Eine Bahnfahrt mit der Jōbu Kidō führt durch einen Aufzug, einen Hochtemperaturtunnel und einen Schrägaufzug. J 1 14.05.2016 Sa 15.05.2016 19125 6346 25471 74 24 49 32 194 142 168 73
Geronima Pecson Die Frauenrechtlerin Geronima Pecson wurde am 11. November 1947 als erste Frau Mitglied des Senats der Philippinen. N 1 14.05.2016 Sa 15.05.2016 975 745 1720 4 3 3 74 14 16 15 117
Cimon della Pala Der Cimon della Pala wird häufig als das „Matterhorn der Dolomiten“ bezeichnet. J 1 15.05.2016 So 16.05.2016 6135 2659 8794 23 10 16 42 58 28 43 48
Flora und Jolanthe Flora und Jolanthe hatten eine eigene Rubrik in der Zeitung Neues Deutschland. N 1 15.05.2016 So 16.05.2016 6631 3710 10341 25 13 19 54 75 32 54 43
Anja Scherl Anja Scherl ist die schnellste Freizeitläuferin Deutschlands. N 1 15.05.2016 So 16.05.2016 7866 5911 13777 29 21 25 72 89 52 70 58
Mad Pride Bei der Mad Pride gehen weltweit die Verrückten auf die Straße. J 1 16.05.2016 Mo 17.05.2016 8598 8319 16917 31 29 30 94 41 102 72 248
Scotophobin Die Jagd nach Scotophobin hat zahlreiche wissenschaftliche Karrieren zerstört. N 1 16.05.2016 Mo 17.05.2016 18996 22580 41576 68 79 74 115 146 292 219 200
Swift Jewel Cowboys Bei den Konzerten der Swift Jewel Cowboys diente der Packungsdeckel von Speiseöl als Eintrittskarte. N 1 16.05.2016 Mo 17.05.2016 5812 6248 12060 21 22 21 104 45 81 63 181
Hansen House Im Hansen House in Jerusalem wurden seit dem 19. Jahrhundert leprakranke Muslime, Christen und Juden gepflegt. J 1 17.05.2016 Di 18.05.2016 8104 3043 11147 28 11 20 38 40 47 43 119
Öffentlicher Geschlechtsverkehr Öffentlicher Geschlechtsverkehr erregt nicht nur dessen Protagonisten. N 1 17.05.2016 Di 18.05.2016 43742 24306 68048 152 87 120 57 296 315 305 106
Canarsie Pier Mittelpunkt des kleinen amerikanischen Naherholungsparks Canarsie Pier ist ein großer Autoparkplatz. N 1 17.05.2016 Di 18.05.2016 10820 4771 15591 38 17 27 45 73 62 67 84
Morgan Plus 8 Der bis 2004 gebaute Morgan Plus 8 hat einen Karosserierahmen aus 94 Holzteilen. J 1 18.05.2016 Mi 19.05.2016 26747 10758 37505 95 39 67 40 107 128 118 120
Pfahlwege im Campemoor Ein 6500 Jahre alter Pfahlweg im Campemoor gilt als der bisher älteste entdeckte Moorweg der Welt. N 1 18.05.2016 Mi 19.05.2016 17942 8853 26795 64 32 48 50 124 120 122 97
Something Must Break Der Titel des queeren Filmdramas Something Must Break leitet sich vom gleichnamigen Lied von Joy Division ab. N 1 18.05.2016 Mi 19.05.2016 3880 2508 6388 14 9 11 65 27 34 30 127
William Gibson Arlington Bonwill William Gibson Arlington Bonwill untersuchte 10.000 Unterkiefer, um ein gleichseitiges Dreieck zu finden. J 1 19.05.2016 Do 20.05.2016 12920 4525 17445 46 17 32 36 63 75 69 119
Burg Haneck (Elsass) Die elsässische Burg Haneck wurde früher oft mit der nahe gelegenen Burg Hageneck verwechselt. N 1 19.05.2016 Do 20.05.2016 7669 3831 11500 28 14 21 52 60 65 62 109
Kunst- und Kulturzentrum Monschau Im Kunst- und Kulturzentrum Monschau werden jungen Künstlern existentielle Fragen beantwortet. N 1 19.05.2016 Do 20.05.2016 2665 1440 4105 10 5 7 56 21 24 23 118
Francis Bioret Francis Biorets Schuhe stehen seit 2013 auf dem Marktplatz von Langenau. J 1 20.05.2016 Fr 21.05.2016 15613 2809 18422 58 11 35 19 86 66 76 78
Glasglocke (Gartenbau) Im 19. Jahrhundert benutzten manche Betriebe zehntausende von Glasglocken. N 1 20.05.2016 Fr 21.05.2016 18175 5561 23736 68 22 45 33 139 134 137 96
Schloss Kleßen Mit Marschall Murat verschwand aus Schloss Kleßen auch eine Tabatiere von Friedrich dem Großen. N 1 20.05.2016 Fr 21.05.2016 7991 2632 10623 30 11 20 35 61 63 62 104
OnGameNet Starleague Für den dreimaligen Gewinn der OnGameNet Starleague gab es eine goldene Maus als Trophäe. J 1 21.05.2016 Sa 22.05.2016 3779 1763 5542 15 7 11 45 40 40 40 101
Esteban de la Rama Der philippinische Senator Esteban de la Rama ließ Schiffe seiner Reederei auf der Kieler Germaniawerft bauen. N 1 21.05.2016 Sa 22.05.2016 2577 1948 4525 10 7 9 72 38 44 41 114
Regina Safirsztajn Die widerständige Regina Safirsztajn wurde bei der letzten öffentlichen Hinrichtung im KZ Auschwitz wegen Schmuggels gehängt. N 1 21.05.2016 Sa 22.05.2016 12939 8082 21021 52 31 41 60 193 182 187 94
Luftpumpentaler Die als Symbol für die Trennung der Eintracht geltende Frauenhand auf dem Luftpumpentaler gehört zu einem Mann. J 1 22.05.2016 So 23.05.2016 9176 13450 22626 35 46 41 133 88 136 112 155
NER Nr. 13 Die 112 t schwere Elektrolok NER Nr. 13 kam nie zum regulären Einsatz. N 1 22.05.2016 So 23.05.2016 17197 23770 40967 66 82 74 125 198 200 199 101
Horst Schreiber Der Zeitgeschichtler Horst Schreiber deckte NS-Verstrickungen in Österreich auf und setzt sich für ehemalige Heimkinder ein. N 1 22.05.2016 So 23.05.2016 3180 6431 9611 12 22 17 183 37 54 45 148
Cäsium-Barium-Generator Mit einem Cäsium-Barium-Generator kann der radioaktive Zerfall gefahrlos im Unterricht gezeigt werden. J 1 23.05.2016 Mo 24.05.2016 19004 6840 25844 66 24 45 37 87 85 86 97
Wärmepumpe Drammen Die Wärmepumpe Drammen nutzt kaltes Meerwasser zur Erzeugung von Fernwärme. N 1 23.05.2016 Mo 24.05.2016 19133 10293 29426 66 36 51 55 141 134 138 95
Heinz Uth Heinz Uth war der erste Homosexuellen­beauftragte der Polizei in Deutschland. N 1 23.05.2016 Mo 24.05.2016 13091 6704 19795 45 24 34 52 96 88 92 91
Hercule Florence Bei einer Amazonas-Expedition erfand Hercule Florence eine Notation für Tierlaute. J 1 24.05.2016 Di 25.05.2016 8106 3004 11110 29 11 20 38 40 47 44 118
Ephraim Hertzano Ephraim Hertzano umging geschickt das kommunistische Kartenspielverbot in Rumänien. N 1 24.05.2016 Di 25.05.2016 15183 8319 23502 53 30 42 56 104 109 106 105
Jacob Zurl Jacob Zurl überquerte den Himalaya in weniger als 40 Stunden. N 1 24.05.2016 Di 25.05.2016 14609 7389 21998 51 27 39 52 100 97 98 97
Der Untergang der Stadt Passau Im Jahr 2112 wird die Stadt Passau untergehen. J 1 25.05.2016 Mi 26.05.2016 58235 11375 69610 210 43 127 20 236 142 189 60
Nikolaus Wachsmann Nikolaus Wachsmann vereint in seiner Forschungsarbeit über nationalsozialistische Konzentrationslager die Perspektive sowohl der Täter als auch jene der Opfer. N 1 25.05.2016 Mi 26.05.2016 7302 2294 9596 26 9 18 33 51 33 42 64
Ich bin der Doktor Eisenbart Ich bin der Doktor Eisenbart – widewidewitt, bum, bum. N 1 25.05.2016 Mi 26.05.2016 29856 9559 39415 108 36 72 33 208 136 172 65
Steinau genannt Steinrück Giso von Steinau war einer der Anführer beim Fuldaer Abtsmord. J 1 26.05.2016 Do 27.05.2016 8914 4880 13794 34 18 26 55 46 82 64 180
Salipada K. Pendatun Der Rechtsanwalt und Brigadegeneral Salipada K. Pendatun war als erster Muslim Mitglied des Senats der Philippinen. N 1 26.05.2016 Do 27.05.2016 1349 1315 2664 5 5 5 98 11 23 17 206
Polizeidirektion Flensburg Im Mai 1945 wurden mit dem Ende des Dritten Reiches dessen letzte Repräsentanten im Hinterhof der Polizeidirektion Flensburg der Weltpresse vorgeführt. N 1 26.05.2016 Do 27.05.2016 11863 10076 21939 45 38 41 85 97 174 135 179
Bodenampel In manchen deutschen Städten liegen die Ampeln schon am Boden. J 1 27.05.2016 Fr 28.05.2016 24263 4528 28791 92 18 55 20 135 107 121 79
Goehle-Werk In das ehemalige KZ-Außenlager Goehle-Werk sollen bald Künstler einziehen. N 1 27.05.2016 Fr 28.05.2016 6321 2380 8701 24 9 17 40 49 57 53 116
Johannes Blumstein Johannes Blumstein war wahrscheinlich ein begnadeter Diplomat. N 1 27.05.2016 Fr 28.05.2016 12469 4115 16584 47 16 32 35 97 99 98 102
Peter J. Gibson Peter J. Gibson erfand die Vivaldi-Antenne. J 1 28.05.2016 Sa 29.05.2016 10836 3273 14109 43 12 28 28 113 73 93 64
These Final Hours These Final Hours beschreibt die letzten Stunden der Menschheit. N 1 28.05.2016 Sa 29.05.2016 8588 5527 14115 34 21 27 60 128 121 125 95
Preussische Spirituosen Manufaktur Im Museum der Preussischen Spirituosen Manufaktur spielt die Drogenduftorgel keine Musik. N 1 28.05.2016 Sa 29.05.2016 4511 2306 6817 18 9 13 48 67 51 59 76
La Araucana La Araucana erzählt aus der Perspektive der indigenen Mapuche vom Krieg mit den spanischen Eroberern in Chile. J 1 29.05.2016 So 30.05.2016 3386 3457 6843 13 12 12 95 32 35 33 110
Feuerwehr Ulm Obwohl die Stadt mehr als 100.000 Einwohner hat, ist die Feuerwehr Ulm weitestgehend ehrenamtlich organisiert. N 1 29.05.2016 So 30.05.2016 4301 5845 10146 16 20 18 126 48 49 49 102
Unterleuten In Unterleuten wirbelt ein geplanter Windpark ein Dorf durcheinander. N 1 29.05.2016 So 30.05.2016 6045 10520 16565 23 36 29 162 68 89 78 130
Torusantenne Die aus der Militärtechnik stammende Torusantenne hat inzwischen auch Eingang ins Wohnzimmer gefunden. J 1 30.05.2016 Mo 31.05.2016 8764 13077 21841 30 46 38 152 40 163 102 403
Weinfest von Marino Nur beim Weinfest von Marino fließt Wein aus den „Wunderbrunnen“. N 1 30.05.2016 Mo 31.05.2016 8965 4663 13628 31 16 24 53 66 61 64 92
Jüdischer Friedhof Bad Münder Auf dem jüdischen Friedhof Bad Münder wurden nach 1941 Kartoffeln angebaut. J 1 31.05.2016 Di 01.06.2016 14133 5598 19731 50 20 35 40 70 86 78 123
Der Junge, der Ripley folgte In Der Junge, der Ripley folgte spielt Patricia Highsmith mit Elementen der Homosexualität. N 1 31.05.2016 Di 01.06.2016 10090 5076 15166 36 18 27 50 69 65 67 94
Yếm Viele vietnamesische Gedichte sind der Schönheit von Frauen in ihren zinnoberroten Yếms gewidmet. J 1 01.06.2016 Mi 02.06.2016 28017 6308 34325 99 22 61 23 111 75 93 67
Ralph B. Baldwin Ralph B. Baldwin revolutionierte unser Bild des Mondes. N 1 01.06.2016 Mi 02.06.2016 13391 8553 21944 47 30 39 64 92 115 103 126
Gardemusik Wien Bis 2015 standen bei der Gardemusik Wien „Trommelponys“ im Dienst des österreichischen Bundesheeres. J 1 02.06.2016 Do 03.06.2016 11837 4539 16376 42 17 29 39 57 74 65 129
Jona J.6 Die Jona J.6 war das bisher einzige Flugzeug, das tatsächlich mit den Flügeln wackeln konnte. N 1 02.06.2016 Do 03.06.2016 30458 16311 46769 108 60 84 55 235 272 254 116
Fünf Frauen auf der Straße 1937 wurden Fünf Frauen auf der Straße beschlagnahmt. J 1 03.06.2016 Fr 04.06.2016 29705 6085 35790 108 24 66 22 160 139 150 87
Schlüpfertyp Am Waldrand kann man verschiedene Schlüpfertypen beobachten. N 1 03.06.2016 Fr 04.06.2016 17638 4093 21731 64 16 40 25 133 96 114 72
Kakaomutter Kakaomütter sorgen für optimalen Wuchs und gute Erträge. J 1 04.06.2016 Sa 05.06.2016 9641 6034 15675 37 22 30 60 98 132 115 135
Alternativfestivalen 1975 protestierten 12.000 Schweden mit dem Alternativfestivalen gegen den Eurovision Song Contest. N 1 04.06.2016 Sa 05.06.2016 3783 2787 6570 15 10 12 70 55 61 58 111
St. Bonifatius (Tauberbischofsheim) Emil Wachter brachte Farbe in die Bonifatiuskirche in Tauberbischofsheim. J 1 05.06.2016 So 06.06.2016 3440 4028 7468 13 14 13 110 32 41 36 128
Manohar Aich Der kleinwüchsige Manohar Aich stieg als Pocket Hercules zum Mister Universum auf. N 1 05.06.2016 So 06.06.2016 13703 19816 33519 50 68 59 135 152 166 159 109
Schwimmende Rentiere Die Schwimmenden Rentiere bestätigen, dass Mammuts und Menschen zeitgleich in der Region des heutigen Frankreichs gelebt haben. J 1 06.06.2016 Mo 07.06.2016 30950 11444 42394 107 40 73 38 142 142 142 100
The Dead Milkmen Obwohl den Dead Milkmen nie der kommerzielle Durchbruch gelang, entwickelten sie sich zu einem Kultphänomen. N 1 06.06.2016 Mo 07.06.2016 23628 11189 34817 81 39 60 48 174 146 160 84
Villa von der Heydt (Bad Godesberg) „Und aus Verträumen und Vertrauen, aus draußen und drinnen wird erst das Haus.“ (R. M. Rilke) J 1 07.06.2016 Di 08.06.2016 10067 2308 12375 35 8 22 23 50 35 43 71
O Arbiru Beim Untergang der O Arbiru gab es vermutlich nur einen Überlebenden. N 1 07.06.2016 Di 08.06.2016 11480 15044 26524 40 53 47 131 78 192 135 245
Lindsay Kemp Wegen Kajal und Sandalen flog Lindsay Kemp aus der Royal Air Force. J 1 08.06.2016 Mi 09.06.2016 36697 12473 49170 129 44 87 34 145 147 146 101
Das Verborgene Museum Das Verborgene Museum findet man in Berlin. N 1 08.06.2016 Mi 09.06.2016 17432 10452 27884 61 37 49 60 119 140 129 118
The Man That Was Used Up Die Satire The Man That Was Used Up zeigt eine wenig bekannte Seite Edgar Allan Poes. J 1 09.06.2016 Do 10.06.2016 13901 4176 18077 49 15 32 31 67 68 68 102
Fred Jordan In Fred Jordans Evergreen Review erschienen in den 1960er Jahren die Comics Phoebe Zeit-Geist und Barbarella. N 1 09.06.2016 Do 10.06.2016 2376 1129 3505 8 4 6 49 18 19 19 103
Eleousa (Rhodos) Eleousa war einst ein italienisches Musterdorf auf einer griechischen Insel. J 1 10.06.2016 Fr 11.06.2016 18981 4402 23383 70 17 43 25 103 102 102 100
Wonambi Die prähistorische australische Schlangengattung Wonambi war schon ein Fossil, bevor sie ausstarb. N 1 10.06.2016 Fr 11.06.2016 17788 5681 23469 65 22 44 34 134 135 134 100
EU-Vogelschutzgebiet Westlicher Düppeler Forst Im Westlichen Düppeler Forst am Rande Berlins kann man nicht nur Adler beobachten. J 1 11.06.2016 Sa 12.06.2016 5132 3146 8278 20 11 16 57 53 68 60 129
It’s On (Dr. Dre) 187um Killa Der Rapper Eazy-E feierte auf It’s On (Dr. Dre) 187um Killa seine Promiskuität – wenig später starb er. N 1 11.06.2016 Sa 12.06.2016 11106 7433 18539 44 27 35 62 163 160 161 98
Schloss Lontzen Dreimal wurde Schloss Lontzen schon aus Ruinen wiederaufgebaut. J 1 12.06.2016 So 13.06.2016 10329 12539 22868 38 43 40 114 95 125 110 132
Emma Morano Emma Morano ist der letzte lebende Mensch, der vor dem Jahr 1900 geboren wurde. N 1 12.06.2016 So 13.06.2016 23538 35480 59018 86 121 103 141 259 294 276 114
Stotterbremse In den 1970er-Jahren kam die Stotterbremse als Bremswegverlängerer in die Kritik. J 1 13.06.2016 Mo 14.06.2016 36045 11605 47650 123 40 82 33 164 143 153 87
Guðni Th. Jóhannesson Guðni Th. Jóhannesson hat Stephen King übersetzt, die Kabeljaukriege und die Geschichte der isländischen Präsidenten erforscht und will jetzt selbst Präsident werden. N 1 13.06.2016 Mo 14.06.2016 6688 4100 10788 23 14 19 63 49 53 51 109
Augustus Lutheran Church Die Augustus Lutheran Church ist die älteste erhaltene evangelisch-lutherische Kirche in den Vereinigten Staaten. J 1 14.06.2016 Di 15.06.2016 11771 3061 14832 41 11 26 27 58 47 52 82
Die Toten vom Bodensee – Stille Wasser In Die Toten vom Bodensee – Stille Wasser jagt Kommissar Oberländer einen Mann in den Wald und kehrt mit einem Kind zurück. N 1 14.06.2016 Di 15.06.2016 16285 6853 23138 57 24 40 43 110 88 99 80
Johann Basilius Herold Der Drucker und Historiker Johann Basilius Herold erfand einen Ahnherrn der Hohenzollern. J 1 15.06.2016 Mi 16.06.2016 14907 5200 20107 53 18 36 35 59 61 60 103
Fridolin Honold Fridolin Honold wurde Opfer von „Streitsucht und Gehässigkeit“ unter katholischen Priestern. N 1 15.06.2016 Mi 16.06.2016 13020 6950 19970 46 25 35 53 89 93 91 104
Opéra de Lille Wer die Opéra de Lille betritt, wird von Idylle und Poesie begrüßt. J 1 16.06.2016 Do 17.06.2016 4825 2188 7013 17 8 12 46 23 35 29 152
Jan Opletal Jan Opletal wurde zur Symbolfigur für den tschechischen Widerstand gegen den Nationalsozialismus. N 1 16.06.2016 Do 17.06.2016 8769 5571 14340 31 20 26 65 67 92 80 137
Catherine Dulac Catherine Dulac ist unserem Geruchssinn auf der Spur. J 1 17.06.2016 Fr 18.06.2016 8048 1813 9861 29 7 18 25 43 42 43 99
Bogd Khan Uul Der Bogd Khan Uul gilt als der älteste Naturpark der Welt. N 1 17.06.2016 Fr 18.06.2016 14997 4636 19633 54 18 36 34 112 111 111 99
Karl Schropp Karl Schropps Modell des Kölner Domes diente der Kampagne für die Fertigstellung des Bauwerks. J 1 18.06.2016 Sa 19.06.2016 8683 2998 11681 34 11 23 33 90 66 78 74
Mit Lutz und Liebe Mit Lutz und Liebe moderierte Lutz Jahoda gemeinsam mit einem Papageien. N 1 18.06.2016 Sa 19.06.2016 4081 2289 6370 16 9 12 53 60 50 55 83
Front Porch Campaign Bei einer Front Porch Campaign wird die heimische Veranda zur Wahlkampfbühne. J 1 19.06.2016 So 20.06.2016 5351 3542 8893 20 12 16 62 50 36 43 72
Gutterdämmerung Gutterdämmerung wurde als „lautester Stummfilm aller Zeiten“ bezeichnet. N 1 19.06.2016 So 20.06.2016 9594 11608 21202 36 40 38 113 108 98 103 91
Arnold Boonen Neben etlichen bekannten Malern ging auch sein Bruder bei Arnold Boonen in die Lehre. J 1 20.06.2016 Mo 21.06.2016 5388 1736 7124 19 6 12 33 25 22 23 86
Portsmouth Sinfonia Obwohl kein Orchestermitglied sein Instrument beherrschte, hatte die Portsmouth Sinfonia einen Top-40-Hit. N 1 20.06.2016 Mo 21.06.2016 15645 9257 24902 54 33 44 60 116 121 119 104
Michael O’Neill (Fußballspieler) Unter Michael O’Neill qualifizierte sich die nordirische Fußballnationalmannschaft erstmals für die Endrunde einer Europameisterschaft. J 1 21.06.2016 Di 22.06.2016 9764 3871 13635 34 14 24 40 48 60 54 125
In M. Tullium invectiva Die kunstvoll gestaltete Schmährede gegen Cicero In M. Tullium invectiva entstand vermutlich in einer römischen Rhetorikschule. N 1 21.06.2016 Di 22.06.2016 7727 3963 11690 27 14 21 52 53 52 52 98
Fido (Hund) Wie auch sein früherer Besitzer Abraham Lincoln starb Fido eines gewaltsamen Todes. J 1 22.06.2016 Mi 23.06.2016 39080 15405 54485 140 57 98 40 157 188 173 120
Marge Champion Marge Champion brachte Schneewittchen, die blaue Fee, einen Storch und ein Flusspferd zum Tanzen. N 1 22.06.2016 Mi 23.06.2016 9123 6694 15817 33 25 29 75 63 93 78 147
Sarah Parcak Sarah Parcak machte Methoden der Satelliten-Archäologie einer breiteren Öffentlichkeit bekannt. J 1 23.06.2016 Do 24.06.2016 22556 2821 25377 83 10 47 13 113 47 80 41
Repertorium Germanicum Damit das „Rauspicken“ aufhört, umfasst das Repertorium Germanicum mittlerweile 25 dicke Bände. N 1 23.06.2016 Do 24.06.2016 22062 7469 29531 81 28 54 34 176 127 152 72
Bimetallkorrosion Bimetallkorrosion ist vergleichbar mit einer kurzgeschlossenen Batterie. J 1 24.06.2016 Fr 25.06.2016 16622 3346 19968 62 13 37 21 91 77 84 85
Fahreignung von Senioren Die Überprüfung der Fahreignung von Senioren ist in Deutschland ein Tabu. N 1 24.06.2016 Fr 25.06.2016 14520 4606 19126 54 18 36 33 111 108 110 97
Stephen Storace Stephen Storace schrieb die Oper No song no supper. J 1 25.06.2016 Sa 26.06.2016 1214 663 1877 5 2 4 52 12 15 14 118
Bahnstrecke Kędzierzyn-Koźle–Opole Auf der Bahnstrecke Kędzierzyn-Koźle–Opole war der schnellste Zug vor 80 Jahren doppelt so schnell wie der schnellste Zug heute. N 1 25.06.2016 Sa 26.06.2016 14051 9868 23919 55 37 46 67 205 216 210 106
Samuel-Heinicke-Schule (Leipzig) Die Samuel-Heinicke-Schule in Leipzig ist mit 238 Jahren die älteste Gehörlosenschule Deutschlands. J 1 26.06.2016 So 27.06.2016 2302 1830 4132 9 6 7 73 22 18 20 85
Britta Jänicke Mit nur einem Unterarm spielte Britta Jänicke in der Handball-Bundesliga. N 1 26.06.2016 So 27.06.2016 9334 12267 21601 35 42 38 120 105 101 103 97
Römisches Lapidarium Der Grundstock für das Römische Lapidarium in Stuttgart wurde schon 1583 gelegt. J 1 27.06.2016 Mo 28.06.2016 14537 5131 19668 49 18 34 37 66 64 65 97
Blanka Pudler Blanka Pudler, Zeitzeugin des Holocaust, wurde in ihrer Zeit als Zwangsarbeiterin zu den „Kanarienvögeln“ gezählt. N 1 27.06.2016 Mo 28.06.2016 25228 13147 38375 86 46 66 54 183 172 177 94
Goldene Laute (Leipzig) In der Goldenen Laute konnten Autos bereits 1927 mit dem Fahrstuhl fahren. J 1 28.06.2016 Di 29.06.2016 24828 10178 35006 88 37 62 42 123 160 141 129
Zweite Person Singular In Zweite Person Singular verknüpft ein Liebesbrief die Identitätssuche zweier arabisch-israelischer Männer. N 1 28.06.2016 Di 29.06.2016 4982 3405 8387 18 12 15 70 34 45 39 130
Hongqi CA72 Die rotchinesische Repräsentationslimousine Hongqi CA72 sah nach 100 Millionen Dollar aus. J 1 29.06.2016 Mi 30.06.2016 57979 17722 75701 209 64 136 31 234 213 223 91
Tama, ein japanischer Hund Tama kam als lebendes Reiseandenken aus Japan und wurde von Eduard Manet gemalt. N 1 29.06.2016 Mi 30.06.2016 21657 10643 32300 78 38 58 49 151 145 148 96
Piet Pelle Piet Pelle fährt auf einer Gazelle durch den ältesten Comic der Niederlande. J 1 30.06.2016 Do 01.07.2016 15182 3739 18921 55 14 34 25 75 61 68 82
Sukun (Insel) Wer im See der Insel Sukun schwimmt, verschwindet angeblich auf Nimmerwiedersehen. N 1 30.06.2016 Do 01.07.2016 35224 11198 46422 127 41 84 32 277 189 233 68
Schätze der europäischen Filmkultur Schätze der europäischen Filmkultur kann man unter anderem auf Fårö, im Wiener Prater und am Hafen von Odessa finden. J 1 01.07.2016 Fr 02.07.2016 7949 1059 9008 29 4 17 14 43 24 34 56
Wolpertinger oder Das Blau Wolpertinger oder Das Blau – ein „Sittengemälde der intellektuellen Szene vor dem Jahr 1989“. N 1 01.07.2016 Fr 02.07.2016 14271 4555 18826 53 18 35 34 109 107 108 98
Jakobsweg Main-Taubertal Der Jakobsweg Main-Taubertal verläuft überwiegend in Baden-Württemberg, beginnt und endet jedoch in Bayern. J 1 02.07.2016 Sa 03.07.2016 5868 2909 8777 23 11 17 49 60 66 63 110
Kunstmuseen Krefeld Der Direktor der Kunstmuseen Krefeld bezahlte 1959 gerade mal 500 Mark für ein Gemälde von Yves Klein. N 1 02.07.2016 Sa 03.07.2016 1674 1388 3062 7 5 6 81 24 31 28 128
Studentenbrunnen Auf dem Bonner Studentenbrunnen ist ein berauschter Jüngling im Walfisch verewigt. J 1 03.07.2016 So 04.07.2016 6822 9374 16196 26 34 30 130 65 99 82 151
Heinz Sagner Der Apotheker Heinz Sagner gewann für Deutschland beim Songfestival von Knokke. N 1 03.07.2016 So 04.07.2016 4679 7690 12369 18 28 23 156 54 67 61 125
Adolf Herrmann Die steinerne Erinnerung an Adolf Herrmann war ein ständiger Stein des Anstoßes. J 1 04.07.2016 Mo 05.07.2016 32575 9464 42039 117 34 76 29 156 120 138 77
Proletarischer Gesundheitsdienst Der Proletarische Gesundheitsdienst war eine Nachfolge­einrichtung des Arbeiter-Samariterbundes. N 1 04.07.2016 Mo 05.07.2016 5081 3424 8505 18 12 15 67 39 46 42 117
Ulster Folk and Transport Museum Im Ulster Folk and Transport Museum steht das Urmodell des DeLorean DMC-12 (bekannt aus der Film-Trilogie Zurück in die Zukunft). J 1 05.07.2016 Di 06.07.2016 22486 6419 28905 81 23 52 29 114 102 108 89
Der Butler (Green) Als der Butler stirbt, bricht Anarchie aus. N 1 05.07.2016 Di 06.07.2016 31700 14912 46612 114 54 84 48 222 197 209 89
Stuttgarter Kartenspiel Das Stuttgarter Kartenspiel ist das älteste erhaltene Kartenspiel der Welt. J 1 06.07.2016 Mi 07.07.2016 26036 9871 35907 95 37 66 39 106 122 114 114
Hauptfeuerwache (München) In der Hauptfeuerwache in München liefen die Pferde bei einem Alarm von selbst zu den Löschfahrzeugen. N 1 06.07.2016 Mi 07.07.2016 21814 10696 32510 79 40 60 50 153 150 152 98
Porträt der Eirene Das Porträt der Eirene ist ein Beispiel für die multikulturelle Durchmischung in der Kunst Ägyptens im 1. Jahrhundert n. Chr. J 1 07.07.2016 Do 08.07.2016 15501 3875 19376 57 15 36 26 78 65 72 84
Der neue Coach Trotz schlechter Einschaltquoten leitete Der neue Coach eine Fernsehserie mit fünf Staffeln ein. N 1 07.07.2016 Do 08.07.2016 13761 6687 20448 51 25 38 50 111 116 113 104
Sechs Orgelsonaten op. 65 (Mendelssohn) Mit seinen Sechs Orgelsonaten op. 65 überwindet Mendelssohn eine 100-jährige Ohnmacht der Orgelkomposition nach Bach. J 1 08.07.2016 Fr 09.07.2016 4437 1455 5892 17 6 11 36 25 35 30 143
Hans Glaser (Widerstandskämpfer) Hans Glaser war Spiritus Rector der „Mooruniversität“. N 1 08.07.2016 Fr 09.07.2016 7499 2452 9951 28 10 19 35 59 61 60 104
Pont de Grenelle Die Pont de Grenelle in Paris führt hinter der Freiheitsstatue vorbei. J 1 09.07.2016 Sa 10.07.2016 8512 3136 11648 35 10 23 29 92 60 76 66
Joseph Antoine Morio Der vormalige westphälische Kriegsminister Joseph Antoine Morio de Marienborn fand den Tod in einem Stall. N 1 09.07.2016 Sa 10.07.2016 9855 6525 16380 40 21 31 52 151 125 138 82
Restaurante Zambi Im Restaurante Zambi speisen die Gäste in der Gesellschaft phantastischer Tiere. J 1 10.07.2016 So 11.07.2016 6939 13742 20681 22 41 31 181 57 119 88 210
Ad Astra Statt zu den Sternen flog Ad Astra nach Eisenbüttel. N 1 10.07.2016 So 11.07.2016 8731 13305 22036 28 39 34 139 85 95 90 112
Rachel Trevor-Morgan Rachel Trevor-Morgan ist die „Hutmacherin Ihrer Majestät“. J 1 11.07.2016 Mo 12.07.2016 20166 5900 26066 59 18 39 30 79 62 71 79
Karl Wilhelm Moritz Snethlage Karl Wilhelm Moritz Snethlage hielt Friedrich Engels über das Taufbecken und saß am Sterbebett Friedrich Wilhelms IV. N 1 11.07.2016 Mo 12.07.2016 13458 7398 20856 40 22 31 56 85 82 83 97
Frederick Sumner McKay Nach 30-jähriger Forschung entdeckte Frederick Sumner McKay 1931 die Ursache braun gefleckter Zähne. J 1 12.07.2016 Di 13.07.2016 34476 8125 42601 103 24 63 23 145 103 124 71
Peter Morley (Dokumentarfilmer) Der Dokumentarfilmer Peter Morley verdankt seinen Namen einer Nadel in einem Telefonbuch. N 1 12.07.2016 Di 13.07.2016 13104 6646 19750 39 19 29 49 76 70 73 92
Hogwarts Express (Universal Orlando Resort) Die Fahrt im Hogwarts Express dauert etwa 4 Minuten und führt von King’s Cross nach Hogsmeade. J 1 13.07.2016 Mi 14.07.2016 42276 14919 57195 123 50 87 41 138 167 153 121
Alfons Pech Nach einem gescheiterten Fluchtversuch wurde der Widerstandskämpfer Alfons Pech von den Nationalsozialisten ermordet. N 1 13.07.2016 Mi 14.07.2016 17514 9691 27205 51 33 42 64 99 123 111 125
Douglas Tower Der Bau des Douglas Tower war von dem Wettstreit inspiriert, der vom Eiffelturm ausging. J 1 14.07.2016 Do 15.07.2016 24538 8585 33123 83 32 58 39 113 144 128 128
Stones in My Passway Eric Clapton coverte Stones in My Passway gleich zweimal. N 1 14.07.2016 Do 15.07.2016 5836 2905 8741 20 11 15 56 43 50 46 117
Chapman’s Baobab In Afrika ist ein Baum umgefallen. J 1 15.07.2016 Fr 16.07.2016 49648 13098 62746 187 54 121 29 276 319 298 115
I-Doser Drogen kann man angeblich auch hören. N 1 15.07.2016 Fr 16.07.2016 17441 4842 22283 66 20 43 30 136 120 128 89
Joseph O’Mara Zu Weltruhm gelangte Joseph O’Mara in der Rolle eines Verräters. J 1 16.07.2016 Sa 17.07.2016 10828 4094 14922 44 16 30 36 116 96 106 82
Diana Marossek Diana Marossek wurde mit der Fragestellung „Gehst du Bahnhof oder bist du mit Auto?“ promoviert. N 1 16.07.2016 Sa 17.07.2016 13678 9492 23170 56 37 47 67 210 221 215 105
Rirette Maîtrejean Rirette Maîtrejean führte Albert Camus in die anarchistischen Kreise Frankreichs ein. J 1 17.07.2016 So 18.07.2016 8173 4527 12700 32 17 25 52 81 49 65 61
Achtbrüdertaler Acht junge fürstliche Herren auf einem Taler zu sehen, ist einmalig. N 1 17.07.2016 So 18.07.2016 8461 9966 18427 33 37 35 111 101 90 95 89
Bergwerk Almadén Das UNESCO-Weltkulturerbe-Bergwerk Almadén steht in 2000-jähriger Abbautradition. J 1 18.07.2016 Mo 19.07.2016 18569 5962 24531 69 22 46 33 92 79 85 86
Gustav Deutsch Gustav Deutsch beantwortete die Frage „Was ist Film?“ mit Filmen. N 1 18.07.2016 Mo 19.07.2016 3818 2199 6017 14 8 11 58 30 31 30 102
Wilhelm Beck (Zeichner) Für Karikaturen in der Wiener Katzen-Musik erhielt Wilhelm Beck zwei Monate Gefängnis. J 1 19.07.2016 Di 20.07.2016 14288 4687 18975 54 18 36 33 76 77 76 102
Arthur Brandt (Rechtsanwalt) Arthur Brandt wollte den im Reichstagsbrandprozess 1933 zum Tode verurteilten Niederländer Marinus van der Lubbe rehabilitieren. N 1 19.07.2016 Di 20.07.2016 14698 8024 22722 55 30 43 55 107 110 109 103
South Manchester Railroad Ein Trinker, der von einem Zug der South Manchester Railroad verletzt worden war, soll keinen Tropfen Alkohol mehr angerührt haben. J 1 20.07.2016 Mi 21.07.2016 18923 5620 24543 71 21 46 29 80 70 75 87
Elisabeth-Hospital (Marburg) Das Elisabeth-Hospital in Marburg war ursprünglich ein „Häuschen aus Lehm und Holz“. N 1 20.07.2016 Mi 21.07.2016 6602 3172 9774 25 12 18 48 48 45 46 93
De Kopermolen Mit dem äußerlich unauffälligen Bau der lutherischen Kirche De Kopermolen in Vaals sollte in Zeiten der Religionsunruhen die römisch-katholische Kirche nicht provoziert werden. J 1 21.07.2016 Do 22.07.2016 8341 3554 11895 31 14 22 43 42 60 51 142
Harzreise im Winter Die Hymne Harzreise im Winter zeugt von Goethes Brockenbesteigung. N 1 21.07.2016 Do 22.07.2016 4736 2608 7344 18 10 14 56 38 45 42 118
You’ll Never Leave Harlan Alive You’ll Never Leave Harlan Alive kam in der Fernsehserie Justified mit drei Coverversionen zum Zug. J 1 22.07.2016 Fr 23.07.2016 10644 1178 11822 41 5 23 12 60 29 44 48
Reimer Mager Reimer Mager ließ sich weder von den Nationalsozialisten noch von der SED-Herrschaft einschüchtern. N 1 22.07.2016 Fr 23.07.2016 16637 5419 22056 63 22 43 35 131 134 132 102
Cake Design Aus dem kunstvollen Cake Design früherer Jahrhunderte wurde ein Hobby für jedermann. J 1 23.07.2016 Sa 24.07.2016 5911 4777 10688 24 19 22 79 63 113 88 179
Hessische Katastervorbeschreibungen Die strengen Hessischen Katastervorbeschreibungen halfen, die Steuerkraft optimal abzuschöpfen. N 1 23.07.2016 Sa 24.07.2016 4177 3075 7252 17 12 15 72 64 72 68 113
Nikolai Jewgenjewitsch Markow Der russische Publizist Nikolai Jewgenjewitsch Markow siedelte 1935 aus Paris ins nationalsozialistische Deutschland über. J 1 24.07.2016 So 25.07.2016 10314 8810 19124 41 32 37 78 104 94 99 91
Holy Island Waggonway Der Holy Island Waggonway diente dem Transport von Kalk und Kohle auf der Insel Lindisfarne. N 1 24.07.2016 So 25.07.2016 6691 9329 16020 27 34 30 128 80 83 82 103
Regine Schumann Die Kunst von Regine Schumann verdeutlicht die unterschiedliche Wirkung von Tages- und Schwarzlicht auf Objekte. J 1 25.07.2016 Mo 26.07.2016 6329 2042 8371 23 8 15 33 31 27 29 87
VGN-Klasse EL-3A Die Lokomotiven der VGN-Klasse EL-3A waren bei Ablieferung die größten der Welt. N 1 25.07.2016 Mo 26.07.2016 29084 8325 37409 106 31 69 29 226 115 171 51
Vier Balladen op. 10 Die erste der Vier Balladen op. 10 von Johannes Brahms wurde durch die literarische Umsetzung eines Vatermords inspiriert. J 1 26.07.2016 Di 27.07.2016 3855 1160 5015 14 4 9 30 20 19 19 93
Tony Werntgen Wegen ihrer Leidenschaft für Flugzeuge verlor Tony Werntgen ihren Sohn und ihr Vermögen. N 1 26.07.2016 Di 27.07.2016 23647 12017 35664 88 45 66 51 170 162 166 95
Heinzelmann (Radiobausatz) Ein Heinzelmann war der Grundstein für den Erfolg von Grundig. J 1 27.07.2016 Mi 28.07.2016 38931 14367 53298 145 54 99 37 162 180 171 111
Klebeband (Kunstsammlung) Auch der Fürst von Waldburg-Wolfegg (1604–1667) war stolzer Besitzer eines Klebebandes. N 1 27.07.2016 Mi 28.07.2016 23174 10468 33642 86 39 63 46 166 149 158 89
Mont-Royal-Tunnel Der Mont-Royal-Tunnel in Montreal sollte durch eine Modellstadt finanziert werden. J 1 28.07.2016 Do 29.07.2016 22192 4420 26612 84 17 50 21 113 77 95 67
Jakow Alexandrowitsch Brafman Jakow Alexandrowitsch Brafman, Sohn eines Rabbiners, entfaltete 1869 eine einflussreiche antisemitische Verschwörungstheorie. N 1 28.07.2016 Do 29.07.2016 14084 5828 19912 53 23 38 43 115 104 109 90
Unimog 401 Der allradgetriebene Kleinlastwagen Unimog 401 ist nur etwa 3,50 Meter lang. J 1 29.07.2016 Fr 30.07.2016 36167 9959 46126 141 42 92 30 208 252 230 121
Stanislau Stankewitsch Der weißrussische Nazikollaborateur Stanislau Stankewitsch wurde nie für seine Beteiligung an der Ermordung von bis zu 8.000 Juden zur Rechenschaft gezogen. N 1 29.07.2016 Fr 30.07.2016 15579 5369 20948 61 23 42 38 125 138 132 111
HD 131399Ab Es regnet Sand und Eisen auf HD 131399Ab. J 1 30.07.2016 Sa 31.07.2016 14336 8430 22766 61 34 48 55 160 202 181 126
Jürgen Sydow Obwohl Jürgen Sydow nur kurz Novize war, kannte er sich mit kirchlichen Institutionen sehr gut aus. N 1 30.07.2016 Sa 31.07.2016 7428 4728 12156 32 19 25 60 118 112 115 95
Annette Gordon-Reed Annette Gordon-Reed untersuchte die historische Streitfrage, ob Thomas Jefferson mit der Sklavin Sally Hemings Kinder hatte. J 1 31.07.2016 So 01.08.2016 14745 12911 27656 59 49 54 82 150 143 147 96
Oberst-Klinke-Hütte Die Oberst-Klinke-Hütte wandelte sich von einem militärischen zu einem touristischen Stützpunkt. N 1 31.07.2016 So 01.08.2016 11998 14888 26886 48 56 52 117 146 137 141 94
Kriegsgefangenenlager Büblingshausen Im Kriegsgefangenenlager Büblingshausen wurden Ukrainer im Kampf gegen Russland ausgebildet. J 1 01.08.2016 Mo 02.08.2016 24144 7183 31327 91 27 59 30 122 95 108 78
Philippinenwürger Der Philippinenwürger ist ein Ansitzjäger. N 1 01.08.2016 Mo 02.08.2016 20828 9974 30802 79 37 58 48 168 139 153 83
Uranglasur Keramiken mit Uranglasur strahlen nicht nur mit ihrer Farbenpracht. J 1 02.08.2016 Di 03.08.2016 28683 10983 39666 108 42 75 39 151 181 166 120
Mirandolina (Martinů) Martinůs Oper Mirandolina hatte ein italienisches Libretto, wurde aber in Tschechisch uraufgeführt. N 1 02.08.2016 Di 03.08.2016 1332 781 2113 5 3 4 59 10 11 10 111
Daimler Motor-Lastwagen (1896) Die ersten Daimler Motor-Lastwagen wurden überwiegend als Bierwagen eingesetzt. J 1 03.08.2016 Mi 04.08.2016 24750 7883 32633 94 30 62 32 105 100 102 95
Chanel-Kostüm Blei sorgt dafür, dass ein Chanel-Kostüm nicht schwingt. N 1 03.08.2016 Mi 04.08.2016 21321 10281 31602 81 39 60 48 156 148 152 95
Ben Bril Ben Bril jagte bei den Olympischen Spielen 1964 erfolgreich einen Boxer durch den Ring. J 1 04.08.2016 Do 05.08.2016 30658 8853 39511 117 34 75 29 158 152 155 96
Wiktor Alexandrowitsch Tschischikow Wiktor Tschischikows Mischa konnte sich gegen 40.000 Bären durchsetzen. N 1 04.08.2016 Do 05.08.2016 18511 8051 26562 70 31 51 44 153 142 148 93
Sönke Rothenberger Während seine Eltern für die Niederlande im Sattel saßen, geht Sönke Rothenberger in Rio für Deutschland an den Start. J 1 05.08.2016 Fr 06.08.2016 8994 2065 11059 35 9 22 25 51 52 52 102
Vinicius und Tom Vinicius und Tom sind die ersten olympischen Maskottchen, die es als Lego-Bausatz gibt. N 1 05.08.2016 Fr 06.08.2016 12384 4131 16515 48 18 33 37 99 107 103 108
VGN-Klasse XA Aus der XA wurden zwei Loks. J 1 06.08.2016 Sa 07.08.2016 17987 7290 25277 77 31 54 40 201 182 191 90
Hervormde Kerk (Vaals) Seit dem Bau der Hervormde Kerk in Vaals mussten sich die Protestanten den Kirchturm mit den Katholiken teilen. N 1 06.08.2016 Sa 07.08.2016 4228 2932 7160 18 12 15 68 67 72 70 107
Theaterkahn Dresden Nach 76 Jahren feierte der Elbe-Schleppkahn Ida als Theaterkahn Dresden 1994 Premiere. J 1 07.08.2016 So 08.08.2016 3559 3862 7421 15 15 15 98 38 43 40 114
Cori Schumacher Wegen ihrer Ansicht nach bestehender Menschenrechtsverletzungen wollte die Surferin Cori Schumacher ihren Weltmeistertitel 2011 nicht in der VR China verteidigen. N 1 07.08.2016 So 08.08.2016 6254 10597 16851 26 40 33 153 79 98 88 124
RAC Horsepower Die RAC-Pferdestärke lässt sich nicht messen, nur berechnen. J 1 08.08.2016 Mo 09.08.2016 27271 10519 37790 103 40 71 38 138 140 139 102
Franz Joseph Simmler Franz Joseph Simmler ging in die Kirche, um Geld zu verdienen. N 1 08.08.2016 Mo 09.08.2016 12637 6521 19158 48 25 36 51 102 91 97 89
Garsington Opera Über lange Zeit wurde das Opernhaus der Garsington Opera alljährlich nach der Spielzeit abgebaut. J 1 09.08.2016 Di 10.08.2016 8525 3113 11638 32 12 22 37 45 51 48 114
Theaterwerkstatt Pilkentafel Die Flensburger Theaterwerkstatt Pilkentafel tauschte für sieben Monate ihre Wirkungsstätte mit einer Theatergruppe aus Frankreich. N 1 09.08.2016 Di 10.08.2016 1533 995 2528 6 4 5 65 11 14 12 122
Woodsy Owl Eine unpopuläre Entscheidung der Forstverwaltung machte Woodsy Owl für US-amerikanische Holzfäller zur „Owl non grata“. J 1 10.08.2016 Mi 11.08.2016 28027 9019 37046 106 35 71 33 119 116 117 97
Mendelssohn-Denkmal (Leipzig) 72 Jahre nach seiner willkürlichen Zerstörung wurde das Leipziger Mendelssohn-Denkmal originalgetreu wiedererrichtet. N 1 10.08.2016 Mi 11.08.2016 15454 7065 22519 59 27 43 47 113 103 108 91
Vier Tondichtungen nach A. Böcklin Max Reger komponierte Vier Tondichtungen nach A. Böcklin inspiriert von vier Gemälden, darunter Die Toteninsel. J 1 11.08.2016 Do 12.08.2016 8629 1437 10066 33 6 19 17 45 25 35 55
NINA (App) NINA warnt vor Katastrophen. N 1 11.08.2016 Do 12.08.2016 14597 6188 20785 56 24 40 43 122 110 116 90
Pappfahrrad Wenn das Pappfahrrad in Serienfertigung geht, soll es rund 18 Euro kosten. J 1 12.08.2016 Fr 13.08.2016 38315 8579 46894 150 37 93 25 221 221 221 100
Präexistenzlehre Über eine Präexistenz der Seele scheiden sich die Geister schon seit der Antike. N 1 12.08.2016 Fr 13.08.2016 10834 3308 14142 42 14 28 34 87 87 87 99
EE-8 Im Vietnamkrieg wurde das Feldtelefon EE-8 bei Folterungen eingesetzt. J 1 13.08.2016 Sa 14.08.2016 24403 10361 34764 106 42 74 40 277 250 264 90
Marburger Rathaus Auf dem Marburger Rathaus schlägt ein Gockel zu jeder Stunde mit den Flügeln. N 1 13.08.2016 Sa 14.08.2016 3035 2102 5137 13 9 11 65 49 50 50 102
Hochbunker Poppelsdorf Obwohl im Hochbunker Poppelsdorf selbst im Sommer 9 °C herrschen, wollten die dort wohnenden Studenten nicht ausziehen. J 1 14.08.2016 So 15.08.2016 23080 26933 50013 94 103 98 110 236 303 270 128
Lambert Grutsch Der Bergbauernsohn Lambert Grutsch aus Tirol rettete eine junge polnische Jüdin. N 1 14.08.2016 So 15.08.2016 8437 12115 20552 34 46 40 136 103 113 108 109
Rapa das Bestas Bei der Rapa das Bestas tun sich insbesondere junge Männer und Knaben hervor. J 1 15.08.2016 Mo 16.08.2016 24138 9045 33183 92 35 63 37 123 122 123 99
Kamchiq-Tunnel Im Juni wurde mit dem Kamchiq-Tunnel der längste Eisenbahntunnel in russischer Breitspur eröffnet. N 1 15.08.2016 Mo 16.08.2016 13063 7360 20423 50 28 39 56 107 104 106 98
Paul-Ernst Strähle Auf Anraten des Vaters wurde Paul-Ernst Strähle Rennfahrer statt Bergsteiger. J 1 16.08.2016 Di 17.08.2016 13080 3704 16784 50 14 32 28 70 62 66 88
Dorfkirche Babke Das Taufbecken in der Dorfkirche Babke ist über zwei Meter hoch. N 1 16.08.2016 Di 17.08.2016 14599 7788 22387 56 30 43 54 108 109 108 100
Jakobslöser Die teuerste deutsche Münze, der Jakobslöser von 1625, wurde 2015 in London für 650.000 Britische Pfund versteigert. J 1 17.08.2016 Mi 18.08.2016 20067 8346 28413 77 32 55 42 86 106 96 123
Venice Miniature Railway In zwei seiner Stummfilme fuhr Harold Lloyd mit der Venice Miniature Railway ins Off. N 1 17.08.2016 Mi 18.08.2016 15249 6514 21763 59 25 42 43 113 94 104 83
Bosco Verticale In Mailand wachsen nicht nur Bäume, sondern ganze Wälder senkrecht. J 1 18.08.2016 Do 19.08.2016 31995 13112 45107 123 52 87 42 167 231 199 139
Claas Selbstfahrer Claas produzierte schon ab 1952 Selbstfahrer in Serie. N 1 18.08.2016 Do 19.08.2016 24306 9955 34261 93 39 66 42 203 180 192 89
Bojenbildende Entenmuschel Vermutlich begünstigt Plastikmüll im Meer das Vorkommen Bojenbildender Entenmuscheln an nordeuropäischen Küsten. J 1 19.08.2016 Fr 20.08.2016 25928 4692 30620 103 20 61 19 152 118 135 78
Edition Güntersberg Edition Güntersberg veröffentlichte 2016 zwölf verloren geglaubte Kompositionen von Georg Philipp Telemann. N 1 19.08.2016 Fr 20.08.2016 2144 830 2974 9 4 6 41 18 21 19 121
Gaurika Singh Gaurika Singh ist die jüngste Teilnehmerin der mehr als 10.000 Athleten in Rio de Janeiro. J 1 20.08.2016 Sa 21.08.2016 14907 6107 21014 63 25 44 39 165 147 156 89
Kinesia paradoxa Kinesia paradoxa ermöglicht an Parkinson Erkrankten fließende Bewegungen. N 1 20.08.2016 Sa 21.08.2016 7007 4561 11568 30 18 24 62 111 109 110 98
Mendelssohn-Ufer Am Mendelssohn-Ufer in Leipzig kann man die Noten seines Violinkonzertes ablesen. J 1 21.08.2016 So 22.08.2016 4526 4690 9216 18 17 18 96 46 51 49 111
Robert Fowler (Leichtathlet) Robert Fowler war der erste und einzige Sportler, der jemals für Neufundland bei Olympischen Spielen startete. N 1 21.08.2016 So 22.08.2016 7066 10360 17426 29 39 34 135 86 94 90 109
Tanja Frank Die Bronzemedaillengewinnerin Tanja Frank steuerte schon mit zweieinhalb Jahren allein ein Segelboot der Klasse Optimist. N 1 21.08.2016 So 22.08.2016 5622 10085 15707 23 38 30 166 69 91 80 133
Dürrer Fuchs Der Dürre Fuchs steht unter Denkmalschutz. J 1 22.08.2016 Mo 23.08.2016 23595 9814 33409 88 38 63 43 117 133 125 114
Erich Leyens Erich Leyens entwickelte über Nacht eine passende Antwort auf den „Judenboykott“. N 1 22.08.2016 Mo 23.08.2016 17723 10042 27765 66 38 52 58 141 143 142 101
Ganna Walska Ganna Walska hatte sechs Ehemänner und einen grünen Daumen. J 1 23.08.2016 Di 24.08.2016 30637 9409 40046 117 36 77 31 165 157 161 95
Deborah Feldman Deborah Feldman führte im New Yorker Hipster-Viertel Williamsburg ein ultra-orthodoxes Leben. N 1 23.08.2016 Di 24.08.2016 21747 10784 32531 83 41 62 50 162 150 156 93
Ferrari 330 America Ihr Ferrari 330 America dient der exzentrischen Millionärin Sandra West seit 1977 als Sarg. J 1 24.08.2016 Mi 25.08.2016 41839 17212 59051 160 67 114 42 180 222 201 123
Fischerfest vom Lago Malai Beim Fischerfest vom Lago Malai wurde bis 1769 ein Mensch geopfert. N 1 24.08.2016 Mi 25.08.2016 29734 14719 44453 114 57 86 50 220 216 218 98
Mimir (Leopard) Mimir stahl das Manneken Pis und konnte nicht gefasst werden. J 1 25.08.2016 Do 26.08.2016 35040 12452 47492 136 50 93 37 185 222 203 120
Der 100. Psalm Max Reger komponierte Der 100. Psalm und forderte: „Die Hörer des Psalms müssen nachher als ‚Relief‘ an der Wand kleben“. N 1 25.08.2016 Do 26.08.2016 6223 3129 9352 24 13 18 52 52 57 55 109
Der Fuß des Künstlers Der Fuß des Künstlers trägt die Spuren eines 60-jährigen Lebens. J 1 26.08.2016 Fr 27.08.2016 23472 2831 26303 94 12 53 13 139 74 106 53
Digitale Physik Alles ist virtuell in der digitalen Physik. N 1 26.08.2016 Fr 27.08.2016 11905 3430 15335 48 15 31 32 99 91 95 93
John Elliot Burns John Elliot Burns trat aufgrund des Eintritts Großbritanniens in den Ersten Weltkrieg von seinem Ministeramt zurück. J 1 27.08.2016 Sa 28.08.2016 7373 2850 10223 32 12 22 37 85 71 78 84
Kabukiza Vor einer Aufführung im Kabukiza werden fünf Vorhänge gezogen. N 1 27.08.2016 Sa 28.08.2016 5136 3793 8929 23 16 19 70 85 94 89 111
Dunkle Wolfspinne Die Dunkle Wolfspinne kann als einzige Art ihrer Gattung auf dem Wasser laufen. J 1 28.08.2016 So 29.08.2016 8767 14247 23014 37 53 45 144 93 155 124 167
Hugo Heller Hugo Hellers Exlibris war Goethes „Weisheit letzter Schluss“. N 1 28.08.2016 So 29.08.2016 3665 4857 8522 15 18 17 117 46 44 45 94
Daniel von Mudersbach Daniel von Mudersbachs Grabmal stellt auch einen Hund dar, der die Treue symbolisiert. J 1 29.08.2016 Mo 30.08.2016 10867 4567 15434 40 17 29 43 54 61 57 114
Hedwig von Eberstein Die Leipzigerin Hedwig von Eberstein wurde in einer Pyramide beigesetzt. N 1 29.08.2016 Mo 30.08.2016 15960 8988 24948 59 34 47 57 126 126 126 100
Transitmethode Bis heute wurden mit der Transitmethode etwa 80 % aller bisher bekannten Exoplaneten entdeckt. J 1 30.08.2016 Di 31.08.2016 14044 5880 19924 53 23 38 43 75 99 87 132
Jeffrey Cobb Der frühere Olympiateilnehmer Jeffrey Cobb aus Guam ist heute als maskierter Wrestler unterwegs. N 1 30.08.2016 Di 31.08.2016 13750 9141 22891 52 35 44 68 101 128 115 127
Chana Gitla Kowalska Chana Gitla Kowalska ging mit fünfzehn Jahren nach Berlin, um Malerei zu studieren. J 1 31.08.2016 Mi 01.09.2016 11746 4556 16302 45 18 32 39 51 59 55 115
Sieh doch die Harlekine! In seinem Roman Sieh doch die Harlekine!‎ parodiert Vladimir Nabokov die eigene Biographie. N 1 31.08.2016 Mi 01.09.2016 3962 2106 6068 15 8 12 53 30 31 30 104
Fluorapophyllit-(K) Fluorapophyllit-(K) entblättert sich, wenn es heiß gemacht wird. J 1 01.09.2016 Do 02.09.2016 16732 5647 22379 65 22 44 35 88 100 94 113
Adelheidis-Brunnen Das Wasser des Adelheidis-Brunnens soll wegen seines Alaungehaltes Augenkrankheiten heilen. N 1 01.09.2016 Do 02.09.2016 11332 5477 16809 44 22 33 49 95 99 97 104
British Airways i360 Der im August 2016 eröffnete British Airways i360 ist der schlankste Turm der Welt. J 1 02.09.2016 Fr 03.09.2016 25836 7120 32956 102 31 67 30 151 183 167 121
Gottlieb Benedict Zemisch Gottlieb Benedict Zemisch ging durch seine Kunstbegeisterung bankrott. N 1 02.09.2016 Fr 03.09.2016 8960 2489 11449 36 11 23 30 73 65 69 89
Landesfunkhaus Niedersachsen Teile des Landesfunkhauses Hannover sollen zu den schönsten Raumschöpfungen der 1950er Jahre in der Bundesrepublik gehören. J 1 03.09.2016 Sa 04.09.2016 4986 3286 8272 22 13 17 61 57 79 68 139
Bathsua Makin Bathsua Makin galt als die gebildetste Frau Englands und wird als frühe Feministin angesehen. N 1 03.09.2016 Sa 04.09.2016 6447 4945 11392 28 20 24 71 104 118 111 113
Waldsiedlung Hakenfelde Bewohner der Waldsiedlung Hakenfelde konnten bei „ehrlosem Lebenswandel oder Trunksucht“ ihr Haus verlieren. J 1 04.09.2016 So 05.09.2016 15974 17279 33253 64 64 64 100 163 189 176 116
Ingeborg Strobl Mit dem Anti-Design verweigert sich die Künstlerin Ingeborg Strobl dem Produktzwang. N 1 04.09.2016 So 05.09.2016 6008 8261 14269 24 31 28 127 73 75 74 102
Standuhr (Motor) Mit der Standuhr begann die Motorisierung auf dem Wasser, zu Lande und in der Luft. J 1 05.09.2016 Mo 06.09.2016 34508 15792 50300 129 60 94 47 171 213 192 124
Rose O’Neal Greenhow Rose O’Neal Greenhow nutzte ihre Haft zu Propagandazwecken für die Südstaaten. N 1 05.09.2016 Mo 06.09.2016 13754 8439 22193 51 32 42 63 109 119 114 109
Sebastian Junk Sebastian Junk nimmt 2016 zum fünften Mal an den Paralympischen Spielen teil. J 1 06.09.2016 Di 07.09.2016 10525 4115 14640 40 16 28 39 57 69 63 122
Elke Philipp Sowohl auf den Skiern als auch im Sattel wurde Elke Philipp deutsche Meisterin ihrer Wettkampfklasse. N 1 06.09.2016 Di 07.09.2016 8710 4629 13339 33 18 26 54 65 65 65 100
Lizzie (Maskottchen) Lizzies Kragen hat die Form von Australien. J 1 07.09.2016 Mi 08.09.2016 19679 7800 27479 76 30 53 40 85 101 93 118
Jeff Float Bei seinem Olympiasieg hörte Jeff Float erstmals jubelnde Zuschauer. N 1 07.09.2016 Mi 08.09.2016 29626 11648 41274 114 45 80 40 220 171 196 78
Holsteinerhof Der Holsteinerhof in Basel – ein Kulturgut von nationaler Bedeutung – war Anfang der 1950er Jahre vom Abriss bedroht. J 1 08.09.2016 Do 09.09.2016 11040 3947 14987 43 16 29 36 58 70 64 119
Weseler Glacis Früher von Bewuchs freigehalten, besteht das Weseler Glacis heute aus stadtnahen Waldgebieten. N 1 08.09.2016 Do 09.09.2016 10945 4947 15892 43 20 31 46 92 90 91 97
Caroline von Satzenhofen Die Äbtissin Caroline von Satzenhofen hatte über 20 Jahre lang eine Beziehung mit dem Deutschordensritter Caspar Anton von Belderbusch. J 1 09.09.2016 Fr 10.09.2016 26237 5579 31816 104 24 64 23 153 143 148 93
Wings Gaming Wings Gaming gewann beim The International 2016 mehr als neun Millionen US-Dollar. N 1 09.09.2016 Fr 10.09.2016 10282 2344 12626 41 10 25 25 84 61 73 73
Edeltraud Engelhardt Für ihren Film Zwerg Nase fertigte Edeltraud Engelhardt 32.000 Scherenschnitte an. J 1 10.09.2016 Sa 11.09.2016 5154 2088 7242 22 9 15 39 58 52 55 88
Das Wort (Film) Carl Theodor Dreyers Das Wort gilt vielen Kritikern und Regiekollegen als einer der besten Filme aller Zeiten. N 1 10.09.2016 Sa 11.09.2016 7126 4986 12112 31 21 26 67 115 122 119 106
Oper am Brühl (Leipzig) Leipzigs erste Oper am Brühl spielte nur während der Messezeiten, kam aber von 1693 bis 1720 auf 104 Inszenierungen. J 1 11.09.2016 So 12.09.2016 1308 1606 2914 5 6 6 110 14 18 16 128
Thomas W. Evans Der amerikanische Zahnarzt Thomas W. Evans verhalf der französischen Kaiserin Eugénie zur Flucht. N 1 11.09.2016 So 12.09.2016 7036 11341 18377 29 42 36 145 88 103 95 117
Volkswagen EA 48 Der Volkswagen EA 48 war das erste von Volkswagen selbst entwickelte Fahrzeug. J 1 12.09.2016 Mo 13.09.2016 39403 17855 57258 147 67 107 46 195 238 217 122
Trauminkubation Träumen kann Probleme lösen. N 1 12.09.2016 Mo 13.09.2016 19146 10649 29795 71 40 56 56 152 149 151 98
Beichlingscher Ordenstaler Der Beichlingsche Ordenstaler ist „als ein würckliches Corpus delicti öffentlich erkläret worden“. J 1 13.09.2016 Di 14.09.2016 14604 4268 18872 55 16 35 29 78 68 73 88
TuS Hakoah Essen Den Sportlern des TuS Hakoah Essen blieb die Teilnahme an den Wettbewerben des Westdeutschen Spiel-Verbands verwehrt. N 1 13.09.2016 Di 14.09.2016 12946 7013 19959 49 26 37 53 95 94 94 99
Josepha Duschek Um endlich die lange versprochene Arie zu erhalten, musste die Sängerin Josepha Duschek den Komponisten Wolfgang Amadeus Mozart einsperren. J 1 14.09.2016 Mi 15.09.2016 12076 4708 16784 45 18 31 40 50 59 54 118
Sackabfuhr (Hamburg) Seit mehr als 20 Jahren würde die Hamburger Bürgerschaft den roten Säcken gerne eine Abfuhr erteilen. N 1 14.09.2016 Mi 15.09.2016 24307 13285 37592 90 50 70 56 173 189 181 109
Kasseler Straße 26 (Warburg) Die Jugendstilvilla Kasseler Straße 26 in Warburg erinnert noch heute an die Lebenskultur der von den Nationalsozialisten ermordeten Kaufmannsfamilie Hugo Berg. J 1 15.09.2016 Do 16.09.2016 15689 6258 21947 59 24 42 41 80 107 94 133
Geschichte des Kantons Nidwalden Die Geschichte des Kantons Nidwalden geht zurück auf die Jungsteinzeit. N 1 15.09.2016 Do 16.09.2016 6033 3946 9979 23 15 19 67 49 69 59 140
BBC Culture’s 100 Greatest Films of the 21st Century In einer Umfrage der BBC wurde Mulholland Drive von David Lynch zum bedeutendsten Film des 21. Jahrhunderts gekürt. J 1 16.09.2016 Fr 17.09.2016 24090 4381 28471 93 17 55 19 137 102 119 75
Fröschemuseum Im Fröschemuseum gibt es auch eine Froschschule. N 1 16.09.2016 Fr 17.09.2016 9542 2813 12355 37 11 24 30 76 67 71 88
Rathaus der Verbandsgemeinde Offenbach an der Queich Vom denkmalgeschützten Rathaus der Verbandsgemeinde Offenbach an der Queich werden nur die Betonreliefs übrigbleiben. J 1 17.09.2016 Sa 18.09.2016 9304 4024 13328 37 16 26 43 96 95 95 99
Josina Machel Die Widerstandskämpferin Josina Machel gilt in Mosambik als feministische Galionsfigur. N 1 17.09.2016 Sa 18.09.2016 4256 3537 7793 17 14 15 83 63 82 72 132
Klosterstollen Barsinghausen Gegen Aufpreis gibt es im Klosterstollen Barsinghausen auch Fußbefahrungen. J 1 18.09.2016 So 19.09.2016 11885 10935 22820 47 40 44 86 118 118 118 100
Elsa Jülich Als sich die Sängerin Elsa Jülich zur Emigration gezwungen sah, verabschiedete sie sich mit einer Arie Beethovens. N 1 18.09.2016 So 19.09.2016 6259 8760 15019 25 32 29 131 75 79 77 105
Diamantbergwerk Mir Mir war das größte Diamantbergwerk der Sowjetunion. J 1 19.09.2016 Mo 20.09.2016 43747 11965 55712 161 44 103 27 215 156 186 73
Robert Wringham Der britische Stand-up-Comedian Robert Wringham empfiehlt Konsumverzicht und ein arbeitsfreies Leben. N 1 19.09.2016 Mo 20.09.2016 10942 6224 17166 40 23 32 57 86 85 86 99
Moses & Taps Moses und Kompagnon stehen im Verdacht, eine Tür zugemauert zu haben. J 1 20.09.2016 Di 21.09.2016 33976 11039 45015 126 39 83 31 177 172 174 97
Chèvre (Wein) Wahrscheinlich leitet sich der Name des Chèvre genannten Schaumweins etymologisch tatsächlich von Ziegen ab. N 1 20.09.2016 Di 21.09.2016 7134 3054 10188 26 11 19 41 51 40 45 77
Wormsley Park In der Bibliothek von Wormsley Park werden eine Gutenberg-Bibel, eine Erstausgabe der Canterbury Tales und ein Exemplar von Shakespeares Folio aufbewahrt. J 1 21.09.2016 Mi 22.09.2016 16585 3753 20338 59 14 36 23 67 45 56 68
Grayanotoxin Grayanotoxin kostete 1500 römischen Legionären das Leben. N 1 21.09.2016 Mi 22.09.2016 43866 21559 65425 157 78 117 50 303 294 298 97
Drehpuzzle Drehpuzzles gibt es nicht nur als Zauberwürfel. J 1 22.09.2016 Do 23.09.2016 22540 8333 30873 81 31 56 38 111 139 125 125
Willi Stanke Willi Stanke spielte den Tiger Rag als Schwarzer Panther. N 1 22.09.2016 Do 23.09.2016 6166 3341 9507 22 12 17 56 48 57 53 118
Victor Capoul Weil der Tenor Victor Capoul wegen des Deutsch-Französischen Krieges flüchtete, musste Offenbach die für ihn geschriebene Titelrolle auf Mezzosopran umschreiben. J 1 23.09.2016 Fr 24.09.2016 5119 1007 6126 19 4 12 22 28 25 26 87
Johannes Mazomeit Der Ludwigshafener Geobotaniker Johannes Mazomeit warnt vor der Verbreitung neophytischer Pflanzen in Rheinland-Pfalz. N 1 23.09.2016 Fr 24.09.2016 8210 2063 10273 31 8 20 28 63 51 57 81
Dargaws Die Totenhäuser in Dargaws wurden während der Pest im 17. Jahrhundert als Quarantäne-Stationen genutzt. J 1 24.09.2016 Sa 25.09.2016 11492 3013 14505 47 12 30 25 124 71 97 57
Sauerbaum (Spiel) Beim Sauerbaum arbeiten die Mitspieler kooperativ miteinander. N 1 24.09.2016 Sa 25.09.2016 5992 3935 9927 25 15 20 63 92 91 92 99
Formaler Garten Die Ursprünge des formalen Gartens liegen in den Wüstengebieten Vorderasiens. J 1 25.09.2016 So 26.09.2016 7036 8427 15463 28 30 29 107 70 87 79 125
Victor Jorgensen Victor Jorgensen war am Victory over Japan Day zur richtigen Zeit am richtigen Ort, nur leider ein paar Meter zu weit rechts. N 1 25.09.2016 So 26.09.2016 13216 19040 32256 52 67 60 129 157 163 160 104
Main-Tauber-Fränkischer Radachter Ein Ost- und ein Westring bilden den Main-Tauber-Fränkischen Rad-Achter rund um Lauda-Königshofen. J 1 26.09.2016 Mo 27.09.2016 8395 2609 11004 30 9 19 31 39 33 36 83
Mausoleum von Carstanjen Im früher privaten Mausoleum von Carstanjen finden heute bis zu 3000 Urnen Platz. N 1 26.09.2016 Mo 27.09.2016 9237 5052 14289 33 18 25 55 69 67 68 96
Linnaeus Tripe Durch Krankheit kam Linnaeus Tripe schon in den 1850er-Jahren zur Fotografie. J 1 27.09.2016 Di 28.09.2016 12015 4254 16269 43 15 29 35 60 65 63 109
Viehtor (Wesel) Vieh und Tor sind am Viehtor längst verschwunden. N 1 27.09.2016 Di 28.09.2016 13852 8851 22703 49 31 40 64 96 114 105 119
Comalcalco (Maya-Stätte) Die Maya-Stätte von Comalcalco gehört aufgrund ihrer Backsteinbauweise zu den ungewöhnlichsten Anlagen in Mesoamerika. J 1 28.09.2016 Mi 29.09.2016 22378 6746 29124 79 25 52 31 89 81 85 92
Karel Vaněk (Autor) Karel Vaněk vollendete den vierten Band der Abenteuer Schwejks. N 1 28.09.2016 Mi 29.09.2016 7393 3375 10768 26 12 19 47 51 46 48 92
Dorfkirche Alt-Lönnewitz An das nach dem Zweiten Weltkrieg zerstörte Alt-Lönnewitz erinnern nur noch Mauerreste der Dorfkirche. J 1 29.09.2016 Do 30.09.2016 21591 4835 26426 78 18 48 23 107 80 93 75
Gerda Daumerlang Die 16-jährige Gerda Daumerlang erhielt 1936 einen Trostpreis bei den Olympischen Spielen. N 1 29.09.2016 Do 30.09.2016 34639 14616 49255 126 55 90 43 273 250 261 91
Bahnwärterhaus Seelenwald Die Bewohner des Bahnwärterhauses Seelenwald brauchen heute keine Schranken mehr hochzukurbeln. J 1 30.09.2016 Fr 01.10.2016 20572 4774 25346 77 19 48 25 113 115 114 101
Synthetischer Anarchismus Der Synthetische Anarchismus soll die verstrittenen anarchistischen Strömungen zusammenbringen, ist aber von Kritik, Spaltungen und Neugründungen geprägt. N 1 30.09.2016 Fr 01.10.2016 4253 1421 5674 16 6 11 36 33 35 34 106
Dritte Bremsleuchte Anfangs bezeichnete der Volksmund die dritte Bremsleuchte an Pkw als „Pufflampe“. J 1 01.10.2016 Sa 02.10.2016 13699 6548 20247 56 25 41 46 146 152 149 104
Fred W. Rose Fred W. Rose war nicht der erste Zeichner satirischer Landkarten. N 1 01.10.2016 Sa 02.10.2016 7007 4249 11256 28 17 22 58 106 98 102 92
Nicole Girard-Mangin Nicole Girard-Mangin stand als Militärärztin ihren Mann an der Front. J 1 02.10.2016 So 03.10.2016 10379 5512 15891 40 21 30 51 102 60 81 59
Bona nox! bist a rechta Ox Mozarts Kanon Bona nox! bist a rechta Ox wirft ein Licht auf die Umgangssprache in der Familie Mozart. N 1 02.10.2016 So 03.10.2016 8891 6426 15317 35 24 29 69 104 58 81 56
Traverse Theatre Das Traverse Theatre wurde in einem ehemaligen Bordell etabliert. J 1 03.10.2016 Mo 04.10.2016 6816 4259 11075 25 15 20 60 34 54 44 160
Furious Pete Furious Pete verdrückt vier Hamburger in der Minute. N 1 03.10.2016 Mo 04.10.2016 14409 17847 32256 54 64 59 119 115 238 176 208
Belgrado Die spanische Post-Punk-Band Belgrado steht der Hausbesetzerszene nahe. J 1 04.10.2016 Di 05.10.2016 8042 2287 10329 29 8 19 29 41 36 38 88
Grabhügel von Möllenbeck Der Grabhügel von Möllenbeck wurde vor seiner Zerstörung durch Sandabbau ausgegraben. N 1 04.10.2016 Di 05.10.2016 20318 9795 30113 73 35 54 49 142 129 135 91
Johnny & Jones Ahnungsvoll besangen Johnny & Jones vor ihrem Transport ins KZ den Mond über den Eisenbahnschienen. J 1 05.10.2016 Mi 06.10.2016 36924 12278 49202 133 44 89 33 150 148 149 99
Schwesternhaus Mariengarten Im Schwesternhaus Mariengarten in Wesel lebten bis zum 16. Jahrhundert Beginen. N 1 05.10.2016 Mi 06.10.2016 10107 5353 15460 37 19 28 53 71 73 72 104
Sophia Corri Einige Kompositionen von Sophia Corri wurden bis ins 20. Jahrhundert fälschlicherweise ihrem Ehemann zugeordnet, zwecks besserer Verkaufsmöglichkeiten. J 1 06.10.2016 Do 07.10.2016 6418 1877 8295 23 7 15 30 32 31 31 98
Büchsenmacher Rosl Das Porträt der „Büchsenmacher Rosl“ wurde als Ansichtskartenmotiv millionenfach verbreitet. N 1 06.10.2016 Do 07.10.2016 33701 16731 50432 122 62 92 51 265 282 274 107
Sprechende Grabsteine (Amrum) Die sprechenden Grabsteine von Amrum erzählen unter anderem von Seeräubern, Beys, Eheschließungen und Gefangenschaft. J 1 07.10.2016 Fr 08.10.2016 26058 7098 33156 96 28 62 29 142 168 155 118
Anne Triola Anne Triola hatte mit dem Wiegenlied vom Broadway und als Entertainerin der US-Army Erfolg. N 1 07.10.2016 Fr 08.10.2016 5913 1965 7878 22 8 15 36 45 47 46 105
Bahman Golbarnezhad Bahman Golbarnezhad war der erste Sportler, der bei Paralympischen Spielen zu Tode kam. J 1 08.10.2016 Sa 09.10.2016 15913 5935 21848 64 23 43 35 167 134 150 81
Rudskulen Bygdeborg Die in Norwegen gelegene Befestigung Rudskulen Bygdeborg wird mit slawischen Burgen verglichen. N 1 08.10.2016 Sa 09.10.2016 6357 4082 10439 25 15 20 61 95 91 93 96
Palais von Nell Das Palais von Nell befindet sich zwar in Privatbesitz, aber sein Barockgarten steht Besuchern unentgeltlich offen. J 1 09.10.2016 So 10.10.2016 7337 8042 15379 28 28 28 101 70 82 76 117
Tjark Evers Der letzte Brief von Tjark Evers wurde in einer Zigarrenkiste angeschwemmt. N 1 09.10.2016 So 10.10.2016 14977 20263 35240 57 71 64 124 172 172 172 100
Helge Sivertsen Der norwegische Kirchen- und Unterrichtsminister Helge Sivertsen war zweimaliger Landesmeister im Diskuswurf und Teilnehmer an den Olympischen Sommerspielen 1936. J 1 10.10.2016 Mo 11.10.2016 5735 1439 7174 20 5 13 25 27 18 22 67
Margot Friedländer (Sängerin) Margot Friedländer lebte in den letzten beiden Kriegsjahren im Untergrund und trat trotzdem in renommierten Berliner Bars auf. N 1 10.10.2016 Mo 11.10.2016 20431 10065 30496 71 35 53 49 152 131 141 86
Leckbier Leckbier war ein billiger Durstlöscher. J 1 11.10.2016 Di 12.10.2016 51371 18575 69946 180 66 123 37 253 288 271 114
Der Monddiamant 1868 wurden in England Wetten abgeschlossen, wo der Monddiamant versteckt war. N 1 11.10.2016 Di 12.10.2016 23204 10666 33870 81 38 60 47 158 138 148 87
Alfieri Maserati Familienbande machten aus Alfieri Maserati einen erfolgreichen Rennfahrer und Automobilkonstrukteur. J 1 12.10.2016 Mi 13.10.2016 20281 4703 24984 72 17 45 23 81 56 68 69
Ela Elborg Ela Elborg fälschte sich eine „arische“ Identität und schrieb dann am Drehbuch von Jud Süß mit. N 1 12.10.2016 Mi 13.10.2016 23084 8493 31577 82 30 56 37 159 114 137 72
Sprung in die Freiheit Peter Leibing fotografierte Conrad Schumann beim Sprung in die Freiheit. J 1 13.10.2016 Do 14.10.2016 40911 12148 53059 146 45 95 30 198 198 198 100
Madi Epply Madi Epply war eine der bekanntesten österreichischen Sportlerinnen ihrer Zeit. N 1 13.10.2016 Do 14.10.2016 9483 6420 15903 34 24 29 69 74 107 91 146
Rosina Storchio Rosina Storchio war Toscaninis Geliebte und Puccinis erste Madama Butterfly. J 1 14.10.2016 Fr 15.10.2016 13314 1833 15147 49 7 28 15 72 44 58 61
Mozartbrunnen (Dresden) Das Dankeschön für den Entwurf des Dresdner Mozartbrunnens war wenig schön. N 1 14.10.2016 Fr 15.10.2016 17710 4846 22556 65 20 42 30 134 118 126 88
Île aux oiseaux (Préverenges) Auf der Île aux oiseaux konnte bisher etwa die Hälfte aller in der Schweiz vorkommenden Vogelarten beobachtet werden. J 1 15.10.2016 Sa 16.10.2016 4703 2092 6795 19 8 14 43 50 49 49 98
Rudolf Kiszling Rudolf Kiszling versteckte als Leiter des Wiener Heeresarchivs eine Akte zur Spionageaffäre Redl. N 1 15.10.2016 Sa 16.10.2016 9157 3909 13066 37 15 26 42 138 91 115 66
Otto Lendecke Otto Lendecke arbeitete für den Simplicissimus und die Wiener Werkstätte. J 1 16.10.2016 So 17.10.2016 2135 2267 4402 8 8 8 93 21 23 22 108
Hüda Kaya Trotz gesetzlichen Verbots trug Hüda Kaya bei ihrer Vereidigung auf die laizistische Republik Türkei ein Kopftuch. N 1 16.10.2016 So 17.10.2016 6738 10472 17210 26 36 31 136 80 87 84 109
Bertzit-Turm Der Bertzit-Turm ist eine fast einhundertjährige Investruine der Braunkohlenförderung. J 1 17.10.2016 Mo 18.10.2016 28529 8460 36989 98 30 64 31 130 107 119 82
Resolution 777 des UN-Sicherheitsrates Die Resolution 777 des UN-Sicherheitsrates befasste sich 1992 mit der Auflösung Jugoslawiens. N 1 17.10.2016 Mo 18.10.2016 4455 2477 6932 15 9 12 58 33 33 33 101
Hélène Smith Im „Marsisch“ von Hélène Smith fanden Wissenschaftler die Sprachstrukturen des Französischen. J 1 18.10.2016 Di 19.10.2016 15649 4481 20130 56 16 36 28 79 69 74 88
Metástasis Metástasis kommt vielen Fans der Serie Breaking Bad spanisch vor. N 1 18.10.2016 Di 19.10.2016 13960 7451 21411 50 26 38 53 97 96 96 99
Marguerite Olagnier Marguerite Olagnier stellte in ihrer exotischen Oper Le Saïs das weibliche Begehren in den Mittelpunkt. J 1 19.10.2016 Mi 20.10.2016 8631 2225 10856 31 8 19 26 34 27 31 78
Lot Vekemans Die Belgier Paul Baeten Gronda und Griet Op de Beeck sowie die Niederländerinnen Lot Vekemans und Wytske Versteeg zählen zu den Autoren der Frankfurter Buchmesse 2016, die den Schwerpunkt Flandern und Niederlande vertreten. N 4 19.10.2016 Mi 20.10.2016 949 515 1464 3 2 3 56 6 7 7 109
Wytske Versteeg Die Belgier Paul Baeten Gronda und Griet Op de Beeck sowie die Niederländerinnen Lot Vekemans und Wytske Versteeg zählen zu den Autoren der Frankfurter Buchmesse 2016, die den Schwerpunkt Flandern und Niederlande vertreten. N 4 19.10.2016 Mi 20.10.2016 949 488 1437 3 2 3 53 6 7 7 103
Griet Op de Beeck Die Belgier Paul Baeten Gronda und Griet Op de Beeck sowie die Niederländerinnen Lot Vekemans und Wytske Versteeg zählen zu den Autoren der Frankfurter Buchmesse 2016, die den Schwerpunkt Flandern und Niederlande vertreten. N 4 19.10.2016 Mi 20.10.2016 840 473 1313 3 2 2 58 6 6 6 113
Paul Baeten Gronda Die Belgier Paul Baeten Gronda und Griet Op de Beeck sowie die Niederländerinnen Lot Vekemans und Wytske Versteeg zählen zu den Autoren der Frankfurter Buchmesse 2016, die den Schwerpunkt Flandern und Niederlande vertreten. N 4 19.10.2016 Mi 20.10.2016 644 369 1013 2 1 2 59 4 5 5 115
Bogenschützen In seinem Bild Bogenschützen experimentierte Ernst Ludwig Kirchner mit Flächen und „Luftschatten“. J 1 20.10.2016 Do 21.10.2016 7479 5734 13213 27 21 24 78 37 94 65 255
ORB Aquarium Sein Aquarium bescherte dem ORB-Fernsehen einen Rekordmarktanteil. N 1 20.10.2016 Do 21.10.2016 19373 10273 29646 70 38 54 54 153 173 163 113
Eisenbahnfriedhof Uyuni Auf dem Eisenbahnfriedhof Uyuni rosten Lokomotiven aus dem 19. Jahrhundert. J 1 21.10.2016 Fr 22.10.2016 42755 9194 51949 158 38 98 24 233 223 228 96
Ogilby-Ducker Wenn der Ogilby-Ducker nicht vollständig als Bushmeat aufgegessen wird, hat er noch eine Chance. N 1 21.10.2016 Fr 22.10.2016 26364 7272 33636 97 30 63 31 200 180 190 90
Haus Voerde Der Barockgarten von Haus Voerde wurde erst 2014 angelegt. J 1 22.10.2016 Sa 23.10.2016 5055 2384 7439 21 9 15 45 54 55 55 103
Das periodische System Das periodische System beschreibt das Leben des Autors und Chemikers Primo Levi. N 1 22.10.2016 Sa 23.10.2016 3897 2412 6309 16 9 13 59 60 56 58 94
Stalin-Denkmal (Budapest) Am 23. Oktober 1956 begann der Ungarische Volksaufstand mit dem Sturz des Stalin-Denkmals. J 1 23.10.2016 So 24.10.2016 8592 6626 15218 34 23 28 69 85 68 76 80
Wissen und Wehr Die Militärfachzeitschrift Wissen und Wehr verfolgte in den 1920er Jahren ein Konzept der zivilen Wehrhaftmachung. N 1 23.10.2016 So 24.10.2016 6393 9141 15534 25 32 28 128 76 78 77 103
Synagoge Bruck an der Leitha Die Synagoge Bruck an der Leitha wurde nach dem Anschluss Österreichs im Dezember 1938 unter Denkmalschutz gestellt. J 1 24.10.2016 Mo 25.10.2016 20609 6225 26834 72 22 47 30 96 77 86 80
Sarah Kistner Sarah Kistner gewann mit nur 16 Jahren ihren ersten WM-Titel im Berglauf. N 1 24.10.2016 Mo 25.10.2016 16413 7963 24376 57 28 43 48 122 103 113 84
Anneliese Kohlmann Die KZ-Aufseherin Anneliese Kohlmann lebte sieben Tage als Häftling getarnt im KZ Bergen-Belsen. J 1 25.10.2016 Di 26.10.2016 69995 27714 97709 244 99 171 40 344 429 386 125
Erich Steinhard Erich Steinhard galt zu Lebzeiten als bedeutendster deutschsprachiger Musikkritiker in der Tschechoslowakei. N 1 25.10.2016 Di 26.10.2016 3098 1609 4707 11 6 8 53 21 21 21 99
Munderkinger Donaubrücke Die Donaubrücke in Munderkingen in Baden-Württemberg war einst die größte Betonbogenbrücke der Welt. J 1 26.10.2016 Mi 27.10.2016 20853 6771 27624 74 24 49 32 83 80 82 96
Ochsenauge (Fahrtrichtungsanzeiger) Auch Schwalben haben Ochsenaugen. N 1 26.10.2016 Mi 27.10.2016 16497 7538 24035 59 27 43 46 113 101 107 89
Kontrollpunkt Dreilinden und Teltowkanalbrücke Um den bis 1969 bestehenden Kontrollpunkt Dreilinden stehen Reste einer alten Autobahn unter Denkmalschutz. J 1 27.10.2016 Do 28.10.2016 25773 9644 35417 92 36 64 39 124 159 142 128
Frank Stähle Direktor Frank Stähle führte mit Chor und Orchester von Dr. Hoch’s Konservatorium Mozarts Requiem auf. N 1 27.10.2016 Do 28.10.2016 2269 1064 3333 8 4 6 49 18 18 18 103
Schloss Clerf Im luxemburgischen Schloss Clerf sind gleich drei Museen untergebracht. J 1 28.10.2016 Fr 29.10.2016 9188 1431 10619 34 6 20 17 50 34 42 68
Mary Adela Blagg Nach Mary Adela Blagg wurde ein Mondkrater benannt. N 1 28.10.2016 Fr 29.10.2016 6443 2164 8607 24 9 16 37 49 53 51 107
The Gondoliers (Operette) Wegen der britischen Zensur verlegten Gilbert & Sullivan ihre Gesellschaftskritik in The Gondoliers auf den Kontinent. J 1 29.10.2016 Sa 30.10.2016 4780 1849 6629 19 7 13 38 51 43 47 86
Meißnischer Gulden Mit einer „fingierten Münzsorte“, dem meißnischen Gulden, konnten von 1542 bis 1838 Grundstücke erworben werden. N 1 29.10.2016 Sa 30.10.2016 7231 4090 11321 29 16 23 55 109 95 102 87
Pink Tax Wer für Frauen gedachte Produkte kauft, entrichtet oft die Pink Tax. J 1 30.10.2016 So 31.10.2016 20843 12885 33728 82 48 65 58 207 140 174 68
Schlernhexen Die Schlernhexen sorgen der Sage nach für schwere Unwetter in Südtirol. N 1 30.10.2016 So 31.10.2016 7444 7264 14708 29 27 28 92 88 66 77 74
Fetischmarkt Akodésséwa Akodésséwa gilt als der weltgrößte Markt für Geisterbeschwörung und Voodoo-Rituale. J 1 31.10.2016 Mo 01.11.2016 11191 5935 17126 42 22 32 53 55 77 66 139
Des Magiers Wiederkehr In Clark Ashton Smiths Kurzgeschichte wird Des Magiers Wiederkehr seinem Bruder zum Verhängnis. N 1 31.10.2016 Mo 01.11.2016 5108 3630 8738 19 13 16 70 40 50 45 122
Bruno Jablonsky Bruno Jablonsky war ein Spezialist für Propeller aus Holz. J 1 01.11.2016 Di 02.11.2016 15507 10792 26299 57 39 48 68 80 168 124 209
St. Lambertus (Steinborn) Ein Weihwasserbecken der Kirche St. Lambertus in Steinborn stammt aus römischer Zeit. N 1 01.11.2016 Di 02.11.2016 5477 5050 10527 20 18 19 90 39 65 52 167
Wassil Talasch Wassil Talasch kämpfte trotz seines Alters von 99 Jahren als Partisan gegen die deutschen Besatzer im Zweiten Weltkrieg. J 1 02.11.2016 Mi 03.11.2016 36857 11651 48508 132 42 87 32 148 139 143 94
Thomas-Kleintenrek Thomas-Kleintenrek hat einen kleinen hinteren Backenzahn. N 1 02.11.2016 Mi 03.11.2016 24555 11491 36046 88 41 65 47 169 156 163 92
Paul Averitt Paul Averitt fotografierte in Dachau den Todeszug aus Buchenwald. J 1 03.11.2016 Do 04.11.2016 36305 8820 45125 131 33 82 25 177 145 161 82
Motion Picture & Television Country House and Hospital Das Motion Picture & Television Country House and Hospital ist ein Seniorenheim für Filmstars. N 1 03.11.2016 Do 04.11.2016 21955 9064 31019 79 33 56 42 171 153 162 89
Christiane Weidner Christiane Weidner war die erste Doyenne des Wiener Burgtheaters. J 1 04.11.2016 Fr 05.11.2016 6508 1836 8344 24 7 16 30 35 43 39 121
Die Rückkehr des Buddha Die Rückkehr des Buddha klärt einen Mord auf. N 1 04.11.2016 Fr 05.11.2016 8439 3141 11580 31 12 22 40 64 75 69 116
Engländerunglück Das „Engländerunglück“ wurde von der nationalsozialistischen Propaganda ausgenutzt. J 1 05.11.2016 Sa 06.11.2016 28870 17405 46275 114 65 89 57 297 385 341 129
Old Man of the Lake Der Old Man of the Lake schwimmt seit mindestens 120 Jahren in einem See im Bundesstaat Oregon. N 1 05.11.2016 Sa 06.11.2016 22149 15068 37217 87 56 72 64 326 331 328 102
Liberty Party (1840er Jahre) Die Liberty Party war die erste Partei der Anti-Sklaverei-Bewegung in den Vereinigten Staaten. J 1 06.11.2016 So 07.11.2016 5381 5145 10526 20 18 19 89 50 52 51 103
Jonathan Petersen Grönland hat zwei Nationalhymnen. Jonathan Petersen komponierte beide. N 1 06.11.2016 So 07.11.2016 3224 3902 7126 12 13 13 112 36 33 34 91
Berliner Dampfstraßenbahn-Konsortium Die Berliner Dampfstraßenbahn fuhr nicht in Berlin. J 1 07.11.2016 Mo 08.11.2016 32871 12014 44885 114 43 78 38 151 151 151 100
Windpark Gries Der Windpark Gries hat aufgrund seiner geographischen Lage eine um bis zu 25 Prozent geringere Leistung. N 1 07.11.2016 Mo 08.11.2016 21441 11377 32818 74 41 57 55 158 150 154 95
Vivek Murthy Vivek Murthy gründete die Doctors for America, bevor ihn Barack Obama zum Leiter des öffentlichen Gesundheitsdienstes ernannte. J 1 08.11.2016 Di 09.11.2016 29442 2407 31849 105 8 57 8 148 36 92 25
Lucian Büeler Der Schweizer Eiskunstläufer Lucian Büeler baute die erste Kunsteisbahn Südamerikas. N 1 08.11.2016 Di 09.11.2016 4766 2301 7067 17 8 12 47 33 29 31 88
Gustave-Marie Bleicher Der Geologe Gustave-Marie Bleicher wurde von einem vermutlich geisteskranken Apotheker erschossen. J 1 09.11.2016 Mi 10.11.2016 17206 6200 23406 60 22 41 37 67 74 70 110
P.S. Zeitung Die linke Zürcher Zeitung P.S. wurde für eine Tasse Kaffee verkauft. N 1 09.11.2016 Mi 10.11.2016 10535 5981 16516 37 21 29 58 71 81 76 114
Roter Kamm (Geotop) Der Rote Kamm ist acht Kilometer lang. J 1 10.11.2016 Do 11.11.2016 37067 11046 48113 132 40 86 30 180 177 178 98
Kurt Reichl Kurt Reichl war erst Freimaurer und dann Antifreimaurer. N 1 10.11.2016 Do 11.11.2016 15976 7217 23193 57 26 42 46 124 119 121 96
Kammerspiele Bad Godesberg Die heutigen Kammerspiele Bad Godesberg waren der erste Theaterneubau der Bundesrepublik in der Nachkriegszeit. J 1 11.11.2016 Fr 12.11.2016 4191 1040 5231 15 4 10 27 22 24 23 110
Annie Dookhan Die Chemikerin Annie Dookhan verfälschte in einem Labor für forensische Toxikologie bis zu 34.000 Drogentests. N 1 11.11.2016 Fr 12.11.2016 22604 9071 31675 81 36 59 44 168 217 193 129
Jan Veth Der niederländische Maler und Schriftsteller Jan Veth war zugleich Traditionalist und Erneuerer. J 1 12.11.2016 Sa 13.11.2016 2387 795 3182 9 3 6 32 25 18 21 72
Pedro de Alberni Pedro de Alberni versuchte, Skorbut mit einem Bier aus Baumrinde zu bekämpfen. N 1 12.11.2016 Sa 13.11.2016 5035 3684 8719 20 14 17 70 75 82 78 110
Edward Pulaski Indem er drohte sie zu erschießen, rettete Edward Pulaski 39 Feuerwehrmänner. J 1 13.11.2016 So 14.11.2016 31975 31759 63734 120 110 115 91 304 323 313 106
Marianne Ihlen Marianne Ihlen inspirierte Leonard Cohen zu den Liedern So Long, Marianne und Bird on the Wire. N 1 13.11.2016 So 14.11.2016 13345 12892 26237 50 45 47 89 152 108 130 71
Jucifer Jucifer sind seit 2001 unterwegs. J 1 14.11.2016 Mo 15.11.2016 29855 13155 43010 103 46 75 45 138 163 150 118
Louis de Marsalle Der deutsche Maler Ernst Ludwig Kirchner bediente sich in der Schweiz des französischen Pseudonyms Louis de Marsalle. N 1 14.11.2016 Mo 15.11.2016 2954 1807 4761 10 6 8 62 22 23 23 108
Lew Alexandrowitsch Mei Das Werk des russischen Dichters Lew Alexandrowitsch Mei überlebte in den Vertonungen Rimski-Korsakows. J 1 15.11.2016 Di 16.11.2016 4819 1647 6466 17 6 11 35 24 26 25 109
Dunkelflaute Auch bei Dunkelflaute dürfen die Lichter nicht ausgehen. N 1 15.11.2016 Di 16.11.2016 30282 17360 47642 106 63 84 59 206 228 217 111
Sonntagsfahrverbot in der Schweiz 1956 Schon 1956 bewirkte drohende Ölknappheit autofreie Sonntage in der Schweiz. J 1 16.11.2016 Mi 17.11.2016 15113 3316 18429 55 12 33 22 61 40 51 65
Guillaume de Saluste du Bartas Guillaume de Saluste du Bartas geriet für 300 Jahre in Vergessenheit, ehe ihn die Forschung wiederentdeckte. N 1 16.11.2016 Mi 17.11.2016 7608 9427 17035 28 34 31 124 53 128 91 242
Schloss Cany Im Gegensatz zu vielen anderen Schlössern überstand das Schloss Cany die Französische Revolution völlig unbeschadet. J 1 17.11.2016 Do 18.11.2016 20247 5508 25755 73 20 47 28 99 91 95 91
Adam Winter Adam Winter töpferte wie vor zweitausend Jahren. N 1 17.11.2016 Do 18.11.2016 13309 6227 19536 48 23 36 48 104 105 105 101
Elemér Szentirmay Wenn es in Sarasates Zigeunerweisen besonders lyrisch wird, dann hört man eigentlich ein Liebeslied von Elemér Szentirmay. J 1 18.11.2016 Fr 19.11.2016 2776 970 3746 10 4 7 38 15 23 19 151
Aina Wifalk Damit ihre Erfindung möglichst vielen Menschen zugute kommt, ließ Aina Wifalk sie nicht patentieren. N 1 18.11.2016 Fr 19.11.2016 24898 8928 33826 92 35 64 39 190 214 202 113
Jorge Antonio Jorge Antonio, Sohn syrischer und libanesischer Einwanderer nach Argentinien, half Daimler-Benz beim Reinvestieren der versteckten Kriegsgewinne. J 1 19.11.2016 Sa 20.11.2016 10397 4320 14717 41 16 29 39 108 96 102 89
Böser Clown Obwohl Clowns von ihrem Ursprung her komisch sind, hat sich bereits im 19. Jahrhundert der böse Clown entwickelt. N 1 19.11.2016 Sa 20.11.2016 10847 8608 19455 43 32 38 75 161 191 176 118
Mutter und Kind (Freiplastik) Der Künstler Oswald Haberland ließ sich auf seiner Freiplastik Mutter und Kind beisetzen. J 1 20.11.2016 So 21.11.2016 7424 8280 15704 28 29 28 104 70 85 77 120
Peter Seifert (Leichtathlet) Peter Seifert bewältigte den längsten Marathon seines Lebens abseits der Laufstrecke. N 1 20.11.2016 So 21.11.2016 10607 15679 26286 40 55 47 137 120 133 126 111
Caladrius Durch Hin- und Wegschauen entscheidet der Caladrius über Leben und Tod. J 1 21.11.2016 Mo 22.11.2016 37744 14724 52468 131 52 92 40 175 185 180 105
Gaëlle Arquez Gaëlle Arquez engagiert sich besonders für das Werk Olivier Messiaens. N 1 21.11.2016 Mo 22.11.2016 2797 1494 4291 10 5 8 54 21 20 20 95
Rheingauer Kantorei Die Rheingauer Kantorei führte im Rheingauer Dom Honeggers Oratorium König David auf. J 1 22.11.2016 Di 23.11.2016 4847 1475 6322 17 5 11 31 24 23 24 95
Thomas Byles Der Priester Thomas Byles wurde durch seinen Einsatz beim Untergang der Titanic bekannt. N 1 22.11.2016 Di 23.11.2016 20877 11161 32038 74 40 57 54 144 145 145 101
Propeller-Motorrad Das von Ernest Archdeacon konstruierte Motorrad hatte einen Propeller. J 1 23.11.2016 Mi 24.11.2016 20308 6352 26660 73 23 48 32 82 76 79 93
Paul Léon Paul Léon rettete noch die Papiere aus James Joyce’ Wohnung, bevor er nach Auschwitz deportiert wurde. N 1 23.11.2016 Mi 24.11.2016 21073 9239 30312 76 33 55 44 146 126 136 86
Gioacchino Assereto Der italienische Barockmaler Gioacchino Assereto malte häufig drastische Gewaltszenen. J 1 24.11.2016 Do 25.11.2016 22842 5684 28526 83 21 52 26 112 94 103 84
Dagmar Bumpers Auf amerikanischen Straßen sah man häufig Knudsens Nase und Dagmars Bumpers. N 2 24.11.2016 Do 25.11.2016 22577 10323 32900 82 38 60 47 177 176 176 99
Knudsen-Nase Auf amerikanischen Straßen sah man häufig Knudsens Nase und Dagmars Bumpers. N 2 24.11.2016 Do 25.11.2016 24024 11258 35282 87 42 64 48 189 191 190 101
Locumtenenstaler Während der Abwesenheit des Königs ließ Kurfürst Friedrich der Weise den Locumtenenstaler entgegen der Vorschrift mit eigenem Abbild prägen. J 1 25.11.2016 Fr 26.11.2016 8344 2193 10537 31 9 20 29 46 53 49 115
Mercedes-Benz OM 138 Der Mercedes-Benz OM 138 ist der erste Dieselmotor, der speziell als Pkw-Motor entwickelt wurde. N 1 25.11.2016 Fr 26.11.2016 26097 7506 33603 97 30 64 31 200 183 192 92
Ben Salomo Der Rapper Ben Salomo bezeichnet sich selbst als „israelischer Kanacke“. J 1 26.11.2016 Sa 27.11.2016 6735 2806 9541 27 11 19 40 71 65 68 90
Tumbler Ridge Line Die Tumbler Ridge Line wurde mit ungewöhnlich hoher Spannung betrieben. N 1 26.11.2016 Sa 27.11.2016 9375 6447 15822 38 25 31 66 142 147 145 104
Bernsteinelch von Weitsche Der Kopf des Bernsteinelchs von Weitsche wurde erst nach dem Sieben von rund 700 m³ Ackerboden gefunden. J 1 27.11.2016 So 28.11.2016 18894 17074 35968 73 59 66 81 185 173 179 94
Verband deutscher Soldaten Der 1951 gegründete Verband deutscher Soldaten verschwand ab 2004 sukzessive in der Bedeutungslosigkeit. N 1 27.11.2016 So 28.11.2016 15941 20578 36519 62 71 66 115 186 173 180 93
The Fairman Rogers Four-in-Hand The Fairman Rogers Four-in-Hand bediente sich erstmals der Fotografie, um ein Pferd in korrekter Bewegung darzustellen. J 1 28.11.2016 Mo 29.11.2016 16613 6309 22922 57 22 40 38 77 77 77 101
Kârale Andreassen Kârale Andreassen verarbeitete in seinen Werken den Schamanismus seiner Familie. N 1 28.11.2016 Mo 29.11.2016 8018 3862 11880 28 13 21 48 59 50 54 84
Canstruction Canstruction ist Kunst aus der Konserve. J 1 29.11.2016 Di 30.11.2016 9698 2776 12474 34 10 22 30 47 43 45 91
Mittivakkat Der Mittivakkat ist der bestuntersuchte Gletscher Grönlands. N 1 29.11.2016 Di 30.11.2016 7181 3906 11087 25 14 19 56 48 51 50 105
Statut von Kalisch Das 1264 erlassene Statut von Kalisch stellte die Beschuldigung von Juden wegen Ritualmordes unter Strafe. J 1 30.11.2016 Mi 01.12.2016 16212 6905 23117 58 25 42 43 65 83 74 128
Giulano Ruffini Der Maler der von Giulano Ruffini auf den Kunstmarkt gebrachten Gemäldefälschungen ist noch nicht gefunden. N 1 30.11.2016 Mi 01.12.2016 8124 5254 13378 29 19 24 66 56 72 64 128
New Haven Line Die Elektrifizierung der New Haven Line war eine Pionierleistung. J 1 01.12.2016 Do 02.12.2016 22788 5652 28440 83 21 52 26 112 95 104 84
Die Hände meiner Mutter Die Hände meiner Mutter benutzt einen filmischen Kunstgriff für ein sensibles Thema. N 1 01.12.2016 Do 02.12.2016 23083 8259 31342 84 31 57 37 182 142 162 78
Katakombe der Heiligen Marcellinus und Petrus Die Katakombe der Heiligen Marcellinus und Petrus ist nach zwei Märtyrern der römischen Christenverfolgung benannt. J 1 02.12.2016 Fr 03.12.2016 9805 2482 12287 37 10 24 28 54 61 58 111
Halo-System Das Halo-System ist ein „Heiligenschein“, der Leben retten soll. N 1 02.12.2016 Fr 03.12.2016 21063 7472 28535 79 31 55 39 163 186 175 114
Totalprothese Eine Totalprothese ersetzt nicht nur die Zähne, sondern auch den geschwundenen Kieferknochen. J 1 03.12.2016 Sa 04.12.2016 6818 3720 10538 28 14 21 51 74 86 80 116
Ernst Knorr Ernst Knorr starb in dem Gefängnis, in dem er selbst Gefangene misshandelt hatte. N 1 03.12.2016 Sa 04.12.2016 23980 15876 39856 99 62 80 62 370 363 366 98
Bayerisches Teleskopmeeting Das Bayerische Teleskopmeeting findet jährlich auf dem vor Lichtverschmutzung abgeschirmten Osterberg statt. J 1 04.12.2016 So 05.12.2016 8694 8435 17129 34 29 32 87 85 86 86 101
Singhasari Der letzte Herrscher des Königreichs Singhasari wurde 1292 gestürzt, während er ein tantrisches Ritual in einem Tempel durchführte. N 1 04.12.2016 So 05.12.2016 9241 15919 25160 36 55 46 155 108 135 121 125
Yi qi Der „eigenartige Flügel“ hatte primitive Federn, ähnelte aber einer Fledermaus. J 1 05.12.2016 Mo 06.12.2016 25937 9688 35625 90 35 63 39 120 124 122 103
Bad Mitterndorfer Nikolospiel Beim Nikolospiel kommt auch der Eheteufel zu Wort. N 1 05.12.2016 Mo 06.12.2016 12446 7571 20017 43 27 35 63 92 101 97 110
Astrosphäre Astrosphären sind Sternwindblasen. J 1 06.12.2016 Di 07.12.2016 16283 4643 20926 59 17 38 29 83 74 78 89
Sanremo-Festival 1968 Jazz-Legende Louis Armstrong konnte beim Sanremo-Festival 1968 einfach nicht aufhören. N 1 06.12.2016 Di 07.12.2016 17517 8644 26161 63 32 47 50 123 114 119 93
Pennington (1895) Die Pennington (1895) war die Erfindung eines Hochstaplers. J 1 07.12.2016 Mi 08.12.2016 46610 16474 63084 170 61 115 36 191 203 197 106
Aladdin (BlackRock) Das Datenanalyseprogramm Aladdin wacht über bis zu 10 % aller Vermögenswerte weltweit. N 1 07.12.2016 Mi 08.12.2016 15737 7311 23048 57 27 42 47 111 102 107 92
Fort Bragg (Kalifornien) Der kalifornische Ort Fort Bragg hat einen Strand aus bunten Glasperlen. J 1 08.12.2016 Do 09.12.2016 33711 11137 44848 125 42 83 33 170 186 178 109
Typ 91 Handgranate Zum Zünden schlugen Soldaten die Typ 91 Handgranate meist auf den eigenen Stahlhelm. N 1 08.12.2016 Do 09.12.2016 47411 20629 68040 176 77 126 44 381 353 367 93
Windmühle Wendhausen Die fünfflügelige Windmühle Wendhausen ist die letzte ihrer Art in Deutschland. J 1 09.12.2016 Fr 10.12.2016 17355 6207 23562 65 26 46 40 96 155 125 162
Michael Maor Der Geheimdienstagent Michael Maor brach für die Entführung von Adolf Eichmann beim hessischen Generalstaatsanwalt ein. N 1 09.12.2016 Fr 10.12.2016 18719 7587 26306 70 32 51 46 145 193 169 134
Afghanische Radsport-Frauennationalmannschaft Die afghanische Radsport-Frauennationalmannschaft wurde 2016 für den Friedensnobelpreis nominiert. J 1 10.12.2016 Sa 11.12.2016 7653 2911 10564 32 11 22 36 84 68 76 81
Oreya Oreya gewann beim Internationalen Kammerchor-Wettbewerb in Marktoberdorf den Sonderpreis für die beste Interpretation eines geistlichen Chorwerks. N 1 10.12.2016 Sa 11.12.2016 1780 1185 2965 7 5 6 62 28 28 28 99
Jutespinnerei Beuel Die Jutespinnerei Beuel stellte als erste deutsche Fabrik Juteprodukte von der Rohfaser bis zum Gewebe her. J 1 11.12.2016 So 12.12.2016 8519 7125 15644 34 26 30 77 85 76 80 89
Allis-Chalmers-Brennstoffzellentraktor Der Allis-Chalmers-Brennstoffzellentraktor ebnete dem Herstellerunternehmen den Weg zu Verträgen mit dem US-Militär und der NASA. N 1 11.12.2016 So 12.12.2016 9803 14639 24442 39 53 46 137 117 129 123 111
Malvina Schnorr von Carolsfeld Wagners Tristan und Isolde galt als unspielbar, bis Malvina Schnorr von Carolsfeld und ihr Mann für die Titelrollen gefunden wurden. J 1 12.12.2016 Mo 13.12.2016 21777 6347 28124 79 23 51 29 105 82 94 78
Laudato si’ (Oratorium) Im Oratorium Laudato si’ wird Papst Franziskus’ Herkunft mit Tango vertont. N 1 12.12.2016 Mo 13.12.2016 4285 2437 6722 16 9 12 57 33 33 33 100
Mädchen auf der Brücke Eine Fassung von Mädchen auf der Brücke ist mit über 54 Millionen Dollar das am zweitteuersten verkaufte Gemälde Edvard Munchs. J 1 13.12.2016 Di 14.12.2016 9431 7204 16635 35 27 31 78 49 117 83 242
Mohamed Helmy Obwohl selbst im Fokus der Nazis, rettete der ägyptische Arzt Mohamed Helmy in Berlin jüdischen Menschen das Leben. N 1 13.12.2016 Di 14.12.2016 14288 7631 21919 52 29 40 55 102 104 103 102
Megyeri híd Die ungarische Megyeri-Brücke wäre beinahe nach dem Satiriker Stephen Colbert benannt worden. J 1 14.12.2016 Mi 15.12.2016 14825 3912 18737 56 15 35 27 62 50 56 80
Manfred Kunst In den frühen 1960er Jahren zählte Manfred Kunst zu den bekanntesten deutschen Kinderdarstellern. N 1 14.12.2016 Mi 15.12.2016 16725 8625 25350 63 33 48 53 121 125 123 104
Fenster des Himmels / Irrstern Das zweiteilige Mahnmal Fenster des Himmels / Irrstern erinnert mit einem Hölderlin-Zitat an die Opfer der NS-Psychiatrie in Bremen. J 1 15.12.2016 Do 16.12.2016 9169 3664 12833 35 15 25 41 48 65 56 135
Berliner Jedermann-Festspiele 28 Jahre lange schaffte es Brigitte Grothum – ohne Subventionen – alljährlich die Berliner Jedermann-Festspiele zu veranstalten. N 1 15.12.2016 Do 16.12.2016 7542 4445 11987 29 18 23 61 63 81 72 128
Goethova vyhlídka Goethe löste bei der Bezeichnung des Karlsbader Aussichtsturms Stalin ab. J 1 16.12.2016 Fr 17.12.2016 16168 3092 19260 64 13 39 20 95 78 86 82
1. Bundesliga Snooker 2011/12 In der Snooker-Bundesliga 2011/12 endete eine fünfjährige Erfolgsserie des BSV Wuppertal, weil nicht alle Spieler rechtzeitig anwesend waren. N 1 16.12.2016 Fr 17.12.2016 8841 2098 10939 35 9 22 25 72 54 63 74
Royal Clarence Hotel Englands ältestes Hotel, das Royal Clarence in Exeter, ging bei einem Großbrand im Oktober 2016 in Flammen auf. J 1 17.12.2016 Sa 18.12.2016 7863 5277 13140 33 21 27 64 87 128 108 146
Workingmen’s Party of California Rassismus gegenüber US-Amerikanern mit chinesischen Wurzeln bescherte der Workingmen’s Party of California ihren Erfolg. N 1 17.12.2016 Sa 18.12.2016 3605 2811 6416 15 11 13 75 57 67 62 118
Faulenstraße Die Benennung der historischen Faulenstraße in Bremen beruhte auf ihrem Zustand. J 1 18.12.2016 So 19.12.2016 14415 13454 27869 59 46 52 79 148 135 141 91
Francesco Lacedelli Seine kurze Laufbahn als Bergführer begann Francesco Lacedelli im Alter von 67 Jahren. N 1 18.12.2016 So 19.12.2016 6270 8680 14950 25 30 28 116 77 72 75 94
Transalpina (Rumänien) Die quer durch die Transsilvanischen Alpen führende Transalpina ist jährlich für fünf Monate gesperrt. J 1 19.12.2016 Mo 20.12.2016 32340 7663 40003 111 25 68 22 147 87 117 59
Terence Etherton Terence Etherton, zweithöchster Richter im Vereinigten Königreich, kämpfte gerne mit dem Säbel. N 1 19.12.2016 Mo 20.12.2016 15342 6710 22052 52 21 37 41 112 80 96 71
Snowlets Sukki, Nokki, Lekki und Tsukki wurden von Kritikern als „die vier Eulen der Apokalypse“ bezeichnet. J 1 20.12.2016 Di 21.12.2016 26881 12408 39289 86 38 62 45 121 167 144 138
Artie Shaw and His Gramercy Five Mit Artie Shaw’s Gramercy Five hielt das Cembalo Einzug in den Jazz. N 1 20.12.2016 Di 21.12.2016 2619 1755 4374 8 5 7 65 16 20 18 121
Lefaucheux-Stiftfeuerrevolver Der Lefaucheux-Stiftfeuerrevolver hatte keine Probleme mit Feuchtigkeit. J 1 21.12.2016 Mi 22.12.2016 45454 12085 57539 140 35 87 25 157 115 136 73
Maurice Solovine Maurice Solovine suchte Nachhilfe für Physik und fand in Albert Einstein einen Freund fürs Leben. N 1 21.12.2016 Mi 22.12.2016 14022 6169 20191 43 18 30 41 84 67 75 80
Kupferschatz von Osnabrück Der bedeutende Kupferschatz von Osnabrück wäre nach Ansicht eines Landtagsabgeordneten beinahe verloren gegangen. J 1 22.12.2016 Do 23.12.2016 25218 7415 32633 72 21 47 29 98 94 96 96
Fort Christanna Das nur vier Jahre bestehende Fort Christanna in Virginia sollte sowohl weiße Siedler als auch Angehörige der Sioux und Irokesen vor feindlichen Indianerstämmen schützen. N 1 22.12.2016 Do 23.12.2016 16945 6807 23752 49 19 34 40 105 89 97 84
Neugroschen Der Neugroschen machte den preußischen Pfennig zum bösen Pfennig. J 1 23.12.2016 Fr 24.12.2016 16427 3737 20164 47 12 29 25 69 70 70 101
Rojda Felat Die Kurdin Rojda Felat kommandiert 30.000 Soldaten im Kampf gegen den IS. N 1 23.12.2016 Fr 24.12.2016 21943 7293 29236 63 23 43 37 129 139 134 108
Johann Ehemann Der einzige Orgelstich von Matthäus Merian zeigt eine Orgel von Johann Ehemann aus Ulm. J 1 24.12.2016 Sa 25.12.2016 1403 840 2243 4 2 3 52 12 14 13 119
Machet die Tore weit (Telemann) Georg Philipp Telemanns Kantate Machet die Tore weit wurde bekannt, weil Johann Sebastian Bach ihr prominen­tester Notenkopist war. N 1 24.12.2016 Sa 25.12.2016 1739 1189 2928 5 3 4 60 21 19 20 94
Nickneger An mancher kirchlichen Weihnachtskrippe stand früher auch ein „Nickneger“. J 1 25.12.2016 So 26.12.2016 19857 10538 30395 55 27 41 49 139 80 109 58
Hermann Eugen Müller Hermann Eugen Müllers Beruf war die Kohle, sein Hobby waren die Schafe. N 1 25.12.2016 So 26.12.2016 5065 3248 8313 14 8 11 60 42 20 31 48
Barfi (Brauch) Mit Barfi kann man in Afghanistan für eine Handvoll Schnee ein großes Essen bekommen ... Oder man sieht schwarz. J 1 26.12.2016 Mo 27.12.2016 18789 12208 30997 48 31 40 65 65 111 88 172
Franz Jung (Großdechant) Franz Jung ist der 50. und letzte Dechant der Grafschaft Glatz seit der ersten Erwähnung dieses Amtes im 13. Jahrhundert. N 1 26.12.2016 Mo 27.12.2016 7564 7208 14772 19 19 19 95 42 69 55 166
Beauty Revealed Nur für Daniel hatte Sarah ihr schönes Selbst enthüllt. J 1 27.12.2016 Di 28.12.2016 39769 12150 51919 103 33 68 32 144 143 144 99
The Nutty Squirrels Die verrückten Eichhörnchen sangen in doppelter Geschwindigkeit. N 1 27.12.2016 Di 28.12.2016 18118 8748 26866 47 24 35 51 91 86 88 94
Christoph Pitzler Von den Architekturzeichnungen des Barockbaumeisters Christoph Pitzler blieben nur fotografische Reproduktionen erhalten. J 1 28.12.2016 Mi 29.12.2016 6369 1658 8027 17 5 11 27 19 16 17 80
Großer Preis von Israel 1970 Der Große Preis von Israel 1970 wurde zuerst aus religiösen Gründen verschoben und später wegen Sicherheitsmängeln abgesagt. N 1 28.12.2016 Mi 29.12.2016 13276 7575 20851 36 21 29 60 69 81 75 116
Lili Marberg Leopold Schmutzler hielt Lili Marbergs Wiener Bühnenerfolg als „Salome“ in einem Gemälde fest. J 2 29.12.2016 Do 30.12.2016 9968 1494 11462 28 4 16 15 38 19 29 50
Leopold Schmutzler Leopold Schmutzler hielt Lili Marbergs Wiener Bühnenerfolg als „Salome“ in einem Gemälde fest. J 2 29.12.2016 Do 30.12.2016 3501 1081 4582 10 3 6 31 13 14 14 103
Koreanische Nationalbibliothek In der Koreanischen Nationalbibliothek darf verbotene kommunistische Propaganda gelesen werden. N 1 29.12.2016 Do 30.12.2016 6799 3243 10042 19 9 14 49 42 43 42 102
Rudolf Schifkorn Nachdem eine eingestürzt war, mussten mehr als einhundertzehn von Rudolf Schifkorn konstruierte Brücken ersetzt werden. J 1 30.12.2016 Fr 31.12.2016 33965 7939 41904 98 24 61 25 144 145 144 100
Sander Thoenes Für die Ermordung des niederländischen Reporters Sander Thoenes in Osttimor 1999 werden indonesische Soldaten verantwortlich gemacht. N 1 30.12.2016 Fr 31.12.2016 7373 2960 10333 21 9 15 43 44 55 49 126
Miss Amelia Van Buren Das Gemälde Miss Amelia Van Buren gilt als eine der besten Arbeiten des amerika­nischen Künstlers Thomas Eakins. J 1 31.12.2016 Sa 01.01.2017 7276 5836 13112 22 15 19 67 59 90 74 153
Earl Hines and His Orchestra Pioniere des Bebop spielten im Earl-Hines-Orchester von 1943, von dem es aber keine Tondokumente gibt. N 1 31.12.2016 Sa 01.01.2017 1725 1443 3168 5 4 5 70 20 22 21 111


Skigebiet Laterns-Gapfohl Zwei politisch konkurrierende Skiriegen erschlossen in den 1920er Jahren das Skigebiet Laterns-Gapfohl. J 1 01.01.2017 So 02.01.2017 5973 4746 10719 15 13 14 83 23 24 23 100
IND Second Avenue Line Nach fast hundertjähriger Planungs- und Bauzeit nimmt die New Yorker IND Second Avenue Line am 1. Januar 2017 ihren Betrieb auf. N 1 01.01.2017 So 02.01.2017 15151 17706 32857 39 48 44 123 100 106 103 105
Alice Roosevelt Longworth Alice Roosevelt bevorzugte es, „Mrs. L“ statt „Alice“ genannt zu werden. J 1 02.01.2017 Mo 03.01.2017 29333 6590 35923 79 18 49 22 108 65 86 60
Die Liebe unter Aliens Die Liebe unter Aliens beruht auf einer wahren Begebenheit. N 1 02.01.2017 Mo 03.01.2017 22448 10350 32798 61 28 44 46 80 63 72 79
Affenbrotbaumallee An der Affenbrotbaumallee wachsen 25 Bäume einer Art, die nur in Madagaskar heimisch ist. J 1 03.01.2017 Di 04.01.2017 22491 8302 30793 60 23 42 39 60 61 61 103
OppoSuits Anzüge von OppoSuits sind Szenegängers Liebling und Stilberaters Albtraum. N 1 03.01.2017 Di 16698
Katzensteuer Die Einführung einer Katzensteuer wird oft am Monatsersten des April gefordert. N 1 03.01.2017 Di 04.01.2017 1611 15537 17148 4 44 24 1019 6 112 59 1852
Murgantia histrionica Murgantia histrionica hat vermutlich Hawaii erreicht. J 1 04.01.2017 Mi 05.01.2017 36573 10493 47066 103 29 66 28 113 86 99 76
Cherry Kearton Cherry Kearton veröffentlichte die erste Filmaufnahme von London aus der Vogel­perspektive. N 1 04.01.2017 Mi 05.01.2017 10350 5428 15778 29 15 22 51 39 38 38 96
Pim Mulier Der niederländische Sport profitierte davon, dass Pim Mulier kein Sitzfleisch hatte. J 1 05.01.2017 Do 06.01.2017 22062 8257 30319 61 24 42 39 58 65 61 112
Gröpeln (Schiff) Die Gröpeln beförderte nicht nur Bremer Werft­arbeiter und Bade­gäste, sondern diente auch der sandi­nistischen Revolution. N 1 05.01.2017 Do 06.01.2017 18553 7461 26014 51 21 36 42 81 70 76 86
Susan Macdowell Eakins Susan Macdowell trat dafür ein, dass auch Frauen die Darstellung des nackten Körpers nach lebendem Modell studieren durften. J 1 06.01.2017 Fr 07.01.2017 21091 5646 26737 60 16 38 27 69 75 72 109
Hans Friedrich von Schöning Nach dem Kammerpräsidenten Hans Friedrich von Schöning wurden zwei pommersche Dörfer benannt. N 1 06.01.2017 Fr 07.01.2017 4154 1567 5721 12 4 8 38 17 17 17 105
Naviforme Die ersten naviformen Wohnhäuser entstanden in der Bronzezeit auf Mallorca und Menorca. J 1 07.01.2017 Sa 08.01.2017 14374 5946 20320 41 14 27 34 68 55 62 80
Wucher auf dem Land Friedrich Wilhelm Raiffeisen bekämpfte im 19. Jahrhundert den Wucher auf dem Land. N 1 07.01.2017 Sa 08.01.2017 9768 5023 14791 28 12 20 43 65 46 56 71
Flugunfall der KLM Fokker F.XXII „Kwikstaart“ Über 60 Jahre lang blieb die mutige Rettungsaktion von Kick Pruijs beim Flugunfall der KLM Fokker F.XXII „Kwikstaart“ vergessen. J 1 08.01.2017 So 09.01.2017 25903 28267 54170 61 76 69 125 93 140 116 151
Die Zofen Die Zofen sollten eigentlich von Männern gespielt werden, werden aber fortwährend von Frauen dargestellt. N 1 08.01.2017 So 09.01.2017 8019 9679 17698 19 26 23 139 48 58 53 119
Hôtel Morin Im 16. Jahrhundert als Stadtpalais erbaut, diente das Hôtel Morin später auch als Gefängnis und Rathaus. J 1 09.01.2017 Mo 10.01.2017 21046 3884 24930 57 9 33 17 77 35 56 45
Benedikt Karus Obwohl Benedikt Karus wissenschaftlich belegen konnte, nicht gedopt gewesen zu sein, wurde er zu einer vierjährigen Sperre verurteilt. N 1 09.01.2017 Mo 10.01.2017 21955 11700 33655 59 28 44 48 79 65 72 83
Gelbstirn-Fruchttaube Die Gelbstirn-Fruchttaube steht auf Feigen. J 1 10.01.2017 Di 11.01.2017 8851 3534 12385 21 8 15 39 21 22 22 102
Des Spiegels Abenteuer Die um 1450 entstandene Minnerede Des Spiegels Abenteuer handelt von der Untreue eines Mannes. N 1 10.01.2017 Di 11.01.2017 7626 3059 10685 18 7 13 39 26 18 22 71
Cromwelltaler Der Stempelriss im Cromwelltaler wurde als Omen für Cromwells postume Enthauptung gedeutet. J 1 11.01.2017 Mi 12.01.2017 25381 10661 36042 60 25 43 43 65 76 71 116
Michael Malloy Es bedurfte mehrerer Mordanschläge, um den Trunkenbold Michael Malloy erfolgreich um die Ecke zu bringen. N 1 11.01.2017 Mi 12.01.2017 39821 24676 64497 94 59 76 63 125 149 137 119
Emil Scaria Emil Scaria brachte Wagner sowohl zur Empörung als auch im höchsten Maße zur Begeisterung. J 1 12.01.2017 Do 13.01.2017 19900 5405 25305 48 12 30 25 46 33 39 72
Termitomyces heimii Der begehrte Speisepilz Termitomyces heimii lebt in und an Termitennestern. N 1 12.01.2017 Do 13.01.2017 10021 4782 14803 24 10 17 44 38 35 36 90
Agnes Marshall Agnes Marshalls Werk trug erheblich dazu bei, Speiseeis als Süßspeise zu etablieren. J 1 13.01.2017 Fr 14.01.2017 19735 3726 23461 43 9 26 21 50 43 46 87
Tuppers selbstreferentielle Formel In der Tupperformel ist alles enthalten, was man auf ein 17×106-Feld bringen kann; auch sie selbst. N 1 13.01.2017 Fr 14.01.2017 32677 9024 41701 71 22 47 31 100 86 93 87
Kirchstraße 29 (Bregenz) Die Eingangstür der Bregenzer Kirchstraße 29 ist breiter als die Fassade des Hauses. J 1 14.01.2017 Sa 15.01.2017 22358 9688 32046 55 19 37 34 92 73 82 79
Umweltfotografie Umweltfotografie zeigt einen Schmetterling auf einer schönen Blume mit einer Planierraupe im Hintergrund, die auf beide zufährt. N 1 14.01.2017 Sa 15.01.2017 10428 6331 16759 26 12 19 48 60 48 54 79
Der Selbstmörder (Manet) Manets Gemälde Der Selbstmörder hing 2016 im falschen Museum. J 1 15.01.2017 So 16.01.2017 14993 13967 28960 29 33 31 116 44 61 52 139
Wetzsteinerzeugung (Schwarzachtobel) Eine Statue über dem Dorfbrunnen erinnert an die Vergangenheit der Schwarzacher als Schlifar. N 1 15.01.2017 So 16.01.2017 7542 8545 16087 14 20 17 141 37 45 41 121
Der doppelte Kirchner Der doppelte Kirchner steht manchmal auf dem Kopf. J 1 16.01.2017 Mo 17.01.2017 21742 9854 31596 52 23 38 45 71 86 78 121
Louis-François-Auguste de Rohan-Chabot Napoleons Kammerherr Louis-François-Auguste de Rohan-Chabot brachte es als Witwer zum Kardinal. N 1 16.01.2017 Mo 17.01.2017 8179 4628 12807 20 11 15 56 26 25 25 97
János Szirmai Mit 45 Jahren wurde aus dem Arzt János Szirmai ein Einbandforscher. J 1 17.01.2017 Di 18.01.2017 15312 5499 20811 36 14 25 37 36 35 36 98
Neufarner Berg Am Galgen des Neufarner Berges konnte man Feuermännlein begegnen. N 1 17.01.2017 Di 18.01.2017 21027 9502 30529 50 23 37 47 70 60 65 86
Freie Republik Gersau Jahrhundertelang war die Freie Republik Gersau nur über Wasser erreichbar. J 1 18.01.2017 Mi 19.01.2017 45528 16390 61918 112 41 77 37 123 123 123 100
Josef Ferdinand Nesmüller Josef Ferdinand Nesmüllers Theateraufführung am 18. Mai 1854 wurde zur weltweit ersten öffentlichen „Familienvorstellung“. N 1 18.01.2017 Mi 19.01.2017 2543 1145 3688 6 3 5 46 8 7 8 87
Stausee Sohland Die regelmäßige Verschlammung der Sohlander Talsperre wurde schon bei ihrem Bau befürchtet. J 1 19.01.2017 Do 20.01.2017 26020 8168 34188 66 20 43 30 63 55 59 87
Flugzeugabsturz in Canberra 1940 Im August 1940 erschütterte ein Flugzeugabsturz die Regierung des im Krieg befindlichen Australien. N 1 19.01.2017 Do 20.01.2017 25538 8713 34251 64 21 43 33 103 70 87 68
Neopalpa donaldtrumpi Ihrem Kopfschmuck verdankt Neopalpa donaldtrumpi ihren Namen. J 1 20.01.2017 Fr 21.01.2017 28168 9940 38108 69 23 46 34 79 110 95 140
Faith Spotted Eagle Faith Spotted Eagle erhielt als erste Indianerin in der US-Geschichte die Stimme eines Wahlmannes bei einer Präsidentschaftswahl. N 1 20.01.2017 Fr 21.01.2017 17268 6089 23357 42 14 28 34 59 56 57 95
Rolling Coal Rolling Coal ist eine vor allem in den Vereinigten Staaten praktizierte Form mutwilliger Luftverschmutzung. J 1 21.01.2017 Sa 22.01.2017 23915 10576 34491 56 22 39 39 95 85 90 90
FDT (Lied) FDT entwickelte sich trotz Zensur durch den Secret Service zum Protestsong des Jahres 2016. N 1 21.01.2017 Sa 22.01.2017 11317 8498 19815 27 17 22 66 63 69 66 109
Detmolder Kindermumie Die Detmolder Kindermumie ist eine der ältesten erhaltenen Mumien weltweit. J 1 22.01.2017 So 23.01.2017 25200 19143 44343 52 47 49 90 79 86 82 108
Eva Klein Während ihr Mann und Vater ihrer drei Kinder im Haushalt keinen Handschlag tat, forschte Eva Klein nebenbei über die natürlichen Killerzellen. N 1 22.01.2017 So 23.01.2017 14154 17666 31820 29 43 36 148 75 95 85 128
Quandel Das grammatikalische Geschlecht von Quandel ist unklar. J 1 23.01.2017 Mo 24.01.2017 44500 11740 56240 109 27 68 25 148 99 123 67
Recess Appointment Ronald Reagan wendete Recess Appointments 240-mal, Bill Clinton in der gleichen Zeitspanne nur 139-mal an. N 1 23.01.2017 Mo 24.01.2017 34092 11892 45984 83 27 55 33 110 62 86 57
Bahnstrecke Watang–Rizhao Die Strecke Watang–Rizhao in China ist die längste Schwerlastbahn der Welt. J 1 24.01.2017 Di 25.01.2017 24665 9698 34363 57 23 40 40 56 59 58 105
Ilse Totzke Die Schweizer Grenzpolizei erwischte Ilse Totzke 1943 an der Grünen Grenze und schickte sie zurück. N 1 24.01.2017 Di 25.01.2017 28729 17451 46180 66 41 53 62 92 104 98 113
Süllberg (Hamburg) Hamburgs Hausberg ist der Süllberg. J 1 25.01.2017 Mi 26.01.2017 21168 5840 27008 50 14 32 29 54 42 48 78
Alexander Girard Alexander Girard entwarf unter anderem Streichholzschachteln, Kissen und Flugzeuganstriche. N 1 25.01.2017 Mi 26.01.2017 10424 4869 15293 24 12 18 49 33 30 31 92
Ellenator Der Ellenator ist ein dreirädriges Auto, das 16-Jährige fahren dürfen. J 1 26.01.2017 Do 27.01.2017 54681 13398 68079 133 32 82 24 127 88 108 69
Die Maschine steht still Die Kurzgeschichte Die Maschine steht still sah 1909 Techniken wie Internet und Instant Messenger vorher. N 1 26.01.2017 Do 27.01.2017 20309 10377 30686 49 25 37 50 79 82 80 104
Liste der Gedenksteine für NS-Opfer in Židlochovice In der südmährischen Stadt Židlochovice wurden Gedenksteine für NS-Opfer nach dem Vorbild der Stolpersteine verlegt. J 1 27.01.2017 Fr 28.01.2017 5789 1372 7161 14 3 9 24 16 15 16 97
A. Zuntz sel. Wwe. Das 100-jährige Bestehen der Kaffeerösterei A. Zuntz sel. Wwe. durfte der jüdische Eigentümer nicht mitfeiern. N 1 27.01.2017 Fr 28.01.2017 19266 6494 25760 46 15 31 34 64 61 62 94
Weinbau in Polen Nach dem Zweiten Weltkrieg kam der Weinbau in Polen praktisch zum Erliegen. J 1 28.01.2017 Sa 29.01.2017 9787 4911 14698 23 11 17 47 39 42 41 108
Querstadtein Bei querstadtein zeigen Geflüchtete und Obdachlose ihr Berlin. N 1 28.01.2017 Sa 29.01.2017 3731 2870 6601 9 6 8 71 21 25 23 119
Aachener Dom (Rose) Aachener Dom und Ulmer Münster stehen in vielen Gärten. J 2 29.01.2017 So 30.01.2017 4406 8959 13365 10 21 15 214 15 38 26 257
Ulmer Münster (Rose) Aachener Dom und Ulmer Münster stehen in vielen Gärten. J 2 29.01.2017 So 30.01.2017 3712 6882 10594 8 16 12 195 12 29 21 234
Meteorit von Ybbsitz Niemand sah den Meteoriten von Ybbsitz vom Himmel fallen. N 1 29.01.2017 So 30.01.2017 17623 23336 40959 39 54 47 139 100 119 110 120
Unterschiedsbinde Die Unterschiedsbinde teilte den Kopf in zwei Hälften. J 1 30.01.2017 Mo 31.01.2017 43059 11312 54371 100 28 64 28 136 104 120 76
Spirit of Akron Die Spirit of Akron ist die einzige ihrer Art mit Gasturbinen-Antrieb. N 1 30.01.2017 Mo 31.01.2017 32862 14029 46891 76 35 56 46 101 81 91 80
Schleusenspucker Die Schleusenspucker haben immer einen Flachmann dabei. J 1 31.01.2017 Di 01.02.2017 37306 18860 56166 94 45 69 48 93 118 105 127
Variospora flavescens Hepps Schönfleck ist „Flechte des Jahres“ 2017. N 1 31.01.2017 Di 01.02.2017 9340 5727 15067 23 14 19 59 33 35 34 107
Kleiderbüste des Tutanchamun Der Ausgräber der Kleiderpuppe des Tutanchamun bezeichnete sie als „hölzerne Porträtfigur des Königs“. J 1 01.02.2017 Mi 02.02.2017 23351 7735 31086 56 20 38 35 61 58 60 95
Kartal (Klapper) Kartal klappern. N 1 01.02.2017 Mi 02.02.2017 19910 10115 30025 48 26 37 54 64 65 64 101
Kadeena Cox Kadeena Cox ist die erste britische Sportlerin seit 1984, die bei Paralympischen Spielen zwei Goldmedaillen in verschiedenen Sportarten errang. J 1 02.02.2017 Do 03.02.2017 14345 4048 18393 36 9 23 25 35 26 30 73
Münzschatz von Altlandsberg Der Münzschatz von Altlandsberg wurde vermutlich vergraben, um ihn vor den Hussiten zu retten. N 1 02.02.2017 Do 03.02.2017 21742 10651 32393 55 24 40 44 88 81 84 92
Natasha Trethewey Der Tod ihrer Mutter führte die Pulitzer-Preisträgerin Natasha Trethewey zur Poesie. J 1 03.02.2017 Fr 04.02.2017 6075 1302 7377 14 3 9 24 16 16 16 98
Esquire Jazz Award Zu den ersten Gewinnern des Esquire Jazz Awards gehörten Billie Holiday, Roy Eldridge und Coleman Hawkins. N 1 03.02.2017 Fr 04.02.2017 1328 626 1954 3 2 2 53 4 6 5 148
Pepsodent Pepsodent trug in den USA dazu bei, dass Zähneputzen zum täglichen Ritual wurde. J 1 04.02.2017 Sa 05.02.2017 19241 9090 28331 49 20 34 40 83 77 80 94
Lehrer Florian Bätschi mit Schulkindern Mehr als vierzig Jahre lang hing Lehrer Florian Bätschi mit Schulkindern über dem Eingangsportal des Schulhauses in Frauenkirch. N 1 04.02.2017 Sa 05.02.2017 12710 6626 19336 32 14 23 44 77 57 67 74
Hrvatski Narod Hrvatski Narod war das kroatische Pendant zum Völkischen Beobachter. J 1 05.02.2017 So 06.02.2017 6067 5506 11573 13 13 13 97 20 23 22 117
Der Kuss (Rodin) Wer den Kuss auf der World’s Columbian Exposition 1893 in Chicago sehen wollte, musste einen Antrag stellen. N 1 05.02.2017 So 06.02.2017 11097 14416 25513 24 34 29 139 62 74 68 120
Punta de Teno Die Punta de Teno ist der westlichste Punkt der Kanareninsel Teneriffa. J 1 06.02.2017 Mo 07.02.2017 13435 5567 19002 31 13 22 40 42 46 44 108
Schloss Kunzendorf (Trzebieszowice) Der Obergärtner von Schloss Kunzendorf wurde als Hofgärtner an den preußischen Königshof berufen. N 1 06.02.2017 Mo 07.02.2017 6797 3721 10518 16 8 12 53 21 19 20 92
Otto Mannesmann Tot gelangte Otto Mannesmann in einem U-Boot nach Österreich. J 1 07.02.2017 Di 08.02.2017 55737 20136 75873 126 46 86 36 125 119 122 96
I’m Not Gonna Miss You Als I’m Not Gonna Miss You bei der Oscarverleihung 2015 aufgeführt wurde, konnte sich der Originalinterpret nicht mehr an den Song erinnern. N 1 07.02.2017 Di 08.02.2017 26222 12654 38876 59 29 44 49 83 73 78 88
Raknehaugen Der Legende nach ist unter dem Grabhügel Raknehaugen ein König zwischen zwei weißen Pferden begraben worden. J 1 08.02.2017 Mi 09.02.2017 27554 8566 36120 62 20 41 32 68 58 63 85
Bella Paalen Schon 1913 war Bella Paalen als weiblicher Steuermann engagiert. N 1 08.02.2017 Mi 09.02.2017 17023 7666 24689 39 18 28 46 52 44 48 86
Taubenbrunnen La Paloma begleitete die Einweihung des Taubenbrunnens. J 1 09.02.2017 Do 10.02.2017 11983 2658 14641 28 7 17 24 26 18 22 68
Safety-Harbor-Kultur Die Safety-Harbor-Kultur bestand an der zentralen Golfküste Floridas. N 1 09.02.2017 Do 10.02.2017 12970 6258 19228 30 15 23 52 48 51 49 107
Geographie von Somerset Die Geographie von Somerset wird bestimmt durch „Levels“ und Hochlandgebiete. J 1 10.02.2017 Fr 11.02.2017 18233 2637 20870 45 7 26 15 51 32 42 63
Günther Matzinger Günther Matzinger läuft die 800 Meter derzeit schneller als jeder andere Österreicher. N 1 10.02.2017 Fr 11.02.2017 11386 3531 14917 28 9 19 33 39 36 37 92
Bahnhof Mikułowa Auf dem niederschlesischen Bahnhof Mikułowa finden sich noch heute Fahrleitungsmasten aus Schleuderbeton. J 1 11.02.2017 Sa 12.02.2017 19824 9958 29782 51 22 36 42 86 84 85 98
Gaslicht (Schauspiel) Gaslicht wurde innerhalb von vier Jahren zweimal verfilmt. N 1 11.02.2017 Sa 12.02.2017 6585 4004 10589 17 9 13 51 40 34 37 84
Vanadis (Schiff, 1908) Nach einem Schiffsunglück hatte C. K. G. Billings keine Freude mehr an seiner Luxusyacht Vanadis. J 1 12.02.2017 So 13.02.2017 18511 15345 33856 40 35 37 86 61 63 62 104
Trump Vodka Obwohl Donald Trump keinen Alkohol trinkt, bewarb er eine eigene Wodkamarke. N 1 12.02.2017 So 13.02.2017 11915 12014 23929 26 27 26 105 66 60 63 90
Zinkwand Die Zinkwand ist durchlöchert wie ein Emmentaler. J 1 13.02.2017 Mo 14.02.2017 36267 14133 50400 82 36 59 44 111 130 121 117
“Awaken, My Love!” “Awaken, My Love!” wurde in pink-gelben Baströcken präsentiert. N 1 13.02.2017 Mo 14.02.2017 10183 5822 16005 23 15 19 64 30 34 32 110
Le mur des je t’aime Le mur des je t’aime findet sich in der französischen Hauptstadt Paris. J 1 14.02.2017 Di 15.02.2017 16188 5653 21841 41 15 28 37 40 40 40 99
Lover (Wiltshire) Für Liebesgrüße from Lover ist es heute zu spät. N 1 14.02.2017 Di 15.02.2017 18412 7807 26219 46 21 34 45 65 54 59 83
Potnia (Gattung) Die Individuen der Arten der Gattung Potnia kommen meist in Gruppen vor. J 1 15.02.2017 Mi 16.02.2017 9657 5028 14685 26 13 20 50 29 39 34 135
Dornier Delta II Bei den Olympischen Spielen 1972 begleiteten drei Dornier Delta II mit Elektromotor die Marathonläufer. N 1 15.02.2017 Mi 16.02.2017 24374 13726 38100 66 35 51 54 88 89 89 102
Carmine Abate Carmine Abate ist ein Nachkomme der Arbëresh. J 1 16.02.2017 Do 17.02.2017 19225 6873 26098 50 18 34 36 48 49 48 102
Sabrina Simader Sabrina Simader ist Kenias einzige Vertreterin bei der alpinen Ski-WM in St. Moritz. N 1 16.02.2017 Do 17.02.2017 18839 8739 27578 49 22 36 46 78 74 76 96
Silesaurus Die Tongrube von Krasiejów gilt als einziger bekannter Fundort von Silesaurus. J 1 17.02.2017 Fr 18.02.2017 24387 4740 29127 63 12 37 19 72 56 64 78
Sport- und Wellnessbad Eggenberg In Graz begibt sich die Auster nie ins Wasser. N 1 17.02.2017 Fr 18.02.2017 17701 4697 22398 45 12 29 26 63 46 55 72
Miramar-Haus Der Haupteingang des Miramar-Hauses wird von einem Engel beschützt. J 1 18.02.2017 Sa 19.02.2017 9678 4092 13770 24 9 17 38 41 36 38 88
Renate Bergmann Renate Bergmann war Trümmerfrau, und heute twittert sie. N 1 18.02.2017 Sa 19.02.2017 12781 7746 20527 32 17 25 54 75 68 72 90
Rudolf Marcuse Rudolf Marcuse schuf Skulpturen von Menschen verschiedener Völker für ein geplantes „Reichskriegsmuseum“. J 1 19.02.2017 So 20.02.2017 11903 10218 22121 27 22 24 84 40 41 41 100
Hans-Heini Gasser Der Schweizer Hans-Heini Gasser gilt als Pionier des Skisprung­schanzenbaus. N 1 19.02.2017 So 20.02.2017 5122 7356 12478 11 16 14 140 29 35 32 120
Rhiannon Giddens Die US-Amerikanerin Rhiannon Giddens singt nicht nur traditionelle amerikanische Musik, sondern auch irisch-gälische Mouth Music. J 1 20.02.2017 Mo 21.02.2017 11560 2953 14513 25 7 16 29 34 26 30 77
Mohammad Soufi Nach seiner Flucht vor dem syrischen Bürgerkrieg spielt der Asienmeister Mohammad Soufi nun in Deutschland in der 1. Bundesliga. N 1 20.02.2017 Mo 21.02.2017 16868 10071 26939 37 25 31 67 48 56 52 116
Nikolaikirche (Kotzenbüll) Die Nikolaikirche in Kotzenbüll hat die älteste Kirchentür von Schleswig-Holstein. J 1 21.02.2017 Di 22.02.2017 12882 4389 17271 31 11 21 34 31 28 30 89
Alles andere zeigt die Zeit Alles andere zeigt die Zeit erhielt 2016 den Bayerischen Filmpreis. N 1 21.02.2017 Di 22.02.2017 4441 2285 6726 11 6 8 51 15 14 15 93
Naueti Die Naueti sind eine Ethnie im südostasiatischen Osttimor. J 1 22.02.2017 Mi 23.02.2017 9778 3245 13023 24 8 16 34 26 24 25 92
Schnellfahrstrecke Shanghai–Kunming Die Schnellfahrstrecke Shanghai–Kunming in China ist mit 2264 km die weltweit längste ihrer Art. N 1 22.02.2017 Mi 23.02.2017 21793 11663 33456 53 29 41 55 71 73 72 103
Colombina Colonia Colombina Colonia ist die erste Kölner Karnevalsgesellschaft nur für Frauen. J 1 23.02.2017 Do 24.02.2017 10461 3431 13892 26 8 17 32 25 23 24 92
Dreamgate Bei Dreamgate wurden die Kanaren zu Queensland. N 1 23.02.2017 Do 24.02.2017 14288 6487 20775 35 16 26 44 57 52 54 92
Hanna Paulsberg Die norwegische Saxophonistin Hanna Paulsberg spielte schon im Blue Note Jazz Club in New York. J 1 24.02.2017 Fr 25.02.2017 8119 1233 9352 20 3 11 16 23 15 19 64
Pressehilfe Die luxemburgische Pressehilfe berechnet sich aus den Kosten für Papier und Journalisten. N 1 24.02.2017 Fr 25.02.2017 3973 1426 5399 10 4 7 37 13 14 14 104
Ernst-Reuter-Siedlung Die Ernst-Reuter-Siedlung läutete den sozialen Wohnungsbau in West-Berlin ein. J 1 25.02.2017 Sa 26.02.2017 8567 3419 11986 21 8 15 36 36 30 33 83
Die Löwe tod Im Holsteinerlied geht es um große Politik und einen Löwenschwanz. N 1 25.02.2017 Sa 26.02.2017 4933 3149 8082 12 7 10 57 29 28 28 95
Eye miniature Eye miniatures waren ein Trend des späten 18. Jahrhunderts. J 1 26.02.2017 So 27.02.2017 11205 14047 25252 25 33 29 133 38 61 49 159
Valère Novarina Die Theaterkritik der Süddeutschen Zeitung bezeichnete den Schriftsteller Valère Novarina als „Triebdichter“. N 1 26.02.2017 So 27.02.2017 2793 2856 5649 6 7 7 108 16 15 15 93
Tukir Beim Tukir wird Essen im Bambusrohr zubereitet. J 1 27.02.2017 Mo 28.02.2017 14089 5418 19507 33 13 23 40 45 49 47 107
Kemp Niver Mit einem von Kemp Niver entwickelten Restaurierungs­verfahren konnten mehr als 3000 verloren geglaubte Filme wieder hergestellt werden. N 1 27.02.2017 Mo 28.02.2017 14552 7435 21987 34 18 26 53 46 42 44 92
UFO-Häuser von Sanzhi Die verlassenen UFO-Häuser von Sanzhi wurden als „Ruinen der Zukunft“ bezeichnet. J 1 28.02.2017 Di 01.03.2017 33852 16130 49982 83 40 62 49 82 106 94 128
Laverda 750 Die American Eagles waren Italiener. N 1 28.02.2017 Di 01.03.2017 22620 12611 35231 55 32 43 57 78 80 79 104
Geldbeutelwäsche Am Aschermittwoch werden mancherorts unter Heulen und Klagen die Geldbeutel gewaschen. J 1 01.03.2017 Mi 02.03.2017 24703 6631 31334 62 18 40 29 68 53 61 79
Eigenbestandsbesamer Der Eigenbestandsbesamer darf nur im eigenen Bestand besamen. N 1 01.03.2017 Mi 02.03.2017 19269 9089 28358 48 25 36 51 64 62 63 96
Venezianische Tetrarchengruppe Die Ferse eines der vier Kaiser aus der venezianischen Tetrarchengruppe liegt in Istanbul. J 1 02.03.2017 Do 03.03.2017 18504 5329 23833 50 15 32 29 48 40 44 84
Brenda Berkman Brenda Berkman kämpfte für faire Einstellungstests bei der New Yorker Feuerwehr. N 1 02.03.2017 Do 03.03.2017 14771 7395 22166 40 20 30 51 64 67 65 105
Brütsch Mopetta Mit seiner Mopetta wollte Egon Brütsch das kleinste Auto der Welt bauen. J 1 03.03.2017 Fr 04.03.2017 33246 7694 40940 91 19 55 21 105 91 98 87
Jochebed (Bibel) Jochebed soll noch mit 130 Jahren geheiratet haben. N 1 03.03.2017 Fr 04.03.2017 24190 7646 31836 66 19 43 29 92 75 84 81
Gate Tower Building Durch das 16-stöckige Gate Tower Building in Osaka führt eine Autobahnausfahrt. J 1 04.03.2017 Sa 05.03.2017 15697 8256 23953 39 20 30 52 66 80 73 121
Clare Hollingworth Clare Hollingworth berichtete als Erste über den Ausbruch des Zweiten Weltkrieges. N 1 04.03.2017 Sa 05.03.2017 11370 6529 17899 28 16 22 57 67 64 65 94
Alte Synagoge (Bückeburg) Die Alte Synagoge in Bückeburg wurde im neo-islamischen Stil errichtet und dient heute als Königreichssaal der Zeugen Jehovas. J 1 05.03.2017 So 06.03.2017 8726 9172 17898 22 24 23 111 33 44 38 133
Alle Tage Das Gedicht Alle Tage von Ingeborg Bachmann ist fast 65 Jahre alt und immer noch viel zitiert. N 1 05.03.2017 So 06.03.2017 10541 13194 23735 26 34 30 132 67 76 71 113
Missodia Sionia Michael Praetorius’ 1611 veröffentlichte Missodia Sionia enthält eine achtstimmige Messe. J 1 06.03.2017 Mo 07.03.2017 2290 1191 3481 6 3 4 49 8 11 9 133
Anna Strohsahl Anna Strohsahl war die erste Ratsfrau im Cuxhavener Stadtparlament. N 1 06.03.2017 Mo 07.03.2017 6792 4561 11353 18 11 14 64 23 26 25 110
Koman (Albanien) Nach dem nordalbanischen Koman wurde eine archäologische Kultur benannt. J 1 07.03.2017 Di 10.03.2017 11054 2801 13855 27 8 18 29 27 21 24 76
Rügerrieth Das untergegangene Dorf Rügerrieth hat noch immer einen Bürgermeister. N 1 07.03.2017 Di 10.03.2017 34378 13629 48007 85 38 62 45 119 98 108 82
Aline Mayrisch de Saint-Hubert Aline Mayrisch de Saint-Hubert war die erste Frau, nach der in Luxemburg eine Schule benannt wurde. J 1 08.03.2017 Mi 09.03.2017 3714 4442 8156 10 11 11 120 10 34 22 325
Inez Milholland Schon 1913 demonstrierten tausende Frauen in Washington für ihre Rechte, angeführt von Inez Milholland. J 1 08.03.2017 Mi 09.03.2017 12023 2435 14458 31 6 19 20 34 19 26 55
Elga Kern Elga Kern gab Selbstaussagen von „führenden Frauen Europas“ heraus. N 1 08.03.2017 Mi 09.03.2017 4453 2006 6459 11 5 8 45 15 13 14 85
Františka Plamínková Františka Plamínková kämpfte gegen den Lehrerinnenzölibat. N 1 08.03.2017 Mi 09.03.2017 16448 9269 25717 42 24 33 56 57 60 58 107
Kasseler Berge Die Kasseler Berge sind geprägt von steilen Anstiegen und Gefällstrecken. J 1 10.03.2017 Fr 11.03.2017 33652 8856 42508 95 24 59 25 109 113 111 104
Hatsue Yuasa Die japanische Sängerin Hatsue Yuasa sorgte 1932 für einen Knalleffekt. N 1 10.03.2017 Fr 11.03.2017 22180 6116 28296 62 17 39 26 87 65 76 74
Mausoleum Graf Carl von Alten Nicht nur der Inhalt des Mausoleums des Grafen Carl von Alten fiel Plünderern zum Opfer. J 1 11.03.2017 Sa 12.03.2017 13159 6493 19652 36 15 25 42 60 59 59 99
Matthias Falter Der Nationalpreisträger Matthias Falter präsentierte 1954 den ersten in der DDR entwickelten Germanium-Transistor. N 1 11.03.2017 Sa 12.03.2017 5935 3732 9667 16 9 12 54 38 34 36 90
Inès de Bourgoing Inès de Bourgoing war die erste Frau, die mit dem Großkreuz der französischen Ehrenlegion ausgezeichnet wurde. J 1 12.03.2017 So 13.03.2017 8083 8868 16951 19 23 21 121 29 42 35 146
U 581 Das 1942 versenkte U-Boot U 581 dient Meeresbiologen heute als Studienobjekt. N 1 12.03.2017 So 13.03.2017 17590 27195 44785 41 70 55 171 105 154 129 147
HY4 HY4 fliegt mit Wasserstoff. J 1 13.03.2017 Mo 14.03.2017 29308 11529 40837 75 28 52 37 102 103 103 101
Lesbisches Aktionszentrum Westberlin Ohne das Lesbische Aktionszentrum Westberlin hätten sich viele Lesben nicht aus der Subkultur herausgetraut. N 1 13.03.2017 Mo 14.03.2017 12342 5776 18118 32 14 23 44 42 32 37 77
Fisenne (Adelsgeschlecht) Die alte reichsadelige Familie von Fisenne wurde gleich dreifach in den Freiherrenstand erhoben. J 1 14.03.2017 Di 15.03.2017 16459 5639 22098 40 14 27 36 40 37 38 94
Chronicon Altinate Obwohl sprachlich und inhaltlich wirr, ist das Chronicon Altinate eine der bedeutendsten Geschichtsquellen Venedigs. N 1 14.03.2017 Di 15.03.2017 6882 3495 10377 17 9 13 53 23 23 23 96
Dritter Angriffstunnel Der Dritte Angriffstunnel in Korea wurde als Kohlezeche ausgegeben. J 1 15.03.2017 Mi 16.03.2017 51940 18858 70798 131 52 91 39 144 153 149 107
Straßenbahn Invercargill Bis 1952 verkehrte in Invercargill die südlichste Straßenbahn der Welt. N 1 15.03.2017 Mi 16.03.2017 22889 10012 32901 58 27 43 47 77 69 73 89
Sophia Duleep Singh Die indische Prinzessin Sophia Duleep Singh gab ihren Schmuck für das Wahlrecht der Frauen her. J 1 16.03.2017 Do 17.03.2017 17461 7038 24499 48 19 33 39 46 52 49 113
CD63 CD63 dient in der Medizin als Marker für die Aktivierung bestimmter Immunzellen. N 1 16.03.2017 Do 17.03.2017 3820 2139 5959 10 6 8 55 17 19 18 113
Villa Badessa Villa Badessa in Italien wurde 1743 von albanischen Flüchtlingen gegründet. J 1 17.03.2017 Fr 18.03.2017 13078 2908 15986 35 7 21 21 40 34 37 85
Davoser Flachdach Das Davoser Flachdach schützt vor Schneelawinen. N 1 17.03.2017 Fr 18.03.2017 26516 8818 35334 71 22 46 31 99 86 92 87
Loch Ewe Distillery Die Loch Ewe Distillery in Drumchork ist die kleinste legal betriebene Destille Schottlands. J 1 18.03.2017 Sa 19.03.2017 12504 6002 18506 31 13 22 43 52 52 52 99
Ulrich Albrecht 1990 versuchte der Westberliner Friedensforscher Ulrich Albrecht‎, seine Vorstellungen in der noch bestehenden DDR umzusetzen. N 1 18.03.2017 Sa 19.03.2017 5239 3404 8643 13 7 10 58 31 29 30 96
Mary Anne Talbot Der englische Schiffsjunge John Taylor war eigentlich eine Amazone. J 1 19.03.2017 So 20.03.2017 27862 29315 57177 61 75 68 123 93 137 115 147
Osttimoresische Alpine Skimeisterschaft 2017 Ein Land ohne Schnee richtete 2017 die erste Osttimoresische Alpine Skimeisterschaft aus. N 1 19.03.2017 So 20.03.2017 8001 11356 19357 18 29 23 165 45 64 55 142
Punakha Dzong Der Punakha Dzong ist die Verwirklichung eines Traums. J 1 20.03.2017 Mo 21.03.2017 28100 8358 36458 72 20 46 28 98 75 86 76
Marburger Manifest Das Marburger Manifest von 1968 war der „Schwanengesang der Ordinarienuniversität“. N 1 20.03.2017 Mo 21.03.2017 7317 3703 11020 19 9 14 48 25 21 23 83
Ron Kroon Ron Kroon vermachte dem niederländischen Nationalarchiv und der Allgemeinheit über 8000 Pressefotos. J 1 21.03.2017 Di 22.03.2017 19168 2873 22041 47 8 27 17 46 21 34 44
Amt Liedberg Das Amt Liedberg diente den Kölner Erzbischöfen mehrfach als Pfand. N 1 21.03.2017 Di 22.03.2017 9414 5068 14482 23 14 18 61 32 35 34 110
Boyneburg und Schickeberg bei Breitau An den Zehn-Uhr-Klippen von Boyneburg und Schickeberg brüten Wanderfalken und Uhus. J 1 22.03.2017 Mi 23.03.2017 12977 3683 16660 36 14 25 39 39 41 40 105
Near beer Während der Prohibition in den USA floss das near beer in Strömen. N 1 22.03.2017 Mi 23.03.2017 31644 15139 46783 87 57 72 65 116 143 129 123
Sumpflerche Bei der Verteidigung ihrer Brut zeigt die Sumpflerche keine Angst vor großen Tieren. J 1 23.03.2017 Do 24.03.2017 9597 4284 13881 36 17 26 48 34 47 41 137
Elisabeth Kuyper Elisabeth Kuyper komponierte schon als Jugendliche eine Oper. N 1 23.03.2017 Do 24.03.2017 4819 2322 7141 18 9 14 51 29 31 30 107
Uljana Krawtschenko Die Liebe zur ukrainischen Sprache brachte Uljana Krawtschenko in Schwierigkeiten. J 1 24.03.2017 Fr 25.03.2017 12651 2878 15529 50 13 32 27 58 63 61 109
Eberhardsfässchen Das auf einer Kirchturmspitze angebrachte Eberhardsfässchen wurde während des Baus der Kirche nie leer. N 1 24.03.2017 Fr 25.03.2017 24609 7232 31841 98 34 66 34 137 132 134 96
Mogetissa Mogetissas Militärdiplom lag auf einer Baustelle. J 1 25.03.2017 Sa 26.03.2017 13749 6275 20024 64 26 45 40 107 101 104 94
Liste nationaler Bestweiten im Skispringen Skispringer aus 18 Ländern flogen bereits mehr als 200 Meter weit. N 1 25.03.2017 Sa 26.03.2017 5561 3370 8931 26 14 20 54 61 55 58 89
St. Johannes Baptista (Ringelheim) Die Decke der Kirche St. Johannes Baptista in Ringelheim wurde von einem Grafen ausgemalt. J 1 26.03.2017 So 27.03.2017 4148 3842 7990 17 16 16 91 26 29 27 110
Fini Pfannes Fini Pfannes setzte sich bereits 1955 für ein „Verbraucherministerium“ zur Aufklärung von Konsumenten ein. N 1 26.03.2017 So 27.03.2017 4427 5443 9870 18 22 20 121 47 49 48 104
V. K. Krishna Menon Der indische Verteidigungsminister V. K. Krishna Menon war auch Kommunalpolitiker in London. J 1 27.03.2017 Mo 28.03.2017 8916 2320 11236 36 10 23 26 49 35 42 71
Colour Ohne Farben setzt sich ein echter Rocker nie auf sein Motorrad. N 1 27.03.2017 Mo 28.03.2017 35004 17181 52185 142 71 107 50 188 163 175 86
Aberglasney House Zum walisischen Aberglasney House gehört ein Alpengarten. J 1 28.03.2017 Di 29.03.2017 12708 3786 16494 52 16 34 30 52 41 46 78
Willie Keil Willie Keil ging als „Pickled Pioneer“ in die Geschichte ein. N 1 28.03.2017 Di 29.03.2017 14954 8595 23549 62 35 49 57 87 90 88 104
Aldershot Narrow Gauge Suspension Railway Die Aldershot Narrow Gauge Suspension Railway ist tiefergelegt. J 1 29.03.2017 Mi 30.03.2017 22426 8069 30495 92 35 63 38 101 103 102 102
Hans Conried Hans Conried lieh Captain Hook seine Stimme. N 1 29.03.2017 Mi 30.03.2017 7951 4424 12375 33 19 26 58 44 48 46 110
Jongmyo Im Jongmyo-Schrein werden noch jährlich Rituale abgehalten, um die Ahnen der koreanischen Könige zu ehren. J 1 30.03.2017 Do 31.03.2017 9952 2806 12758 43 13 28 30 41 35 38 86
Flechtenexposition Die Flechtenexposition nutzt die Unfähigkeit von Flechten, über die Luft aufgenommene Schadstoffe wieder auszuscheiden. N 1 30.03.2017 Do 31.03.2017 14238 5611 19849 61 26 43 42 98 85 91 87
Villa rustica (Köln-Müngersdorf) In der römischen Villa rustica in Köln-Müngersdorf lebte die erste nachgewiesene Hauskatze in Germanien. J 1 31.03.2017 Fr 01.04.2017 22208 4064 26272 102 20 61 20 117 96 106 82
Dominic Deville Der Kindergärtner Dominic Deville ging als professioneller Kinderschreck auf Tour. N 1 31.03.2017 Fr 01.04.2017 17425 4242 21667 80 21 50 27 111 83 97 75
Piasecki PV-2 Die Piasecki PV-2 brauchte fünf Stunden, um erstmals abzuheben. J 1 01.04.2017 Sa 02.04.2017 17542 9625 27167 88 44 66 50 148 172 160 116
Dark Jazz Dark Jazz wird als „Musik für nie gedrehte Filme“ beschrieben. N 1 01.04.2017 Sa 02.04.2017 4358 3165 7523 22 14 18 66 52 57 54 110
Mary Steen Das Fotografieren von Prinzen und Prinzessinnen brachte Mary Steen den Erfolg. J 1 02.04.2017 So 03.04.2017 7529 7007 14536 34 30 32 87 52 55 54 105
Moritz auf der Heide Moritz auf der Heide ist fast wöchentlich bei den Ultra-Trails Mitteleuropas anzutreffen. N 1 02.04.2017 So 03.04.2017 10729 14916 25645 49 64 56 130 125 140 133 112
The Protomen The Protomen schaffen auf Basis der Computerspielreihe Mega Man eine dystopische Rockoper. J 1 03.04.2017 Mo 04.04.2017 9588 2932 12520 41 13 27 32 56 47 52 85
Katharina Luther (Film) Im Film Katharina Luther sehen die Zuschauer die Welt des 16. Jahrhunderts mit den Augen einer Frau. N 1 03.04.2017 Mo 04.04.2017 13632 7921 21553 58 35 47 60 77 80 79 104
Leekfrith Torques Sondengänger entdeckten die Leekfrith Torques in etwa 15 Zentimeter Tiefe. J 1 04.04.2017 Di 05.04.2017 34174 12846 47020 151 56 104 37 150 147 149 99
Kobersfelsen Der Kobersfelsen wurde nach einem sagenhaft unglücklichen Ritter benannt. N 1 04.04.2017 Di 05.04.2017 19173 8454 27627 85 37 61 44 118 95 107 80
Burgruine Freyenstein Der Herr der Burg Freyenstein erhob einen unkonventionellen Wegezoll. J 1 05.04.2017 Mi 06.04.2017 37987 14898 52885 167 65 116 39 183 194 188 106
Trinkreife Trinkreife ist manchmal sofort gegeben, manchmal erst nach Jahren. N 1 05.04.2017 Mi 06.04.2017 23799 12313 36112 105 54 79 52 140 136 138 97
Jadera haematoloma Jadera haematoloma ist dem Namen nach „blutgesäumt“. J 1 06.04.2017 Do 07.04.2017 9609 4162 13771 42 19 30 45 40 52 46 129
1,000 Days, 1,000 Songs 1,000 Days, 1,000 Songs setzt jeden Tag ein Zeichen gegen die Politik Donald Trumps. N 1 06.04.2017 Do 07.04.2017 14008 7068 21076 61 32 47 52 98 106 102 108
Franz Geerz Franz Geerz soll „jedes Dorf, jeden Sumpf, jeden Weiler in Schleswig-Holstein“ gekannt haben. J 1 07.04.2017 Fr 08.04.2017 17255 2905 20160 78 15 47 19 90 71 80 79
Die zwölf Monate (2012) Die zwölf Monate haben Maruška aus der Not geholfen. N 1 07.04.2017 Fr 08.04.2017 10363 2733 13096 47 14 31 30 65 56 61 85
Schatullrechnungen Friedrichs des Großen Die Schatullrechnungen Friedrichs des Großen dokumentieren, dass der König weniger bescheiden lebte als angenommen. J 1 08.04.2017 Sa 09.04.2017 13765 6778 20543 72 34 53 48 120 134 127 112
Kleiner Hermann Der Kleine Hermann schaut zum großen. N 1 08.04.2017 Sa 09.04.2017 8057 5516 13573 42 28 35 67 99 110 104 111
T. Cooke & Sons 1869 vollendete T. Cooke & Sons das damals weltgrößte Refraktorteleskop. J 1 09.04.2017 So 10.04.2017 5999 5698 11697 30 25 28 84 46 47 46 101
Tietjenapfel Dem Tietjenapfel wird 2017 eine besondere Ehre zuteil. N 1 09.04.2017 So 10.04.2017 7945 11855 19800 40 53 47 131 103 117 110 113
Czarny Protest Der #czarnyprotest bewegte das polnische Parlament zu einer Kehrtwende. J 1 10.04.2017 Mo 11.04.2017 10110 3475 13585 45 16 30 35 61 57 59 93
Landesmusikrat Baden-Württemberg Der Landesmusikrat Baden-Württemberg vertritt die Interessen von 1,6 Millionen Menschen. N 1 10.04.2017 Mo 11.04.2017 2608 1353 3961 12 6 9 52 15 14 15 90
Hibaku jumoku Hibaku jumoku haben den Atombombenabwurf auf Hiroshima überlebt. J 1 11.04.2017 Di 12.04.2017 43186 17273 60459 194 79 137 41 193 207 200 107
Papierboote Papierboote waren ein beliebtes Motiv der Vasenmalerei im antiken Kreta. N 1 11.04.2017 Di 12.04.2017 12364 7136 19500 56 33 44 59 78 83 81 107
Nikolaikirche (Meißen) Die weltweit größten Figuren aus Meißner Porzellan stehen in der Meißner Nikolaikirche. J 1 12.04.2017 Mi 13.04.2017 15246 5734 20980 70 27 49 39 77 81 79 105
NGC 7088 NGC 7088 lässt sich einfach nicht fotografieren. N 1 12.04.2017 Mi 13.04.2017 34034 16575 50609 156 78 117 50 209 198 203 95
James Wilson (Globenhersteller) Der Farmer James Wilson war der erste Globenhersteller in den Vereinigten Staaten. J 1 13.04.2017 Do 14.04.2017 12388 2824 15212 59 14 36 24 56 38 47 68
Canan Arin Die türkische Frauenrechtlerin Canan Arin wirft dem Präsidenten ihres Landes die Etablierung patriarchaler Strukturen vor. N 1 13.04.2017 Do 14.04.2017 6678 1908 8586 32 9 21 30 50 31 41 62
Brough Superior Dream Die Brough Superior Dream war nur ein vergoldeter Traum. J 1 14.04.2017 Fr 15.04.2017 12072 3870 15942 60 20 40 33 68 93 81 137
Stabat Mater (Jenkins) Karl Jenkins vertonte das lateinische Stabat Mater mit Instrumenten des Nahen Ostens. N 1 14.04.2017 Fr 15.04.2017 2011 1094 3105 10 6 8 56 14 22 18 159
Nordchinakraton Der Nordchinakraton lag einst in der Nähe des Nordpols. J 1 15.04.2017 Sa 16.04.2017 12136 5134 17270 62 26 44 42 104 102 103 97
Virginia Grace Die im Mittelmeerraum tätige Archäologin Virginia Grace arbeitete im Zweiten Weltkrieg als Agentin für die USA. N 1 15.04.2017 Sa 16.04.2017 5369 3520 8889 27 18 23 65 65 70 67 108
Schmetterling (Kaninchen) Die Schmetterlingszeichnung ist ein Bewertungsmerkmal für Zuchtkaninchen. J 1 16.04.2017 So 17.04.2017 4348 2897 7245 22 14 18 63 34 25 29 76
Abraham Poincheval Der Performancekünstler Abraham Poincheval brütet seit dem 29. März 2017 öffentlich Hühnereier aus. N 1 16.04.2017 So 17.04.2017 4238 3601 7839 21 17 19 80 55 38 46 69
Reventlou-Beseler-Denkmal Vom Schleswiger Reventlou-Beseler-Denkmal ist nur noch der Obelisk erhalten. J 1 17.04.2017 Mo 18.04.2017 7385 5618 13003 35 25 30 70 48 92 70 190
Louis Étienne Thirioux Der Amateurpaläontologe Louis Étienne Thirioux fand zwei nahezu vollständige Dodo-Skelette. N 1 17.04.2017 Mo 18.04.2017 6238 8658 14896 30 38 34 129 40 88 64 223
Hafen von Thessaloniki Der Hafen von Thessaloniki wurde vor 2300 Jahren planmäßig angelegt. J 1 18.04.2017 Di 19.04.2017 17089 9846 26935 76 45 60 59 75 118 96 156
Jiří Žák Der ehemalige Buchenwald-Häftling Jiří Žák übersetzte Bruno Apitz’ Buchenwald-Roman Nackt unter Wölfen. N 1 18.04.2017 Di 19.04.2017 8776 4653 13429 39 21 30 55 55 54 54 99
Rocket “88” War Rocket “88” der erste Rock-’n’-Roll-Song? J 1 19.04.2017 Mi 20.04.2017 23589 7720 31309 108 36 72 33 118 107 112 90
Klexikon Klexikon ist die Wikipedia für Kinder. N 1 19.04.2017 Mi 20.04.2017 12502 6002 18504 57 28 43 49 76 70 73 92
Bindenerdracke Die Bindenerdracke ist nur auf Madagaskar zu finden. J 1 20.04.2017 Do 21.04.2017 9368 6744 16112 44 32 38 73 42 88 65 211
Sechsunddreißig Stunden Ödön von Horváths erster Roman Sechsunddreißig Stunden wurde posthum veröffentlicht. N 1 20.04.2017 Do 21.04.2017 4883 2479 7362 23 12 17 52 36 39 38 107
Rechtsschutzverein für die bergmännische Bevölkerung des Oberbergamtsbezirks Bonn Der Rechtsschutzverein für die bergmännische Bevölkerung des Oberbergamtsbezirks Bonn war die erste Gewerkschaft der Bergleute im Saargebiet. J 1 21.04.2017 Fr 22.04.2017 3418 886 4304 16 5 10 28 19 22 20 117
Barbara Myerhoff Die Dokumentation Number Our Days über Barbara Myerhoffs Forschung in einem Seniorenzentrum gewann einen Oscar. N 2 21.04.2017 Fr 22.04.2017 1289 479 1768 6 2 4 41 9 10 9 115
Number Our Days Die Dokumentation Number Our Days über Barbara Myerhoffs Forschung in einem Seniorenzentrum gewann einen Oscar. N 2 21.04.2017 Fr 22.04.2017 3235 1132 4367 15 6 11 38 21 23 22 108
Katholisches Vereinshaus Treviris Das historische Vereinshaus Treviris musste einer modernen Passage weichen. J 1 22.04.2017 Sa 23.04.2017 7390 3184 10574 38 16 27 40 65 61 63 94
Fearless Girl Fearless Girl blickt dem Wallstreet-Bullen furchtlos in die Augen. N 1 22.04.2017 Sa 23.04.2017 10035 6478 16513 52 32 42 61 123 124 124 101
Café du Monde Das Café du Monde schließt nur zu Weihnachten und während eines Hurrikans. J 1 23.04.2017 So 24.04.2017 14900 16192 31092 73 72 73 99 111 132 122 119
Peter Schönhoff Der Kulturfunktionär Peter Schönhoff wurde 1977 wegen Protesten aus der SED ausgeschlossen. N 1 23.04.2017 So 24.04.2017 5432 5539 10971 27 25 26 93 68 54 61 80
Piasecki HRP Piasecki HRP war der erste Tandemhubschrauber, der mehr als nur schwebte. J 1 24.04.2017 Mo 25.04.2017 37344 10303 47647 167 47 107 28 227 173 200 76
Mein Leben in Luxus Mein Leben in Luxus gilt als eine „in ihrer Gesellschaftskritik boshafte Komödie“ über die Great Depression. N 1 24.04.2017 Mo 25.04.2017 9186 5640 14826 41 26 33 63 54 59 57 109
Kellertheater Bremgarten Das Kellertheater Bremgarten befindet sich im zweiten Stock. J 1 25.04.2017 Di 26.04.2017 7271 2444 9715 33 11 22 34 33 30 31 90
Seidiger Pillenwälzer Der Seidige Pillenwälzer kann ohne Unterbrechung fast das Doppelte seines Körpergewichts an Dung fressen. N 1 25.04.2017 Di 26.04.2017 11647 6412 18059 53 30 41 56 75 76 75 102
Claudia Rankine Claudia Rankine fragt, was es ausmacht, weiß zu sein. J 1 26.04.2017 Mi 27.04.2017 23064 7496 30560 107 36 71 33 117 106 112 91
Bibliothek des Deutschen Fußballs Die Bibliothek des Deutschen Fußballs wird von Fans für Fans geschrieben. N 1 26.04.2017 Mi 27.04.2017 6090 3516 9606 28 17 22 59 38 42 40 112
NSB Type 19a Die Lokomotiven der Type 19a waren im Jahr 1902 die stärksten bis dahin in der Schweiz gebauten. J 1 27.04.2017 Do 28.04.2017 23351 7433 30784 111 37 74 33 107 101 104 95
Diplomatic Clearance Ohne Diplomatic Clearance darf kein staatliches Luftfahrzeug fremdes Territorium überfliegen. N 1 27.04.2017 Do 28.04.2017 19154 6250 25404 91 31 61 34 146 102 124 70
Laufbrunnen Laufbrunnen waren wesentliche Elemente der Trinkwasserversorgung. J 1 28.04.2017 Fr 29.04.2017 23118 5652 28770 114 31 72 27 131 145 138 111
Diethelm Scheer Der Fischereiwissenschaftler Diethelm Scheer wurde aus dem KZ Auschwitz entlassen, musste aber weiterhin dort arbeiten. N 1 28.04.2017 Fr 29.04.2017 19804 6235 26039 98 34 66 35 136 133 135 98
Meilenblätter von Sachsen Die Meilenblätter von Sachsen weckten viele Begehrlichkeiten. J 1 29.04.2017 Sa 30.04.2017 13676 4582 18258 75 25 50 33 126 98 112 78
Joy Villa Der neue US-Präsident brachte Joy Villa endlich den wirtschaftlichen Erfolg. N 1 29.04.2017 Sa 30.04.2017 11319 5554 16873 62 30 46 49 146 119 133 82
VDI-Haus Das letzte VDI-Haus in Berlin wurde 1945 von den Alliierten beschlagnahmt. J 1 30.04.2017 So 01.05.2017 14650 7370 22020 80 37 58 46 122 67 94 55
Robert Moresby Robert Moresby hatte maßgeblichen Anteil an der Vermessung und Kartographierung des Indischen Ozeans. N 1 30.04.2017 So 01.05.2017 3191 2598 5789 17 13 15 74 45 28 36 64
Rite of the single shoe Bei der Einführung des Ó Néill wurde ein einzelner Schuh über den neuen Häuptling geworfen. J 1 01.05.2017 Mo 02.05.2017 12772 11472 24244 63 52 58 82 86 191 138 222
ETOPS Durch ETOPS dürfen die Airlines den Nordatlantik auch mit zweistrahligen Jets ohne Umweg überqueren. N 1 01.05.2017 Mo 02.05.2017 17668 15454 33122 88 70 79 80 116 161 138 139
William Cavendish, 6. Duke of Devonshire William Cavendish, 6. Duke of Devonshire züchtete ausgerechnet Bananen. J 1 02.05.2017 Di 03.05.2017 21004 7365 28369 95 34 64 35 95 88 91 93
Holstein-Lauenburgisches Bundeskontingent Vom Deutschen Bund aufgestellt, trug das Holstein-Lauenburgische Bundeskontingent dänische Uniformen. N 1 02.05.2017 Di 03.05.2017 8140 5236 13376 37 24 30 65 52 61 56 117
Carl Rasmussen Das Meer wurde dem Marinemaler Carl Rasmussen zum Verhängnis. J 1 03.05.2017 Mi 04.05.2017 29796 9607 39403 136 44 90 33 148 132 140 89
Pester Power Eltern fürchten Pester Power. N 1 03.05.2017 Mi 04.05.2017 32275 18356 50631 147 85 116 58 196 214 205 109
Blitzableiter in der französischen Mode Im 18. Jahrhundert gab es Blitzableiter in der französischen Mode. J 1 04.05.2017 Do 05.05.2017 20952 7184 28136 97 35 66 36 93 96 95 104
Münch-4 TTS 1200 Auf der Mammut saßen angeblich nur Männer. N 1 04.05.2017 Do 05.05.2017 40550 15946 56496 188 78 133 41 300 257 278 86
Familienbildnis (Rembrandt) Die Kinder in Rembrandts Familienbildnis galten als „äußerst hässlich“ und „zurückgeblieben“. J 1 05.05.2017 Fr 06.05.2017 25899 6885 32784 126 39 82 31 145 183 164 126
Ernst Klink Der Historiker Ernst Klink betrieb im Militärgeschichtlichen Forschungsamt der Bundeswehr Geschichtsklitterung zugunsten der Waffen-SS. N 1 05.05.2017 Fr 06.05.2017 17131 5239 22370 83 29 56 35 116 116 116 99
Wharram Percy In der englischen Wüstung Wharram Percy fanden sich archäologische Nachweise, dass Verstorbene geköpft und verbrannt wurden. J 1 06.05.2017 Sa 07.05.2017 10205 6011 16216 57 29 43 51 96 114 105 118
Earl of East Anglia Den Titel des Earls of East Anglia gab es keine 60 Jahre lang. N 1 06.05.2017 Sa 07.05.2017 6786 5006 11792 38 24 31 64 90 96 93 106
Schloss Eichholz (Warmątowice Sienkiewiczowskie) Das niederschlesische Schloss Eichholz sollten nach Willen seines Eigentümers nur „echte Polen“ erben. J 1 07.05.2017 So 08.05.2017 10286 10613 20899 50 48 49 96 76 88 82 116
Fabrizia Ramondino Erst nach ihrem Tod bemerkte die Öffentlichkeit, dass Fabrizia Ramondino und Elena Ferrante nicht dieselbe Person sind. N 1 07.05.2017 So 08.05.2017 14038 19893 33931 68 90 79 132 175 199 187 114
Kraftwerk der Frankfurt-Offenbacher Trambahn-Gesellschaft Das Kraftwerk der Frankfurt-Offenbacher Trambahn-Gesellschaft gab seinen elektrischen Strom auch an private Haushalte ab. J 1 08.05.2017 Mo 09.05.2017 13023 4106 17129 59 20 39 33 80 72 76 90
Biche Die Hündin Biche war auf Französisch anzusprechen und zu siezen. N 1 08.05.2017 Mo 09.05.2017 32502 17164 49666 147 82 115 56 195 189 192 97
Albania Tarantina In der Albania Tarantina wurden zwischen 1470 und 1530 Siedlungen von albanischen Soldaten und Flüchtlingen gegründet. J 1 09.05.2017 Di 10.05.2017 18336 6134 24470 88 30 59 34 87 78 83 89
Henriette Gödde 2016 gewann die Altistin Henriette Gödde den alle vier Jahre stattfindenden Internationalen Robert-Schumann-Wettbewerb. N 1 09.05.2017 Di 10.05.2017 4488 2468 6956 22 12 17 56 30 30 30 101
Dreigang-Laubenvogel Der Dreigang-Laubenvogel braucht vier Wände. J 1 10.05.2017 Mi 11.05.2017 15741 8396 24137 76 41 59 54 84 122 103 146
Temple of Speed Beim Musikprojekt Temple of Speed dreht sich alles um die Zahl 10. N 1 10.05.2017 Mi 11.05.2017 5895 3247 9142 29 16 22 56 38 40 39 105
Kloster Ringelheim Über Jahrhunderte wurde nicht bemerkt, dass das Gründungsjahr 900 des Klosters Ringelheim auf einem Rechenfehler beruhte. J 1 11.05.2017 Do 12.05.2017 25592 7835 33427 125 40 82 32 120 109 115 91
Romanzo Criminale (Roman) Richter De Cataldo machte der Magliana-Bande den Prozess, ehe er sie in Romanzo Criminale verarbeitete. N 1 11.05.2017 Do 12.05.2017 4163 1924 6087 20 10 15 48 33 32 32 99
(GI) Das minimalistische Artwork von (GI) trug dazu bei, die wie ein Erpresserbrief gestalteten Punk-Covers zu verdrängen. J 1 12.05.2017 Fr 13.05.2017 17949 2733 20682 91 15 53 17 104 73 89 70
Otto F. Babler Der Übersetzer Otto F. Babler sah sich als „Werkmann am Buch“. N 1 12.05.2017 Fr 13.05.2017 2355 735 3090 12 4 8 35 17 16 16 98
Pickett-Hamilton Fort Das Pickett-Hamilton Fort wurde umgangssprachlich Pop Up Pillbox genannt. J 1 13.05.2017 Sa 14.05.2017 13674 4449 18123 77 24 51 31 130 92 111 71
Tube map Harry Becks Tube Map war wegweisend für die Gestaltung von U-Bahn-Netzplänen weltweit. N 1 13.05.2017 Sa 14.05.2017 8514 6161 14675 48 33 40 68 114 129 121 113
Katti Anker Møller Katti Anker Møller setzte sich in Norwegen für die ledigen Mütter ein. J 1 14.05.2017 So 15.05.2017 4977 4260 9237 26 20 23 77 40 37 39 92
Ayelet Waldman Ayelet Waldman bezeichnet sich als „schlechte Mutter“ ihrer vier Kinder. N 1 14.05.2017 So 15.05.2017 7348 10405 17753 39 50 44 127 100 110 105 110
Mississippi River and Bonne Terre Railway Die Entscheidung, die Mississippi River and Bonne Terre Railway als Schmalspurbahn zu bauen, wurde schnell wieder rückgängig gemacht. J 1 15.05.2017 Mo 16.05.2017 22998 6754 29752 110 33 71 30 150 121 135 81
Henrich Hansen Henrich Hansen indoktrinierte Monat für Monat Millionen Schüler. N 1 15.05.2017 Mo 16.05.2017 25356 14815 40171 121 72 97 60 160 166 163 103
Fuselage Styling Fuselage Styling brachte den Flugzeugrumpf auf die Straße. J 1 16.05.2017 Di 17.05.2017 40172 8888 49060 196 45 121 23 195 119 157 61
Bremer Silbermünzenfund Der Bremer Silbermünzenfund stammt aus einer Baugrube für ein Damenschwimmbecken. N 1 16.05.2017 Di 17.05.2017 19002 8378 27380 93 43 68 46 130 109 120 84
Wölkerkogel Die „Miaz“ auf dem Wölkerkogel wacht mit steinerner Miene über die Weststeiermark. J 1 17.05.2017 Mi 18.05.2017 10874 5358 16232 56 27 41 48 61 79 70 129
Die Schwarze aus Dakar Die Schwarze aus Dakar gilt als einer der Wegbereiter des afrikanischen Kinos. N 1 17.05.2017 Mi 18.05.2017 7862 4859 12721 40 24 32 60 54 61 57 113
Brunede kartofler In Dänemark waren brunede kartofler früher ein Ersatz für Kastanien. J 1 18.05.2017 Do 19.05.2017 25015 7001 32016 124 35 79 28 119 96 108 81
Verkehrswende Eine Verkehrswende zielt auf CO2-Emissionen – bringt aber auch einen kulturellen Wandel. N 1 18.05.2017 Do 19.05.2017 9100 4742 13842 45 24 34 53 72 78 75 109
Compagnie des phosphates et des chemins de fer de Gafsa Die meisten Dampflokomotiven für die Gafsa-Bahn in Tunesien wurden in der Schweiz gebaut. J 1 19.05.2017 Fr 20.05.2017 16077 2291 18368 80 13 47 16 92 62 77 67
Eberhard Brandl Eberhard Brandl war am Wiederaufbau des Berliner Reichstagsgebäudes beteiligt. N 1 19.05.2017 Fr 20.05.2017 7642 1800 9442 38 10 24 27 53 40 47 76
Filmmuseum Bendestorf Hildegard Knef sündigte in den Bendestorfer Filmstudios. J 1 20.05.2017 Sa 21.05.2017 9408 3762 13170 54 21 37 39 90 83 86 91
Dû bist mîn, ich bin dîn Dû bist mîn, ich bin dîn gehört nicht zum Minnesang. N 1 20.05.2017 Sa 21.05.2017 7971 4515 12486 46 25 35 56 108 99 104 92
Tunanlegg Die einstige Funktion der frühgeschichtlichen Tunanlegg in Norwegen ist bis heute nicht geklärt. J 1 21.05.2017 So 22.05.2017 13985 16497 30482 78 80 79 102 120 147 133 123
Jan-Albert Lantink Jan-Albert Lantink stellte während eines Rennens zwei neue Weltrekorde auf. N 1 21.05.2017 So 22.05.2017 5340 8784 14124 30 43 36 143 77 94 85 123
Sophia Amoruso Sophia Amoruso stieg steil und fiel tief; Netflix zeigt nur den ersten Teil. J 1 22.05.2017 Mo 23.05.2017 55149 11992 67141 269 58 163 22 365 212 289 58
Maffie Aktivisten der staatsfeindlichen und illegalen Maffie wurden später vom Staat ausgezeichnet. N 1 22.05.2017 Mo 23.05.2017 13883 6038 19921 68 29 48 43 89 67 78 75
Bronzespiegel von Volterra Auf dem etruskischen Bronzespiegel von Volterra gibt eine Frau einem Mann die Brust. J 1 23.05.2017 Di 24.05.2017 22673 9670 32343 109 50 80 46 109 131 120 121
Kidd Mine Die Kidd Mine ist das tiefste Buntmetall­bergwerk der Welt. N 1 23.05.2017 Di 24.05.2017 19778 11461 31239 96 60 78 62 134 152 143 113
Red Hook Stores Wo früher Baumwolle gelagert wurde, findet man heute teure und begehrte Lofts. J 1 24.05.2017 Mi 25.05.2017 17877 4363 22240 93 26 59 28 102 76 89 75
Korean Peninsula Energy Development Organization Die Korean Peninsula Energy Development Organization versuchte schon vor über 20 Jahren, Nordkorea zur Aufgabe des Atomprogramms zu bewegen. N 1 24.05.2017 Mi 25.05.2017 3442 1029 4471 18 6 12 34 24 15 20 64
Washington Cemetery (Brooklyn) Der Washington Cemetery wurde zum bevorzugten Friedhof für Little Odessa. J 1 25.05.2017 Do 26.05.2017 6809 4418 11227 40 25 33 62 38 69 54 179
Elisabeth Johansen Elisabeth Johansen war die erste Frau, die in Grönland ein politisches Amt ausübte. N 1 25.05.2017 Do 26.05.2017 3216 2946 6162 19 17 18 88 30 55 43 182
Cornfield Bomber Ohne Besatzung landete der „Cornfield Bomber“ fast unbeschädigt auf einem Acker. J 1 26.05.2017 Fr 27.05.2017 39743 11204 50947 225 70 148 31 258 332 295 128
Beatrix Palt Die Erziehungswissenschaftlerin Beatrix Palt berät die Bundeswehr. N 1 26.05.2017 Fr 27.05.2017 6777 2586 9363 38 16 27 42 53 64 59 119
Schienenverkehr in Brunei Für den Schienenverkehr in Brunei wurden auch ungewöhnliche Spurweiten gewählt. J 1 27.05.2017 Sa 28.05.2017 11337 5903 17240 71 34 53 48 120 133 126 111
Theater Salz + Pfeffer In den Räumen des Theaters Salz + Pfeffer wurden vordem auch FKK-Filme gespielt. N 1 27.05.2017 Sa 28.05.2017 7016 4284 11300 44 25 34 56 104 97 100 93
Pavel Fantl Der Arzt Pavel Fantl konnte einige seiner Karikaturen aus dem Ghetto Theresienstadt schmuggeln. J 1 28.05.2017 So 29.05.2017 8340 8340 16680 48 42 45 87 73 76 75 104
Pom Pom Pom Pom und Schleifchen erlebten Abenteuer mit Arthur dem Kloß und dem farbenniesenden Hatschibumm. N 1 28.05.2017 So 29.05.2017 6402 10039 16441 37 50 44 136 94 111 102 117
Michael Berolzheimer Zu den rund 1400 Werken in Michael Berolzheimers Kunstsammlung zählte eine Ölskizze des Armen Poeten von Carl Spitzweg. J 1 29.05.2017 Mo 30.05.2017 6728 2012 8740 34 10 22 30 46 36 41 80
Schlucht von Modřany Die Schlucht von Modřany ist eines von zahlreichen Naturdenkmälern im Stadtgebiet von Prag. N 1 29.05.2017 Mo 30.05.2017 14357 7628 21985 72 38 55 52 95 86 91 91
Bretterwandbach Um vor Muren des Bretterwandbaches zu warnen, schwenkten die Bewohner hochliegender Bergbauernhöfe in früherer Zeit große Tücher oder feuerten Böller ab. J 1 30.05.2017 Di 31.05.2017 23889 6955 30844 118 36 77 30 117 93 105 79
Zehnzylindermotor Erst gesetzliche Vorgaben führten zur Entwicklung von Zehnzylindermotoren. N 1 30.05.2017 Di 31.05.2017 34364 13267 47631 170 68 119 40 238 173 205 73
Jakob Joseph Matthys Der Schweizer Pfarrer Jakob Joseph Matthys breitete in seiner Lebensbeschreibung seinen Frust in 35 Sprachen aus. J 1 31.05.2017 Mi 01.06.2017 14741 4476 19217 75 23 49 31 83 69 76 83
Osttimoresischer Reisepass Mit einem osttimoresischen Reisepass kann man ohne Visum in die EU einreisen. N 1 31.05.2017 Mi 01.06.2017 20644 9819 30463 106 51 78 48 141 128 135 91
Hasendraht Hasendraht eignet sich nicht für Kaninchengehege. J 1 01.06.2017 Do 02.06.2017 38758 11703 50461 201 63 132 32 192 175 184 91
African Institute for Mathematical Sciences Das African Institute for Mathematical Sciences bezeichnen Studierende scherzhaft als „Afrikanisches Institut für sehr wenig Schlaf“. N 1 01.06.2017 Do 02.06.2017 7672 3856 11528 40 21 30 53 63 69 66 109
Kbal Spean Das in den 1050er Jahren geschaffene Felsrelief Kbal Spean wurde erst 1968 wiederentdeckt. J 1 02.06.2017 Fr 03.06.2017 25393 5312 30705 138 33 85 24 158 154 156 97
Tiny Hands Mit Tiny Hands lieferte Fiona Apple den Schlachtruf für den Women’s March on Washington. N 1 02.06.2017 Fr 03.06.2017 8444 2247 10691 46 14 30 30 64 54 59 85
Teppichklopfmaschine Die Teppichklopfmaschine gilt als selbstfahrende Arbeitsmaschine. J 1 03.06.2017 Sa 04.06.2017 11038 5231 16269 68 31 49 45 114 119 117 105
Bryan Smith (Leichtathlet) Bryan Smith war der erfolgreichste Ultraläufer Australiens. N 1 03.06.2017 Sa 04.06.2017 5216 3378 8594 32 20 26 62 76 77 77 102
Geschichte der Juden in Japan Die Geschichte der Juden in Japan wird geprägt durch die Rettung tausender Juden vor dem Holocaust. J 1 04.06.2017 So 05.06.2017 13541 5849 19390 79 33 56 41 120 60 90 50
Campus Minden Der Campus Minden ist in einer denkmalgeschützten Artilleriekaserne untergebracht. N 1 04.06.2017 So 05.06.2017 5270 3063 8333 31 17 24 56 79 38 58 48
Emil Weise Unter Oberbürgermeister Emil Weise entwickelte sich Kassel zu einer aufstrebenden Industriemetropole. J 1 05.06.2017 Mo 06.06.2017 5254 5574 10828 29 28 29 95 40 102 71 255
Liam Stewart Liam Stewart, Sohn von Rod Stewart, spielt als Center in der höchsten britischen Eishockeyliga. N 1 05.06.2017 Mo 06.06.2017 7419 9284 16703 41 46 44 112 55 106 80 193
Bung-Tomo-Klasse Die indonesischen Korvetten der Bung-Tomo-Klasse wurden ursprünglich von der Royal Brunei Navy bestellt. J 1 06.06.2017 Di 07.06.2017 26649 5809 32458 133 29 81 22 132 77 104 58
Slowenisches biographisches Lexikon Das Slovenski biografski leksikon hat wie sonst kein anderes Werk zur Nationenbildung Sloweniens beigetragen. N 1 06.06.2017 Di 07.06.2017 4494 2067 6561 22 10 16 47 31 27 29 85
Motto-Ferrari Als Neuwagen wurden nur drei Motto-Ferrari karossiert. J 1 07.06.2017 Mi 08.06.2017 21538 11916 33454 109 63 86 58 119 186 153 157
Missa brevis C-Dur (Brixi) František Xaver Brixi, Chorleiter am Veitsdom in Prag, schrieb die Missa aulica für vier Stimmen, Trompeten und Pauken, zwei Violinen, Orgel und Continuo. N 1 07.06.2017 Mi 08.06.2017 1577 845 2422 8 4 6 56 11 11 11 106
Jōmon-Venus Die über 4000 Jahre alte Jōmon-Venus gehört zu den Nationalschätzen Japans. J 1 08.06.2017 Do 09.06.2017 5002 5935 10937 26 32 29 121 25 88 56 347
Kubanisch-osttimoresische Beziehungen Die Inselstaaten Kuba und Osttimor haben trotz der Entfernung sehr enge Beziehungen. N 1 08.06.2017 Do 09.06.2017 6730 3229 9959 35 17 26 49 57 57 57 101
Kahnakten Die Restaurierung der 1945 versunkenen Kahnakten ist noch nicht abgeschlossen. J 1 09.06.2017 Fr 10.06.2017 31716 5961 37677 170 37 103 22 195 175 185 90
0-Euro-Schein 0-Euro-Scheine sind selten kostenlos. N 1 09.06.2017 Fr 10.06.2017 42176 14338 56514 226 89 158 39 315 349 332 111
When the Levee Breaks Der von Led Zeppelin interpretierte Bluesklassiker When the Levee Breaks schildert die Angst vor einem Deichbruch. J 1 10.06.2017 Sa 11.06.2017 4673 2586 7259 29 15 22 52 49 60 54 122
Balthazar-Pascal Celse Balthazar-Pascal Celse kam als „Prinz von Timor“ an den Königshof Ludwigs XV. N 1 10.06.2017 Sa 11.06.2017 4907 3517 8424 31 21 26 68 72 81 77 113
Bessillon Der Bessillon war im Zweiten Weltkrieg Zufluchtsort französischer Widerstandskämpfer. J 1 11.06.2017 So 12.06.2017 14922 12756 27678 88 64 76 73 134 117 126 88
Neuendorf (Teichland) In Neuendorf in der Niederlausitz ist ein Ostsee-Hafen geplant. N 1 11.06.2017 So 12.06.2017 9240 13761 23001 54 69 62 127 139 153 146 109
Gymnasium Neue Oberschule Die Braunschweiger Neue Oberschule ist weder neu noch Oberschule. J 1 12.06.2017 Mo 13.06.2017 14922 5686 20608 75 30 52 39 102 108 105 106
Patricia Lockwood Patricia Lockwood twittert sexts. N 1 12.06.2017 Mo 13.06.2017 21063 8914 29977 106 46 76 44 140 106 123 76
Moulin Rouge Hotel Das Moulin Rouge Hotel war das erste Hotelcasino in Las Vegas und auf dem Strip ohne Rassendiskriminierung. J 1 13.06.2017 Di 14.06.2017 16390 6029 22419 85 33 59 38 85 85 85 101
Thomas Francine Thomas Francine brachte Wasserspiele von seiner italienischen Heimat in die Schlossgärten Frankreichs. N 1 13.06.2017 Di 14.06.2017 4957 2274 7231 26 12 19 48 36 31 34 87
Boat Quay Die historischen Gebäude am Boat Quay in Singapur werden heute als Restaurants und Läden genutzt. J 1 14.06.2017 Mi 15.06.2017 9171 3217 12388 50 18 34 37 54 54 54 100
Hans Häberlin Der Grönenbacher Hans Häberlin wurde wegen seiner reformatorischen Predigten am 14. Juni 1526 gehängt. N 1 14.06.2017 Mi 15.06.2017 11963 6232 18195 65 35 50 55 86 89 88 103
Ali Neffati Der Tunesier Ali Neffati bestritt Radrennen mit einem Fes auf dem Kopf. J 1 15.06.2017 Do 16.06.2017 14550 7708 22258 82 42 62 51 79 116 97 146
Panna Czinka Die berühmte Roma-Violinistin Panna Czinka spielte in einer Männerdomäne die erste Geige. N 1 15.06.2017 Do 16.06.2017 4814 3171 7985 27 17 22 63 44 57 50 131
Singapore (Michigan) Singapore versank nach einem Brand im Sand. J 1 16.06.2017 Fr 17.06.2017 36737 5402 42139 200 33 116 17 229 156 193 68
Wilhelmine von Gersdorff Die sächsische Schriftstellerin Wilhelmine von Gersdorff schrieb sehr viel und unter acht Pseudonymen. N 1 16.06.2017 Fr 17.06.2017 5435 1625 7060 30 10 20 34 41 39 40 95
Rentershofener Bahndamm Der Rentershofener Bahndamm gilt als „größter von Menschenhand geschaffener Bahndamm der Welt“. J 1 17.06.2017 Sa 18.06.2017 18745 7932 26677 115 45 80 39 194 177 185 92
Wheeler Ridge Japanese Bombing Site Am Wheeler Ridge fiel die erste japanische Bombe auf das Festland der Vereinigten Staaten. N 1 17.06.2017 Sa 18.06.2017 12061 6193 18254 74 35 55 48 175 139 157 79
Carl Trost Carl Trost begann seine Künstlerkarriere als Kind im Gefängnis von Haiti. J 1 18.06.2017 So 19.06.2017 7191 7554 14745 41 39 40 95 63 71 67 114
Maxwell Knight Maxwell Knight, Vorbild für James Bonds Agentenführer M, war Herpetologe. N 1 18.06.2017 So 19.06.2017 9381 11711 21092 54 60 57 112 137 133 135 97
Die Hussitenpredigt Die Hussitenpredigt von 1836 wurde als ein „Epoche machendes Bild“ beurteilt. J 1 19.06.2017 Mo 20.06.2017 10562 5764 16326 54 30 42 55 74 110 92 149
Stop Child Abuse Alltagsgegenstände aus Kinderpornos können für Europol mit Stop Child Abuse von jedermann identifiziert werden. N 1 19.06.2017 Mo 20.06.2017 14753 9545 24298 76 50 63 65 100 114 107 113
Hurrikan Alice (Dezember 1954) Alice ist der Name des letzten Hurrikans der atlantischen Saison 1954. J 1 20.06.2017 Di 21.06.2017 8365 2976 11341 44 16 30 36 43 41 42 95
Großes Ägyptisches Museum Das Große Ägyptische Museum in Gizeh soll das größte archäologische Museum der Welt werden. N 1 20.06.2017 Di 21.06.2017 10508 5889 16397 55 31 43 57 77 79 78 103
Anna Lea Merritt Anna Lea Merritts Gemälde Love Locked Out war das erste Werk einer Frau in der britischen Nationalsammlung. J 1 21.06.2017 Mi 22.06.2017 15132 2401 17533 80 13 46 16 87 37 62 43
Friedrich Wilhelm Spehr Weil er kein Kaufmann werden wollte, beschloss Friedrich Wilhelm Spehr, nach Amerika zu fliehen. N 1 21.06.2017 Mi 22.06.2017 18048 7957 26005 95 42 68 44 127 105 116 83
World Sailing Speed Record Council Die Kommissare des World Sailing Speed Record Council werden meist in Namibia, Frankreich oder Spanien tätig. J 1 22.06.2017 Do 23.06.2017 12454 3629 16083 65 20 43 31 62 56 59 89
Großsteingrab Gleesen Das Großsteingrab Gleesen musste dem Dortmund-Ems-Kanal weichen. N 1 22.06.2017 Do 23.06.2017 18321 8107 26428 96 45 70 47 153 149 151 97
Badhaus Wendelstein Das 1437 erbaute Badhaus Wendelstein ist das älteste erhaltene Badehaus Deutschlands. J 1 23.06.2017 Fr 24.06.2017 23313 3698 27011 129 23 76 18 149 109 129 74
Schwarzbrustwachtel Gibt es mehr Nager, gibt es weniger Bruten der Schwarzbrustwachteln. N 1 23.06.2017 Fr 24.06.2017 7171 1815 8986 40 11 26 29 55 45 50 80
Günter Feist Drei Jahre nachdem er mit dem National­preis der DDR ausgezeichnet worden war, stellte Günter Feist einen Ausreiseantrag. J 1 24.06.2017 Sa 25.06.2017 7069 4022 11091 44 23 34 53 75 91 83 122
Petermann-Land Das arktische Petermann-Land verschwand mehr als ein Viertel­jahr­hundert nach seiner Entdeckung von den Landkarten. N 1 24.06.2017 Sa 25.06.2017 13745 9488 23233 86 55 71 64 204 216 210 106
Mahendra Cave Souvenirjäger stahlen die Jahr­tausende alten Stalaktiten der Mahendra Cave – und damit ihre größte Attraktion. J 1 25.06.2017 So 26.06.2017 12934 12741 25675 75 66 71 88 114 121 117 106
Grazer Umland-Weg Der Grazer Umland-Weg führt durch eine Klamm, ein Museum und durch Österreich. N 1 25.06.2017 So 26.06.2017 4199 5108 9307 24 26 25 109 62 58 60 94
Rosengarten der Stadt Köln Der Rosengarten der Stadt Köln wurde über den Kasematten des ehemaligen Forts X angelegt. J 1 26.06.2017 Mo 27.06.2017 15545 6004 21549 81 31 56 38 110 113 111 103
Sam Bloom Die querschnittsgelähmte Kanutin Sam Bloom fand durch einen Vogel neuen Lebensmut. N 1 26.06.2017 Mo 27.06.2017 18264 8994 27258 95 46 70 49 125 106 116 85
Schlosskapelle Herten Die aus dem 14. Jahrhundert stammende Schlosskapelle Herten wechselte 1908 ihren Standort. J 1 27.06.2017 Di 28.06.2017 10261 4605 14866 53 24 38 46 52 63 58 120
Würfelzoll Der Würfelzoll entwickelte sich zur Schikane gegenüber Juden. N 1 27.06.2017 Di 28.06.2017 30728 17561 48289 158 92 125 58 221 234 228 106
Lilienthaler Heerstraße Am „Langen Jammer“ wurde aus der „Roten Gefahr“ die „Gelbe Gefahr“. J 1 28.06.2017 Mi 29.06.2017 32494 11619 44113 170 60 115 35 186 178 182 95
Ed Whitlock Ed Whitlock war der erste über Siebzigjährige, der einen Marathon unter drei Stunden lief. N 1 28.06.2017 Mi 29.06.2017 9242 4396 13638 48 23 35 47 64 57 61 88
Joanna Rajkowska Joanna Rajkowska schuf eine Palme für Warschau und Rosen in Łódź. J 1 29.06.2017 Do 30.06.2017 6848 1954 8802 35 11 23 31 34 30 32 88
Kastell Maia Das Kastell Maia war das zweitgrößte Kastell am Hadrianswall. N 1 29.06.2017 Do 30.06.2017 18737 8946 27683 96 49 73 51 154 164 159 106
Dinosaur Park Die Bewohner von Rapid City bezeichneten den Dinosaur Park als Schandfleck. J 1 30.06.2017 Fr 01.07.2017 33208 6615 39823 183 40 112 22 210 190 200 90
Susan Zuccotti Robert Katz und Susan Zuccotti forschten zur Haltung des Vatikans bei der Verfolgung der Juden Roms. N 2 30.06.2017 Fr 01.07.2017 2816 979 3795 16 6 11 38 22 23 23 108
Robert Katz (1933) Robert Katz und Susan Zuccotti forschten zur Haltung des Vatikans bei der Verfolgung der Juden Roms. N 2 30.06.2017 Fr 01.07.2017 3416 1174 4590 19 7 13 38 26 28 27 106
Tour de Trump Ein Mexikaner gewann die zweite und letzte Austragung der Tour de Trump. J 1 01.07.2017 Sa 02.07.2017 15313 6876 22189 93 40 66 43 157 155 156 99
Doh Say Dat Doh Say Dat sorgt auf Trinidad für angeheiterte Spieleabende. N 1 01.07.2017 Sa 02.07.2017 7433 4334 11767 45 25 35 55 107 98 102 92
Mittelalterliche Altstadt von Toruń Die UNESCO erklärte die mittelalterliche Altstadt von Toruń 1997 zum Weltkulturerbe. J 1 02.07.2017 So 03.07.2017 8886 8789 17675 51 46 49 90 78 84 81 108
Dux Typ S Mit dem Dux Typ S stieg ein Spieldosen- und Musik­­automaten­­produzent aus Wahren zum Hersteller von Oberklasse­­wagen auf. N 1 02.07.2017 So 03.07.2017 13144 16937 30081 76 89 82 117 194 195 195 101
Crowninshields Elefant Crowninshields Elefant war der erste seiner Art auf ameri­kanischem Boden. J 1 03.07.2017 Mo 04.07.2017 18201 6304 24505 95 33 64 35 130 123 126 95
Parco Giardino Sigurtà Der Parco Giardino Sigurtà südlich des Garda­sees ist einer der schönsten Land­schafts­gärten Italiens. N 1 03.07.2017 Mo 04.07.2017 8426 5017 13443 44 27 35 60 58 61 60 104
Zeche Georgschacht Die „Kohlenkirche“ der Zeche Georgschacht dient gelegent­lich als illegaler Aben­teuer­spiel­platz. J 1 04.07.2017 Di 05.07.2017 20556 7031 27587 109 38 74 35 108 100 104 93
Muteki Kamban Musume In der Gourmet-Serie Muteki Kamban Musume gerät eine auf­brau­sende Nudel­lieferantin immer wieder in Schlägereien. N 1 04.07.2017 Di 05.07.2017 9983 6160 16143 53 34 43 64 74 86 80 116
Großsteingräber bei Jastorf Die Großsteingräber bei Jastorf wurden noch vor ihrer Zerstörung im 19. Jahrhundert dokumentiert. J 1 05.07.2017 Mi 06.07.2017 16572 7138 23710 91 40 65 44 99 118 108 118
ILoveMakonnen Nachdem er seinen Freund erschossen hatte, bekam der Rapper ILoveMakonnen Hausarrest. N 1 05.07.2017 Mi 06.07.2017 17715 7906 25621 97 44 70 45 129 111 120 85
Großer Brand von 1910 Der Große Brand von 1910 war eines der größten Feuerwehrunglücke der USA. J 1 06.07.2017 Do 07.07.2017 41498 15494 56992 230 88 159 38 220 243 232 110
Missa Princeps Pacis William Lloyd Webbers Missa Princeps Pacis wurde anlässlich seines einhundertsten Geburtstags in St Martin-in-the-Fields aufgeführt. N 1 06.07.2017 Do 07.07.2017 4060 2085 6145 23 12 17 53 36 39 38 109
Esel von Wesel Nach dem Esel von Wesel wurde unter anderem ein Festival benannt. J 1 07.07.2017 Fr 08.07.2017 15835 3494 19329 90 23 57 25 104 108 106 104
Associação Democratica para a Integração de Timor-Leste na Austrália Die ADITLA wollte Australien vergrößern. N 1 07.07.2017 Fr 08.07.2017 20916 5592 26508 119 37 78 31 166 143 155 86
Cecil H. Green Den Namen des Philanthropen Cecil H. Green tragen zahlreiche Einrichtungen an Universitäten und Krankenhäusern. J 1 08.07.2017 Sa 09.07.2017 4088 1082 5170 27 7 17 24 45 26 35 57
AIDS (Trojaner) Der Biologe Joseph Popp verschickte Trojaner per Post. N 1 08.07.2017 Sa 09.07.2017 10073 5858 15931 66 35 51 54 156 139 147 89
Piscine de la République Die Bauarbeiten am Volksbad Piscine de la République in Gap wurden kriegsbedingt für fünf Jahre unterbrochen. J 1 09.07.2017 So 10.07.2017 7535 8138 15673 45 42 44 93 69 78 73 112
Lower East Side Tenement Museum Das Tenement Museum erzählt von den Wohn- und Lebensbedingungen der Einwanderer in den Vereinigten Staaten im 19. Jahrhundert. N 1 09.07.2017 So 10.07.2017 3476 5697 9173 21 30 25 142 54 65 60 122
Mazarrón-Schiffe In einem Wrack der phönizischen Mazarrón-Schiffe fanden sich Bleibarren mit einem Gewicht von etwa 2800 kg. J 1 10.07.2017 Mo 11.07.2017 26974 8211 35185 141 44 92 31 191 161 176 84
Ria Thiele Nachdem Ria Thiele in Wedekinds Frühlings Erwachen aufgetreten war, wurde sie von ihrem Vater eingesperrt. N 1 10.07.2017 Mo 11.07.2017 18330 8753 27083 96 47 71 49 127 107 117 85
Vlattenhaus Die Außenmauern der Burg Vlattenhaus umgeben heute ein modernes Mehr­familien­haus. J 1 11.07.2017 Di 12.07.2017 22957 7291 30248 123 39 81 32 122 103 112 84
Tammy, das Mädchen vom Hausboot Die Sekretärin Tammy lebt auf einem Hausboot. N 1 11.07.2017 Di 12.07.2017 32093 16694 48787 172 90 131 52 241 229 235 95
Pavel Brázda Pavel Brázda wollte seinen künstlerischen Stil nicht den politischen Verhältnissen in der Tschechoslowakei unterordnen. J 1 12.07.2017 Mi 13.07.2017 7005 1618 8623 38 9 23 23 41 26 34 63
Welt hinter Glas An Max Mutzkes Lied Welt hinter Glas waren vier Liedtexter beteiligt. N 1 12.07.2017 Mi 13.07.2017 7891 3412 11303 43 19 31 44 57 47 52 82
Großtankstelle Brandshof An der Großtankstelle Brandshof bekommt man vieles, aber kein Benzin. J 1 13.07.2017 Do 14.07.2017 40197 13433 53630 219 77 148 35 210 212 211 101
Inschrift des Tiberinius Celerianus Die Inschrift des Tiberinius Celerianus ist das älteste erhaltene steinerne Zeugnis des Namens „London“. N 1 13.07.2017 Do 14.07.2017 13808 6091 19899 75 35 55 46 120 115 118 96
Prächtiger Sonnentau Der Prächtige Sonnentau ist die erste Pflanzenart, die durch ein auf Facebook veröffentlichtes Foto entdeckt wurde. J 1 14.07.2017 Fr 15.07.2017 18413 5640 24053 105 37 71 35 121 173 147 143
Joe Fortenberry Joe Fortenberry gilt mitunter als „Erfinder“ des Dunkings im Basketball. N 1 14.07.2017 Fr 15.07.2017 11528 3515 15043 66 23 44 35 92 90 91 98
Brackwasser-Dreiecksmuschel Die Brackwasser-Dreiecksmuschel kam im Ballastwasser von Schiffen nach Europa. J 1 15.07.2017 Sa 16.07.2017 7234 5201 12435 47 32 40 67 79 125 102 157
Les Liaisons Dangereuses 1960 Les Liaisons Dangereuses 1960 war jahrzehntelang verschollen und wurde vor wenigen Wochen veröffentlicht. N 1 15.07.2017 Sa 16.07.2017 7859 5386 13245 51 33 42 64 121 130 125 107
Rübenschloss Zucker machte eine Jugendstil-Villa in Braunschweig-Stöckheim zum Rübenschloss. J 1 16.07.2017 So 17.07.2017 8188 7664 15852 50 41 46 82 76 76 76 99
Muhammed Said Abdulla Muhammed Said Abdulla gilt als „Vater der populären Swahili-Literatur“. N 1 16.07.2017 So 17.07.2017 2136 2588 4724 13 14 14 107 33 31 32 92
Ströhberne Bruck’n Das namensgebende Strohdach der Ströhbernen Bruck’n wurde durch ein Schilfdach ersetzt. J 1 17.07.2017 Mo 18.07.2017 10748 2910 13658 58 16 37 28 79 60 69 76
Martin Popoff Der Kanadier Martin Popoff braucht für seine Arbeit viel Metal. N 1 17.07.2017 Mo 18.07.2017 13438 5210 18648 72 29 51 40 96 67 81 70
Molitor & Kuzmin Molitor & Kuzmin machen Kunst mit Licht. J 1 18.07.2017 Di 19.07.2017 5312 2005 7317 30 11 21 38 30 29 30 99
Malcolm Caldwell Malcolm Caldwell wurde Opfer seiner Sympathie für die Roten Khmer. N 1 18.07.2017 Di 19.07.2017 21952 11530 33482 124 65 94 52 173 165 169 95
Altklarinette Ein Vorläufer der Altklarinette war die „Liebesklarinette“. J 1 19.07.2017 Mi 20.07.2017 7840 2630 10470 44 14 29 32 48 42 45 88
Browser Extensions Microsoft, Opera und Mozilla entwickelten gemeinsam den Standard Browser Extensions. N 1 19.07.2017 Mi 20.07.2017 8737 5165 13902 49 28 39 57 65 71 68 108
Schiffsfunde von De Meern Durch die Schiffsfunde von De Meern gehört das niederländische Vleuten-De Meern zu den bedeutendsten Fundplätzen römischer Schiffe in Nordwesteuropa. J 1 20.07.2017 Do 21.07.2017 19746 6858 26604 107 38 73 36 103 106 104 103
Josh Lacey Josh Laceys Kinderbuchheld ist ein Drachensitter. N 1 20.07.2017 Do 21.07.2017 4385 2363 6748 24 13 19 56 38 44 41 115
Drahtgewebe (Filtration) Drahtgewebe werden an vielen Stellen in der Industrie zur Filtration eingesetzt. J 1 21.07.2017 Fr 22.07.2017 10349 2307 12656 58 15 36 25 67 69 68 104
Giorgio Calcaterra Der römische Taxifahrer Giorgio Calcaterra ist gut zu Fuß. N 1 21.07.2017 Fr 22.07.2017 16807 4732 21539 94 30 62 32 131 119 125 90
Sinomammut Die Gattung Sinomammut ist nur über einen einzelnen rechten Unterkieferast bekannt. J 1 22.07.2017 Sa 23.07.2017 5923 2909 8832 38 18 28 47 64 69 66 109
Goa (Köln) Die Kölner Goa-Frauen sorgten dafür, dass ihre Gäste auf dem Trockenen saßen. N 1 22.07.2017 Sa 23.07.2017 13025 8209 21234 83 50 67 60 197 197 197 100
Mumin, wie wird’s weiter gehen? Mumin, wie wird’s weiter gehen? setzte Maßstäbe für die Bilderbuchkunst. J 1 23.07.2017 So 24.07.2017 8967 10050 19017 55 53 54 98 83 98 90 117
Lebensader Wupper Die Skulptur Lebensader Wupper zeigt den Lauf eines Flusses und seiner Zuflüsse, aber um 90 Grad gedreht. N 1 23.07.2017 So 24.07.2017 5260 8452 13712 32 45 38 140 82 99 90 120
St. Stephen’s Memorial Episcopal Church Der erste Gottesdienst in der St. Stephen’s Memorial Episcopal Church war die Totenmesse für ihren Stifter. J 1 24.07.2017 Mo 25.07.2017 9868 2438 12306 52 13 33 25 71 48 60 68
Zwölf Fantasien für Viola da Gamba solo Telemanns verschollene Zwölf Fantasien für Viola da Gamba solo wurden 2015 in einem Archiv aufgespürt. N 1 24.07.2017 Mo 25.07.2017 5510 3245 8755 29 18 23 60 39 40 39 104
August Schnorrenberg August Schnorrenbergs Volkslied Am Dom zo Kölle kann man bisweilen auch im Dom zo Kölle hören. J 1 25.07.2017 Di 26.07.2017 6205 2103 8308 34 12 23 35 33 30 32 91
Vézère-Tal: Fundorte und Höhlenmalereien Die mehr als 500.000 Objekte umfassende Fundsammlung aus dem Vézère-Tal machte es möglich, eine Abfolge steinzeitlicher Kulturen in Europa zu etablieren. N 1 25.07.2017 Di 26.07.2017 9685 4940 14625 52 27 40 52 73 70 71 95
St.-Annen-Kirche (Bad Münder am Deister) Die Wallfahrt zur St.-Annen-Kirche bei Münder war nur 36 Jahre lang erlaubt. J 1 26.07.2017 Mi 27.07.2017 15419 5389 20808 85 30 58 35 93 90 92 96
Ein Spiel und ein Zeitvertreib Ein Spiel und ein Zeitvertreib wurde abgelehnt, weil es „mehr als die normale Menge Sex“ enthalte. N 1 26.07.2017 Mi 27.07.2017 33199 17374 50573 184 97 141 53 245 246 245 100
Tŷ Hyll Das „hässliche Haus“ wurde angeblich in nur einer Nacht erbaut. J 1 27.07.2017 Do 28.07.2017 46904 16132 63036 263 95 179 36 252 263 258 104
Lesbians and Gays Support the Miners Die Gruppe Lesbians and Gays Support the Miners brachte Bergleute und Homosexuelle zusammen. N 1 27.07.2017 Do 28.07.2017 11074 3891 14965 62 23 43 37 99 76 88 77
Wickelkleid Beim Wickelkleid gilt immer rechts vor links. J 1 28.07.2017 Fr 29.07.2017 17898 4571 22469 106 31 69 29 122 147 134 121
Menotoxin Weder vergilbte Rosen noch schlecht aufgehender Hefeteig überzeugen von Menotoxin. N 1 28.07.2017 Fr 29.07.2017 13170 3720 16890 78 25 52 33 109 99 104 91
Explosionskatastrophe von Mitholz Nach der Explosionskatastrophe von Mitholz versenkte die Armee tausende Tonnen Munition in Schweizer Seen. J 1 29.07.2017 Sa 30.07.2017 20296 9894 30190 138 64 101 46 233 251 242 108
Fischer Hoverwing HW20 Der Fischer Hoverwing HW20 soll Passagiere mit bis zu 190 km/h über Gewässer transportieren. N 1 29.07.2017 Sa 30.07.2017 12114 8946 21060 83 58 70 70 195 228 211 117
Cabildo (New Orleans) Im Cabildo wurde Louisiana nach dem Verkauf übergeben. J 1 30.07.2017 So 31.07.2017 7732 7447 15179 50 42 46 83 76 76 76 100
Denkmal für die im Nationalsozialismus verfolgten Lesben und Schwulen München hat jetzt ein Denkmal für die in der NS-Zeit verfolgten Lesben und Schwulen. N 1 30.07.2017 So 31.07.2017 6326 7238 13564 41 40 41 99 105 89 97 85
Uddevallabron Die Uddevallabron hat eine Durchfahrtshöhe von mehr als 50 Metern. J 1 31.07.2017 Mo 01.08.2017 19929 10557 30486 111 60 85 54 151 219 185 145
Krake ZK 14 Zu den Gästen an Bord der Krake ZK 14 zählte Beate Uhse. N 1 31.07.2017 Mo 01.08.2017 39195 22736 61931 219 129 174 59 289 295 292 102
Derfflinger Hügel Der Derfflinger Hügel wurde rund vier Jahrtausende lang als Bestattungsort genutzt. J 1 01.08.2017 Di 02.08.2017 18445 7992 26437 104 45 75 43 104 118 111 114
Der Herr denket an uns Bach komponierte Der Herr denket an uns vermutlich als Hochzeitskantate für den Pfarrer, der ihn getraut hatte. N 1 01.08.2017 Di 02.08.2017 2542 1801 4343 14 10 12 71 20 26 23 129
Vierfleck-Höhlenschlupfwespe Die Vierfleck-Höhlenschlupfwespe ist „Höhlentier des Jahres“ in Deutschland. J 1 02.08.2017 Mi 03.08.2017 8334 4491 12825 47 26 36 54 52 76 64 147
Wurstlücke Die Wurstlücke im deutschen Kartellrecht wurde im Juni 2017 geschlossen. N 1 02.08.2017 Mi 03.08.2017 36050 16270 52320 204 93 149 45 273 234 254 86
Dlouhá stoka Im Europa des 16. Jahrhunderts galt der Wasserlauf Dlouhá stoka als technisches Meisterwerk. J 1 03.08.2017 Do 04.08.2017 26859 7515 34374 153 45 99 29 147 123 135 84
Jul (Comicautor) Jul wollte lieber Comiczeichner als Geschichtsprofessor werden. N 1 03.08.2017 Do 04.08.2017 11090 5478 16568 63 32 48 51 101 108 104 106
P. Sundaram Pillai Der tamilische Gelehrte P. Sundaram Pillai betrachtete Südindien als das „eigentliche Indien“. J 1 04.08.2017 Fr 05.08.2017 9340 1224 10564 55 8 31 14 64 36 50 56
Wolkentanz Wolkentanz war einer der besten Beschäler für Dressurpferde in Deutschland. N 1 04.08.2017 Fr 05.08.2017 19710 4438 24148 117 27 72 23 163 108 135 66
Pontus und Sidonia Pontus und Sidonia wurde von einer aus Schottland stammenden österreichischen Erzherzogin „lœblich von frantzosischer zungen in teütsch getranßferiert“. J 1 05.08.2017 Sa 06.08.2017 5031 3209 8240 31 17 24 55 52 66 59 127
Ruth Nussbaum Ruth Nussbaum war Rebbetzin in Hollywood. N 1 05.08.2017 Sa 06.08.2017 5367 4080 9447 33 22 27 65 78 85 82 108
Carlo (Maschinenpistole) Carlos sind selbstgebaute Maschinenpistolen. J 1 06.08.2017 So 07.08.2017 27692 22996 50688 146 130 138 89 223 238 231 107
Flüchtung Flüchtung vor dem Feind kann im Kriegsfall Archivalien und anderes Kulturgut schützen. N 1 06.08.2017 So 07.08.2017 8466 9102 17568 45 52 48 115 115 114 114 99
Sally Kessler Der Holocaustüberlebende Sally Kessler baute nach dem Krieg die Synagogengemeinde Köln wieder auf. J 1 07.08.2017 Mo 08.08.2017 10747 5481 16228 61 31 46 51 83 113 98 137
Esperpento Der Esperpento zeigt das realistische Bild einer verformten Wirklichkeit. N 1 07.08.2017 Mo 08.08.2017 15271 11744 27015 87 66 76 77 114 152 133 133
Black Sea Ice Arena In der Black Sea Ice Arena in Bulgarien ist auch im Hoch­sommer das Eis­laufen in direkter Strand­nähe möglich. J 1 08.08.2017 Di 09.08.2017 11500 4649 16149 65 27 46 41 64 70 67 109
Rosanna Bonelli Rosanna Bonelli kämpfte mit Blumen gegen ihre Jockey-Konkurrenz. N 1 08.08.2017 Di 09.08.2017 11892 5612 17504 67 32 50 48 94 82 88 88
Fast Castle Das 45 Meter über der Nordsee liegende und als relativ schwer einnehmbar geltende Fast Castle wurde mehrfach erobert. J 1 09.08.2017 Mi 10.08.2017 49775 18850 68625 287 107 197 37 314 317 315 101
Buchstabierwettbewerb Buchstabierwettbewerbe unter Schülern zählen in den Vereinigten Staaten zur nationalen Folklore. N 1 09.08.2017 Mi 10.08.2017 10692 5120 15812 62 29 45 47 82 73 78 89
Raja (Elefant) Als der Elefant Raja starb, galt in Sri Lanka Staatstrauer. J 1 10.08.2017 Do 11.08.2017 33138 11500 44638 188 66 127 35 180 182 181 101
Doris von Schönthan 1933 verteilte Glamourgirl Doris von Schönthan Flugblätter gegen die Nationalsozialisten. N 1 10.08.2017 Do 11.08.2017 26536 11640 38176 150 67 108 44 240 221 231 92
Ilha dos Tigres Durch Sanddünen und Schattenwurf kam die Ilha dos Tigres zu ihrem Namen. J 1 11.08.2017 Fr 12.08.2017 20045 3025 23070 115 20 68 18 132 95 113 72
Eugenia B. Böhlke Unter großen wirtschaftlichen Schwierigkeiten erforschte Eugenia B. Böhlke die Taxonomie von Muränen. N 1 11.08.2017 Fr 12.08.2017 8787 2543 11330 50 17 34 34 70 66 68 94
Grab des Zacharias Das Grab des Zacharias war schon immer leer. J 1 12.08.2017 Sa 13.08.2017 15734 7591 23325 105 49 77 47 176 193 185 110
Nicola Baumann Nicola Baumann und Insa Thiele-Eich wollen die erste deutsche Astronautin werden. N 2 12.08.2017 Sa 13.08.2017 6096 3977 10073 41 26 33 64 96 101 99 106
Insa Thiele-Eich Nicola Baumann und Insa Thiele-Eich wollen die erste deutsche Astronautin werden. N 2 12.08.2017 Sa 13.08.2017 5325 3449 8774 35 22 29 63 84 88 86 105
Dunkler Glatthai Der Dunkle Glatthai ist ein Räuber mit stumpfen Zähnen. J 1 13.08.2017 So 14.08.2017 15689 12215 27904 102 72 87 70 155 131 143 84
Capital Gay Die Capital Gay klärte Schwule erst über ihre Rechte und dann über HIV und AIDS auf. N 1 13.08.2017 So 14.08.2017 5153 5534 10687 33 32 33 97 86 71 79 83
Bucchero-Hähnchen von Viterbo Das Bucchero-Hähnchen von Viterbo diente vermutlich als Tintenfass. J 1 14.08.2017 Mo 15.08.2017 11036 6637 17673 65 39 52 60 88 143 116 163
Lotte Möller Lotte Möller war die erste Professorin für Ozeanographie in Deutschland. N 1 14.08.2017 Mo 15.08.2017 6763 4003 10766 40 24 32 59 52 54 53 103
Flügelaltar von Schloss Tirol Im Flügelaltar von Schloss Tirol gibt sich die „Hohe Frau von Tirol“ die Ehre. J 1 15.08.2017 Di 16.08.2017 8769 5314 14083 52 31 41 59 51 80 65 156
Darrall Imhoff Nach 33-jähriger Unterbrechung holte der Hall-of-Famer Darrall Imhoff seinen College-Abschluss nach. N 1 15.08.2017 Di 16.08.2017 12040 7143 19183 71 41 56 58 99 104 102 105
Albert Bendix Der Kölner Bankier Albert Bendix nahm sich auf der Flucht vor den Nationalsozialisten in Zandvoort das Leben. J 1 16.08.2017 Mi 17.08.2017 20642 7348 27990 119 41 80 34 130 121 125 93
Autonomous Rail Rapid Transit Die Züge des Autonomous Rail Rapid Transit verkehren im chinesischen Zhuzhou auf virtuellen Gleisen. N 1 16.08.2017 Mi 17.08.2017 17042 9217 26259 98 51 74 52 131 128 130 98
Máret Ánne Sara Máret Ánne Sara reiste mit 300 Rentierschädeln nach Kassel. J 1 17.08.2017 Do 18.08.2017 29899 5709 35608 165 34 100 21 158 95 127 60
Boykott Israels durch die Arabische Liga Der Boykott Israels durch die Arabische Liga war weltweit der längste Boykott gegen einen Staat. N 1 17.08.2017 Do 18.08.2017 8736 5005 13741 48 30 39 62 77 100 88 129
Babben Babben in der Niederlausitz ist nach einem Mann namens Babba benannt. J 1 18.08.2017 Fr 19.08.2017 14972 2959 17931 90 21 55 23 104 98 101 95
Eugène Tamburlini Nachdem der Radrennfahrer Eugène Tamburlini durch die Einnahme von Dopingmitteln fast erblindet wäre, nahm er sich das Leben. N 1 18.08.2017 Fr 19.08.2017 19548 5802 25350 118 41 79 35 164 160 162 97
Ville de Paris (Luftschiff, 1906) Henri Deutsch verschenkte die Stadt Paris. J 1 19.08.2017 Sa 20.08.2017 15305 4180 19485 108 28 68 26 181 109 145 61
Imma Grolimund Die Schriftstellerin Imma Grolimund arbeitete als Lehrerin unter anderem in Kairo, Konstantinopel und Uezwil. N 1 19.08.2017 Sa 20.08.2017 2115 1292 3407 15 9 12 58 35 34 35 97
André Utter Seine Geliebte musste André Utters Genitalien übermalen. J 1 20.08.2017 So 21.08.2017 16538 16057 32595 111 91 101 83 169 167 168 99
Parktanz Parktanz hält Millionen Chinesen fit. N 1 20.08.2017 So 21.08.2017 5839 6939 12778 39 40 39 101 100 87 94 87
Gupteshwor Mahadev Cave Gupteshwor Mahadev Cave ist die längste Schauhöhle in Nepal. J 1 21.08.2017 Mo 22.08.2017 9812 4474 14286 56 26 41 46 76 95 85 125
Land abnehmen Beim Land abnehmen spielen Kinder mit Messern. N 1 21.08.2017 Mo 22.08.2017 20954 12562 33516 119 73 96 61 158 166 162 105
Pickwick Bicycle Club Wer Mitglied im Pickwick Bicycle Club werden will, muss einen anderen Namen annehmen. J 1 22.08.2017 Di 23.08.2017 28308 9099 37407 164 53 108 32 162 139 151 85
Brunzhose Brunzhosen erleichterten Bäuerinnen das Wasserlassen. N 1 22.08.2017 Di 23.08.2017 44810 21410 66220 259 125 192 48 363 318 340 88
Clara Katharina Pollaczek Clara Katharina Pollaczek wurde in der Literaturgeschichte als letzte Lebensgefährtin Arthur Schnitzlers bekannt. J 1 23.08.2017 Mi 24.08.2017 10890 3945 14835 64 23 43 37 70 69 69 99
Eichenregal Das Eichenregal des Fürstenhauses Anhalt-Dessau überdauerte 278 Jahre. N 1 23.08.2017 Mi 24.08.2017 19898 11650 31548 116 69 92 59 155 173 164 112
Trencadís Trencadís prägte den katalanischen Jugendstil. J 1 24.08.2017 Do 25.08.2017 10343 2044 12387 61 12 37 20 58 34 46 59
Jan Grabowski (Historiker) Der Historiker Jan Grabowski stellt seinen Landsleuten unangenehme Fragen zur polnischen Geschichte. N 1 24.08.2017 Do 25.08.2017 11450 5573 17023 67 34 51 50 108 113 110 105
La Damoiselle élue La Damoiselle élue inspirierte Claude Debussy zu einem Werk mit „einer mystischen, leicht heidnischen Note“. J 1 25.08.2017 Fr 26.08.2017 4739 1046 5785 29 7 18 25 33 35 34 104
Mappa di Soleto Das Ostrakon Mappa di Soleto gilt als die älteste erhaltene Kartendarstellung des Abendlandes. N 1 25.08.2017 Fr 26.08.2017 10013 4128 14141 61 29 45 47 85 114 99 133
Delphinfries aus Gla Fragmente des Delphinfrieses aus Gla fanden sich vergraben in einem mykenischen Palast. J 1 26.08.2017 Sa 27.08.2017 7652 3382 11034 54 22 38 41 90 86 88 95
Bogdan Borčić Bogdan Borčić überlebte die Folter in einem Stehbunker. N 1 26.08.2017 Sa 27.08.2017 16394 10571 26965 115 68 92 59 272 269 270 99
Trump (Mops) Trump pinkelte auf eine Streitschrift Churchills. J 1 27.08.2017 So 28.08.2017 20414 23139 43553 132 130 131 98 201 237 219 118
Barash (Film) In Barash feiern lesbische Mädchen in Tel Aviv. N 1 27.08.2017 So 28.08.2017 10244 13604 23848 66 76 71 115 170 168 169 99
Wehrkirche Pomßen In der Wehrkirche Pomßen bei Leipzig steht die älteste noch spielbare Orgel Sachsens. J 1 28.08.2017 Mo 29.08.2017 11355 4469 15824 64 26 45 41 87 95 91 110
Judenpfennig In Preußen wurden Judenpfennige, als man sie nicht mehr brauchte, ein Fall für die Münzpolizei. N 1 28.08.2017 Mo 29.08.2017 24787 12698 37485 139 74 106 53 184 169 177 92
Alfred Noble Der Brückenbauer Alfred Noble ist Namensgeber des Alfred Noble Prize. J 2 29.08.2017 Di 30.08.2017 18689 6785 25474 109 40 74 37 108 104 106 96
Alfred Noble Prize Der Brückenbauer Alfred Noble ist Namensgeber des Alfred Noble Prize. J 2 29.08.2017 Di 30.08.2017 12157 4963 17120 71 29 50 41 70 76 73 108
Zheng Zhilong Zheng Zhilong hatte die Lizenz zum Kapern. N 1 29.08.2017 Di 30.08.2017 15772 9036 24808 92 53 72 58 128 135 132 105
Bartholomäuskirche (Oberschützen) In der Bartholomäuskirche wachsen heute keine Bäume mehr. J 1 30.08.2017 Mi 31.08.2017 20982 7994 28976 123 46 85 37 135 137 136 101
Gebet des heiligen Franziskus Das Gebet des heiligen Franziskus stammt gar nicht von ihm. N 1 30.08.2017 Mi 31.08.2017 8587 3698 12285 50 21 36 42 67 54 60 80
Anna Katharina Rehmann-Salten Dass Steinbecks Mond in Basel untergehen konnte, lag an Anna Katharina Rehmann-Salten. J 1 31.08.2017 Do 01.09.2017 16592 2973 19565 95 18 57 19 91 49 70 54
Bornhöck Im Bornhöck wurde vielleicht der Hersteller der Himmelsscheibe von Nebra bestattet. N 1 31.08.2017 Do 01.09.2017 11980 6294 18274 69 38 53 55 110 125 118 114
Friedensengel (Mannheim) Die mit dem Mannheimer Friedensengel verbundenen Hoffnungen haben sich kaum erfüllt. J 1 01.09.2017 Fr 02.09.2017 16839 2778 19617 101 19 60 19 116 90 103 78
Nicolaus Oest Nicolaus Oest verstand sich als Pastor auf Knicks. N 1 01.09.2017 Fr 02.09.2017 7344 2109 9453 44 15 29 33 62 57 59 92
Fronleichnamskirche (Guty) Die vor einem Monat niedergebrannte Fronleichnamskirche war eine der ältesten erhaltenen schlesischen Schrotholzkirchen. J 1 02.09.2017 Sa 03.09.2017 11252 5299 16551 78 35 56 45 130 137 134 105
Francesco Guidobono Cavalchini Francesco Guidobono Cavalchini wusste mehr als ein Jahrzehnt lang nichts von seiner Ernennung zum Kardinal. N 1 02.09.2017 Sa 03.09.2017 7372 5179 12551 51 34 43 68 120 135 127 112
Euphilotes battoides allyni Ein kleiner Schmetterling erobert die Palisades del Rey am Flughafen von Los Angeles zurück. J 1 03.09.2017 So 04.09.2017 11391 13753 25144 76 80 78 106 115 146 131 127
David Ross (Diplomat) David Ross arbeitete im Zweiten Weltkrieg als Diplomat und Spion im japanisch besetzten Dili. N 1 03.09.2017 So 04.09.2017 6994 10933 17927 46 64 55 137 119 140 129 118
Pogromdenkmal Das Innsbrucker Pogromdenkmal wurde von Jugendlichen initiiert und von einem Schüler entworfen. J 1 04.09.2017 Mo 05.09.2017 13142 4245 17387 76 25 51 33 104 92 98 88
Zhu Youlang Zhu Youlang war der letzte Kaiser der Südlichen Ming-Dynastie. N 1 04.09.2017 Mo 05.09.2017 7898 4362 12260 46 26 36 56 61 59 60 97
Scutum aus Dura Europos Das Scutum aus Dura Europos ist das einzige erhaltene Exemplar eines Scutums aus der Römerzeit. J 1 05.09.2017 Di 06.09.2017 40441 13283 53724 238 77 157 32 237 200 219 85
Werner Gerich Dem Rentner Werner Gerich wurde in China postum ein Denkmal gesetzt. N 1 05.09.2017 Di 06.09.2017 23149 11771 34920 136 68 102 50 191 173 182 91
Saidschitzer Bitterwasser Das 1717 entdeckte Saidschitzer Bitterwasser wird heute überwiegend nach China, Russland und in die USA exportiert. J 1 06.09.2017 Mi 07.09.2017 34000 13011 47011 196 77 136 39 215 227 221 106
Friedrich Hehr Friedrich Hehr war Scharfrichter des NS-Regimes und wurde nach dem Krieg von den Alliierten weiter beschäftigt. N 1 06.09.2017 Mi 07.09.2017 36201 19972 56173 209 118 163 56 279 296 288 106
Loung Ung Loung Ungs Kindheit unter den Roten Khmer ist das Thema einer Filmbiografie von Angelina Jolie. J 1 07.09.2017 Do 08.09.2017 19901 4469 24370 117 27 72 23 112 76 94 68
Rührreibpunktschweißen Rührreibpunktschweißungen zeichnen sich durch eine hohe Festigkeit aus. N 1 07.09.2017 Do 08.09.2017 17032 7949 24981 100 49 75 49 160 162 161 101
Brooklyn Lamp Brooklyn Lamps wurden in der Pinken Bar gemixt. J 1 08.09.2017 Fr 09.09.2017 12622 2057 14679 78 14 46 18 89 67 78 75
Gelbe Suppe Den ersten Werktag nach Neujahr begingen die Leipziger Stadtverordneten jeweils mit der Gelben Suppe. N 1 08.09.2017 Fr 09.09.2017 16487 4908 21395 101 34 68 33 141 132 137 94
Zills Tunnel Im Leipziger Restaurant Zills Tunnel wurde einst die Speisekarte vertont. J 1 09.09.2017 Sa 10.09.2017 6156 3077 9233 42 20 31 48 71 79 75 111
Porter Heaps Porter Heaps arrangierte ein Musical mit 53 Orgeln. N 1 09.09.2017 Sa 10.09.2017 1873 1232 3105 13 8 11 63 30 32 31 105
Köritzhof Der fast 400 Jahre alte Köritzhof verfällt nach über 30 Jahren fehlender Nutzung. J 1 10.09.2017 So 11.09.2017 19112 21272 40384 126 122 124 97 192 223 207 117
Wassermühle Karoxbostel Die Wassermühle Karoxbostel wurde vom mitgliederstärksten Mühlenverein in Deutschland restauriert. N 1 10.09.2017 So 11.09.2017 5402 7672 13074 36 44 40 124 91 97 94 106
Waldparkschule An der Heidelberger Waldparkschule haben Schüler ihr eigenes „Lernbüro“. J 1 11.09.2017 Mo 12.09.2017 8797 3705 12502 50 21 36 42 69 78 73 114
Richard Stoltzman Der US-Amerikaner Richard Stoltzman gilt als einer der bekanntesten Klarinettisten. N 1 11.09.2017 Mo 12.09.2017 3809 2069 5878 22 12 17 54 29 27 28 94
Woodmont (Pennsylvania) Woodmont gilt als ein Monument der amerika­nischen Bürgerrechts­bewegung. J 1 12.09.2017 Di 13.09.2017 16803 4889 21692 97 29 63 30 96 75 86 79
Dai Nihon shi Der Chinese Zhu Zhiyu war ein Hauptverfasser der Geschichte von Großjapan. N 2 12.09.2017 Di 13.09.2017 6111 2973 9084 35 18 26 50 49 45 47 91
Zhu Zhiyu Der Chinese Zhu Zhiyu war ein Hauptverfasser der Geschichte von Großjapan. N 2 12.09.2017 Di 13.09.2017 2613 1463 4076 15 9 12 58 21 22 22 105
Landschulheim Herrlingen Das Landschulheim Herrlingen musste 1933 ins Exil verlegt werden. J 1 13.09.2017 Mi 14.09.2017 16314 4136 20450 96 24 60 25 106 72 89 68
Versuchsfahrt des VT 10 551 nach Athen 1953 Die Versuchsfahrt des VT 10 551 nach Athen 1953 bewarb mit einem technischen Experiment deutsche Eisenbahnfahrzeuge auf dem Balkan. N 1 13.09.2017 Mi 14.09.2017 24963 12861 37824 147 75 111 51 197 189 193 96
Emmich-Cambrai-Kaserne Die Emmich-Cambrai-Kaserne in Hannover ist eine der modernsten militärischen Ausbildungsstätten in Europa. J 1 14.09.2017 Do 15.09.2017 21984 7773 29757 128 48 88 37 123 132 127 107
Benedikt Müntnich Trotz einer Fünf in Religion wurde Arnold Müntnich Abt. N 1 14.09.2017 Do 15.09.2017 8087 4058 12145 47 25 36 53 75 83 79 110
Harahan Bridge Auf der Harahan Bridge kann man von einem Memphis zum nächsten radeln. J 1 15.09.2017 Fr 16.09.2017 14928 3256 18184 92 23 57 25 105 107 106 102
Abreißseil Ein falsch angebrachtes Abreißseil kann teuer werden. N 1 15.09.2017 Fr 16.09.2017 24540 9228 33768 151 64 108 43 210 252 231 120
America (Luftschiff) Eine Katze gab Anlass für den ersten Funkspruch der America. J 1 16.09.2017 Sa 17.09.2017 13818 6542 20360 96 43 70 45 162 169 165 104
Traufgässchen Traufgässchen waren eine Zumutung für die Nase. N 1 16.09.2017 Sa 17.09.2017 11917 7646 19563 83 50 67 61 196 198 197 101
Nazir Jaser Der syrische Radrennfahrer Nazir Jaser verkaufte seine Ausrüstung, um seine Flucht finanzieren zu können. J 1 17.09.2017 So 18.09.2017 9471 9296 18767 62 53 58 85 95 97 96 102
Arie Kindler Als Direktor und Kurator brachte Arie Kindler 1000 eigene Münzen in „sein“ Museum in Tel Aviv ein. N 1 17.09.2017 So 18.09.2017 3027 4122 7149 20 23 22 117 51 52 51 101
Ludwig August Berglein Der Braunschweiger Schulreformer Ludwig August Berglein ließ 1871 eine ganze Klasse eine Ehrenrunde drehen. J 1 18.09.2017 Mo 19.09.2017 15103 6536 21639 86 38 62 44 117 138 127 119
Tapete (Rapper) Tapete rappte über Hartz IV und bekam Ärger mit dem Jobcenter. N 1 18.09.2017 Mo 19.09.2017 19158 11225 30383 109 65 87 60 144 148 146 103
Ville de Paris (Schiff, 1764) Das Rätsel des Untergangs der Ville de Paris schadete dem Ruf eines Malakologen. J 1 19.09.2017 Di 20.09.2017 34515 11098 45613 199 64 132 32 198 168 183 85
Isaiah Shachar Isaiah Shachar erforschte nicht nur die „Judensau“. N 1 19.09.2017 Di 20.09.2017 16907 7624 24531 98 44 71 45 137 112 125 82
Agnès Thurnauer Mit farbigen Buttons feminisierte Agnès Thurnauer die Kunstgeschichte. J 1 20.09.2017 Mi 21.09.2017 5917 2091 8008 34 12 23 36 38 36 37 97
Star-Bicycle Ein Star-Bicycle und ein Mops halfen bei der Erfindung von Radball. N 1 20.09.2017 Mi 21.09.2017 13124 5350 18474 76 31 54 41 101 79 90 78
Normannenhaus Jena Das Normannenhaus Jena diente unter anderem als Verbindungshaus, Universitätsgebäude, Kindertagesstätte und Jugendclub. J 1 21.09.2017 Do 22.09.2017 10248 4108 14356 60 25 43 42 57 70 64 122
Anschi und Michael Anschi und Michael trennten Welten. N 1 21.09.2017 Do 22.09.2017 21189 13922 35111 124 86 105 69 198 285 242 144
Nevada Southern Railroad Museum Das Nevada Southern Railroad Museum betreibt auf den Gleisen, die zum Bau des Hoover Dam verlegt wurden, eine 11 km lange Strecke. J 1 22.09.2017 Fr 23.09.2017 16240 2615 18855 101 19 60 19 115 88 102 76
Veríssimo Dias Quintas Zum Gedenken an Veríssimo Dias Quintas erhielt ein Restaurant sein Todesdatum als Namen. N 1 22.09.2017 Fr 23.09.2017 9733 2568 12301 60 18 39 30 84 72 78 86
Catherine Radziwill Catherine Radziwill versorgte 1884 die Presse des Erbfeinds mit Klatsch von den deutschen Royals. J 1 23.09.2017 Sa 24.09.2017 8726 3366 12092 62 22 42 36 105 88 96 84
Kommunalwahlen in der DDR 1990 Bei den Kommunalwahlen 1990 traten in der DDR erstmals konkurrierende Parteien gegeneinander an. N 1 23.09.2017 Sa 24.09.2017 3731 2167 5898 27 14 21 54 63 57 60 90
Glacières de Sylans Die Eisernte der Glacières de Sylans rollte mit der Eisenbahn nach Paris. J 1 24.09.2017 So 25.09.2017 8865 8081 16946 59 45 52 76 90 82 86 91
Ernst de Jonge Der spätere Agent Ernst de Jonge stand im Ruf, der „meistbestrafte Rekrut“ in der Geschichte der niederländischen Armee zu sein. N 1 24.09.2017 So 25.09.2017 12139 18224 30363 81 101 91 125 207 223 215 108
Tim Moore Der Brite Tim Moore bereiste mit einem Esel den Jakobspfad und auf einem selbstgefertigen Holzrad Italien. J 1 25.09.2017 Mo 26.09.2017 15363 4761 20124 86 27 56 32 116 99 108 85
WikiHow Auf der Website wikiHow kann man lernen, die Kreiszahl Pi zu berechnen, indem man gefrorene Würstchen wirft. N 1 25.09.2017 Mo 26.09.2017 17685 9834 27519 98 56 77 57 130 128 129 98
Unimog 70200 Der erste Unimog wurde in einer Gold- und Silber­waren­fabrik entwickelt. J 1 26.09.2017 Di 27.09.2017 40365 15522 55887 229 93 161 40 228 243 235 106
Edward Phelan Edward Phelan gilt als der erste Beamte im Dienst einer internationalen Organisation. N 1 26.09.2017 Di 27.09.2017 7449 4400 11849 42 26 34 62 59 67 63 113
Usuda Deep Space Center Die 64-Meter-Hauptantenne des Usuda Deep Space Center war in die Voyager-2-Mission eingebunden. J 1 27.09.2017 Mi 28.09.2017 9682 5622 15304 58 33 45 57 63 98 81 154
Liebe, Tod und Eisenbahn In Liebe, Tod und Eisenbahn wird Heiner Lauterbach sein Hobby zum Verhängnis. N 1 27.09.2017 Mi 28.09.2017 17338 8140 25478 104 48 76 46 139 120 129 87
Spencer Park Dentzel Carousel Auf dem Spencer Park Dentzel Carousel drehen sich Pferde, Ziegen, Löwen usw. denkmalgeschützt im Kreis. J 1 28.09.2017 Do 29.09.2017 9988 3829 13817 59 23 41 39 56 64 60 113
Ernst Kamieth Das Gehirn von Ernst Kamieth verschwand in Ostberlin. N 1 28.09.2017 Do 29.09.2017 21241 10109 31350 125 61 93 49 199 202 200 101
Sonnenblumenfruchtfliege Die amerikanische Sonnenblumenfruchtfliege wurde in Europa erstmals 2010 in einem Berliner Zierbeet entdeckt. J 1 29.09.2017 Fr 30.09.2017 9950 3311 13261 60 23 42 39 69 110 89 160
Bildungscampus Herford Der Bildungscampus Herford wurde nach Abzug der britischen Streitkräfte in deren ehemaliger Kaserne eröffnet. N 1 29.09.2017 Fr 30.09.2017 3997 1550 5547 24 11 18 45 34 43 38 128
O. J. Simpson: Made in America O. J. Simpson: Made in America ist der längste je mit einem Oscar prämierte Film. J 1 30.09.2017 Sa 01.10.2017 14050 5842 19892 99 39 69 40 167 154 160 92
Fruitlands (Kommune) Die Mitglieder der Fruitlands-Kommune scheiterten Mitte des 19. Jahrhunderts mit ihren Ideen der transzendentalistischen Landwirtschaft. N 1 30.09.2017 Sa 01.10.2017 6010 4150 10160 42 28 35 66 100 110 105 110
Ameisler Mancher Ameisler konnte sich vom Saisonerlös einen Fernseher leisten. J 1 01.10.2017 So 02.10.2017 23307 13450 36757 157 81 119 51 239 147 193 62
Davo Karničar Davo Karničar meisterte als erster und bislang einziger Mensch die Skiabfahrt vom Mount Everest. N 1 01.10.2017 So 02.10.2017 8077 7273 15350 54 44 49 80 139 96 118 69
Herman Bernstein Herman Bernstein und Aaron Sapiro klagten gegen Henry Fords antisemitische Publikationen. J 2 02.10.2017 Mo 03.10.2017 3671 1525 5196 22 9 16 43 30 34 32 115
Aaron Sapiro Herman Bernstein und Aaron Sapiro klagten gegen Henry Fords antisemitische Publikationen. J 2 02.10.2017 Mo 03.10.2017 3013 1286 4299 18 8 13 44 25 29 27 118
Boris Lifschitz Der Schweizer „Salonbolschewist“ Boris Lifschitz war von 1949 bis 1957 Botschafter von San Marino in Liechtenstein. N 1 02.10.2017 Mo 03.10.2017 5415 3156 8571 32 19 26 60 43 44 44 103
Hafen von Larnaka Der Hafen von Larnaka ist seit über 3000 Jahren in Betrieb. J 1 03.10.2017 Di 04.10.2017 14268 13487 27755 88 80 84 91 87 208 148 239
Evangelische Kirche Tröbitz Auf dem einstigen Friedhof der Evangelischen Kirche in Tröbitz sind 160 Opfer des Verlorenen Zuges bestattet. N 1 03.10.2017 Di 04.10.2017 11906 11694 23600 73 69 71 94 102 176 139 172
Burg Herrenstein (Elsass) Burg Herrenstein im Elsass besaß einen romanischen Saalbau. J 1 04.10.2017 Mi 05.10.2017 14055 6136 20191 83 36 60 44 91 108 99 119
Doris Reichmann Doris Reichmann schrieb ein Buch über Gymnastik für Säuglinge, das 1930 erschien. N 1 04.10.2017 Mi 05.10.2017 4996 2997 7993 29 18 24 60 39 45 42 113
Thysania agrippina Die Weiße Hexe hat die größte Spannweite. J 1 05.10.2017 Do 06.10.2017 20725 15330 36055 123 91 107 74 117 251 184 214
Blaue Flut Die Blaue Flut ergießt sich durch Altenburg. N 1 05.10.2017 Do 06.10.2017 16152 9717 25869 95 58 77 60 153 191 172 125
VCR-Pleuel Ein VCR-Pleuel senkt den Kraftstoffverbrauch. J 1 06.10.2017 Fr 07.10.2017 30042 6323 36365 179 43 111 24 205 200 203 98
Gertrud Regus Gertrud Regus war die erste Frau in der Fußball-Bundesliga der Männer. N 1 06.10.2017 Fr 07.10.2017 17724 5091 22815 105 34 70 32 147 134 140 91
Altes Brennhaus (Fürstenberg) Im Alten Brennhaus in Fürstenberg wurden die frühesten erhaltenen Porzellan-Brennöfen Mitteleuropas ausgegraben. J 1 07.10.2017 Sa 08.10.2017 7242 2466 9708 49 15 32 30 82 58 70 71
Karl Gottlieb Hildebrandt Der Braunschweiger Schulreformer Karl Gottlieb Hildebrandt führte kurz vor dem Ersten Weltkrieg an der von ihm geleiteten Schule Französisch als erste Fremdsprache ein. N 1 07.10.2017 Sa 08.10.2017 2209 1079 3288 15 6 11 44 35 25 30 73
Sonnenwagen Aachen Mit einem Antrieb „so kraftvoll wie ein Fön“ fährt der Sonnenwagen Aachen durch das australische Outback. J 1 08.10.2017 So 09.10.2017 17995 16568 34563 108 93 100 86 165 169 167 103
HMAS Kuru Nach Kriegseinsätzen diente die schwer beschädigte HMAS Kuru einem Einsiedler als Wohnung. N 1 08.10.2017 So 09.10.2017 17291 23693 40984 104 132 118 127 266 292 279 110
Rivale (Oper) Lucia Ronchettis Oper Rivale ist die erste Uraufführung an der Staatsoper Berlin nach deren Wiedereröffnung. J 2 09.10.2017 Mo 10.10.2017 1390 458 1848 8 3 5 34 11 10 10 93
Lucia Ronchetti Lucia Ronchettis Oper Rivale ist die erste Uraufführung an der Staatsoper Berlin nach deren Wiedereröffnung. J 2 09.10.2017 Mo 10.10.2017 6658 702 7360 37 4 21 11 51 15 33 30
Martin-Luther-King-Kirche (Hamburg-Steilshoop) Die Martin-Luther-King-Kirche wird „Blaue Kachel“ genannt. N 1 09.10.2017 Mo 10.10.2017 10999 6471 17470 61 38 50 61 81 86 84 106
Kang Kyung-wha Seit 2017 pflegt mit Kang Kyung-wha erstmals eine Frau die internationalen südkoreanischen Beziehungen. J 1 10.10.2017 Di 11.10.2017 6764 2544 9308 39 15 27 39 39 40 39 102
The Boring Company Mit The Boring Company will Elon Musk Verkehrsprobleme unterirdisch lösen, sogar auf dem Mars. N 1 10.10.2017 Di 11.10.2017 17380 11340 28720 101 68 85 67 142 173 157 122
Myriam Harry Da der Prix Goncourt Männern vorbehalten wurde, erhielt Myriam Harry den ersten Prix Femina. J 1 11.10.2017 Mi 12.10.2017 8677 2558 11235 52 15 34 30 57 46 51 80
Five Childhood Lyrics In Five Childhood Lyrics stecken ein Kind für jeden Tag, eine Eule und ein Kätzchen, vier Evangelisten und ein Sixpence. N 1 11.10.2017 Mi 12.10.2017 4109 3905 8014 25 24 24 96 33 59 46 181
Balnuaran of Clava Die Gräber von Balnuaran of Clava in Schott­land wurden 1000 Jahre nach ihrer Errichtung wieder­verwendet. J 1 12.10.2017 Do 13.10.2017 17717 6389 24106 107 39 73 36 102 107 105 104
Dürkopp Typ P 16 Vor 100 Jahren stellten die für Näh­maschinen und Fahr­räder bekannten Dürkopp­werke den Oberklasse-Pkw Typ P 16 vor. N 1 12.10.2017 Do 13.10.2017 25405 10596 36001 153 64 109 42 245 213 229 87
Humboldtmühle Im Getreidesilo der Humboldtmühle in Berlin schlafen Klinikpatienten. J 1 13.10.2017 Fr 14.10.2017 12428 3321 15749 75 24 50 32 87 114 100 132
Krakatit Der Sprengstoff Krakatit explodiert üblicherweise am Dienstag und Freitag gegen halb elf am Abend. N 1 13.10.2017 Fr 14.10.2017 32991 9923 42914 200 72 136 36 279 283 281 101
Bergkirche Beucha Ein verlassener Steinbruch machte die Bergkirche Beucha zu einem beliebten Fotomotiv. J 1 14.10.2017 Sa 15.10.2017 10942 6091 17033 80 42 61 52 134 163 148 121
Dragons Breath Schon ein Biss in eine Dragons Breath kann der letzte sein. N 1 14.10.2017 Sa 15.10.2017 19699 14163 33862 143 97 120 67 339 379 359 112
(300163) 2006 VW139 Der einzige bekannte aktive Doppelasteroid heißt (300163) 2006 VW139. J 1 15.10.2017 So 16.10.2017 8444 8488 16932 58 49 54 86 88 90 89 103
Politician (Schiff) Die Politician lief mit 264.000 Flaschen Malt Whisky auf Grund – und wurde dann geplündert. N 1 15.10.2017 So 16.10.2017 13146 18867 32013 90 110 100 123 230 242 236 105
St. Jakob (Levoča) Der Hochaltar in St. Jakob in Levoča ist der höchste holzgeschnitzte Altar der Welt. J 1 16.10.2017 Mo 17.10.2017 9350 3708 13058 54 22 38 41 74 81 78 110
Laureen Nussbaum Für Hannelore Klein und Margot Frank war deren Schwester Anne die „Kleine“. N 1 16.10.2017 Mo 17.10.2017 12673 7185 19858 74 43 58 58 98 98 98 101
Marjolein Kriek Marjolein Kriek bekam ein Denkmal, obwohl sie quicklebendig ist und angeblich „nichts Besonderes“ getan hat. J 1 17.10.2017 Di 18.10.2017 29693 11868 41561 177 72 125 41 176 189 183 107
Společnost pro queer paměť Die Gesellschaft für Queer-Gedächtnis schuf ein tschechisches „Archiv der Erinnerungen“. N 1 17.10.2017 Di 18.10.2017 6670 3256 9926 40 20 30 50 56 50 53 90
Justine Frischmann Justine Frischmann war die „First Lady of Britpop“. J 1 18.10.2017 Mi 19.10.2017 20934 7624 28558 127 46 87 36 140 138 139 99
Der Funke Leben Erich Maria Remarque schrieb Der Funke Leben nach der Enthauptung seiner Schwester. N 1 18.10.2017 Mi 19.10.2017 27748 15960 43708 169 97 133 57 226 245 235 108
Schneekragen Ein Schneekragen konnte für Bergknappen zum Lebensretter werden. J 1 19.10.2017 Do 20.10.2017 44436 15092 59528 270 94 182 35 259 258 258 100
Paměť národa Im virtuellen Nationalen Gedächtnis Tschechiens sind aktuell 2500 Zeitzeugenberichte enthalten. N 1 19.10.2017 Do 20.10.2017 4130 1885 6015 25 12 18 47 40 39 39 96
Dagny Carlsson Dagny Carlsson eröffnete als Hundertjährige einen Blog und wurde weltberühmt. J 1 20.10.2017 Fr 21.10.2017 16484 2797 19281 102 19 60 18 117 89 103 76
Königliches Militärinstitut für Leibeserziehung Eine Frau Majorin leitet das Königliche Militärinstitut für Leibeserziehung, Belgiens älteste Militärsportschule. N 1 20.10.2017 Fr 21.10.2017 7920 2301 10221 49 15 32 32 68 61 65 89
Ein neuer erfolgreicher Tag Dem „Krawattenmann“ von Elberfeld wurde schon mehrmals die Krawatte gestohlen. J 1 21.10.2017 Sa 22.10.2017 12821 7353 20174 86 47 67 55 145 186 165 128
Sea Sorrow Die Idee zu Sea Sorrow entstand im Dschungel von Calais. N 1 21.10.2017 Sa 22.10.2017 5414 3650 9064 36 24 30 65 86 93 89 108
Dorfkirche Wust In der Gruft der romanischen Dorfkirche Wust liegt Hans Hermann von Katte, der wegen seiner engen Beziehung zu dem jungen Friedrich II. enthauptet wurde. J 1 22.10.2017 So 23.10.2017 16854 13929 30783 109 79 94 73 166 145 156 88
Hugo Bondy (Psychiater) Der tschechische Psychiater Hugo Bondy war in den 1920er Jahren ein Vorkämpfer für die Rechte der Homosexuellen. N 1 22.10.2017 So 23.10.2017 4030 5028 9058 26 29 27 110 67 63 65 95
Talayotisches Haus von Biniparratx Petit Das Talayotische Haus von Biniparratx Petit musste dem Flughafenausbau auf Menorca weichen. J 1 23.10.2017 Mo 24.10.2017 18303 5839 24142 104 34 69 32 142 124 133 87
Heiliges Bründl Das Wasser des Heiligen Bründls wird sowohl von Katholiken als auch von Esoterikern geschätzt. N 1 23.10.2017 Mo 24.10.2017 9582 5242 14824 55 30 43 56 72 70 71 96
Ixodes pacificus Das Blut einiger Echsenarten befreit Ixodes pacificus von Borreliose-Erregern. J 1 24.10.2017 Di 25.10.2017 13033 6705 19738 76 40 58 53 75 104 90 139
Sitzzuteilungsverfahren nach der Wahl zum Deutschen Bundestag Die Verteilung der Sitze im Bundestag verletzte für 57 Jahre das Grundgesetz. N 1 24.10.2017 Di 25.10.2017 19960 11507 31467 116 68 92 59 162 174 168 107
Shmuley Boteach Shmuley Boteach schrieb über koscheren Sex und beriet Michael Jackson. J 1 25.10.2017 Mi 26.10.2017 22344 7519 29863 133 46 89 35 145 137 141 94
Slims River Der Slims River verschwand innerhalb von vier Tagen. N 1 25.10.2017 Mi 26.10.2017 27809 14789 42598 165 91 128 55 221 228 225 103
EisenerZ*ART eisenerZ*ART ließ Bergbaumaschinen tanzen. J 1 26.10.2017 Do 27.10.2017 16211 5305 21516 99 33 66 33 95 91 93 96
Broadway Bill Broadway Bill wurde über 40 Jahre nicht aufgeführt und galt schon als verschollen. N 1 26.10.2017 Do 27.10.2017 10230 5262 15492 63 33 48 52 100 108 104 108
Bärenreservat Zărnești Die EU-Zoo-Direktive brachte neue Bewohner in das Bärenreservat Zărnești. J 1 27.10.2017 Fr 28.10.2017 10925 1724 12649 68 12 40 18 78 58 68 75
Holzkirche Schönebeck Die als „Notkirche“ errichtete Schönebecker Holzkirche feierte bereits ihr 50-jähriges Bestehen. N 1 27.10.2017 Fr 28.10.2017 11743 3591 15334 73 26 49 35 102 101 101 99
Hanka Petzold Hanka Petzold brachte die Romantik nach Japan. J 1 28.10.2017 Sa 29.10.2017 7231 2654 9885 52 17 35 33 87 68 77 77
Uromys vika Die 2015 entdeckte Riesenratte Uromys vika ist vom Aussterben bedroht. N 1 28.10.2017 Sa 29.10.2017 11357 7674 19031 82 50 66 61 193 196 194 102
Blanche Hoschedé-Monet Blanche Hoschedé-Monet stand ihrem berühmten Stiefvater Modell. J 1 29.10.2017 So 30.10.2017 7773 8165 15938 51 51 51 101 77 93 85 121
Bremer Kirchenstreit Der Bremer Kirchenstreit beschäftigte sowohl den städtischen Senat als auch den jungen Friedrich Engels. N 1 29.10.2017 So 30.10.2017 4371 3207 7578 28 20 24 70 73 44 58 61
Steirisches Wurzelfleisch Als Klassiker ist das Steirische Wurzelfleisch sogar in der Haubenküche beliebt. J 1 30.10.2017 Mo 01.11.2017 28214 10542 38756 176 64 120 36 240 235 237 98
Kaiser-Wilhelm-Institut für Kohlenforschung Die Nachbarn des Kaiser-Wilhelm-Instituts für Kohlenforschung erhielten seit seiner Eröffnung viermal täglich Post. N 1 30.10.2017 Mo 01.11.2017 11937 9034 20971 75 55 65 74 99 126 112 128
Die beste Zeit im Jahr ist mein Die beste Zeit im Jahr ist mein, Martin Luthers Loblied auf die Musik, bekam seine Melodie erst 400 Jahre nach der Reformation. J 1 31.10.2017 Di 1711 1711 11 11
Playmobil-Luther Der Playmobil-Luther bekam nach Protesten eine neue Bibel. N 1 31.10.2017 Di 19763 19763 126 176
Martin Luther und die Juden (Ausstellung) Die Ausstellung „Ertragen können wir sie nicht“ zeigt Martin Luthers verstörende Judenfeindschaft. N 1 31.10.2017 Di 8612 8612 55 77
St.-Georg-und-Mauritius-Kirche Ein Jüngling führte die Reformation an der St.-Georg-und-Mauritius-Kirche ein. N 1 31.10.2017 Di 2518 2518 16 22
Reinhold Lewin Reinhold Lewin erforschte 1911 Luthers Stellung zu den Juden, 1943 wurde er mit Frau und zwei Kindern Opfer des Holocaust. N 1 31.10.2017 Di 5126 5126 33 46
Nancy Storace Nancy Storace war Mozarts erste Susanna. J 1 01.11.2017 Mi 02.11.2017 10500 6724 17224 64 40 52 63 70 119 94 170
Mi gente Mit Mi gente schufen ein Franzose und ein Kolumbianer einen spanisch­sprachigen Dance-Hit. N 1 01.11.2017 Mi 02.11.2017 5458 4676 10134 33 28 31 84 44 70 57 158
Schloss Courances Ein deutscher Bankier rettete das französische Schloss Courances vor dem Verfall. J 1 02.11.2017 Do 03.11.2017 23169 5918 29087 138 36 87 26 132 100 116 75
Kanagawa (Spiel) In Kanagawa verfolgen bis zu vier Spieler die Lehren des großen Malers Hokusai. N 1 02.11.2017 Do 03.11.2017 9028 3881 12909 54 24 39 44 86 78 82 91
Fayoum Light Railway Die Fossilien aus dem Fayyum-Becken wurden mit der Fayoum Light Railway zum Verschiffen nach Kairo transportiert. J 1 03.11.2017 Fr 04.11.2017 15698 2155 17853 96 15 55 16 110 71 91 65
Batralzem Batralzem soll „ein von Nicht-Eifelern kaum zu ertragendes Getränk“ sein. N 1 03.11.2017 Fr 04.11.2017 27823 8592 36415 170 60 115 36 237 237 237 100
Eddie Foy senior Eddie Foy senior wurde erst im Wilden Westen und dann am Broadway berühmt. J 1 04.11.2017 Sa 05.11.2017 7443 3353 10796 52 20 36 39 88 80 84 90
Der Messias (Händel, arr. Mozart) Mozarts Messias stammt von Händel. N 1 04.11.2017 Sa 05.11.2017 5421 3855 9276 38 23 31 61 90 92 91 102
Automuseum Nettelstedt Das ehemalige Automuseum Nettelstedt galt als „das Mekka vieler Bugattisten“. J 1 05.11.2017 So 06.11.2017 11703 11213 22916 71 65 68 91 108 118 113 110
Kochkunstführer Mit seinem Kochkunstführer reformierte Georges Auguste Escoffier vor gut hundert Jahren die Haute cuisine. N 1 05.11.2017 So 06.11.2017 3919 4988 8907 24 29 26 121 61 63 62 104
El Vez El Vez singt mit Humor für die Gleichberechtigung mexikanischer Einwanderer. J 1 06.11.2017 Mo 07.11.2017 10034 2263 12297 58 13 36 23 79 48 64 61
Franco-Paselli-Friedenspreis Der Franco-Paselli-Friedenspreis wurde nach dem jüngsten Opfer des Massakers von Marzabotto benannt. N 1 06.11.2017 Mo 07.11.2017 5957 3076 9033 34 18 26 52 46 41 43 90
Judensau am Chorgestühl des Kölner Domes Seit dem 14. Jahrhundert ist am Chorgestühl des Kölner Domes eine „Judensau“ als antijüdische Darstellung zu sehen. J 1 07.11.2017 Di 08.11.2017 26303 13849 40152 153 81 117 53 152 211 181 139
Tulipa luanica Tulipa luanica gibt’s nicht im Blumenladen. N 1 07.11.2017 Di 08.11.2017 12470 7862 20332 73 46 59 63 102 117 109 115
Harzburger Hof Das 2017 abgebrochene Luxushotel Harzburger Hof hatte einst 270 Zimmer und ein Spielkasino. J 1 08.11.2017 Mi 09.11.2017 36060 12291 48351 210 72 141 34 230 213 222 93
Liste der Abgeordneten zum Österreichischen Nationalrat (XXVI. Gesetzgebungsperiode) Jede Fraktion des neuen Nationalrats der Republik Österreich stellt zumindest einen Abgeordneten unter 30 Jahren. N 1 08.11.2017 Mi 09.11.2017 3507 2922 6429 20 17 19 84 27 43 35 158
KZ Sereď Vom KZ Sereď aus wurden 18.000 slowakische Juden in andere Konzentrations- oder Vernichtungslager verschleppt. J 1 09.11.2017 Do 10.11.2017 15141 6074 21215 88 37 63 42 85 101 93 120
Philo-Verlag Der Philo-Verlag wurde 1919 zur Abwehr des Antisemitismus gegründet. N 1 09.11.2017 Do 10.11.2017 5279 2347 7626 31 14 23 46 49 47 48 96
Satyagraha (Oper) Es dauerte 37 Jahre, bis die Friedensoper Satyagraha von Philip Glass in Berlin erstaufgeführt wurde. J 1 10.11.2017 Fr 11.11.2017 3934 1192 5126 24 8 16 34 27 39 33 141
If I Knew You Were Comin’ I’d’ve Baked a Cake Rita Paul ließ ihren Bobby Kuchen backen, aber Ernie spendierte dem Krümelmonster auch noch eine neue Melodie. N 1 10.11.2017 Fr 11.11.2017 13120 4565 17685 79 31 55 39 111 123 117 111
Haus Mennicken Eine Göttin im Giebel des Hauses Mennicken verdeutlicht den Reichtum und Machtanspruch seines Erbauers. J 1 11.11.2017 Sa 12.11.2017 4945 3411 8356 34 22 28 64 57 85 71 148
Nomi Baumgartl Nomi Baumgartls Fotografien zeigen die Schönheit des „ewigen Eises“ und dokumentieren zugleich die Folgen des Klimawandels. N 1 11.11.2017 Sa 12.11.2017 3555 2619 6174 24 17 21 68 58 65 61 113
Afrikanischer Armschlagring Kampfspiele mit afrikanischen Armschlagringen werden noch in heutiger Zeit veranstaltet. J 1 12.11.2017 So 13.11.2017 20472 14896 35368 130 84 107 65 197 154 176 78
Hanlon Brothers Die Hanlon Brothers führten weltweit zum ersten Mal den doppelten Salto am Trapez rückwärts vor. N 1 12.11.2017 So 13.11.2017 5085 5647 10732 32 32 32 99 82 70 76 85
Neumarktkirche St. Thomae (Merseburg) Die verknotete Säule an der Neumarktkirche in Merseburg sollte Dämonen fernhalten. J 1 13.11.2017 Mo 14.11.2017 11798 6078 17876 67 35 51 53 91 130 110 143
Liste von Straßennamen mit mehreren Personen in Deutschland Die Geschwister Scholl und die Brüder Grimm sind nicht die einzigen Geschwister auf deutschen Straßenschildern. N 1 13.11.2017 Mo 14.11.2017 18505 12012 30517 105 70 87 67 139 160 150 116
Personal Rescue Enclosure Mit einer nur 86 Zentimeter großen Rettungskapsel sollten Space-Shuttle-Astronauten im Notfall in Sicherheit gebracht werden. J 1 14.11.2017 Di 15.11.2017 39698 16939 56637 231 102 167 44 230 266 248 116
Dolly Rüdeman Dolly Rüdemans Karriere begann mit großer Kunst und endete in der Vergessenheit. N 1 14.11.2017 Di 15.11.2017 15525 8139 23664 90 49 70 54 127 124 126 98
James Lackington James Lackington war ein Pionier des Modernen Antiquariats. J 1 15.11.2017 Mi 16.11.2017 8425 2254 10679 51 14 32 27 55 40 48 72
Marie von Rokitansky Marie von Rokitansky stellte an den „schönen und lohnenden Beruf als Hausfrau“ hohe Ansprüche. N 1 15.11.2017 Mi 16.11.2017 12384 6001 18385 74 36 55 48 99 91 95 91
Jang Bahadur Rana Jang Bahadur Rana verzichtete seit seiner Europareise auf das Massakrieren von politischen Gegnern. J 1 16.11.2017 Do 17.11.2017 39509 10282 49791 237 64 150 27 227 175 201 77
Irene Greulich Dank Organistin Irene Greulich erklingt die Hildebrandt-Orgel von 1746 in Naumburgs Stadtkirche wie zu Bachs Zeiten. N 1 16.11.2017 Do 17.11.2017 5914 2664 8578 35 16 26 46 57 55 56 96
Rosenthaler Wohnturm Vom mittelalterlichen Rosenthaler Wohnturm im heutigen Berlin sind nur noch einige Feldsteine übrig geblieben. J 1 17.11.2017 Fr 18.11.2017 20057 4273 24330 124 30 77 24 142 140 141 98
Hafen Neum Der Hafen Neum ist der einzige Seehafen von Bosnien und Herzegowina. N 1 17.11.2017 Fr 18.11.2017 10931 4877 15808 68 34 51 50 94 133 114 141
Brakteaten (Dohna) Das Hirschgeweih auf Dohnaer Brakteaten war einst an einem Pfeiler der Dresdner Elbbrücke zu sehen. J 1 18.11.2017 Sa 19.11.2017 6514 3326 9840 45 21 33 47 76 84 80 110
Picoazá In Picoazá gewann 1967 ein Fußpuder die Kommunalwahl. N 1 18.11.2017 Sa 19.11.2017 6092 3741 9833 42 24 33 57 100 95 97 95
Alte Kapelle (Mülheim-Kärlich) Zu den bisherigen Fremdnutzern der Alten Kapelle in Mülheim-Kärlich gehören Pferde, Schüler und Sitzungsteilnehmer. J 1 19.11.2017 So 20.11.2017 3075 4232 7307 20 23 21 116 30 42 36 140
Willy Jannasch Über 30 Jahre lang wurde Willy Jannasch unter falschem Namen auf einem Straßenschild geehrt. N 1 19.11.2017 So 20.11.2017 10999 12049 23048 71 66 68 93 182 145 163 80
Kaffeegesellschaft Für seine 1770 angefertigte Kaffeegesellschaft benötigte Jean Jacques Desoches 108 Einzelteile. J 1 20.11.2017 Mo 21.11.2017 12256 9582 21838 67 56 61 83 91 204 147 224
Saudia-Flug 162 Die beiden Opfer von Saudia-Flug 162 wurden nie geborgen. N 1 20.11.2017 Mo 21.11.2017 32673 20460 53133 178 119 149 67 236 272 254 115
Heidelberg Hotel Das Heidelberg Hotel war das inoffizielle Haupt­quartier eines Gouverneurs von Louisiana. J 1 21.11.2017 Di 22.11.2017 20340 5674 26014 118 34 76 29 117 88 103 75
Marta Linz Nach Marta Linz dauerte es über 40 Jahre, bis wieder eine Frau die Berliner Philharmoniker dirigierte. N 1 21.11.2017 Di 22.11.2017 6101 2850 8951 35 17 26 48 50 43 46 87
Hilmteich Der Hilmteich entwickelte sich vom versumpften Ziegelteich zu einem mondänen Ausflugsziel. J 1 22.11.2017 Mi 23.11.2017 18611 8190 26801 111 50 80 45 121 147 134 122
Vollgummireifen Mit Vollgummireifen wurden Pkw noch bis 1929 ausgerüstet. N 1 22.11.2017 Mi 23.11.2017 20687 11564 32251 123 70 97 57 164 177 170 108
Turmhaus (Basel) Das 31 Meter hohe Turmhaus in Basel verursachte eine Debatte über den Hochhausbau in der Stadt. J 1 23.11.2017 Do 24.11.2017 13949 6923 20872 85 44 64 51 81 120 101 148
Non ho l’età (per amarti) Auch nach 50 Jahren sorgte Gigliola Cinquettis Hit Non ho l’età (per amarti) in Italien für Aufsehen. N 1 23.11.2017 Do 24.11.2017 14950 7254 22204 91 46 68 50 145 151 148 104
Der Mieter (Oper) Der Mieter wird vom Mann zur Frau und stürzt aus dem Fenster. J 1 24.11.2017 Fr 25.11.2017 18426 4954 23380 116 35 75 30 133 163 148 123
Jeremy (Schnecke) Erst kurz vor seinem Tod konnte sich Jeremy fortpflanzen. N 1 24.11.2017 Fr 25.11.2017 31403 8538 39941 197 60 129 30 275 234 255 85
Venezianische Gondel (Berlin) Eine venezianische Gondel wurde im Berliner Museum Europäischer Kulturen von Termiten befallen. J 1 25.11.2017 Sa 26.11.2017 11028 3830 14858 77 25 51 33 130 98 114 76
Greenscamming Greenscamming-Organisationen sind nicht das, was sie zu sein vorgeben. N 1 25.11.2017 Sa 26.11.2017 8474 5439 13913 59 36 47 60 140 140 140 100
Merzario A3 Der neu entwickelte Merzario A3 scheiterte an seiner vier Jahre alten Technik. J 1 26.11.2017 So 27.11.2017 18254 19658 37912 120 113 116 95 182 207 195 114
Jesus, meine Zuversicht Mit Jesus, meine Zuversicht sind preußische Könige, Herr von Ribbeck, die Märzgefallenen und Bundeskanzler zu Grabe getragen worden. N 1 26.11.2017 So 27.11.2017 7526 7826 15352 49 45 47 92 126 99 113 79
Kolosseum (Erlangen) Im Kolosseum hielt Hitler seine erste Rede in Erlangen. J 1 27.11.2017 Mo 28.11.2017 17783 8372 26155 103 50 76 49 140 183 161 131
Ropa vieja Alte Kleidung ist eines der Nationalgerichte Kubas. N 1 27.11.2017 Mo 28.11.2017 21843 12153 33996 126 72 99 57 167 166 166 99
Gertrud Dübi-Müller Gertrud Dübi-Müller hatte einen Hang zu Toten­schädeln, Gold­fischen und einem Irrenwärter. J 1 28.11.2017 Di 29.11.2017 31571 9982 41553 188 60 124 32 187 156 171 84
Siegfried-Grab Schon im 15. Jahrhundert ließ Kaiser Friedrich III. das Siegfried-Grab „kreuz­weise“ aufgraben. N 1 28.11.2017 Di 29.11.2017 23980 10270 34250 143 62 102 43 200 157 178 78
Cetatea Tricule Von der überfluteten Festung der drei Türme sind heute nur noch zwei Türme zu sehen. J 1 29.11.2017 Mi 30.11.2017 46940 12979 59919 281 80 181 29 308 239 273 78
Klemens Wittig Trotz Hexenschuss, Schlüsselbeinbruch und starken Windböen gewann Klemens Wittig den Marathon in seiner Altersklasse. N 1 29.11.2017 Mi 30.11.2017 15289 7234 22523 92 45 68 49 122 113 118 92
Speculum virginum Im Speculum virginum überzeugt der Mönch die geweihte Jungfrau vom Glück ihrer Jungfräulichkeit um des Himmelreichs willen. J 1 30.11.2017 Do 01.12.2017 14047 6218 20265 87 40 64 46 83 111 97 133
Lydia Möcklinghoff Bei den „Science-Slams“ von Lydia Möcklinghoff hat der Große Ameisenbär die Nase vorn. N 1 30.11.2017 Do 01.12.2017 11637 2970 14607 72 19 46 27 115 64 89 55
Hare on Bell on Portland Stone Piers In Jerewan balanciert ein springender Hase auf einer Glocke. J 1 01.12.2017 Fr 02.12.2017 11966 3301 15267 77 24 51 31 89 114 101 128
Geschichte des Strahlenschutzes Auch Bananen sind radioaktiv, wie die Geschichte des Strahlenschutzes zeigt. N 1 01.12.2017 Fr 02.12.2017 15319 5525 20844 99 40 70 41 138 159 148 115
Bahnstrecke Meyrargues–Nizza Die Pinienzapfenbahn war die erste vom Staat gebaute Schmalspur-Eisenbahnstrecke Frankreichs. J 1 02.12.2017 Sa 03.12.2017 9159 4572 13731 67 31 49 46 113 121 117 107
Zunft zu Spinnwettern Die Zunft zu Spinnwettern beschäftigt sich weder mit Spinnen noch mit dem Wetter. N 1 02.12.2017 Sa 03.12.2017 7515 4810 12325 55 33 44 59 130 128 129 98
Julie Elias Julie Elias’ Motto war: Kochkunst – die erlaubte Wollust des Lebens. J 1 03.12.2017 So 04.12.2017 4531 4416 8947 31 26 28 84 47 47 47 101
Queere Tiere Die Berliner Rapperin Sookee widmete queeren Tieren ein Lied. N 1 03.12.2017 So 04.12.2017 8085 9377 17462 55 55 55 100 140 121 130 86
Ibtihaj Muhammad Ibtihaj Muhammad siegte mit Säbel und Hidschab für die USA. J 1 04.12.2017 Mo 05.12.2017 25325 10581 35906 148 64 106 43 201 235 218 117
Bhor Ghat Am Bhor Ghat starben etwa 25.000 Bahnarbeiter durch Unfälle und Krankheiten. N 1 04.12.2017 Mo 05.12.2017 28145 19002 47147 164 115 140 70 218 264 241 121
Väyrynenit Bereits 1939 entdeckt, erhielt der Väyrynenit erst zehn Jahre später seinen Namen. J 1 05.12.2017 Di 06.12.2017 25421 6601 32022 154 40 97 26 153 105 129 69
Idwal Robling Dank seines walisischen Akzents durfte Idwal Robling für die BBC von der Fußball-WM 1970 berichten. N 1 05.12.2017 Di 06.12.2017 9545 4111 13656 58 25 41 43 81 64 72 79
Olavi Paavolainen Der finnische Dichter und Dandy Olavi Paavolainen war Ende der 1930er gleichermaßen von der Moskauer Metro wie den deutschen Autobahnen begeistert. J 1 06.12.2017 Mi 07.12.2017 9045 2626 11671 55 16 36 29 61 48 54 79
Mutterschaftspaket Das Mutterschaftspaket kann man nicht kaufen, es wird nur verschenkt. N 1 06.12.2017 Mi 07.12.2017 20684 9490 30174 126 58 92 46 169 146 158 87
Pachliopta aristolochiae Die Flügelstruktur von Pachliopta aristolochiae wird auf Solarzellen ausprobiert. J 1 07.12.2017 Do 08.12.2017 8725 4393 13118 53 27 40 51 51 76 63 148
Basil Embry Der britische NATO-Kommandeur Basil Embry beschloss sein Leben als Schafzüchter in Australien. N 1 07.12.2017 Do 08.12.2017 12098 8345 20443 74 52 63 70 118 173 146 146
Lutherdenkmal (Bielsko-Biała) Das Lutherdenkmal von Bielsko-Biała ist das einzige seiner Art in Polen. J 1 08.12.2017 Fr 09.12.2017 9814 2934 12748 61 21 41 35 70 100 85 142
Marie-Jacques Perrier Als 13-Jährige nahm Marie-Jacques Perrier mit dem Jazzgitarristen Django Reinhardt ein Chanson auf. N 1 08.12.2017 Fr 09.12.2017 8801 3772 12573 55 27 41 50 77 107 92 139
Gräberfeld von Rössen Das Gräberfeld von Rössen ist der namensgebende Fundort einer jungsteinzeitlichen Kultur. J 1 09.12.2017 Sa 10.12.2017 7686 3538 11224 56 24 40 44 93 95 94 102
Beco das Garrafas In der Beco das Garrafas wurde der Bossa Nova geboren. N 1 09.12.2017 Sa 10.12.2017 3962 2976 6938 29 20 25 71 68 80 74 118
Punt Gun Um 50 Enten auf einen Streich zu erlegen, braucht man ein dickes Rohr. J 1 10.12.2017 So 11.12.2017 29124 27993 57117 200 161 180 81 304 294 299 97
Wilhelm Riedel (Tuchfabrikant) Wilhelm Riedel teilte seine Rente mit Witwen und Waisen. N 1 10.12.2017 So 11.12.2017 8747 10441 19188 60 60 60 100 154 132 143 86
Liste der 999 Frauen des Heritage Floors Judy Chicago lud 39 bedeutende Frauen zum Dinner und 999 weitere kamen zur Party. J 2 11.12.2017 Mo 12.12.2017 8706 2703 11409 50 16 33 33 68 60 64 88
The Dinner Party Judy Chicago lud 39 bedeutende Frauen zum Dinner und 999 weitere kamen zur Party. J 2 11.12.2017 Mo 12.12.2017 24116 5430 29546 139 33 86 24 188 120 154 64
Henda Ayari Henda Ayari erlebte ihre Wiederauferstehung, nachdem sie ein Jahrzehnt als lebende Tote verbracht hatte. N 1 11.12.2017 Mo 12.12.2017 38858 16657 55515 223 100 162 45 295 230 263 78
Blaue Kuppe Nicht der Himmel, sondern Gestein gab der nordhessischen Blauen Kuppe wohl ihren Namen. J 1 12.12.2017 Di 13.12.2017 13590 3558 17148 82 22 52 27 81 57 69 71
Marcel Nadjari Marcel Nadjaris Bericht über die Vergasung von Juden im KZ Auschwitz wurde nach Jahrzehnten in einer Thermosflasche gefunden. N 1 12.12.2017 Di 13.12.2017 29039 14308 43347 175 88 132 50 245 225 235 92
Sonne der Gerechtigkeit Sonne der Gerechtigkeit, von Otto Riethmüller 1932 als Weckruf an die Kirche aus älteren Liedversen zusammengestellt, wurde oft bei den Friedensgebeten gesungen. J 1 13.12.2017 Mi 14.12.2017 4440 2110 6550 27 13 20 48 30 39 34 129
Florian Reichert Florian Reichert ist Rekordsieger im „härtesten Rennen des Nordens“. N 1 13.12.2017 Mi 14.12.2017 14570 9208 23778 90 57 74 63 120 144 132 120
Kristin Lund Kristin Lund überwacht den Waffenstillstand in Israel und den arabischen Staaten im Auftrag der Vereinten Nationen. J 1 14.12.2017 Do 15.12.2017 19557 4793 24350 121 31 76 26 116 86 101 74
Greta & Starks Greta & Starks begleiten Blinde und Gehörlose ins Kino. N 1 14.12.2017 Do 15.12.2017 9053 5153 14206 56 34 45 60 90 111 100 124
Graun-Denkmal Erst nach 23-jährigen Bemühungen konnte das Graun-Denkmal in Wahrenbrück eingeweiht werden. J 1 15.12.2017 Fr 16.12.2017 9472 3604 13076 62 27 44 43 71 125 98 177
Rachid Kassim Der Ex-Rapper Rachid Kassim rekrutierte hunderte junger Menschen für den IS. N 1 15.12.2017 Fr 16.12.2017 25626 7508 33134 167 55 111 33 233 217 225 93
Konzertsegel Die Konstruktionsidee des Konzertsegels wurde in Sevilla weltberühmt. J 1 16.12.2017 Sa 17.12.2017 7815 3590 11405 58 25 41 43 97 97 97 100
Heterometrus cimrmani Heterometrus cimrmani gibt es wirklich, seinen tschechischen Namensgeber aber nicht. N 1 16.12.2017 Sa 17.12.2017 7520 4151 11671 56 29 42 51 131 112 122 86
Straßenbahnen im Département Haute-Vienne Mit Schaffung des Mahnmals von Oradour-sur-Glane wurde auch ein Teil der Straßenbahnen im Département Haute-Vienne konserviert. J 1 17.12.2017 So 18.12.2017 11066 10348 21414 76 61 69 81 116 112 114 97
Jonas Buud Jonas Buud gewinnt den Wasalauf auch ohne Skier. N 1 17.12.2017 So 18.12.2017 6988 12588 19576 48 75 61 155 123 165 144 134
Napoleon House Im Napoleon House in New Orleans wurde eine Flucht des verbannten Ex-Kaisers von St. Helena geplant. J 1 18.12.2017 Mo 19.12.2017 18242 5747 23989 108 36 72 33 147 131 139 89
Lucius Trebellius (Volkstribun 67 v. Chr.) Lucius Trebellius wollte für seine republikanischen Überzeugungen sterben, ließ sich aber umstimmen. N 1 18.12.2017 Mo 19.12.2017 14104 7399 21503 84 46 65 55 111 105 108 95
Archäologische Untersuchung der „Republik Freies Wendland“ Zu den Fundstücken bei der Archäologischen Untersuchung der „Republik Freies Wendland“ zählen Dosen von Fertiggerichten und eine Tasse. J 1 19.12.2017 Di 20.12.2017 27958 10317 38275 173 64 119 37 172 168 170 97
Barber Angels Die Barber Angels werden manchmal „Engel mit Scheren“ genannt. N 1 19.12.2017 Di 20.12.2017 13671 8568 22239 85 53 69 63 119 136 127 114
Alexander Hamilton Bridge Die Alexander Hamilton Bridge in New York wurde von einem chinesischen Bauunternehmen renoviert. J 1 20.12.2017 Mi 21.12.2017 13624 4699 18323 85 30 57 35 93 89 91 96
Rosie Flores Über eine Crowdfunding-Aktion finanzierte Rosie Flores das letzte Album der Rockabilly-Ikone Janis Martin. N 1 20.12.2017 Mi 21.12.2017 4788 2565 7353 30 16 23 55 40 41 41 104
Domkran Der Kölner Domkran stand 450 Jahre still, aber er drehte sich im Wind und machte Lärm. J 1 21.12.2017 Do 22.12.2017 55279 15351 70630 354 104 229 30 339 288 314 85
Eiseneier Eiseneier sind essbar. N 1 21.12.2017 Do 22.12.2017 27104 10270 37374 174 70 122 40 277 232 254 84
Santi Vila i Vicente Der frühere Minister Santi Vila i Vicente wurde aus dem Bild der „legitimen Regierung“ Kataloniens herausretuschiert, sein linkes Bein ist aber noch sichtbar. J 1 22.12.2017 Fr 23.12.2017 18622 5192 23814 127 39 83 31 146 185 165 127
Rangierbahnhof Basel Bad Bf Durch die Eröffnung des Rangierbahnhofs Weil am Rhein 1913 wurde die Stadt zu einem industriellen Zentrum. N 1 22.12.2017 Fr 23.12.2017 7227 4363 11590 49 33 41 67 69 129 99 188
Ebert-Erzberger-Rathenau-Mahnmal Das in der Formensprache des Bauhauses gestaltete Ebert-Erzberger-Rathenau-Mahnmal, 1933 als „entartet“ zerstört, wurde 1983 wieder aufgebaut. J 1 23.12.2017 Sa 24.12.2017 8373 3815 12188 63 30 47 48 106 119 113 112
Springer Opera House Für Oscar Wilde war das Springer Opera House eine der Stationen seiner triumphalen ersten Amerika-Lesereise. N 1 23.12.2017 Sa 24.12.2017 1852 1003 2855 14 8 11 57 33 31 32 95
Antonietta Dell’Era Antonietta Dell’Era war die erste „Zuckerfee“. J 1 24.12.2017 So 25.12.2017 6912 4137 11049 55 31 43 57 84 57 71 68
Der Erlöser vom Mars Ein Roman von 1979 schildert die Wiederkunft Christi als Erlöser vom Mars. N 1 24.12.2017 So 25.12.2017 3639 2490 6129 29 19 24 65 74 42 58 56
Christmas Mountains In den Christmas Mountains entspringt der North Pole Stream. J 1 25.12.2017 Mo 26.12.2017 8430 3605 12035 64 26 45 41 87 96 92 111
Sendbrief vom Dolmetschen Im Sendbrief vom Dolmetschen begründete Luther, weshalb seine Bibel auch eine Stilfibel war. N 1 25.12.2017 Mo 26.12.2017 3263 2090 5353 25 15 20 62 33 35 34 107
Eiskrippe (Graz) In Graz kann man jährlich der Eiskrippe beim Schmelzen zusehen. J 1 26.12.2017 Di 27.12.2017 5809 5227 11036 42 34 38 81 42 90 66 213
Hormurus polisorum Hormurus polisorum lebt nicht auf, sondern in der Weihnachtsinsel. N 1 26.12.2017 Di 27.12.2017 8645 7558 16203 63 50 56 79 88 126 107 143
Patiala State Monorail Trainways Die ungewöhnlichen Dampflokomotiven der Patiala State Monorail Trainways stammten aus Berlin. J 1 27.12.2017 Mi 28.12.2017 19683 9447 29130 129 61 95 47 142 182 162 128
Willi Gundlach Willi Gundlach erarbeitete im Offenen Kantatensingen mit freiwilligen Choristen Teil III aus Bachs Weihnachtsoratorium in einem Tag. N 1 27.12.2017 Mi 28.12.2017 2153 1271 3424 14 8 11 58 19 21 20 110
St. Peter und Paul (Wusterhausen/Dosse) Bei einem Blitzschlag, der ein Gewölbe der Kirche in Wusterhausen/Dosse zerstörte, blieb die wertvolle Wagner-Orgel erhalten. J 1 28.12.2017 Do 29.12.2017 6400 2378 8778 42 16 29 38 40 43 42 109
Manass Neumark Manass Neumark war der erste Rabbiner von Duisburg. N 1 28.12.2017 Do 29.12.2017 4622 2358 6980 30 16 23 52 48 52 50 108
Verein der Plakatfreunde Der Verein der Plakatfreunde hatte die „Förderung des Reklamewesens“ zum Ziel. J 1 29.12.2017 Fr 30.12.2017 4465 1590 6055 30 12 21 40 34 55 45 162
Ageltrude Weil Ageltrude Gerechtigkeit forderte, verlor ein toter Papst drei Finger und wurde in den Tiber geworfen. N 1 29.12.2017 Fr 30.12.2017 17984 8530 26514 119 63 91 53 166 246 206 148
Kinderharfe Die Kinderharfe ist eine Leier. J 1 30.12.2017 Sa 31.12.2017 7144 2378 9522 53 19 36 35 88 73 81 82
Arunah Shepherdson Abell Arunah S. Abell beschleunigte den Nachrichtenverkehr mit Ponys und Brieftauben. N 1 30.12.2017 Sa 31.12.2017 4698 2661 7359 35 21 28 60 82 82 82 100
1I/ʻOumuamua Der zigarrenförmige ʻOumuamua ist der erste von Menschen beobachtete Bote aus dem interstellaren Raum. J 1 31.12.2017 So 01.01.2018 22112 9829 31941 173 70 121 40 263 127 195 49
Fried Wesemann Fried Wesemann spionierte in den 1960er-Jahren Spitzenpolitiker der SPD aus. N 1 31.12.2017 So 01.01.2018 6097 4762 10859 48 34 41 71 122 74 98 61


Neujahrsbaum Unter dem Neujahrsbaum verteilen Väterchen Frost und Noel Baba die Neujahrsgeschenke. J 1 01.01.2018 Mo 02.01.2018 6475 5311 11786 46 33 39 72 32 58 45 182
Barbara Laister-Ebner Barbara Laister-Ebner zithert rund um den Globus. N 1 01.01.2018 Mo 02.01.2018 5343 5240 10583 38 32 35 86 33 52 42 159
Prost Neujahr, Charlie Brown! Prost Neujahr, Charlie Brown! N 1 01.01.2018 Mo 02.01.2018 13629 14832 28461 97 92 94 95 83 146 114 176
Pax-Gebäude Im Eingangsbereich des Pax-Gebäudes in Basel ist eine Mahlzeit aufgetischt, die man nicht essen kann. J 1 02.01.2018 Di 03.01.2018 19219 10059 29278 119 50 84 42 90 108 99 120
Abraham Hammerschmidt Dank seiner Majestäts­beleidigung wurde Abraham Hammerschmidt ein Minister­posten angeboten. N 1 02.01.2018 Di 03.01.2018 19637 11468 31105 122 57 89 47 98 89 94 92
Pfarrkirche zum Heiligen Kreuz (Neuzelle) Die evangelische Pfarrkirche Neuzelle hat eine fahrbare Kanzel. J 1 03.01.2018 Mi 04.01.2018 13752 4616 18368 68 18 43 27 45 35 40 78
David Heinrich Garthoff Eine verirrte Kugel zerschlug die Unterlippe des Oboisten David Heinrich Garthoff und verletzte einen Komponisten tödlich. N 1 03.01.2018 Mi 04.01.2018 23666 11353 35019 117 45 81 38 102 79 91 78
Inger und Johannes Exner 20 Jahre lang restaurierten Inger und Johannes Exner die Ruine von Schloss Koldinghus. J 1 04.01.2018 Do 05.01.2018 18001 7101 25102 71 30 51 43 50 62 56 125
Yukigassen Yukigassen ist eine Schnee­ball­schlacht mit Regeln. N 1 04.01.2018 Do 05.01.2018 18317 8677 26994 73 37 55 51 77 81 79 106
Henriette Rasmussen Henriette Rasmussen war Mitbe­grün­derin der Frauen­bewe­gung Grönlands. J 1 05.01.2018 Fr 06.01.2018 8994 1696 10690 39 12 25 31 29 33 31 115
Eastern-Air-Lines-Flug 853 Eine optische Täuschung war schuld am Unfall des Eastern-Air-Lines-Flugs 853. N 1 05.01.2018 Fr 06.01.2018 36855 12983 49838 158 91 124 57 149 222 185 149
Museo Casa Anatta Das Museo Casa Anatta auf dem Monte Verità galt einst als originellstes Holzhaus der Schweiz. J 1 06.01.2018 Sa 07.01.2018 7257 4474 11731 51 30 40 59 50 72 61 143
IdleAir Schon vor 17 Jahren kamen ruhende LKW ans Stromnetz. N 1 06.01.2018 Sa 07.01.2018 13813 8565 22378 97 57 77 59 133 134 134 101
Valentin Baus Valentin Baus kämpft auch gegen „Fußgänger“. J 1 07.01.2018 So 08.01.2018 17774 14198 31972 119 84 101 71 126 123 124 97
Marmorsaal (Kaffee HAG) Im Marmorsaal von Kaffee HAG wurden Botschafter empfangen, Direktoren beköstigt und Betriebsräte gewählt. N 1 07.01.2018 So 08.01.2018 13684 16212 29896 92 96 94 105 108 113 111 105
John Fitzgerald Kennedy National Historic Site Das Geburtshaus eines früheren US-Präsidenten ist als John Fitzgerald Kennedy National Historic Site öffentlich zugänglich. J 1 08.01.2018 Mo 09.01.2018 9138 3363 12501 54 20 37 36 38 35 36 92
Gerhard Linne Der Braunschweiger Schulleiter Gerhard Linne verstand Schule als „höhere Daseinsform“. N 1 08.01.2018 Mo 09.01.2018 6223 3203 9426 37 19 28 51 32 30 31 94
Justin Townes Earle Der Musiker Justin Townes Earle verließ Chicago, weil er den falschen Leuten Geld schuldete. J 1 09.01.2018 Di 10.01.2018 17043 5330 22373 99 32 66 33 75 70 73 94
Chinesisches Deep-Space-Netzwerk Innerhalb weniger Jahre wurde das chinesische Deep-Space-Netzwerk zum zweitgrößten seiner Art ausgebaut. N 1 09.01.2018 Di 10.01.2018 14092 6923 21015 82 42 62 51 66 66 66 101
Gedenkstätte Operation Anthropoid Das Mahnmal für die Operation Anthropoid erinnert an den einzigen erfolgreichen Anschlag auf einen führenden NS-Funktionär. J 1 10.01.2018 Mi 11.01.2018 34591 17598 52189 211 107 159 51 139 204 171 147
Reinhard Baumhögger Der Immobilienunternehmer Reinhard Baumhögger kaufte sich Doktortitel einer nicht existenten Universität und einer kirgisischen Sport-Uni. N 1 10.01.2018 Mi 11.01.2018 15230 10521 25751 93 64 78 69 80 113 97 140
Boater-Cross Beim Boater-Cross kämpfen Wildwasserkanuten Kopf an Kopf. J 1 11.01.2018 Do 12.01.2018 8112 2940 11052 49 19 34 38 34 38 36 111
Dragged into Sunlight Dragged into Sunlight sieht man sich im Dunkeln von hinten an. N 1 11.01.2018 Do 12.01.2018 16222 7854 24076 99 50 74 51 105 110 107 105
Alexander Abascheli Alexander Abascheli schrieb den ersten georgischen Science-Fiction-Roman. J 1 12.01.2018 Fr 13.01.2018 7410 1231 8641 47 9 28 19 35 25 30 72
Pseudoliparis swirei Pseudoliparis swirei gilt als die am tiefsten vorkommende Fischart. N 1 12.01.2018 Fr 13.01.2018 21520 6961 28481 138 51 95 37 130 126 128 97
Gary Ablett Sr. Der Australier Gary Ablett Sr. war auch als Superman und God bekannt. J 1 13.01.2018 Sa 14.01.2018 10100 4419 14519 75 30 52 40 74 72 73 98
Food Chain Magnate Food Chain Magnate ist ein komplexes Strategiespiel, in dem jeder Spieler seine eigene Restaurantkette aufbaut. N 1 13.01.2018 Sa 14.01.2018 4799 3983 8782 35 27 31 76 49 64 56 130
Asterdorp Asterdorp war das „vergessene Ghetto“ von Amsterdam. J 1 14.01.2018 So 15.01.2018 13180 12426 25606 90 73 81 81 95 106 101 112
Herbert Sumsion Herbert Sumsion war fast vier Jahrzehnte Kathedralorganist in Gloucester. N 1 14.01.2018 So 15.01.2018 2345 2570 4915 16 15 16 94 19 18 18 94
Chen Wen Ling Chen Wen Lings hundert rote Jungen sind alle nackt. J 1 15.01.2018 Mo 16.01.2018 15926 10019 25945 93 60 77 64 65 105 85 162
Casimir Zeglen Die Erfindungen des Ordensmanns Casimir Zeglen schützten Menschen und Autoreifen. N 1 15.01.2018 Mo 16.01.2018 20140 11561 31701 118 69 93 58 101 109 105 108
Pitreavie Castle Vom schottischen Pitreavie Castle aus wurden im Zweiten Weltkrieg militärische Operationen koordiniert. J 1 16.01.2018 Di 17.01.2018 21722 6774 28496 129 41 85 32 98 90 94 92
Luodong-Waldbahn Die Luodong-Waldbahn passierte auf ihrer nur 36,4 Kilometer langen Strecke sieben Tunnel, 22 Brücken und zehn Stationen. N 1 16.01.2018 Di 17.01.2018 19392 8796 28188 115 54 85 47 93 85 89 91
Lloyd Kaffeerösterei Kaffee der heute noch bestehenden Lloyd Kaffeerösterei trank man in den 1930er-Jahren auf Luxusschiffen. J 1 17.01.2018 Mi 18.01.2018 17954 6246 24200 110 39 74 35 72 74 73 103
L.J.K. Setright L.J.K. Setright verglich Autos mit Ladys und Schlampen. N 1 17.01.2018 Mi 18.01.2018 17029 8237 25266 104 51 78 49 90 90 90 100
Gartower Tannen Wo einst ein Hüttendorf in den Gartower Tannen für Aufruhr sorgte, werden heute manchmal Wölfe gesichtet. J 1 18.01.2018 Do 19.01.2018 19209 5342 24551 120 35 77 29 84 71 77 85
Rasiermesser-Quartett Das Rasiermesser-Quartett von Joseph Haydn erhielt seinen Namen nach einem legendären Tausch. N 1 18.01.2018 Do 19.01.2018 12608 4695 17303 78 31 55 39 83 67 75 80
Schwanenpelz der Clara Schumann Der Schwanenpelz der Clara Schumann besteht vermutlich aus Gänsehaut. J 1 19.01.2018 Fr 20.01.2018 27139 6198 33337 177 46 111 26 131 129 130 98
George John Robert Gordon Der Brite George John Robert Gordon galt als Ehebrecher und nationaler Wohltäter. N 1 19.01.2018 Fr 20.01.2018 11178 3865 15043 73 29 51 40 68 70 69 103
Uperodon variegatus Manchmal wohnt der Frosch Uperodon variegatus bei Skorpionen der Art Heterometrus tristis zur Untermiete. J 2 20.01.2018 Sa 21.01.2018 6457 2490 8947 48 15 32 32 48 37 42 77
Heterometrus tristis Manchmal wohnt der Frosch Uperodon variegatus bei Skorpionen der Art Heterometrus tristis zur Untermiete. J 2 20.01.2018 Sa 21.01.2018 2044 770 2814 15 5 10 31 15 11 13 75
Esti Freud Obwohl sie kein Geld dafür bekam, baute Esti Freud eine eigene Sprachklinik auf. N 1 20.01.2018 Sa 21.01.2018 4009 2472 6481 30 15 23 51 41 36 38 86
United States National Tick Collection Mehr als eine Million Zecken machen die United States National Tick Collection zur wahrscheinlich größten Sammlung ihrer Art. J 1 21.01.2018 So 22.01.2018 6741 7640 14381 41 39 40 94 44 57 50 129
Pierre Maurel (Unternehmer) Der Krösus der Provence zeugte 18 Kinder. N 1 21.01.2018 So 22.01.2018 14637 21084 35721 90 107 99 120 106 127 116 120
Academia Petrina Vier Präsidenten dreier Staaten gingen in der Academia Petrina zur Schule. J 1 22.01.2018 Mo 23.01.2018 18157 5743 23900 92 36 64 39 65 64 64 99
Hanni Lévy Blond gefärbt konnte Hanni Weißenberg inmitten von Berlin die NS-Zeit überleben. N 1 22.01.2018 Mo 23.01.2018 39360 19281 58641 200 121 161 60 172 192 182 112
Melanbogenbrücke Obwohl die Melanbogenbrücke unter Denkmal­schutz steht, soll sie abge­rissen werden. J 1 23.01.2018 Di 24.01.2018 33872 15721 49593 213 99 156 47 161 215 188 134
Pierre Brassau Der französische Künstler Pierre Brassau ver­brachte Jahre seines Lebens in einem schwe­dischen Zoo. N 1 23.01.2018 Di 24.01.2018 10915 6470 17385 69 41 55 60 55 64 60 117
Ahmose Henuttamehu Noch 3000 Jahre nach ihrem Tod konnte bei Königin Ahmose Henuttamehu Karies festgestellt werden. J 1 24.01.2018 Mi 25.01.2018 27978 7670 35648 177 49 113 28 116 93 105 80
Phantasiehafen Eine eifersüchtige Ratte ist eine der Hauptfiguren im Phantasiehafen. N 1 24.01.2018 Mi 25.01.2018 9204 4165 13369 58 26 42 46 50 47 49 93
Fugaku-Fuketsu Die Fugaku-Fuketsu ist auch im Sommer vereist. J 1 25.01.2018 Do 26.01.2018 36203 11317 47520 230 74 152 32 161 151 156 94
Akademischer Stammbaum Ein akademischer Stammbaum zeigt die wissenschaftlichen Vor- und Nachfahren eines Forschers. N 1 25.01.2018 Do 26.01.2018 10209 5249 15458 65 34 50 53 69 75 72 109
Dekopon Die Dekopon wurde 1998 aus Japan in die USA geschmuggelt. J 1 26.01.2018 Fr 27.01.2018 40458 7417 47875 264 57 161 21 197 159 178 81
Lea Deutsch Lea Deutsch galt als „Wunderkind“ und „Shirley Temple von Zagreb“. N 1 26.01.2018 Fr 27.01.2018 22778 4845 27623 149 37 93 25 140 91 115 65
Hollandsche Schouwburg Das Theater Hollandsche Schouwburg war ein „Durch­gangs­lager zum Tod“. J 1 27.01.2018 Sa 28.01.2018 8931 5805 14736 68 41 55 60 68 98 83 145
Roswell McClelland Im Auftrag der Quäker und der US-Regierung half Roswell McClelland ver­folg­ten Juden in Europa. N 1 27.01.2018 Sa 28.01.2018 3227 2964 6191 25 21 23 84 34 49 41 143
Helena Štáchová Helena Štáchová zog in 30 Ländern ihre Strippen. J 1 28.01.2018 So 29.01.2018 12620 14831 27451 89 90 89 101 94 131 112 139
Brinner Beim Brinner werden Donuts im Speck­mantel serviert. N 1 28.01.2018 So 29.01.2018 7195 11294 18489 51 68 59 135 60 80 70 135
Einschienenbahnen in Zentraljava Die Wagen der Einschienenbahnen in Zentraljava wurden durch die Schwerkraft oder von Hand bewegt. J 1 29.01.2018 Mo 30.01.2018 26175 7566 33741 158 47 103 30 110 83 97 75
Guðlaugur Friðþórsson Guðlaugur Friðþórsson überlebte dank einer körperlichen Besonderheit und mentaler Stärke stundenlanges Schwimmen im eiskalten Atlantik. N 1 29.01.2018 Mo 30.01.2018 35450 15503 50953 214 96 155 45 184 153 168 83
Bazilije Pandžić Ein historisch-kritisches Positions­papier des Archivars Bazilije Pandžić von 1961 führte zur Heilig­sprechung eines Franzis­kaners. J 1 30.01.2018 Di 31.01.2018 8962 2146 11108 56 13 35 24 42 29 36 69
Karl Allmenröder (Richter) Karl Allmenröder hielt die erste belegte Sitzung eines deutschen Jugend­gerichts ab. N 1 30.01.2018 Di 31.01.2018 7557 4407 11964 47 27 37 58 38 43 40 115
Minarett von Vobkent Das usbekische Minarett von Vobkent ist Welterbe-Kandidat. J 1 31.01.2018 Mi 01.02.2018 16704 6076 22780 104 39 72 38 69 75 72 109
František Alexander Elstner Auf seiner 17.600 Kilo­meter langen Fahrt im Jahre 1934 wurde František Alexander Elstner von drei Damen­teams begleitet. N 1 31.01.2018 Mi 01.02.2018 18184 10235 28419 113 66 90 58 98 116 107 118
Agnes Randolph Mit Taschentüchern säuberten der Legende nach Black Agnes und ihre Ladys bei einer Belagerung die Burgzinnen von Pulverstaub. J 1 01.02.2018 Do 02.02.2018 34343 9337 43680 221 62 141 28 154 126 140 82
Zombiefirma Niedrige Zinsen fördern das Fortbestehen von Zombiefirmen. N 1 01.02.2018 Do 02.02.2018 24853 10767 35620 160 71 116 45 170 156 163 92
Amsterdam Machsor Der Amsterdam Machsor wandert künftig zwischen Amster­dam und Köln hin und her. J 1 02.02.2018 Fr 03.02.2018 15418 4925 20343 102 36 69 35 76 101 89 133
Jean-Pierre François Jean-Pierre François stürmte nicht nur auf dem Fußball­feld, sondern auch die französischen Charts. N 1 02.02.2018 Fr 03.02.2018 6594 2338 8932 44 17 30 39 41 42 42 102
Zementfabrik Lägern Die Zementfabrik Lägern wurde nach nur 15 Jahren dem Erdboden gleichgemacht. J 1 03.02.2018 Sa 04.02.2018 18057 8929 26986 133 64 98 48 131 153 142 117
Karl Friedrich von Jenisch Napoleon Bonaparte forderte Karl Friedrich von Jenischs Tod, aber der bayerische König rettete ihn. N 1 03.02.2018 Sa 04.02.2018 11075 6389 17464 81 46 64 56 112 107 110 95
(276033) 2002 AJ129 So nah wie gestern wird der Asteroid 2002 AJ129 der Erde erst 2087 wieder kommen. J 1 04.02.2018 So 05.02.2018 11594 10631 22225 83 66 74 79 88 96 92 109
Eugen Adelsmayr 2005 zog Eugen Adelsmayr aus, um als Arzt in den Vereinigten Arabischen Emiraten zu arbeiten – vier Jahre später bangte er um sein Leben. N 1 04.02.2018 So 05.02.2018 14916 20277 35193 107 125 116 117 126 148 137 117
Rosa Sucher Rosa Sucher war die erste Isolde Bayreuths. J 1 05.02.2018 Mo 06.02.2018 12366 3182 15548 76 20 48 27 53 36 45 67
Schwer-in-Ordnung-Ausweis Schwer in Ordnung“ kann man nicht nur in Hamburg sein. N 1 05.02.2018 Mo 06.02.2018 23924 12936 36860 148 82 115 56 127 131 129 103
Manolache Costache Epureanu Manolache Costache Epureanu war Minister­präsident dreier Fürstentümer. J 1 06.02.2018 Di 07.02.2018 14200 3784 17984 90 25 57 27 68 53 61 78
Kopuline Ob weibliche Kopuline Männer sexuell erregen, ist umstritten. N 1 06.02.2018 Di 07.02.2018 45818 22655 68473 292 147 220 51 234 232 233 99
Bahnstrecke León–Gijón Wer die Gebirgsstrecke der Asturien-Bahn noch einmal befahren will, sollte sich beeilen. J 1 07.02.2018 Mi 08.02.2018 37688 10364 48052 245 69 157 28 161 131 146 81
Hermann Hammerschmidt Hermann Hammerschmidt und Georg Schlesinger kümmerten sich bis zu ihrer Ermordung um die Cottbuser Juden. N 2 07.02.2018 Mi 08.02.2018 12879 6150 19029 84 41 62 49 73 72 72 99
Georg Schlesinger (Kaufmann) Hermann Hammerschmidt und Georg Schlesinger kümmerten sich bis zu ihrer Ermordung um die Cottbuser Juden. N 2 07.02.2018 Mi 08.02.2018 9310 4486 13796 61 30 45 49 53 52 52 100
Han Slawik Der als Pionier der Container-Architektur geltende Han Slawik entwarf 1986 das erste Stahlcontainer-Haus. J 1 08.02.2018 Do 09.02.2018 12539 3742 16281 83 26 54 31 58 52 55 90
Brian Lara Cricket Academy Der Bau der Brian Lara Cricket Academy auf Trinidad war von zahlreichen Skandalen begleitet. N 1 08.02.2018 Do 09.02.2018 8756 3461 12217 58 24 41 41 62 52 57 84
Anderson Abbott Lincolns Freund Anderson Abbott war der erste Afro­kanadier mit einem Medizin­abschluss. J 1 09.02.2018 Fr 10.02.2018 20207 2460 22667 138 19 79 14 103 53 78 52
The Lady of the Lake (Scott) The Lady of the Lake stand Patin für ein Lied von Schubert, eine Oper von Rossini und die Präsidenten­hymne der USA. N 1 09.02.2018 Fr 10.02.2018 8819 2826 11645 60 22 41 36 57 53 55 94
Domarring von Slaka Der Domarring von Slaka ist einer der größten Steinkreise Schwedens. J 1 10.02.2018 Sa 11.02.2018 6884 3994 10878 53 29 41 54 52 69 61 132
Amir Roughani Amir Roughani kam als Minderjähriger nach Deutschland und wurde später „Aufsteiger des Jahres“. N 1 10.02.2018 Sa 11.02.2018 7845 5424 13269 60 39 50 65 83 92 88 110
Maurice Gleize Der französische Drucker und Widerstands­kämpfer Maurice Gleize initiierte ein Mahnmal für das KZ-Außen­lager Laagberg, in dem er Häftling gewesen war. J 1 11.02.2018 So 12.02.2018 4354 3731 8085 31 24 28 75 33 35 34 103
Edith Raymond Locke Die Wienerin Edie Locke leitete in den 1970er Jahren die US-amerikanische Frauenzeitschrift Mademoiselle. N 1 11.02.2018 So 12.02.2018 2848 3378 6226 21 21 21 104 24 25 25 104
Historischer Festzug von 1880 Für den historischen Festzug zur Domvollendung benötigten die Kölner Bürger Hilfe aus Düsseldorf. J 1 12.02.2018 Mo 13.02.2018 16340 8020 24360 104 52 78 50 72 92 82 128
Neue Deutsche Wochenschau Die erste Ausgabe der Neuen Deutschen Wochenschau widmete sich unter anderem der Wahl einer Grapefruit-Königin in Kalifornien. N 1 12.02.2018 Mo 13.02.2018 7631 5137 12768 48 33 41 69 42 53 47 128
Colorado Street Bridge (Kalifornien) Öffentliche Proteste verhin­derten 1951 den Abriss der 38 Jahre alten Colorado Street Bridge. J 1 13.02.2018 Di 14.02.2018 22416 6701 29117 146 44 95 30 110 95 103 86
Adrián Solano Ohne jemals auf Schnee gelaufen zu sein, nahm Adrián Solano 2017 an der Nordischen Ski-WM teil. N 1 13.02.2018 Di 14.02.2018 18364 10671 29035 120 70 95 58 96 110 103 114
Michailowski-Theater Bis zur Russischen Revolution war das Michailowski-Theater ein Haus der französischen Kultur. J 1 14.02.2018 Mi 15.02.2018 3812 1176 4988 25 8 16 31 16 15 15 88
Dreieckstheorie der Liebe Nach der Dreieckstheorie gibt es acht ver­schiedene Formen der Liebe. N 1 14.02.2018 Mi 15.02.2018 26967 14185 41152 176 92 134 52 153 162 157 106
Meerglas Aufgrund strengerer Umwelt­schutz­vorschriften ist Meerglas zunehmend schwerer zu finden. J 1 15.02.2018 Do 16.02.2018 39780 12794 52574 258 87 172 34 180 177 178 98
Shiva Keshavan Shiva Keshavan ist nicht nur der schnellste Mann Indiens, sondern auch sechs­facher Olympionike. N 1 15.02.2018 Do 16.02.2018 10555 5182 15737 68 35 52 51 73 77 75 106
CBBS Vor 40 Jahren nahm CBBS als erste Mailbox der Welt ihren Betrieb auf. J 1 16.02.2018 Fr 17.02.2018 13934 4432 18366 94 34 64 36 70 96 83 137
Irisch-osttimoresische Beziehungen Irland war ein wichtiger Verbündeter Osttimors beim Streben nach der Unabhängigkeit. N 1 16.02.2018 Fr 17.02.2018 7738 3825 11563 52 30 41 57 49 73 61 147
Fußsack Ohne Fußsack gingen manche Leute früher weder zur Kirche noch auf Reisen. J 1 17.02.2018 Sa 18.02.2018 21895 8929 30824 170 66 118 39 168 158 163 94
Sarkophag des Laris Pulenas Etruskische Inschriften auf dem Sarkophag des Laris Pulenas lassen Rückschlüsse auf seine Vorfahren zu. N 1 17.02.2018 Sa 18.02.2018 7944 4344 12288 62 32 47 52 85 75 80 88
Elsa von Blumen Elsa von Blumen bestritt Rennen gegen Frauen und Männer sowie gegen ein Pferd. J 1 18.02.2018 So 19.02.2018 14219 15525 29744 105 98 101 93 111 143 127 128
Euthanasia Coaster Mit dem Euthanasia Coaster fährt man nur einmal im Leben. N 1 18.02.2018 So 19.02.2018 23501 28146 51647 173 177 175 102 204 209 207 102
Schillerdenkmal (Dresden) Sein 1914 in Dresden eingeweihtes Denkmal wird von den Einheimischen noch heute als „Schiller in der Badewanne“ bezeichnet. J 1 19.02.2018 Mo 20.02.2018 12881 8032 20913 81 52 67 64 57 92 74 162
Systemmäßiger Adel Systemmäßiger Adel konnte einen Offizier auf dem Dienstweg veredeln. N 1 19.02.2018 Mo 20.02.2018 23834 11918 35752 150 77 114 51 129 123 126 95
Anita Hill Über 30 Jahre nach ihrem „#MeToo“-Er­lebnis soll Anita Hill sexuelle Belästi­gungen in der US-amerika­nischen Unter­haltungs­industrie aufklären. J 1 20.02.2018 Di 21.02.2018 15612 7826 23438 101 51 76 51 76 111 94 145
Wilhelm Letonja Wilhelm Letonja war zunächst überzeugter Nazi und desertierte später aus religiösen Gründen von der Wehrmacht. N 1 20.02.2018 Di 21.02.2018 26218 14559 40777 170 95 133 56 136 150 143 110
Wolfenbütteler Psalter Der 1513 gedruckte Wolfenbütteler Psalter wurde von Martin Luther hand­schrift­lich kommen­tiert. J 1 21.02.2018 Mi 22.02.2018 7336 2184 9520 48 14 31 30 32 28 30 87
Schienenverkehr in Niger Um den Schienenverkehr in Niger vorzubereiten, weihten drei Staats­chefs eine 500 Meter lange Strecke ein. N 1 21.02.2018 Mi 22.02.2018 15788 9420 25208 103 62 83 60 90 110 100 123
Steinway Trail Die Infotafeln des Steinway Trails sehen aus wie Flügel. J 1 22.02.2018 Do 23.02.2018 12490 3629 16119 83 25 54 30 58 51 54 88
Overather Kartoffelkrieg Im Overather Kartoffelkrieg kämpften hungernde Kölner gegen bergische Bauern. N 1 22.02.2018 Do 23.02.2018 22811 8234 31045 151 56 104 37 160 123 142 77
Erinnerungsblätter deutscher Regimenter Familienforscher lesen in den Erinnerungsblättern deutscher Regimenter über ihre Vorfahren im Ersten Weltkrieg. J 1 23.02.2018 Fr 24.02.2018 15182 4868 20050 104 39 71 37 77 108 93 139
Nechisar-Nachtschwalbe Die Nechisar-Nachtschwalbe ist ihrem wissenschaftlichen Namen nach solala. N 1 23.02.2018 Fr 24.02.2018 7134 2582 9716 49 20 35 42 46 50 48 108
Coate Water Diving Platform Die denkmalgeschützte Coate Water Diving Platform wird heute nur noch von Vögeln genutzt. J 1 24.02.2018 Sa 25.02.2018 24086 5938 30024 191 43 117 23 188 103 146 55
Refik Veseli Der albanische Muslim Refik Veseli wurde als Gerechter unter den Völkern ausgezeichnet. N 1 24.02.2018 Sa 25.02.2018 6048 3796 9844 48 27 38 57 66 64 65 98
1-Billion-Mark-Stück (Provinz Westfalen) Das 1-Billion-Mark-Stück konnte erst ausgegeben werden, als es ungültig war. J 1 25.02.2018 So 26.02.2018 22419 24611 47030 162 152 157 94 172 222 197 129
John Carpenter (Spielshow-Kandidat) John Carpenter wurde dank seines Wissens über Richard Nixon zum Millionär. N 1 25.02.2018 So 26.02.2018 16020 19594 35614 116 121 118 104 137 143 140 104
Goethe-Hafis-Denkmal Das Goethe-Hafis-Denkmal wirbt für den Dialog zwischen Orient und Okzident. J 1 26.02.2018 Mo 27.02.2018 7408 3806 11214 46 24 35 53 32 43 38 135
Kyle Abraham Kyle Abraham choreografiert Gewalt in schwarzen Ghettos zur Musik von Bach und Vivaldi. N 1 26.02.2018 Mo 27.02.2018 3829 3107 6936 24 20 22 84 20 32 26 156
Juan Zanelli Der chilenische Automobilrennfahrer Juan Zanelli starb bei einem Feuer­gefecht mit der Gestapo. J 1 27.02.2018 Di 28.02.2018 46630 10762 57392 299 70 184 24 225 152 189 68
Fahnenstangenwasser Das Fahnenstangenwasser existierte bereits vor dem „Universum“. N 1 27.02.2018 Di 28.02.2018 35563 16023 51586 228 105 166 46 183 165 174 90
Jakobikirche (Freiberg) Die Jakobikirche Freiberg vereint Neugotik, Renaissance, Manierismus und Barock. J 1 28.02.2018 Mi 01.03.2018 5864 2847 8711 38 19 29 50 25 36 31 144
Vorarlberger Volkserhebung 1809 Bei der Volkserhebung gegen die Bayern kämpften Vorarl­berger gegen Württem­berger und Franzosen. N 1 28.02.2018 Mi 01.03.2018 11446 6943 18389 75 46 61 62 65 82 73 126
Löwenwald-Garten Künstliche Felsen gaben dem Löwenwald-Garten seinen Namen. J 1 01.03.2018 Do 02.03.2018 10184 3361 13545 68 23 46 34 48 47 48 100
Stadtbrand von Einbeck Der Stadtbrand von Einbeck wurde angeb­lich von einem stra­fenden Blitz Gottes verursacht. N 1 01.03.2018 Do 02.03.2018 15871 8064 23935 106 56 81 53 113 122 117 108
Emy Gordon Emy Gordon war die erste Frau, die auf einem Katholikentag Rederecht erhielt. J 1 02.03.2018 Fr 03.03.2018 10312 2416 12728 71 19 45 27 53 53 53 100
Bears Ears National Monument Das Bears Ears National Monument war Präsident Donald Trump zu groß. N 1 02.03.2018 Fr 03.03.2018 24103 7648 31751 167 60 114 36 157 147 152 94
Hochrheinschifffahrt Die Hochrheinschifffahrt bot Laufenknechten und Karrern eine erträgliche Einnahmequelle. J 1 03.03.2018 Sa 04.03.2018 9580 5455 15035 76 40 58 54 75 97 86 130
Stadtarchiv Bautzen Das älteste Dokument im Stadtarchiv Bautzen stammt aus dem Jahr 1256. N 1 03.03.2018 Sa 04.03.2018 2650 1785 4435 21 13 17 63 29 31 30 108
Fritz Gabriel Bauer Fritz Gabriel Bauer wurde dreimal mit dem Oscar für Wissenschaft und Entwicklung ausgezeichnet. J 1 04.03.2018 So 05.03.2018 4983 5265 10248 37 33 35 90 39 49 44 124
Friedrichfranz Stampe Als Intendant im Generalgouvernement sollte Friedrichfranz Stampe die vermeintliche Überlegenheit deutscher Kultur darstellen. N 1 04.03.2018 So 05.03.2018 5549 7555 13104 41 48 45 116 49 57 53 116
Deze kleine wereld Deze kleine wereld bekam 1973 einen Oscar in normaler Größe. J 1 05.03.2018 Mo 06.03.2018 21220 7408 28628 135 49 92 36 94 87 90 92
The Beatles (DDR-Album) The Beatles gab es nur in der DDR. N 1 05.03.2018 Mo 06.03.2018 44494 20253 64747 282 134 208 47 242 213 228 88
Bárður Oskarsson Der Färinger Bárður Oskarsson zeichnet verant­wortlich für Das platte Kaninchen. J 1 06.03.2018 Di 07.03.2018 18142 4669 22811 120 31 75 26 91 67 79 74
Hellmut Froböß Hellmut Froböß stieg nach drei Monaten vom Polizeidirektor zum -präsidenten der Danziger Polizei auf. N 1 06.03.2018 Di 07.03.2018 19178 8599 27777 127 57 92 45 102 90 96 88
Maria Matilda Ogilvie Gordon Der schottischen Suffragette Maria Gordon wurde ein Studium an der Berliner Universität verweigert. J 1 07.03.2018 Mi 08.03.2018 18804 6628 25432 125 45 85 36 82 85 84 104
Luisa ist hier! Luisa ist hier! N 1 07.03.2018 Mi 08.03.2018 33204 15567 48771 220 105 162 48 191 185 188 97
Gloria Allred Die Rechtsanwältin Gloria Allred tritt für Frauen­rechte auch vor dem Gerichts­gebäude auf. J 1 08.03.2018 Do 09.03.2018 7799 2964 10763 53 21 37 40 37 42 39 115
Gleichstellungsindex Im europäischen Gleichstellungsindex hat bisher noch kein Land die volle Punktzahl erreicht. N 1 08.03.2018 Do 09.03.2018 10062 5977 16039 68 42 55 62 72 92 82 127
Marrawah Tramway Ein Teil der Marrawah Tramway hatte hölzerne Schienen. J 1 09.03.2018 Fr 10.03.2018 25558 3640 29198 179 29 104 16 133 81 107 61
Josef Wimmer (Herzpatient) Ab 1983 schlugen zwei Herzen in Josef Wimmers Brust. N 1 09.03.2018 Fr 10.03.2018 24742 6360 31102 173 51 112 29 163 124 144 76
St. Peter und Paul (Delitzsch) Für die Delitzscher Stadtkirche St. Peter und Paul war einst eine Umnutzung zur Großgarage im Gespräch. J 1 10.03.2018 Sa 11.03.2018 7955 3000 10955 64 22 43 34 63 52 57 83
Denise Coates Denise Coates verdiente mit Sportwetten mehrere Milliarden Pfund Sterling. N 1 10.03.2018 Sa 11.03.2018 10722 7186 17908 86 52 69 61 118 122 120 104
Baikal-Museum Im Baikal-Museum können Besucher virtuell untertauchen. J 1 11.03.2018 So 12.03.2018 8258 7901 16159 60 49 55 82 63 72 68 113
Eva Szepesi Eva Szepesi überlebte als eine von nur rund 400 „child survivors“ eine Woche lang ohne Essen und Trinken im geräumten KZ Auschwitz-Birkenau. N 1 11.03.2018 So 12.03.2018 15571 18870 34441 113 118 115 104 133 139 136 104
Subscriptio (Diplomatik) Statt einer Unterschrift reichte auch ein Kreuzchen in der Subscriptio. J 1 12.03.2018 Mo 13.03.2018 18263 6231 24494 114 37 75 32 80 65 72 82
Pickersgill Harbour James Cook ging 1773 in Pickersgill Harbour vor Anker. N 1 12.03.2018 Mo 13.03.2018 11929 6359 18288 74 38 56 50 64 60 62 93
Unimog 425 Sein Getriebe hat zwar keinen Rückwärts­gang, dennoch kann der Unimog 425 rückwärts fast genauso schnell fahren wie vorwärts. J 1 13.03.2018 Di 14.03.2018 44684 15752 60436 264 101 182 38 199 218 209 110
Carola Williams Dank Carola Williams wurde der Bock zum Maskottchen. N 1 13.03.2018 Di 14.03.2018 14780 7270 22050 87 46 67 53 70 73 72 104
Muttergottesberg Nach Nutzung als Arbeits­lager präsen­tiert sich das Kloster auf dem Mutter­gottes­berg wieder in alter Pracht. J 1 14.03.2018 Mi 15.03.2018 16997 5488 22485 109 35 72 32 71 66 69 93
Henry Stanley, 3. Baron Stanley of Alderley Henry Stanley, 3. Baron Stanley of Alderley, war der erste Muslim im House of Lords und heiratete viermal dieselbe Frau. N 1 14.03.2018 Mi 15.03.2018 21206 10668 31874 136 67 102 50 118 119 118 101
Neunzehneck Ein regelmäßiges Neunzehneck ist nicht mit Zirkel und Lineal konstruierbar. J 1 15.03.2018 Do 16.03.2018 37478 15414 52892 237 95 166 40 165 193 179 116
Abounaddara Abounaddara gibt den namen­losen Opfern des Bürger­kriegs in Syrien eine eigene Stimme. N 1 15.03.2018 Do 16.03.2018 6497 3419 9916 41 21 31 51 44 46 45 105
Soo Yeon Lee Soo Yeon Lee verbindet ihre Tischtennisfähigkeiten mit ihrer Modelkarriere. J 1 16.03.2018 Fr 17.03.2018 44067 9843 53910 270 75 173 28 201 211 206 105
Religionsedikt vom 9. Juli 1788 Das Religionsedikt vom 9. Juli 1788 beendete die staatliche Toleranzpolitik in Preußen. N 1 16.03.2018 Fr 17.03.2018 11280 3643 14923 69 28 49 40 65 68 67 105
Historisches Zentrum von Agadez Das historische Zentrum von Agadez ist UNESCO-Weltkulturerbe. J 1 17.03.2018 Sa 18.03.2018 6939 3009 9948 53 21 37 40 53 51 52 98
Judy Feld Carr Judy Feld Carr ermöglichte 3000 Juden die Flucht aus Syrien. N 1 17.03.2018 Sa 18.03.2018 7808 5385 13193 60 38 49 64 82 90 86 109
Seba Johnson Seba Johnson war nicht nur die erste afroamerikanische, sondern auch die jüngste Skirennläuferin der Olympiageschichte. J 1 18.03.2018 So 19.03.2018 17275 12592 29867 123 75 99 61 131 109 120 84
Sammelschiffchen Nur 32 Zentimeter lange Schiffchen dienen der Rettung Schiffbrüchiger. N 1 18.03.2018 So 19.03.2018 19644 25203 44847 140 150 145 107 165 177 171 107
Proteste gegen den Bau des Kernkraftwerks Grohnde Bei den